<?xml version="1.0" encoding="UTF-8" standalone="no" ?>
<gpx xmlns="http://www.topografix.com/GPX/1/1" xmlns:xsi="http://www.w3.org/2001/XMLSchema-instance" xsi:schemaLocation="http://www.topografix.com/GPX/1/1 http://www.topografix.com/GPX/1/1/gpx.xsd" version="1.1" creator="VisuGPX - https://www.visugpx.com">
  <metadata>
    <name>Gravel Strasbourg Nord - Rhin</name>
    <desc><![CDATA[Jolie sortie plate en bord de Rhin
Majorité de chemins ]]></desc>
  </metadata>
  <trk>
    <name><![CDATA[Gravel avec PY - 30°C]]></name>
    <trkseg>
      <trkpt lat="48.67492" lon="7.86132">
        <ele>131.073158</ele>
        <time>2021-06-20T06:01:17.000Z</time>
      </trkpt>
      <trkpt lat="48.67501" lon="7.86141">
        <ele>131.073158</ele>
        <time>2021-06-20T06:01:21.000Z</time>
      </trkpt>
      <trkpt lat="48.67507" lon="7.86155">
        <ele>131.073158</ele>
        <time>2021-06-20T06:01:24.000Z</time>
      </trkpt>
      <trkpt lat="48.6751" lon="7.86169">
        <ele>131.073158</ele>
        <time>2021-06-20T06:01:26.000Z</time>
      </trkpt>
      <trkpt lat="48.67513" lon="7.86188">
        <ele>131.073158</ele>
        <time>2021-06-20T06:01:29.000Z</time>
      </trkpt>
      <trkpt lat="48.67516" lon="7.86208">
        <ele>131.073158</ele>
        <time>2021-06-20T06:01:32.000Z</time>
      </trkpt>
      <trkpt lat="48.67519" lon="7.86223">
        <ele>131.073158</ele>
        <time>2021-06-20T06:01:34.000Z</time>
      </trkpt>
      <trkpt lat="48.67521" lon="7.86237">
        <ele>131.073158</ele>
        <time>2021-06-20T06:01:36.000Z</time>
      </trkpt>
      <trkpt lat="48.67524" lon="7.86251">
        <ele>131.073158</ele>
        <time>2021-06-20T06:01:38.000Z</time>
      </trkpt>
      <trkpt lat="48.67526" lon="7.86266">
        <ele>131.078314</ele>
        <time>2021-06-20T06:01:40.000Z</time>
      </trkpt>
      <trkpt lat="48.67532" lon="7.86278">
        <ele>131.084631</ele>
        <time>2021-06-20T06:01:42.000Z</time>
      </trkpt>
      <trkpt lat="48.67543" lon="7.86274">
        <ele>131.091935</ele>
        <time>2021-06-20T06:01:44.000Z</time>
      </trkpt>
      <trkpt lat="48.67553" lon="7.86278">
        <ele>131.098766</ele>
        <time>2021-06-20T06:01:46.000Z</time>
      </trkpt>
      <trkpt lat="48.67562" lon="7.86286">
        <ele>131.10592</ele>
        <time>2021-06-20T06:01:48.000Z</time>
      </trkpt>
      <trkpt lat="48.67572" lon="7.86293">
        <ele>131.112689</ele>
        <time>2021-06-20T06:01:50.000Z</time>
      </trkpt>
      <trkpt lat="48.67582" lon="7.863">
        <ele>131.119969</ele>
        <time>2021-06-20T06:01:53.000Z</time>
      </trkpt>
      <trkpt lat="48.6759" lon="7.86293">
        <ele>131.126452</ele>
        <time>2021-06-20T06:01:55.000Z</time>
      </trkpt>
      <trkpt lat="48.67598" lon="7.86282">
        <ele>131.133433</ele>
        <time>2021-06-20T06:01:57.000Z</time>
      </trkpt>
      <trkpt lat="48.67606" lon="7.86271">
        <ele>131.140487</ele>
        <time>2021-06-20T06:01:59.000Z</time>
      </trkpt>
      <trkpt lat="48.67615" lon="7.86261">
        <ele>131.148016</ele>
        <time>2021-06-20T06:02:01.000Z</time>
      </trkpt>
      <trkpt lat="48.67625" lon="7.8625">
        <ele>131.155646</ele>
        <time>2021-06-20T06:02:03.000Z</time>
      </trkpt>
      <trkpt lat="48.67634" lon="7.86242">
        <ele>131.163027</ele>
        <time>2021-06-20T06:02:05.000Z</time>
      </trkpt>
      <trkpt lat="48.67644" lon="7.86232">
        <ele>131.170741</ele>
        <time>2021-06-20T06:02:07.000Z</time>
      </trkpt>
      <trkpt lat="48.67655" lon="7.86224">
        <ele>131.178436</ele>
        <time>2021-06-20T06:02:09.000Z</time>
      </trkpt>
      <trkpt lat="48.67664" lon="7.86213">
        <ele>131.185962</ele>
        <time>2021-06-20T06:02:11.000Z</time>
      </trkpt>
      <trkpt lat="48.67672" lon="7.86202">
        <ele>131.19025</ele>
        <time>2021-06-20T06:02:13.000Z</time>
      </trkpt>
      <trkpt lat="48.6768" lon="7.86192">
        <ele>131.187987</ele>
        <time>2021-06-20T06:02:15.000Z</time>
      </trkpt>
      <trkpt lat="48.67686" lon="7.86183">
        <ele>131.185882</ele>
        <time>2021-06-20T06:02:17.001Z</time>
      </trkpt>
      <trkpt lat="48.67696" lon="7.86174">
        <ele>131.183266</ele>
        <time>2021-06-20T06:02:20.001Z</time>
      </trkpt>
      <trkpt lat="48.67705" lon="7.86189">
        <ele>131.180282</ele>
        <time>2021-06-20T06:02:23.001Z</time>
      </trkpt>
      <trkpt lat="48.67712" lon="7.86199">
        <ele>131.178049</ele>
        <time>2021-06-20T06:02:25.001Z</time>
      </trkpt>
      <trkpt lat="48.67719" lon="7.86208">
        <ele>131.175814</ele>
        <time>2021-06-20T06:02:27.001Z</time>
      </trkpt>
      <trkpt lat="48.67728" lon="7.86218">
        <ele>131.173341</ele>
        <time>2021-06-20T06:02:29.001Z</time>
      </trkpt>
      <trkpt lat="48.67735" lon="7.86229">
        <ele>131.171063</ele>
        <time>2021-06-20T06:02:31.001Z</time>
      </trkpt>
      <trkpt lat="48.67739" lon="7.86244">
        <ele>131.168572</ele>
        <time>2021-06-20T06:02:33.001Z</time>
      </trkpt>
      <trkpt lat="48.67742" lon="7.86259">
        <ele>131.16617</ele>
        <time>2021-06-20T06:02:35.001Z</time>
      </trkpt>
      <trkpt lat="48.67745" lon="7.86276">
        <ele>131.163467</ele>
        <time>2021-06-20T06:02:37.001Z</time>
      </trkpt>
      <trkpt lat="48.67749" lon="7.86293">
        <ele>131.160639</ele>
        <time>2021-06-20T06:02:39.001Z</time>
      </trkpt>
      <trkpt lat="48.67755" lon="7.86309">
        <ele>131.158013</ele>
        <time>2021-06-20T06:02:41.001Z</time>
      </trkpt>
      <trkpt lat="48.6776" lon="7.86324">
        <ele>131.155327</ele>
        <time>2021-06-20T06:02:43.000Z</time>
      </trkpt>
      <trkpt lat="48.67765" lon="7.86339">
        <ele>131.15273</ele>
        <time>2021-06-20T06:02:45.000Z</time>
      </trkpt>
      <trkpt lat="48.6777" lon="7.86356">
        <ele>131.150011</ele>
        <time>2021-06-20T06:02:47.000Z</time>
      </trkpt>
      <trkpt lat="48.67775" lon="7.86371">
        <ele>131.131472</ele>
        <time>2021-06-20T06:02:49.000Z</time>
      </trkpt>
      <trkpt lat="48.67779" lon="7.86387">
        <ele>131.11065</ele>
        <time>2021-06-20T06:02:51.000Z</time>
      </trkpt>
      <trkpt lat="48.67781" lon="7.86403">
        <ele>131.090474</ele>
        <time>2021-06-20T06:02:53.000Z</time>
      </trkpt>
      <trkpt lat="48.67784" lon="7.8642">
        <ele>131.068917</ele>
        <time>2021-06-20T06:02:55.000Z</time>
      </trkpt>
      <trkpt lat="48.67786" lon="7.86437">
        <ele>131.046995</ele>
        <time>2021-06-20T06:02:57.000Z</time>
      </trkpt>
      <trkpt lat="48.67788" lon="7.86454">
        <ele>131.02526</ele>
        <time>2021-06-20T06:02:59.000Z</time>
      </trkpt>
      <trkpt lat="48.6779" lon="7.86472">
        <ele>131.001834</ele>
        <time>2021-06-20T06:03:01.000Z</time>
      </trkpt>
      <trkpt lat="48.67795" lon="7.8649">
        <ele>130.977973</ele>
        <time>2021-06-20T06:03:03.000Z</time>
      </trkpt>
      <trkpt lat="48.678" lon="7.86508">
        <ele>130.95402</ele>
        <time>2021-06-20T06:03:05.000Z</time>
      </trkpt>
      <trkpt lat="48.67806" lon="7.86524">
        <ele>130.930494</ele>
        <time>2021-06-20T06:03:07.000Z</time>
      </trkpt>
      <trkpt lat="48.67813" lon="7.8654">
        <ele>130.906976</ele>
        <time>2021-06-20T06:03:09.000Z</time>
      </trkpt>
      <trkpt lat="48.6782" lon="7.86555">
        <ele>130.883967</ele>
        <time>2021-06-20T06:03:11.000Z</time>
      </trkpt>
      <trkpt lat="48.67825" lon="7.86571">
        <ele>130.86206</ele>
        <time>2021-06-20T06:03:13.000Z</time>
      </trkpt>
      <trkpt lat="48.67832" lon="7.86586">
        <ele>130.839469</ele>
        <time>2021-06-20T06:03:15.000Z</time>
      </trkpt>
      <trkpt lat="48.67838" lon="7.866">
        <ele>130.818032</ele>
        <time>2021-06-20T06:03:17.000Z</time>
      </trkpt>
      <trkpt lat="48.67846" lon="7.86614">
        <ele>130.823385</ele>
        <time>2021-06-20T06:03:19.000Z</time>
      </trkpt>
      <trkpt lat="48.67851" lon="7.8663">
        <ele>130.845278</ele>
        <time>2021-06-20T06:03:21.000Z</time>
      </trkpt>
      <trkpt lat="48.67856" lon="7.86647">
        <ele>130.867985</ele>
        <time>2021-06-20T06:03:23.000Z</time>
      </trkpt>
      <trkpt lat="48.67858" lon="7.86665">
        <ele>130.889865</ele>
        <time>2021-06-20T06:03:25.000Z</time>
      </trkpt>
      <trkpt lat="48.67862" lon="7.86682">
        <ele>130.912003</ele>
        <time>2021-06-20T06:03:27.000Z</time>
      </trkpt>
      <trkpt lat="48.67865" lon="7.867">
        <ele>130.934891</ele>
        <time>2021-06-20T06:03:29.000Z</time>
      </trkpt>
      <trkpt lat="48.67868" lon="7.86719">
        <ele>130.957545</ele>
        <time>2021-06-20T06:03:31.000Z</time>
      </trkpt>
      <trkpt lat="48.67871" lon="7.86736">
        <ele>130.979613</ele>
        <time>2021-06-20T06:03:33.000Z</time>
      </trkpt>
      <trkpt lat="48.67874" lon="7.86754">
        <ele>131.001984</ele>
        <time>2021-06-20T06:03:35.000Z</time>
      </trkpt>
      <trkpt lat="48.67877" lon="7.86771">
        <ele>131.023377</ele>
        <time>2021-06-20T06:03:37.000Z</time>
      </trkpt>
      <trkpt lat="48.67879" lon="7.86788">
        <ele>131.043676</ele>
        <time>2021-06-20T06:03:39.000Z</time>
      </trkpt>
      <trkpt lat="48.67881" lon="7.86803">
        <ele>131.062742</ele>
        <time>2021-06-20T06:03:41.000Z</time>
      </trkpt>
      <trkpt lat="48.67883" lon="7.86818">
        <ele>131.081418</ele>
        <time>2021-06-20T06:03:43.000Z</time>
      </trkpt>
      <trkpt lat="48.67892" lon="7.86831">
        <ele>131.103395</ele>
        <time>2021-06-20T06:03:46.000Z</time>
      </trkpt>
      <trkpt lat="48.67902" lon="7.86833">
        <ele>131.121109</ele>
        <time>2021-06-20T06:03:48.000Z</time>
      </trkpt>
      <trkpt lat="48.67911" lon="7.86835">
        <ele>131.138836</ele>
        <time>2021-06-20T06:03:50.000Z</time>
      </trkpt>
      <trkpt lat="48.67921" lon="7.86841">
        <ele>131.111108</ele>
        <time>2021-06-20T06:03:52.000Z</time>
      </trkpt>
      <trkpt lat="48.6793" lon="7.86852">
        <ele>131.081137</ele>
        <time>2021-06-20T06:03:54.000Z</time>
      </trkpt>
      <trkpt lat="48.67937" lon="7.86865">
        <ele>131.050385</ele>
        <time>2021-06-20T06:03:56.000Z</time>
      </trkpt>
      <trkpt lat="48.67944" lon="7.86878">
        <ele>131.020215</ele>
        <time>2021-06-20T06:03:58.000Z</time>
      </trkpt>
      <trkpt lat="48.67951" lon="7.86893">
        <ele>130.988705</ele>
        <time>2021-06-20T06:04:00.000Z</time>
      </trkpt>
      <trkpt lat="48.67958" lon="7.86906">
        <ele>130.958838</ele>
        <time>2021-06-20T06:04:02.000Z</time>
      </trkpt>
      <trkpt lat="48.67965" lon="7.86919">
        <ele>130.928703</ele>
        <time>2021-06-20T06:04:04.000Z</time>
      </trkpt>
      <trkpt lat="48.67972" lon="7.86933">
        <ele>130.898042</ele>
        <time>2021-06-20T06:04:06.000Z</time>
      </trkpt>
      <trkpt lat="48.67979" lon="7.86946">
        <ele>130.867968</ele>
        <time>2021-06-20T06:04:08.000Z</time>
      </trkpt>
      <trkpt lat="48.67986" lon="7.8696">
        <ele>130.837026</ele>
        <time>2021-06-20T06:04:10.000Z</time>
      </trkpt>
      <trkpt lat="48.67993" lon="7.86974">
        <ele>130.805554</ele>
        <time>2021-06-20T06:04:12.000Z</time>
      </trkpt>
      <trkpt lat="48.68001" lon="7.86987">
        <ele>130.774145</ele>
        <time>2021-06-20T06:04:14.000Z</time>
      </trkpt>
      <trkpt lat="48.68008" lon="7.87001">
        <ele>130.742636</ele>
        <time>2021-06-20T06:04:16.000Z</time>
      </trkpt>
      <trkpt lat="48.68013" lon="7.87017">
        <ele>130.711087</ele>
        <time>2021-06-20T06:04:18.000Z</time>
      </trkpt>
      <trkpt lat="48.68016" lon="7.87035">
        <ele>130.678423</ele>
        <time>2021-06-20T06:04:20.000Z</time>
      </trkpt>
      <trkpt lat="48.68018" lon="7.87053">
        <ele>130.657436</ele>
        <time>2021-06-20T06:04:22.000Z</time>
      </trkpt>
      <trkpt lat="48.68019" lon="7.87071">
        <ele>130.666004</ele>
        <time>2021-06-20T06:04:24.000Z</time>
      </trkpt>
      <trkpt lat="48.68021" lon="7.87089">
        <ele>130.674646</ele>
        <time>2021-06-20T06:04:26.000Z</time>
      </trkpt>
      <trkpt lat="48.68024" lon="7.87107">
        <ele>130.683445</ele>
        <time>2021-06-20T06:04:28.000Z</time>
      </trkpt>
      <trkpt lat="48.68029" lon="7.87123">
        <ele>130.692003</ele>
        <time>2021-06-20T06:04:30.001Z</time>
      </trkpt>
      <trkpt lat="48.68035" lon="7.87138">
        <ele>130.700256</ele>
        <time>2021-06-20T06:04:32.001Z</time>
      </trkpt>
      <trkpt lat="48.68042" lon="7.87152">
        <ele>130.708575</ele>
        <time>2021-06-20T06:04:34.001Z</time>
      </trkpt>
      <trkpt lat="48.6805" lon="7.87165">
        <ele>130.716932</ele>
        <time>2021-06-20T06:04:36.001Z</time>
      </trkpt>
      <trkpt lat="48.68058" lon="7.87177">
        <ele>130.725218</ele>
        <time>2021-06-20T06:04:38.001Z</time>
      </trkpt>
      <trkpt lat="48.68066" lon="7.8719">
        <ele>130.733465</ele>
        <time>2021-06-20T06:04:40.001Z</time>
      </trkpt>
      <trkpt lat="48.68074" lon="7.87202">
        <ele>130.741595</ele>
        <time>2021-06-20T06:04:42.001Z</time>
      </trkpt>
      <trkpt lat="48.68083" lon="7.87215">
        <ele>130.750346</ele>
        <time>2021-06-20T06:04:44.001Z</time>
      </trkpt>
      <trkpt lat="48.68091" lon="7.87227">
        <ele>130.758392</ele>
        <time>2021-06-20T06:04:46.000Z</time>
      </trkpt>
      <trkpt lat="48.68098" lon="7.87237">
        <ele>130.765551</ele>
        <time>2021-06-20T06:04:48.000Z</time>
      </trkpt>
      <trkpt lat="48.68105" lon="7.87249">
        <ele>130.772794</ele>
        <time>2021-06-20T06:04:50.000Z</time>
      </trkpt>
      <trkpt lat="48.68114" lon="7.87255">
        <ele>130.780095</ele>
        <time>2021-06-20T06:04:52.000Z</time>
      </trkpt>
      <trkpt lat="48.68126" lon="7.87252">
        <ele>130.766965</ele>
        <time>2021-06-20T06:04:54.000Z</time>
      </trkpt>
      <trkpt lat="48.68134" lon="7.87239">
        <ele>130.730624</ele>
        <time>2021-06-20T06:04:56.000Z</time>
      </trkpt>
      <trkpt lat="48.6814" lon="7.87223">
        <ele>130.694371</ele>
        <time>2021-06-20T06:04:58.000Z</time>
      </trkpt>
      <trkpt lat="48.68146" lon="7.87208">
        <ele>130.659646</ele>
        <time>2021-06-20T06:05:00.000Z</time>
      </trkpt>
      <trkpt lat="48.68153" lon="7.87195">
        <ele>130.626866</ele>
        <time>2021-06-20T06:05:02.000Z</time>
      </trkpt>
      <trkpt lat="48.68162" lon="7.87186">
        <ele>130.594158</ele>
        <time>2021-06-20T06:05:04.000Z</time>
      </trkpt>
      <trkpt lat="48.68173" lon="7.87183">
        <ele>130.561667</ele>
        <time>2021-06-20T06:05:06.000Z</time>
      </trkpt>
      <trkpt lat="48.68184" lon="7.87187">
        <ele>130.528169</ele>
        <time>2021-06-20T06:05:08.000Z</time>
      </trkpt>
      <trkpt lat="48.68194" lon="7.87196">
        <ele>130.491926</ele>
        <time>2021-06-20T06:05:10.000Z</time>
      </trkpt>
      <trkpt lat="48.68205" lon="7.87204">
        <ele>130.457082</ele>
        <time>2021-06-20T06:05:12.000Z</time>
      </trkpt>
      <trkpt lat="48.68216" lon="7.87212">
        <ele>130.421334</ele>
        <time>2021-06-20T06:05:14.000Z</time>
      </trkpt>
      <trkpt lat="48.68227" lon="7.87218">
        <ele>130.384936</ele>
        <time>2021-06-20T06:05:16.000Z</time>
      </trkpt>
      <trkpt lat="48.68239" lon="7.87223">
        <ele>130.349376</ele>
        <time>2021-06-20T06:05:18.000Z</time>
      </trkpt>
      <trkpt lat="48.68251" lon="7.87227">
        <ele>130.312452</ele>
        <time>2021-06-20T06:05:20.000Z</time>
      </trkpt>
      <trkpt lat="48.68263" lon="7.87229">
        <ele>130.27578</ele>
        <time>2021-06-20T06:05:22.000Z</time>
      </trkpt>
      <trkpt lat="48.68274" lon="7.87233">
        <ele>130.244885</ele>
        <time>2021-06-20T06:05:24.000Z</time>
      </trkpt>
      <trkpt lat="48.68286" lon="7.87236">
        <ele>130.227415</ele>
        <time>2021-06-20T06:05:26.000Z</time>
      </trkpt>
      <trkpt lat="48.68298" lon="7.87239">
        <ele>130.21033</ele>
        <time>2021-06-20T06:05:28.000Z</time>
      </trkpt>
      <trkpt lat="48.68309" lon="7.87243">
        <ele>130.193635</ele>
        <time>2021-06-20T06:05:30.000Z</time>
      </trkpt>
      <trkpt lat="48.6832" lon="7.87248">
        <ele>130.176566</ele>
        <time>2021-06-20T06:05:32.000Z</time>
      </trkpt>
      <trkpt lat="48.68331" lon="7.87251">
        <ele>130.160013</ele>
        <time>2021-06-20T06:05:34.000Z</time>
      </trkpt>
      <trkpt lat="48.68343" lon="7.87257">
        <ele>130.142888</ele>
        <time>2021-06-20T06:05:36.000Z</time>
      </trkpt>
      <trkpt lat="48.68354" lon="7.87263">
        <ele>130.125035</ele>
        <time>2021-06-20T06:05:38.000Z</time>
      </trkpt>
      <trkpt lat="48.68366" lon="7.8727">
        <ele>130.106869</ele>
        <time>2021-06-20T06:05:40.000Z</time>
      </trkpt>
      <trkpt lat="48.68378" lon="7.87277">
        <ele>130.088707</ele>
        <time>2021-06-20T06:05:42.000Z</time>
      </trkpt>
      <trkpt lat="48.68388" lon="7.87283">
        <ele>130.071804</ele>
        <time>2021-06-20T06:05:44.000Z</time>
      </trkpt>
      <trkpt lat="48.68399" lon="7.87291">
        <ele>130.054746</ele>
        <time>2021-06-20T06:05:46.000Z</time>
      </trkpt>
      <trkpt lat="48.6841" lon="7.87299">
        <ele>130.037217</ele>
        <time>2021-06-20T06:05:48.000Z</time>
      </trkpt>
      <trkpt lat="48.6842" lon="7.87307">
        <ele>130.020641</ele>
        <time>2021-06-20T06:05:50.000Z</time>
      </trkpt>
      <trkpt lat="48.6843" lon="7.87316">
        <ele>130.003471</ele>
        <time>2021-06-20T06:05:52.000Z</time>
      </trkpt>
      <trkpt lat="48.6844" lon="7.87324">
        <ele>129.985896</ele>
        <time>2021-06-20T06:05:54.000Z</time>
      </trkpt>
      <trkpt lat="48.6845" lon="7.87334">
        <ele>129.930643</ele>
        <time>2021-06-20T06:05:56.000Z</time>
      </trkpt>
      <trkpt lat="48.6846" lon="7.87344">
        <ele>129.87497</ele>
        <time>2021-06-20T06:05:58.000Z</time>
      </trkpt>
      <trkpt lat="48.68469" lon="7.87354">
        <ele>129.821217</ele>
        <time>2021-06-20T06:06:00.000Z</time>
      </trkpt>
      <trkpt lat="48.68479" lon="7.87363">
        <ele>129.767989</ele>
        <time>2021-06-20T06:06:02.000Z</time>
      </trkpt>
      <trkpt lat="48.68488" lon="7.87372">
        <ele>129.715055</ele>
        <time>2021-06-20T06:06:04.000Z</time>
      </trkpt>
      <trkpt lat="48.68497" lon="7.87382">
        <ele>129.662232</ele>
        <time>2021-06-20T06:06:06.000Z</time>
      </trkpt>
      <trkpt lat="48.68506" lon="7.87392">
        <ele>129.609205</ele>
        <time>2021-06-20T06:06:08.000Z</time>
      </trkpt>
      <trkpt lat="48.68515" lon="7.874">
        <ele>129.56175</ele>
        <time>2021-06-20T06:06:10.000Z</time>
      </trkpt>
      <trkpt lat="48.68525" lon="7.8741">
        <ele>129.502553</ele>
        <time>2021-06-20T06:06:13.000Z</time>
      </trkpt>
      <trkpt lat="48.68517" lon="7.87419">
        <ele>129.453117</ele>
        <time>2021-06-20T06:06:18.000Z</time>
      </trkpt>
      <trkpt lat="48.68503" lon="7.8742">
        <ele>129.389466</ele>
        <time>2021-06-20T06:06:21.000Z</time>
      </trkpt>
      <trkpt lat="48.68494" lon="7.87421">
        <ele>129.343555</ele>
        <time>2021-06-20T06:06:23.000Z</time>
      </trkpt>
      <trkpt lat="48.68484" lon="7.87422">
        <ele>129.298208</ele>
        <time>2021-06-20T06:06:25.000Z</time>
      </trkpt>
      <trkpt lat="48.68474" lon="7.87423">
        <ele>129.250054</ele>
        <time>2021-06-20T06:06:27.000Z</time>
      </trkpt>
      <trkpt lat="48.68464" lon="7.87422">
        <ele>129.200986</ele>
        <time>2021-06-20T06:06:29.000Z</time>
      </trkpt>
      <trkpt lat="48.68453" lon="7.87423">
        <ele>129.149953</ele>
        <time>2021-06-20T06:06:31.000Z</time>
      </trkpt>
      <trkpt lat="48.68442" lon="7.87422">
        <ele>129.165314</ele>
        <time>2021-06-20T06:06:33.000Z</time>
      </trkpt>
      <trkpt lat="48.68431" lon="7.87422">
        <ele>129.201403</ele>
        <time>2021-06-20T06:06:35.000Z</time>
      </trkpt>
      <trkpt lat="48.68421" lon="7.8742">
        <ele>129.2368</ele>
        <time>2021-06-20T06:06:37.000Z</time>
      </trkpt>
      <trkpt lat="48.6841" lon="7.87418">
        <ele>129.271176</ele>
        <time>2021-06-20T06:06:39.000Z</time>
      </trkpt>
      <trkpt lat="48.68399" lon="7.87416">
        <ele>129.30682</ele>
        <time>2021-06-20T06:06:41.000Z</time>
      </trkpt>
      <trkpt lat="48.68388" lon="7.87413">
        <ele>129.343654</ele>
        <time>2021-06-20T06:06:43.000Z</time>
      </trkpt>
      <trkpt lat="48.68377" lon="7.87411">
        <ele>129.380018</ele>
        <time>2021-06-20T06:06:45.000Z</time>
      </trkpt>
      <trkpt lat="48.68366" lon="7.87412">
        <ele>129.414826</ele>
        <time>2021-06-20T06:06:47.000Z</time>
      </trkpt>
      <trkpt lat="48.68355" lon="7.87417">
        <ele>129.452293</ele>
        <time>2021-06-20T06:06:49.000Z</time>
      </trkpt>
      <trkpt lat="48.68344" lon="7.87423">
        <ele>129.489309</ele>
        <time>2021-06-20T06:06:51.000Z</time>
      </trkpt>
      <trkpt lat="48.68334" lon="7.8743">
        <ele>129.525396</ele>
        <time>2021-06-20T06:06:53.000Z</time>
      </trkpt>
      <trkpt lat="48.68325" lon="7.87437">
        <ele>129.560261</ele>
        <time>2021-06-20T06:06:55.000Z</time>
      </trkpt>
      <trkpt lat="48.68315" lon="7.87443">
        <ele>129.593172</ele>
        <time>2021-06-20T06:06:57.000Z</time>
      </trkpt>
      <trkpt lat="48.68306" lon="7.87449">
        <ele>129.627697</ele>
        <time>2021-06-20T06:06:59.000Z</time>
      </trkpt>
      <trkpt lat="48.68296" lon="7.87455">
        <ele>129.662204</ele>
        <time>2021-06-20T06:07:01.000Z</time>
      </trkpt>
      <trkpt lat="48.68286" lon="7.87462">
        <ele>129.697112</ele>
        <time>2021-06-20T06:07:03.000Z</time>
      </trkpt>
      <trkpt lat="48.68276" lon="7.87468">
        <ele>129.734932</ele>
        <time>2021-06-20T06:07:05.000Z</time>
      </trkpt>
      <trkpt lat="48.68266" lon="7.87472">
        <ele>129.788149</ele>
        <time>2021-06-20T06:07:07.000Z</time>
      </trkpt>
      <trkpt lat="48.68255" lon="7.87477">
        <ele>129.844465</ele>
        <time>2021-06-20T06:07:09.000Z</time>
      </trkpt>
      <trkpt lat="48.68245" lon="7.87481">
        <ele>129.89418</ele>
        <time>2021-06-20T06:07:11.000Z</time>
      </trkpt>
      <trkpt lat="48.68234" lon="7.87485">
        <ele>129.950048</ele>
        <time>2021-06-20T06:07:13.000Z</time>
      </trkpt>
      <trkpt lat="48.68224" lon="7.87488">
        <ele>130.003464</ele>
        <time>2021-06-20T06:07:15.000Z</time>
      </trkpt>
      <trkpt lat="48.68214" lon="7.87492">
        <ele>130.053638</ele>
        <time>2021-06-20T06:07:17.000Z</time>
      </trkpt>
      <trkpt lat="48.682" lon="7.87498">
        <ele>130.125691</ele>
        <time>2021-06-20T06:07:19.999Z</time>
      </trkpt>
      <trkpt lat="48.6819" lon="7.87503">
        <ele>130.178506</ele>
        <time>2021-06-20T06:07:21.999Z</time>
      </trkpt>
      <trkpt lat="48.68179" lon="7.87505">
        <ele>130.234491</ele>
        <time>2021-06-20T06:07:23.999Z</time>
      </trkpt>
      <trkpt lat="48.68168" lon="7.87506">
        <ele>130.291179</ele>
        <time>2021-06-20T06:07:25.999Z</time>
      </trkpt>
      <trkpt lat="48.68157" lon="7.87507">
        <ele>130.342845</ele>
        <time>2021-06-20T06:07:27.999Z</time>
      </trkpt>
      <trkpt lat="48.68146" lon="7.87507">
        <ele>130.396464</ele>
        <time>2021-06-20T06:07:29.999Z</time>
      </trkpt>
      <trkpt lat="48.68135" lon="7.87509">
        <ele>130.452342</ele>
        <time>2021-06-20T06:07:31.999Z</time>
      </trkpt>
      <trkpt lat="48.68124" lon="7.87513">
        <ele>130.506827</ele>
        <time>2021-06-20T06:07:33.999Z</time>
      </trkpt>
      <trkpt lat="48.68115" lon="7.87519">
        <ele>130.559762</ele>
        <time>2021-06-20T06:07:35.999Z</time>
      </trkpt>
      <trkpt lat="48.68105" lon="7.87526">
        <ele>130.614729</ele>
        <time>2021-06-20T06:07:37.999Z</time>
      </trkpt>
      <trkpt lat="48.68095" lon="7.87534">
        <ele>130.63442</ele>
        <time>2021-06-20T06:07:39.999Z</time>
      </trkpt>
      <trkpt lat="48.68087" lon="7.87542">
        <ele>130.650292</ele>
        <time>2021-06-20T06:07:41.999Z</time>
      </trkpt>
      <trkpt lat="48.68079" lon="7.87553">
        <ele>130.669091</ele>
        <time>2021-06-20T06:07:43.999Z</time>
      </trkpt>
      <trkpt lat="48.68071" lon="7.87564">
        <ele>130.686376</ele>
        <time>2021-06-20T06:07:45.999Z</time>
      </trkpt>
      <trkpt lat="48.68063" lon="7.87576">
        <ele>130.704895</ele>
        <time>2021-06-20T06:07:47.999Z</time>
      </trkpt>
      <trkpt lat="48.68055" lon="7.87587">
        <ele>130.723578</ele>
        <time>2021-06-20T06:07:49.999Z</time>
      </trkpt>
      <trkpt lat="48.68046" lon="7.87599">
        <ele>130.742337</ele>
        <time>2021-06-20T06:07:51.999Z</time>
      </trkpt>
      <trkpt lat="48.6804" lon="7.87611">
        <ele>130.759782</ele>
        <time>2021-06-20T06:07:53.999Z</time>
      </trkpt>
      <trkpt lat="48.68032" lon="7.87622">
        <ele>130.777823</ele>
        <time>2021-06-20T06:07:55.999Z</time>
      </trkpt>
      <trkpt lat="48.68024" lon="7.87632">
        <ele>130.794738</ele>
        <time>2021-06-20T06:07:57.999Z</time>
      </trkpt>
      <trkpt lat="48.68017" lon="7.87644">
        <ele>130.811923</ele>
        <time>2021-06-20T06:07:59.999Z</time>
      </trkpt>
      <trkpt lat="48.6801" lon="7.87655">
        <ele>130.828957</ele>
        <time>2021-06-20T06:08:01.999Z</time>
      </trkpt>
      <trkpt lat="48.68003" lon="7.87666">
        <ele>130.845673</ele>
        <time>2021-06-20T06:08:03.999Z</time>
      </trkpt>
      <trkpt lat="48.67996" lon="7.87677">
        <ele>130.862708</ele>
        <time>2021-06-20T06:08:05.999Z</time>
      </trkpt>
      <trkpt lat="48.67989" lon="7.87689">
        <ele>130.879568</ele>
        <time>2021-06-20T06:08:07.999Z</time>
      </trkpt>
      <trkpt lat="48.67982" lon="7.877">
        <ele>130.896832</ele>
        <time>2021-06-20T06:08:09.999Z</time>
      </trkpt>
      <trkpt lat="48.67975" lon="7.87711">
        <ele>130.913124</ele>
        <time>2021-06-20T06:08:11.999Z</time>
      </trkpt>
      <trkpt lat="48.67969" lon="7.87726">
        <ele>130.89553</ele>
        <time>2021-06-20T06:08:14.999Z</time>
      </trkpt>
      <trkpt lat="48.67975" lon="7.87742">
        <ele>130.872231</ele>
        <time>2021-06-20T06:08:17.999Z</time>
      </trkpt>
      <trkpt lat="48.6798" lon="7.87753">
        <ele>130.853352</ele>
        <time>2021-06-20T06:08:19.999Z</time>
      </trkpt>
      <trkpt lat="48.67983" lon="7.87767">
        <ele>130.834412</ele>
        <time>2021-06-20T06:08:21.999Z</time>
      </trkpt>
      <trkpt lat="48.67988" lon="7.87781">
        <ele>130.81226</ele>
        <time>2021-06-20T06:08:23.999Z</time>
      </trkpt>
      <trkpt lat="48.67993" lon="7.87796">
        <ele>130.789794</ele>
        <time>2021-06-20T06:08:25.999Z</time>
      </trkpt>
      <trkpt lat="48.67998" lon="7.87811">
        <ele>130.766852</ele>
        <time>2021-06-20T06:08:27.999Z</time>
      </trkpt>
      <trkpt lat="48.68001" lon="7.87828">
        <ele>130.743659</ele>
        <time>2021-06-20T06:08:29.999Z</time>
      </trkpt>
      <trkpt lat="48.68003" lon="7.87846">
        <ele>130.719878</ele>
        <time>2021-06-20T06:08:31.999Z</time>
      </trkpt>
      <trkpt lat="48.68004" lon="7.87862">
        <ele>130.698053</ele>
        <time>2021-06-20T06:08:33.999Z</time>
      </trkpt>
      <trkpt lat="48.68006" lon="7.87878">
        <ele>130.676293</ele>
        <time>2021-06-20T06:08:35.999Z</time>
      </trkpt>
      <trkpt lat="48.68008" lon="7.87893">
        <ele>130.655987</ele>
        <time>2021-06-20T06:08:37.999Z</time>
      </trkpt>
      <trkpt lat="48.68012" lon="7.87908">
        <ele>130.634186</ele>
        <time>2021-06-20T06:08:39.999Z</time>
      </trkpt>
      <trkpt lat="48.68018" lon="7.87923">
        <ele>130.611251</ele>
        <time>2021-06-20T06:08:41.999Z</time>
      </trkpt>
      <trkpt lat="48.68026" lon="7.87936">
        <ele>130.587237</ele>
        <time>2021-06-20T06:08:43.999Z</time>
      </trkpt>
      <trkpt lat="48.68037" lon="7.87943">
        <ele>130.562596</ele>
        <time>2021-06-20T06:08:45.999Z</time>
      </trkpt>
      <trkpt lat="48.68048" lon="7.87949">
        <ele>130.543911</ele>
        <time>2021-06-20T06:08:47.999Z</time>
      </trkpt>
      <trkpt lat="48.68058" lon="7.87954">
        <ele>130.529906</ele>
        <time>2021-06-20T06:08:50.000Z</time>
      </trkpt>
      <trkpt lat="48.68068" lon="7.87962">
        <ele>130.515318</ele>
        <time>2021-06-20T06:08:52.000Z</time>
      </trkpt>
      <trkpt lat="48.68078" lon="7.87973">
        <ele>130.500189</ele>
        <time>2021-06-20T06:08:54.000Z</time>
      </trkpt>
      <trkpt lat="48.68088" lon="7.87984">
        <ele>130.484162</ele>
        <time>2021-06-20T06:08:56.000Z</time>
      </trkpt>
      <trkpt lat="48.68099" lon="7.87994">
        <ele>130.468393</ele>
        <time>2021-06-20T06:08:58.000Z</time>
      </trkpt>
      <trkpt lat="48.6811" lon="7.88003">
        <ele>130.452242</ele>
        <time>2021-06-20T06:09:00.000Z</time>
      </trkpt>
      <trkpt lat="48.68121" lon="7.88011">
        <ele>130.436098</ele>
        <time>2021-06-20T06:09:01.999Z</time>
      </trkpt>
      <trkpt lat="48.68133" lon="7.88019">
        <ele>130.420097</ele>
        <time>2021-06-20T06:09:03.999Z</time>
      </trkpt>
      <trkpt lat="48.68144" lon="7.88024">
        <ele>130.404626</ele>
        <time>2021-06-20T06:09:05.999Z</time>
      </trkpt>
      <trkpt lat="48.68156" lon="7.88032">
        <ele>130.388593</ele>
        <time>2021-06-20T06:09:07.999Z</time>
      </trkpt>
      <trkpt lat="48.68167" lon="7.8804">
        <ele>130.37229</ele>
        <time>2021-06-20T06:09:09.999Z</time>
      </trkpt>
      <trkpt lat="48.68179" lon="7.88047">
        <ele>130.35647</ele>
        <time>2021-06-20T06:09:11.999Z</time>
      </trkpt>
      <trkpt lat="48.6819" lon="7.88056">
        <ele>130.340513</ele>
        <time>2021-06-20T06:09:13.999Z</time>
      </trkpt>
      <trkpt lat="48.68202" lon="7.88062">
        <ele>130.324274</ele>
        <time>2021-06-20T06:09:15.999Z</time>
      </trkpt>
      <trkpt lat="48.68213" lon="7.8807">
        <ele>130.351695</ele>
        <time>2021-06-20T06:09:17.999Z</time>
      </trkpt>
      <trkpt lat="48.68224" lon="7.88078">
        <ele>130.38741</ele>
        <time>2021-06-20T06:09:19.999Z</time>
      </trkpt>
      <trkpt lat="48.68235" lon="7.88086">
        <ele>130.421916</ele>
        <time>2021-06-20T06:09:21.999Z</time>
      </trkpt>
      <trkpt lat="48.68246" lon="7.88096">
        <ele>130.455928</ele>
        <time>2021-06-20T06:09:23.999Z</time>
      </trkpt>
      <trkpt lat="48.68256" lon="7.88106">
        <ele>130.491148</ele>
        <time>2021-06-20T06:09:25.999Z</time>
      </trkpt>
      <trkpt lat="48.68266" lon="7.88117">
        <ele>130.526348</ele>
        <time>2021-06-20T06:09:27.999Z</time>
      </trkpt>
      <trkpt lat="48.68277" lon="7.88126">
        <ele>130.561461</ele>
        <time>2021-06-20T06:09:29.999Z</time>
      </trkpt>
      <trkpt lat="48.68287" lon="7.88137">
        <ele>130.595846</ele>
        <time>2021-06-20T06:09:31.999Z</time>
      </trkpt>
      <trkpt lat="48.68297" lon="7.88149">
        <ele>130.632838</ele>
        <time>2021-06-20T06:09:33.999Z</time>
      </trkpt>
      <trkpt lat="48.68307" lon="7.88162">
        <ele>130.66838</ele>
        <time>2021-06-20T06:09:35.999Z</time>
      </trkpt>
      <trkpt lat="48.68317" lon="7.88173">
        <ele>130.705248</ele>
        <time>2021-06-20T06:09:37.999Z</time>
      </trkpt>
      <trkpt lat="48.68326" lon="7.88187">
        <ele>130.741553</ele>
        <time>2021-06-20T06:09:39.999Z</time>
      </trkpt>
      <trkpt lat="48.68336" lon="7.88199">
        <ele>130.777574</ele>
        <time>2021-06-20T06:09:41.999Z</time>
      </trkpt>
      <trkpt lat="48.68345" lon="7.88214">
        <ele>130.814345</ele>
        <time>2021-06-20T06:09:43.999Z</time>
      </trkpt>
      <trkpt lat="48.68355" lon="7.88226">
        <ele>130.792254</ele>
        <time>2021-06-20T06:09:45.999Z</time>
      </trkpt>
      <trkpt lat="48.68364" lon="7.8824">
        <ele>130.724929</ele>
        <time>2021-06-20T06:09:47.999Z</time>
      </trkpt>
      <trkpt lat="48.68373" lon="7.88253">
        <ele>130.657603</ele>
        <time>2021-06-20T06:09:49.999Z</time>
      </trkpt>
      <trkpt lat="48.68383" lon="7.88264">
        <ele>130.592051</ele>
        <time>2021-06-20T06:09:51.999Z</time>
      </trkpt>
      <trkpt lat="48.68393" lon="7.88276">
        <ele>130.524823</ele>
        <time>2021-06-20T06:09:53.999Z</time>
      </trkpt>
      <trkpt lat="48.68403" lon="7.88288">
        <ele>130.455076</ele>
        <time>2021-06-20T06:09:55.999Z</time>
      </trkpt>
      <trkpt lat="48.68414" lon="7.88299">
        <ele>130.385754</ele>
        <time>2021-06-20T06:09:57.999Z</time>
      </trkpt>
      <trkpt lat="48.68424" lon="7.88311">
        <ele>130.317699</ele>
        <time>2021-06-20T06:09:59.999Z</time>
      </trkpt>
      <trkpt lat="48.68434" lon="7.88322">
        <ele>130.250283</ele>
        <time>2021-06-20T06:10:01.999Z</time>
      </trkpt>
      <trkpt lat="48.68444" lon="7.88334">
        <ele>130.181812</ele>
        <time>2021-06-20T06:10:03.999Z</time>
      </trkpt>
      <trkpt lat="48.68454" lon="7.88346">
        <ele>130.113979</ele>
        <time>2021-06-20T06:10:05.999Z</time>
      </trkpt>
      <trkpt lat="48.68465" lon="7.88357">
        <ele>130.046771</ele>
        <time>2021-06-20T06:10:07.999Z</time>
      </trkpt>
      <trkpt lat="48.68474" lon="7.88368">
        <ele>129.980851</ele>
        <time>2021-06-20T06:10:09.999Z</time>
      </trkpt>
      <trkpt lat="48.68485" lon="7.88379">
        <ele>129.913848</ele>
        <time>2021-06-20T06:10:11.999Z</time>
      </trkpt>
      <trkpt lat="48.68495" lon="7.8839">
        <ele>129.871659</ele>
        <time>2021-06-20T06:10:13.999Z</time>
      </trkpt>
      <trkpt lat="48.68506" lon="7.884">
        <ele>129.872751</ele>
        <time>2021-06-20T06:10:15.999Z</time>
      </trkpt>
      <trkpt lat="48.68516" lon="7.88409">
        <ele>129.873815</ele>
        <time>2021-06-20T06:10:17.999Z</time>
      </trkpt>
      <trkpt lat="48.68527" lon="7.88418">
        <ele>129.874868</ele>
        <time>2021-06-20T06:10:19.999Z</time>
      </trkpt>
      <trkpt lat="48.68538" lon="7.88427">
        <ele>129.875957</ele>
        <time>2021-06-20T06:10:21.999Z</time>
      </trkpt>
      <trkpt lat="48.68549" lon="7.88434">
        <ele>129.877055</ele>
        <time>2021-06-20T06:10:23.999Z</time>
      </trkpt>
      <trkpt lat="48.6856" lon="7.88442">
        <ele>129.878144</ele>
        <time>2021-06-20T06:10:25.999Z</time>
      </trkpt>
      <trkpt lat="48.68571" lon="7.8845">
        <ele>129.879192</ele>
        <time>2021-06-20T06:10:27.999Z</time>
      </trkpt>
      <trkpt lat="48.68582" lon="7.88457">
        <ele>129.8802</ele>
        <time>2021-06-20T06:10:29.999Z</time>
      </trkpt>
      <trkpt lat="48.68591" lon="7.88462">
        <ele>129.881106</ele>
        <time>2021-06-20T06:10:31.999Z</time>
      </trkpt>
      <trkpt lat="48.68601" lon="7.8847">
        <ele>129.882082</ele>
        <time>2021-06-20T06:10:34.999Z</time>
      </trkpt>
      <trkpt lat="48.68603" lon="7.88486">
        <ele>129.883017</ele>
        <time>2021-06-20T06:10:37.999Z</time>
      </trkpt>
      <trkpt lat="48.68602" lon="7.885">
        <ele>129.88389</ele>
        <time>2021-06-20T06:10:39.999Z</time>
      </trkpt>
      <trkpt lat="48.68599" lon="7.88516">
        <ele>129.884821</ele>
        <time>2021-06-20T06:10:41.999Z</time>
      </trkpt>
      <trkpt lat="48.68597" lon="7.88532">
        <ele>129.885771</ele>
        <time>2021-06-20T06:10:43.999Z</time>
      </trkpt>
      <trkpt lat="48.68595" lon="7.8855">
        <ele>129.886794</ele>
        <time>2021-06-20T06:10:45.999Z</time>
      </trkpt>
      <trkpt lat="48.68593" lon="7.88567">
        <ele>129.902797</ele>
        <time>2021-06-20T06:10:47.999Z</time>
      </trkpt>
      <trkpt lat="48.68591" lon="7.88584">
        <ele>129.923936</ele>
        <time>2021-06-20T06:10:49.999Z</time>
      </trkpt>
      <trkpt lat="48.68589" lon="7.88602">
        <ele>129.944455</ele>
        <time>2021-06-20T06:10:51.999Z</time>
      </trkpt>
      <trkpt lat="48.68586" lon="7.88618">
        <ele>129.965046</ele>
        <time>2021-06-20T06:10:53.999Z</time>
      </trkpt>
      <trkpt lat="48.68582" lon="7.88635">
        <ele>129.985811</ele>
        <time>2021-06-20T06:10:55.999Z</time>
      </trkpt>
      <trkpt lat="48.68576" lon="7.88652">
        <ele>130.007817</ele>
        <time>2021-06-20T06:10:57.999Z</time>
      </trkpt>
      <trkpt lat="48.68571" lon="7.88667">
        <ele>130.028796</ele>
        <time>2021-06-20T06:10:59.999Z</time>
      </trkpt>
      <trkpt lat="48.68564" lon="7.88683">
        <ele>130.050343</ele>
        <time>2021-06-20T06:11:01.999Z</time>
      </trkpt>
      <trkpt lat="48.68557" lon="7.88697">
        <ele>130.071678</ele>
        <time>2021-06-20T06:11:03.999Z</time>
      </trkpt>
      <trkpt lat="48.6855" lon="7.88711">
        <ele>130.092443</ele>
        <time>2021-06-20T06:11:05.999Z</time>
      </trkpt>
      <trkpt lat="48.68543" lon="7.88725">
        <ele>130.113851</ele>
        <time>2021-06-20T06:11:07.999Z</time>
      </trkpt>
      <trkpt lat="48.68535" lon="7.88739">
        <ele>130.134761</ele>
        <time>2021-06-20T06:11:09.999Z</time>
      </trkpt>
      <trkpt lat="48.68528" lon="7.88754">
        <ele>130.156355</ele>
        <time>2021-06-20T06:11:11.999Z</time>
      </trkpt>
      <trkpt lat="48.6852" lon="7.88768">
        <ele>130.178302</ele>
        <time>2021-06-20T06:11:13.999Z</time>
      </trkpt>
      <trkpt lat="48.68513" lon="7.88783">
        <ele>130.199372</ele>
        <time>2021-06-20T06:11:15.999Z</time>
      </trkpt>
      <trkpt lat="48.68506" lon="7.88797">
        <ele>130.224646</ele>
        <time>2021-06-20T06:11:17.999Z</time>
      </trkpt>
      <trkpt lat="48.685" lon="7.88811">
        <ele>130.253389</ele>
        <time>2021-06-20T06:11:19.999Z</time>
      </trkpt>
      <trkpt lat="48.68493" lon="7.88826">
        <ele>130.282131</ele>
        <time>2021-06-20T06:11:21.999Z</time>
      </trkpt>
      <trkpt lat="48.68489" lon="7.88841">
        <ele>130.310051</ele>
        <time>2021-06-20T06:11:23.999Z</time>
      </trkpt>
      <trkpt lat="48.68489" lon="7.88859">
        <ele>130.338261</ele>
        <time>2021-06-20T06:11:25.999Z</time>
      </trkpt>
      <trkpt lat="48.68491" lon="7.88875">
        <ele>130.365437</ele>
        <time>2021-06-20T06:11:27.999Z</time>
      </trkpt>
      <trkpt lat="48.68481" lon="7.88886">
        <ele>130.395744</ele>
        <time>2021-06-20T06:11:29.999Z</time>
      </trkpt>
      <trkpt lat="48.68471" lon="7.88895">
        <ele>130.42639</ele>
        <time>2021-06-20T06:11:31.999Z</time>
      </trkpt>
      <trkpt lat="48.68465" lon="7.88914">
        <ele>130.459714</ele>
        <time>2021-06-20T06:11:33.999Z</time>
      </trkpt>
      <trkpt lat="48.68461" lon="7.88933">
        <ele>130.493437</ele>
        <time>2021-06-20T06:11:35.999Z</time>
      </trkpt>
      <trkpt lat="48.68457" lon="7.88951">
        <ele>130.524897</ele>
        <time>2021-06-20T06:11:37.999Z</time>
      </trkpt>
      <trkpt lat="48.68452" lon="7.88969">
        <ele>130.556419</ele>
        <time>2021-06-20T06:11:39.999Z</time>
      </trkpt>
      <trkpt lat="48.68448" lon="7.88987">
        <ele>130.587879</ele>
        <time>2021-06-20T06:11:41.999Z</time>
      </trkpt>
      <trkpt lat="48.68443" lon="7.89004">
        <ele>130.617826</ele>
        <time>2021-06-20T06:11:43.999Z</time>
      </trkpt>
      <trkpt lat="48.68439" lon="7.89021">
        <ele>130.647201</ele>
        <time>2021-06-20T06:11:45.999Z</time>
      </trkpt>
      <trkpt lat="48.68435" lon="7.89038">
        <ele>130.642635</ele>
        <time>2021-06-20T06:11:47.999Z</time>
      </trkpt>
      <trkpt lat="48.68431" lon="7.89055">
        <ele>130.62656</ele>
        <time>2021-06-20T06:11:49.999Z</time>
      </trkpt>
      <trkpt lat="48.68427" lon="7.89072">
        <ele>130.609561</ele>
        <time>2021-06-20T06:11:51.999Z</time>
      </trkpt>
      <trkpt lat="48.68422" lon="7.8909">
        <ele>130.592502</ele>
        <time>2021-06-20T06:11:53.999Z</time>
      </trkpt>
      <trkpt lat="48.68417" lon="7.89107">
        <ele>130.576076</ele>
        <time>2021-06-20T06:11:55.999Z</time>
      </trkpt>
      <trkpt lat="48.68413" lon="7.89124">
        <ele>130.559194</ele>
        <time>2021-06-20T06:11:57.999Z</time>
      </trkpt>
      <trkpt lat="48.68406" lon="7.89138">
        <ele>130.54374</ele>
        <time>2021-06-20T06:11:59.999Z</time>
      </trkpt>
      <trkpt lat="48.68397" lon="7.89149">
        <ele>130.527812</ele>
        <time>2021-06-20T06:12:01.999Z</time>
      </trkpt>
      <trkpt lat="48.68384" lon="7.89156">
        <ele>130.510303</ele>
        <time>2021-06-20T06:12:03.999Z</time>
      </trkpt>
      <trkpt lat="48.68372" lon="7.89157">
        <ele>130.49344</ele>
        <time>2021-06-20T06:12:05.999Z</time>
      </trkpt>
      <trkpt lat="48.6836" lon="7.89162">
        <ele>130.476772</ele>
        <time>2021-06-20T06:12:07.999Z</time>
      </trkpt>
      <trkpt lat="48.6835" lon="7.8917">
        <ele>130.460804</ele>
        <time>2021-06-20T06:12:09.999Z</time>
      </trkpt>
      <trkpt lat="48.6834" lon="7.89185">
        <ele>130.442515</ele>
        <time>2021-06-20T06:12:11.999Z</time>
      </trkpt>
      <trkpt lat="48.68332" lon="7.89198">
        <ele>130.425691</ele>
        <time>2021-06-20T06:12:13.999Z</time>
      </trkpt>
      <trkpt lat="48.68323" lon="7.89212">
        <ele>130.404404</ele>
        <time>2021-06-20T06:12:15.999Z</time>
      </trkpt>
      <trkpt lat="48.68315" lon="7.89226">
        <ele>130.345502</ele>
        <time>2021-06-20T06:12:17.999Z</time>
      </trkpt>
      <trkpt lat="48.68306" lon="7.8924">
        <ele>130.285229</ele>
        <time>2021-06-20T06:12:19.999Z</time>
      </trkpt>
      <trkpt lat="48.68297" lon="7.89254">
        <ele>130.225831</ele>
        <time>2021-06-20T06:12:21.999Z</time>
      </trkpt>
      <trkpt lat="48.6829" lon="7.89269">
        <ele>130.167859</ele>
        <time>2021-06-20T06:12:23.999Z</time>
      </trkpt>
      <trkpt lat="48.68282" lon="7.89282">
        <ele>130.111797</ele>
        <time>2021-06-20T06:12:25.999Z</time>
      </trkpt>
      <trkpt lat="48.68273" lon="7.89295">
        <ele>130.05382</ele>
        <time>2021-06-20T06:12:27.999Z</time>
      </trkpt>
      <trkpt lat="48.68265" lon="7.8931">
        <ele>129.99568</ele>
        <time>2021-06-20T06:12:29.999Z</time>
      </trkpt>
      <trkpt lat="48.68258" lon="7.89324">
        <ele>129.938864</ele>
        <time>2021-06-20T06:12:31.999Z</time>
      </trkpt>
      <trkpt lat="48.68249" lon="7.89337">
        <ele>129.879817</ele>
        <time>2021-06-20T06:12:33.999Z</time>
      </trkpt>
      <trkpt lat="48.6824" lon="7.89351">
        <ele>129.821098</ele>
        <time>2021-06-20T06:12:35.999Z</time>
      </trkpt>
      <trkpt lat="48.68232" lon="7.89364">
        <ele>129.764356</ele>
        <time>2021-06-20T06:12:37.999Z</time>
      </trkpt>
      <trkpt lat="48.68223" lon="7.89377">
        <ele>129.703598</ele>
        <time>2021-06-20T06:12:39.999Z</time>
      </trkpt>
      <trkpt lat="48.68215" lon="7.8939">
        <ele>129.648206</ele>
        <time>2021-06-20T06:12:41.999Z</time>
      </trkpt>
      <trkpt lat="48.68206" lon="7.89403">
        <ele>129.58947</ele>
        <time>2021-06-20T06:12:43.999Z</time>
      </trkpt>
      <trkpt lat="48.68197" lon="7.89416">
        <ele>129.578614</ele>
        <time>2021-06-20T06:12:45.999Z</time>
      </trkpt>
      <trkpt lat="48.68189" lon="7.89428">
        <ele>129.612046</ele>
        <time>2021-06-20T06:12:47.999Z</time>
      </trkpt>
      <trkpt lat="48.68179" lon="7.89439">
        <ele>129.647619</ele>
        <time>2021-06-20T06:12:49.999Z</time>
      </trkpt>
      <trkpt lat="48.68169" lon="7.89449">
        <ele>129.68378</ele>
        <time>2021-06-20T06:12:51.999Z</time>
      </trkpt>
      <trkpt lat="48.68157" lon="7.89455">
        <ele>129.722502</ele>
        <time>2021-06-20T06:12:53.999Z</time>
      </trkpt>
      <trkpt lat="48.68144" lon="7.89463">
        <ele>129.761065</ele>
        <time>2021-06-20T06:12:55.999Z</time>
      </trkpt>
      <trkpt lat="48.68133" lon="7.89469">
        <ele>129.797027</ele>
        <time>2021-06-20T06:12:57.999Z</time>
      </trkpt>
      <trkpt lat="48.68122" lon="7.89475">
        <ele>129.832278</ele>
        <time>2021-06-20T06:12:59.999Z</time>
      </trkpt>
      <trkpt lat="48.68109" lon="7.89481">
        <ele>129.870073</ele>
        <time>2021-06-20T06:13:01.999Z</time>
      </trkpt>
      <trkpt lat="48.68098" lon="7.89486">
        <ele>129.905632</ele>
        <time>2021-06-20T06:13:03.999Z</time>
      </trkpt>
      <trkpt lat="48.68086" lon="7.89491">
        <ele>129.940964</ele>
        <time>2021-06-20T06:13:05.999Z</time>
      </trkpt>
      <trkpt lat="48.68074" lon="7.89496">
        <ele>129.977976</ele>
        <time>2021-06-20T06:13:07.999Z</time>
      </trkpt>
      <trkpt lat="48.68061" lon="7.89498">
        <ele>130.015786</ele>
        <time>2021-06-20T06:13:09.999Z</time>
      </trkpt>
      <trkpt lat="48.68049" lon="7.89498">
        <ele>130.052879</ele>
        <time>2021-06-20T06:13:11.999Z</time>
      </trkpt>
      <trkpt lat="48.68036" lon="7.89496">
        <ele>130.089471</ele>
        <time>2021-06-20T06:13:13.999Z</time>
      </trkpt>
      <trkpt lat="48.68024" lon="7.89494">
        <ele>130.122944</ele>
        <time>2021-06-20T06:13:15.999Z</time>
      </trkpt>
      <trkpt lat="48.68011" lon="7.89491">
        <ele>130.155351</ele>
        <time>2021-06-20T06:13:17.999Z</time>
      </trkpt>
      <trkpt lat="48.67999" lon="7.89489">
        <ele>130.187807</ele>
        <time>2021-06-20T06:13:19.999Z</time>
      </trkpt>
      <trkpt lat="48.67986" lon="7.8949">
        <ele>130.220664</ele>
        <time>2021-06-20T06:13:21.999Z</time>
      </trkpt>
      <trkpt lat="48.67973" lon="7.8949">
        <ele>130.253495</ele>
        <time>2021-06-20T06:13:23.999Z</time>
      </trkpt>
      <trkpt lat="48.67961" lon="7.89492">
        <ele>130.284907</ele>
        <time>2021-06-20T06:13:25.999Z</time>
      </trkpt>
      <trkpt lat="48.67949" lon="7.89495">
        <ele>130.316451</ele>
        <time>2021-06-20T06:13:27.999Z</time>
      </trkpt>
      <trkpt lat="48.67937" lon="7.89498">
        <ele>130.347634</ele>
        <time>2021-06-20T06:13:29.999Z</time>
      </trkpt>
      <trkpt lat="48.67925" lon="7.89501">
        <ele>130.379129</ele>
        <time>2021-06-20T06:13:31.999Z</time>
      </trkpt>
      <trkpt lat="48.67913" lon="7.89504">
        <ele>130.410718</ele>
        <time>2021-06-20T06:13:33.999Z</time>
      </trkpt>
      <trkpt lat="48.67901" lon="7.89508">
        <ele>130.442814</ele>
        <time>2021-06-20T06:13:35.999Z</time>
      </trkpt>
      <trkpt lat="48.67889" lon="7.89512">
        <ele>130.474267</ele>
        <time>2021-06-20T06:13:37.999Z</time>
      </trkpt>
      <trkpt lat="48.67877" lon="7.89516">
        <ele>130.505888</ele>
        <time>2021-06-20T06:13:39.999Z</time>
      </trkpt>
      <trkpt lat="48.67866" lon="7.89522">
        <ele>130.537315</ele>
        <time>2021-06-20T06:13:41.999Z</time>
      </trkpt>
      <trkpt lat="48.67855" lon="7.89531">
        <ele>130.53216</ele>
        <time>2021-06-20T06:13:43.999Z</time>
      </trkpt>
      <trkpt lat="48.67844" lon="7.8954">
        <ele>130.480708</ele>
        <time>2021-06-20T06:13:45.999Z</time>
      </trkpt>
      <trkpt lat="48.67834" lon="7.89548">
        <ele>130.433633</ele>
        <time>2021-06-20T06:13:47.999Z</time>
      </trkpt>
      <trkpt lat="48.67824" lon="7.89557">
        <ele>130.386993</ele>
        <time>2021-06-20T06:13:49.999Z</time>
      </trkpt>
      <trkpt lat="48.67815" lon="7.89567">
        <ele>130.34143</ele>
        <time>2021-06-20T06:13:51.999Z</time>
      </trkpt>
      <trkpt lat="48.67806" lon="7.89577">
        <ele>130.294538</ele>
        <time>2021-06-20T06:13:53.999Z</time>
      </trkpt>
      <trkpt lat="48.67797" lon="7.89585">
        <ele>130.251097</ele>
        <time>2021-06-20T06:13:55.999Z</time>
      </trkpt>
      <trkpt lat="48.67788" lon="7.89596">
        <ele>130.203381</ele>
        <time>2021-06-20T06:13:57.999Z</time>
      </trkpt>
      <trkpt lat="48.6778" lon="7.8961">
        <ele>130.152001</ele>
        <time>2021-06-20T06:13:59.999Z</time>
      </trkpt>
      <trkpt lat="48.67774" lon="7.89627">
        <ele>130.100306</ele>
        <time>2021-06-20T06:14:01.999Z</time>
      </trkpt>
      <trkpt lat="48.67771" lon="7.89645">
        <ele>130.048953</ele>
        <time>2021-06-20T06:14:03.999Z</time>
      </trkpt>
      <trkpt lat="48.67768" lon="7.89664">
        <ele>129.995616</ele>
        <time>2021-06-20T06:14:05.999Z</time>
      </trkpt>
      <trkpt lat="48.67765" lon="7.89683">
        <ele>129.942279</ele>
        <time>2021-06-20T06:14:07.999Z</time>
      </trkpt>
      <trkpt lat="48.67762" lon="7.897">
        <ele>129.891309</ele>
        <time>2021-06-20T06:14:09.999Z</time>
      </trkpt>
      <trkpt lat="48.67759" lon="7.89718">
        <ele>129.843147</ele>
        <time>2021-06-20T06:14:11.999Z</time>
      </trkpt>
      <trkpt lat="48.67759" lon="7.89733">
        <ele>129.795566</ele>
        <time>2021-06-20T06:14:13.999Z</time>
      </trkpt>
      <trkpt lat="48.67757" lon="7.89749">
        <ele>129.712212</ele>
        <time>2021-06-20T06:14:15.999Z</time>
      </trkpt>
      <trkpt lat="48.67755" lon="7.89764">
        <ele>129.630293</ele>
        <time>2021-06-20T06:14:17.999Z</time>
      </trkpt>
      <trkpt lat="48.67753" lon="7.89783">
        <ele>129.532257</ele>
        <time>2021-06-20T06:14:19.999Z</time>
      </trkpt>
      <trkpt lat="48.6775" lon="7.89801">
        <ele>129.432695</ele>
        <time>2021-06-20T06:14:21.999Z</time>
      </trkpt>
      <trkpt lat="48.67748" lon="7.8982">
        <ele>129.333829</ele>
        <time>2021-06-20T06:14:23.999Z</time>
      </trkpt>
      <trkpt lat="48.67745" lon="7.89838">
        <ele>129.238803</ele>
        <time>2021-06-20T06:14:25.999Z</time>
      </trkpt>
      <trkpt lat="48.67743" lon="7.89855">
        <ele>129.152063</ele>
        <time>2021-06-20T06:14:27.999Z</time>
      </trkpt>
      <trkpt lat="48.6774" lon="7.89867">
        <ele>129.08091</ele>
        <time>2021-06-20T06:14:29.999Z</time>
      </trkpt>
      <trkpt lat="48.67734" lon="7.8988">
        <ele>129.000026</ele>
        <time>2021-06-20T06:14:32.999Z</time>
      </trkpt>
      <trkpt lat="48.67725" lon="7.89885">
        <ele>128.921079</ele>
        <time>2021-06-20T06:14:35.999Z</time>
      </trkpt>
      <trkpt lat="48.67712" lon="7.8988">
        <ele>128.818428</ele>
        <time>2021-06-20T06:14:38.999Z</time>
      </trkpt>
      <trkpt lat="48.67703" lon="7.89879">
        <ele>128.743452</ele>
        <time>2021-06-20T06:14:40.999Z</time>
      </trkpt>
      <trkpt lat="48.67693" lon="7.89876">
        <ele>128.664751</ele>
        <time>2021-06-20T06:14:42.999Z</time>
      </trkpt>
      <trkpt lat="48.67683" lon="7.89872">
        <ele>128.581019</ele>
        <time>2021-06-20T06:14:44.999Z</time>
      </trkpt>
      <trkpt lat="48.67672" lon="7.89869">
        <ele>128.498586</ele>
        <time>2021-06-20T06:14:46.999Z</time>
      </trkpt>
      <trkpt lat="48.67661" lon="7.89864">
        <ele>128.409144</ele>
        <time>2021-06-20T06:14:48.999Z</time>
      </trkpt>
      <trkpt lat="48.6765" lon="7.89862">
        <ele>128.396901</ele>
        <time>2021-06-20T06:14:50.999Z</time>
      </trkpt>
      <trkpt lat="48.6764" lon="7.89857">
        <ele>128.397854</ele>
        <time>2021-06-20T06:14:52.999Z</time>
      </trkpt>
      <trkpt lat="48.6763" lon="7.89852">
        <ele>128.398851</ele>
        <time>2021-06-20T06:14:54.999Z</time>
      </trkpt>
      <trkpt lat="48.67619" lon="7.89849">
        <ele>128.399822</ele>
        <time>2021-06-20T06:14:56.999Z</time>
      </trkpt>
      <trkpt lat="48.67606" lon="7.89843">
        <ele>128.401055</ele>
        <time>2021-06-20T06:14:59.999Z</time>
      </trkpt>
      <trkpt lat="48.67592" lon="7.89835">
        <ele>128.402389</ele>
        <time>2021-06-20T06:15:02.999Z</time>
      </trkpt>
      <trkpt lat="48.67581" lon="7.89829">
        <ele>128.403493</ele>
        <time>2021-06-20T06:15:04.999Z</time>
      </trkpt>
      <trkpt lat="48.67569" lon="7.89824">
        <ele>128.404595</ele>
        <time>2021-06-20T06:15:06.999Z</time>
      </trkpt>
      <trkpt lat="48.67558" lon="7.89819">
        <ele>128.405677</ele>
        <time>2021-06-20T06:15:08.999Z</time>
      </trkpt>
      <trkpt lat="48.67546" lon="7.89814">
        <ele>128.406772</ele>
        <time>2021-06-20T06:15:10.999Z</time>
      </trkpt>
      <trkpt lat="48.67534" lon="7.89809">
        <ele>128.407924</ele>
        <time>2021-06-20T06:15:12.999Z</time>
      </trkpt>
      <trkpt lat="48.67524" lon="7.89805">
        <ele>128.40883</ele>
        <time>2021-06-20T06:15:14.999Z</time>
      </trkpt>
      <trkpt lat="48.67514" lon="7.89798">
        <ele>128.409896</ele>
        <time>2021-06-20T06:15:16.999Z</time>
      </trkpt>
      <trkpt lat="48.67502" lon="7.89794">
        <ele>128.410995</ele>
        <time>2021-06-20T06:15:18.999Z</time>
      </trkpt>
      <trkpt lat="48.67489" lon="7.89791">
        <ele>128.412192</ele>
        <time>2021-06-20T06:15:20.999Z</time>
      </trkpt>
      <trkpt lat="48.67476" lon="7.89785">
        <ele>128.458741</ele>
        <time>2021-06-20T06:15:22.999Z</time>
      </trkpt>
      <trkpt lat="48.67464" lon="7.89779">
        <ele>128.509933</ele>
        <time>2021-06-20T06:15:24.999Z</time>
      </trkpt>
      <trkpt lat="48.67452" lon="7.89772">
        <ele>128.560468</ele>
        <time>2021-06-20T06:15:26.999Z</time>
      </trkpt>
      <trkpt lat="48.6744" lon="7.89766">
        <ele>128.60947</ele>
        <time>2021-06-20T06:15:28.999Z</time>
      </trkpt>
      <trkpt lat="48.67429" lon="7.89761">
        <ele>128.656937</ele>
        <time>2021-06-20T06:15:30.999Z</time>
      </trkpt>
      <trkpt lat="48.67418" lon="7.89756">
        <ele>128.702271</ele>
        <time>2021-06-20T06:15:32.999Z</time>
      </trkpt>
      <trkpt lat="48.67406" lon="7.8975">
        <ele>128.749934</ele>
        <time>2021-06-20T06:15:34.999Z</time>
      </trkpt>
      <trkpt lat="48.67395" lon="7.89745">
        <ele>128.796943</ele>
        <time>2021-06-20T06:15:36.999Z</time>
      </trkpt>
      <trkpt lat="48.67384" lon="7.8974">
        <ele>128.843192</ele>
        <time>2021-06-20T06:15:38.999Z</time>
      </trkpt>
      <trkpt lat="48.67373" lon="7.89736">
        <ele>128.887154</ele>
        <time>2021-06-20T06:15:40.999Z</time>
      </trkpt>
      <trkpt lat="48.67363" lon="7.8973">
        <ele>128.93239</ele>
        <time>2021-06-20T06:15:42.999Z</time>
      </trkpt>
      <trkpt lat="48.67352" lon="7.89727">
        <ele>128.977186</ele>
        <time>2021-06-20T06:15:44.999Z</time>
      </trkpt>
      <trkpt lat="48.67341" lon="7.8972">
        <ele>129.023912</ele>
        <time>2021-06-20T06:15:46.999Z</time>
      </trkpt>
      <trkpt lat="48.67329" lon="7.89714">
        <ele>129.072242</ele>
        <time>2021-06-20T06:15:48.999Z</time>
      </trkpt>
      <trkpt lat="48.67318" lon="7.89709">
        <ele>129.119108</ele>
        <time>2021-06-20T06:15:50.999Z</time>
      </trkpt>
      <trkpt lat="48.67307" lon="7.89704">
        <ele>129.1009</ele>
        <time>2021-06-20T06:15:52.999Z</time>
      </trkpt>
      <trkpt lat="48.67295" lon="7.897">
        <ele>129.066597</ele>
        <time>2021-06-20T06:15:54.999Z</time>
      </trkpt>
      <trkpt lat="48.67284" lon="7.89695">
        <ele>129.032001</ele>
        <time>2021-06-20T06:15:56.999Z</time>
      </trkpt>
      <trkpt lat="48.67272" lon="7.8969">
        <ele>128.99658</ele>
        <time>2021-06-20T06:15:58.999Z</time>
      </trkpt>
      <trkpt lat="48.6726" lon="7.89683">
        <ele>128.961164</ele>
        <time>2021-06-20T06:16:00.999Z</time>
      </trkpt>
      <trkpt lat="48.67249" lon="7.89677">
        <ele>128.925392</ele>
        <time>2021-06-20T06:16:02.999Z</time>
      </trkpt>
      <trkpt lat="48.67237" lon="7.89672">
        <ele>128.891019</ele>
        <time>2021-06-20T06:16:04.999Z</time>
      </trkpt>
      <trkpt lat="48.67226" lon="7.89666">
        <ele>128.857686</ele>
        <time>2021-06-20T06:16:06.999Z</time>
      </trkpt>
      <trkpt lat="48.67216" lon="7.89661">
        <ele>128.824415</ele>
        <time>2021-06-20T06:16:08.999Z</time>
      </trkpt>
      <trkpt lat="48.67204" lon="7.89654">
        <ele>128.78968</ele>
        <time>2021-06-20T06:16:10.999Z</time>
      </trkpt>
      <trkpt lat="48.67194" lon="7.89649">
        <ele>128.756861</ele>
        <time>2021-06-20T06:16:12.999Z</time>
      </trkpt>
      <trkpt lat="48.67183" lon="7.89642">
        <ele>128.723295</ele>
        <time>2021-06-20T06:16:14.999Z</time>
      </trkpt>
      <trkpt lat="48.67172" lon="7.89635">
        <ele>128.68896</ele>
        <time>2021-06-20T06:16:16.999Z</time>
      </trkpt>
      <trkpt lat="48.67161" lon="7.89629">
        <ele>128.653684</ele>
        <time>2021-06-20T06:16:18.999Z</time>
      </trkpt>
      <trkpt lat="48.6715" lon="7.8962">
        <ele>128.618238</ele>
        <time>2021-06-20T06:16:20.999Z</time>
      </trkpt>
      <trkpt lat="48.67138" lon="7.89612">
        <ele>128.656867</ele>
        <time>2021-06-20T06:16:22.999Z</time>
      </trkpt>
      <trkpt lat="48.67128" lon="7.89605">
        <ele>128.717239</ele>
        <time>2021-06-20T06:16:24.999Z</time>
      </trkpt>
      <trkpt lat="48.67117" lon="7.89596">
        <ele>128.785957</ele>
        <time>2021-06-20T06:16:26.999Z</time>
      </trkpt>
      <trkpt lat="48.67107" lon="7.8959">
        <ele>128.844426</ele>
        <time>2021-06-20T06:16:28.999Z</time>
      </trkpt>
      <trkpt lat="48.67098" lon="7.89583">
        <ele>128.901393</ele>
        <time>2021-06-20T06:16:30.999Z</time>
      </trkpt>
      <trkpt lat="48.67087" lon="7.89575">
        <ele>128.96619</ele>
        <time>2021-06-20T06:16:32.999Z</time>
      </trkpt>
      <trkpt lat="48.67077" lon="7.89568">
        <ele>129.026915</ele>
        <time>2021-06-20T06:16:34.999Z</time>
      </trkpt>
      <trkpt lat="48.67067" lon="7.8956">
        <ele>129.091051</ele>
        <time>2021-06-20T06:16:36.999Z</time>
      </trkpt>
      <trkpt lat="48.67057" lon="7.8955">
        <ele>129.155822</ele>
        <time>2021-06-20T06:16:38.999Z</time>
      </trkpt>
      <trkpt lat="48.67047" lon="7.89542">
        <ele>129.21989</ele>
        <time>2021-06-20T06:16:40.999Z</time>
      </trkpt>
      <trkpt lat="48.67036" lon="7.89533">
        <ele>129.286324</ele>
        <time>2021-06-20T06:16:42.999Z</time>
      </trkpt>
      <trkpt lat="48.67027" lon="7.89526">
        <ele>129.342944</ele>
        <time>2021-06-20T06:16:44.999Z</time>
      </trkpt>
      <trkpt lat="48.67018" lon="7.89516">
        <ele>129.403762</ele>
        <time>2021-06-20T06:16:46.999Z</time>
      </trkpt>
      <trkpt lat="48.67009" lon="7.89506">
        <ele>129.467988</ele>
        <time>2021-06-20T06:16:48.999Z</time>
      </trkpt>
      <trkpt lat="48.66999" lon="7.89495">
        <ele>129.532918</ele>
        <time>2021-06-20T06:16:50.999Z</time>
      </trkpt>
      <trkpt lat="48.6699" lon="7.89486">
        <ele>129.594143</ele>
        <time>2021-06-20T06:16:52.999Z</time>
      </trkpt>
      <trkpt lat="48.66982" lon="7.89475">
        <ele>129.603379</ele>
        <time>2021-06-20T06:16:54.999Z</time>
      </trkpt>
      <trkpt lat="48.66973" lon="7.89464">
        <ele>129.611414</ele>
        <time>2021-06-20T06:16:56.999Z</time>
      </trkpt>
      <trkpt lat="48.66963" lon="7.89454">
        <ele>129.619771</ele>
        <time>2021-06-20T06:16:58.999Z</time>
      </trkpt>
      <trkpt lat="48.66954" lon="7.89444">
        <ele>129.628027</ele>
        <time>2021-06-20T06:17:00.999Z</time>
      </trkpt>
      <trkpt lat="48.66945" lon="7.89432">
        <ele>129.6361</ele>
        <time>2021-06-20T06:17:02.999Z</time>
      </trkpt>
      <trkpt lat="48.66935" lon="7.89423">
        <ele>129.643922</ele>
        <time>2021-06-20T06:17:04.999Z</time>
      </trkpt>
      <trkpt lat="48.66927" lon="7.89413">
        <ele>129.651128</ele>
        <time>2021-06-20T06:17:06.999Z</time>
      </trkpt>
      <trkpt lat="48.66918" lon="7.89401">
        <ele>129.659581</ele>
        <time>2021-06-20T06:17:08.999Z</time>
      </trkpt>
      <trkpt lat="48.66909" lon="7.89389">
        <ele>129.667873</ele>
        <time>2021-06-20T06:17:10.999Z</time>
      </trkpt>
      <trkpt lat="48.66901" lon="7.89379">
        <ele>129.675465</ele>
        <time>2021-06-20T06:17:12.999Z</time>
      </trkpt>
      <trkpt lat="48.66892" lon="7.89369">
        <ele>129.682803</ele>
        <time>2021-06-20T06:17:14.999Z</time>
      </trkpt>
      <trkpt lat="48.66883" lon="7.89357">
        <ele>129.691103</ele>
        <time>2021-06-20T06:17:16.999Z</time>
      </trkpt>
      <trkpt lat="48.66875" lon="7.89345">
        <ele>129.699039</ele>
        <time>2021-06-20T06:17:18.999Z</time>
      </trkpt>
      <trkpt lat="48.66867" lon="7.89333">
        <ele>129.706847</ele>
        <time>2021-06-20T06:17:20.999Z</time>
      </trkpt>
      <trkpt lat="48.66859" lon="7.89322">
        <ele>129.714622</ele>
        <time>2021-06-20T06:17:22.999Z</time>
      </trkpt>
      <trkpt lat="48.66851" lon="7.89311">
        <ele>129.725323</ele>
        <time>2021-06-20T06:17:24.999Z</time>
      </trkpt>
      <trkpt lat="48.6684" lon="7.89298">
        <ele>129.8196</ele>
        <time>2021-06-20T06:17:27.999Z</time>
      </trkpt>
      <trkpt lat="48.66833" lon="7.89285">
        <ele>129.891155</ele>
        <time>2021-06-20T06:17:29.999Z</time>
      </trkpt>
      <trkpt lat="48.66825" lon="7.89274">
        <ele>129.958242</ele>
        <time>2021-06-20T06:17:31.999Z</time>
      </trkpt>
      <trkpt lat="48.66818" lon="7.89263">
        <ele>130.026555</ele>
        <time>2021-06-20T06:17:33.999Z</time>
      </trkpt>
      <trkpt lat="48.66811" lon="7.89251">
        <ele>130.095488</ele>
        <time>2021-06-20T06:17:35.999Z</time>
      </trkpt>
      <trkpt lat="48.66804" lon="7.89239">
        <ele>130.16151</ele>
        <time>2021-06-20T06:17:37.999Z</time>
      </trkpt>
      <trkpt lat="48.66796" lon="7.89231">
        <ele>130.224106</ele>
        <time>2021-06-20T06:17:39.999Z</time>
      </trkpt>
      <trkpt lat="48.6679" lon="7.89221">
        <ele>130.286467</ele>
        <time>2021-06-20T06:17:41.999Z</time>
      </trkpt>
      <trkpt lat="48.66786" lon="7.89208">
        <ele>130.347503</ele>
        <time>2021-06-20T06:17:43.999Z</time>
      </trkpt>
      <trkpt lat="48.66778" lon="7.89194">
        <ele>130.431219</ele>
        <time>2021-06-20T06:17:46.999Z</time>
      </trkpt>
      <trkpt lat="48.66767" lon="7.89182">
        <ele>130.517119</ele>
        <time>2021-06-20T06:17:48.999Z</time>
      </trkpt>
      <trkpt lat="48.6676" lon="7.89169">
        <ele>130.59145</ele>
        <time>2021-06-20T06:17:50.999Z</time>
      </trkpt>
      <trkpt lat="48.66756" lon="7.89157">
        <ele>130.650476</ele>
        <time>2021-06-20T06:17:52.999Z</time>
      </trkpt>
      <trkpt lat="48.66749" lon="7.89143">
        <ele>130.722446</ele>
        <time>2021-06-20T06:17:54.999Z</time>
      </trkpt>
      <trkpt lat="48.66743" lon="7.89132">
        <ele>130.788365</ele>
        <time>2021-06-20T06:17:56.999Z</time>
      </trkpt>
      <trkpt lat="48.66734" lon="7.8912">
        <ele>130.8627</ele>
        <time>2021-06-20T06:17:58.999Z</time>
      </trkpt>
      <trkpt lat="48.66727" lon="7.89106">
        <ele>130.911281</ele>
        <time>2021-06-20T06:18:00.999Z</time>
      </trkpt>
      <trkpt lat="48.66722" lon="7.89092">
        <ele>130.935462</ele>
        <time>2021-06-20T06:18:02.999Z</time>
      </trkpt>
      <trkpt lat="48.66718" lon="7.89076">
        <ele>130.961069</ele>
        <time>2021-06-20T06:18:04.999Z</time>
      </trkpt>
      <trkpt lat="48.66711" lon="7.89064">
        <ele>130.985466</ele>
        <time>2021-06-20T06:18:06.999Z</time>
      </trkpt>
      <trkpt lat="48.66705" lon="7.89052">
        <ele>131.00819</ele>
        <time>2021-06-20T06:18:08.999Z</time>
      </trkpt>
      <trkpt lat="48.667" lon="7.89035">
        <ele>131.035496</ele>
        <time>2021-06-20T06:18:10.999Z</time>
      </trkpt>
      <trkpt lat="48.66695" lon="7.89024">
        <ele>131.056184</ele>
        <time>2021-06-20T06:18:12.999Z</time>
      </trkpt>
      <trkpt lat="48.66689" lon="7.8901">
        <ele>131.081673</ele>
        <time>2021-06-20T06:18:14.999Z</time>
      </trkpt>
      <trkpt lat="48.66684" lon="7.88995">
        <ele>131.105922</ele>
        <time>2021-06-20T06:18:16.999Z</time>
      </trkpt>
      <trkpt lat="48.66679" lon="7.88978">
        <ele>131.134439</ele>
        <time>2021-06-20T06:18:19.999Z</time>
      </trkpt>
      <trkpt lat="48.66677" lon="7.88962">
        <ele>131.158975</ele>
        <time>2021-06-20T06:18:21.999Z</time>
      </trkpt>
      <trkpt lat="48.66674" lon="7.88943">
        <ele>131.188616</ele>
        <time>2021-06-20T06:18:24.999Z</time>
      </trkpt>
      <trkpt lat="48.66667" lon="7.88931">
        <ele>131.21179</ele>
        <time>2021-06-20T06:18:26.999Z</time>
      </trkpt>
      <trkpt lat="48.66662" lon="7.88919">
        <ele>131.234505</ele>
        <time>2021-06-20T06:18:28.999Z</time>
      </trkpt>
      <trkpt lat="48.66658" lon="7.88905">
        <ele>131.258004</ele>
        <time>2021-06-20T06:18:30.999Z</time>
      </trkpt>
      <trkpt lat="48.66657" lon="7.88889">
        <ele>131.281698</ele>
        <time>2021-06-20T06:18:32.999Z</time>
      </trkpt>
      <trkpt lat="48.66651" lon="7.88874">
        <ele>131.307376</ele>
        <time>2021-06-20T06:18:35.999Z</time>
      </trkpt>
      <trkpt lat="48.66648" lon="7.88859">
        <ele>131.308441</ele>
        <time>2021-06-20T06:18:37.999Z</time>
      </trkpt>
      <trkpt lat="48.66648" lon="7.88842">
        <ele>131.309561</ele>
        <time>2021-06-20T06:18:39.999Z</time>
      </trkpt>
      <trkpt lat="48.66647" lon="7.88823">
        <ele>131.310872</ele>
        <time>2021-06-20T06:18:41.999Z</time>
      </trkpt>
      <trkpt lat="48.66647" lon="7.88805">
        <ele>131.312119</ele>
        <time>2021-06-20T06:18:43.999Z</time>
      </trkpt>
      <trkpt lat="48.66644" lon="7.88791">
        <ele>131.313084</ele>
        <time>2021-06-20T06:18:45.999Z</time>
      </trkpt>
      <trkpt lat="48.66644" lon="7.88776">
        <ele>131.314072</ele>
        <time>2021-06-20T06:18:47.999Z</time>
      </trkpt>
      <trkpt lat="48.66645" lon="7.8876">
        <ele>131.315157</ele>
        <time>2021-06-20T06:18:49.999Z</time>
      </trkpt>
      <trkpt lat="48.66644" lon="7.88741">
        <ele>131.316491</ele>
        <time>2021-06-20T06:18:51.999Z</time>
      </trkpt>
      <trkpt lat="48.66642" lon="7.88723">
        <ele>131.317679</ele>
        <time>2021-06-20T06:18:53.999Z</time>
      </trkpt>
      <trkpt lat="48.66641" lon="7.88707">
        <ele>131.318773</ele>
        <time>2021-06-20T06:18:55.999Z</time>
      </trkpt>
      <trkpt lat="48.66639" lon="7.88687">
        <ele>131.320142</ele>
        <time>2021-06-20T06:18:58.999Z</time>
      </trkpt>
      <trkpt lat="48.66639" lon="7.88672">
        <ele>131.321171</ele>
        <time>2021-06-20T06:19:00.999Z</time>
      </trkpt>
      <trkpt lat="48.66637" lon="7.88654">
        <ele>131.322382</ele>
        <time>2021-06-20T06:19:02.999Z</time>
      </trkpt>
      <trkpt lat="48.66636" lon="7.88639">
        <ele>131.323405</ele>
        <time>2021-06-20T06:19:04.999Z</time>
      </trkpt>
      <trkpt lat="48.66635" lon="7.88622">
        <ele>131.324592</ele>
        <time>2021-06-20T06:19:06.999Z</time>
      </trkpt>
      <trkpt lat="48.66636" lon="7.88606">
        <ele>131.325715</ele>
        <time>2021-06-20T06:19:08.999Z</time>
      </trkpt>
      <trkpt lat="48.66635" lon="7.8859">
        <ele>131.326671</ele>
        <time>2021-06-20T06:19:10.999Z</time>
      </trkpt>
      <trkpt lat="48.66635" lon="7.8857">
        <ele>131.327955</ele>
        <time>2021-06-20T06:19:12.999Z</time>
      </trkpt>
      <trkpt lat="48.66633" lon="7.88554">
        <ele>131.32894</ele>
        <time>2021-06-20T06:19:14.999Z</time>
      </trkpt>
      <trkpt lat="48.66632" lon="7.88537">
        <ele>131.330006</ele>
        <time>2021-06-20T06:19:16.999Z</time>
      </trkpt>
      <trkpt lat="48.66632" lon="7.88521">
        <ele>131.331034</ele>
        <time>2021-06-20T06:19:18.999Z</time>
      </trkpt>
      <trkpt lat="48.6663" lon="7.88499">
        <ele>131.332402</ele>
        <time>2021-06-20T06:19:21.999Z</time>
      </trkpt>
      <trkpt lat="48.6663" lon="7.88481">
        <ele>131.333502</ele>
        <time>2021-06-20T06:19:23.999Z</time>
      </trkpt>
      <trkpt lat="48.6663" lon="7.88462">
        <ele>131.334675</ele>
        <time>2021-06-20T06:19:25.999Z</time>
      </trkpt>
      <trkpt lat="48.66627" lon="7.88447">
        <ele>131.335667</ele>
        <time>2021-06-20T06:19:27.999Z</time>
      </trkpt>
      <trkpt lat="48.66628" lon="7.88431">
        <ele>131.336711</ele>
        <time>2021-06-20T06:19:29.999Z</time>
      </trkpt>
      <trkpt lat="48.66627" lon="7.88414">
        <ele>131.337734</ele>
        <time>2021-06-20T06:19:31.999Z</time>
      </trkpt>
      <trkpt lat="48.66627" lon="7.88396">
        <ele>131.338863</ele>
        <time>2021-06-20T06:19:33.999Z</time>
      </trkpt>
      <trkpt lat="48.66624" lon="7.88382">
        <ele>131.339814</ele>
        <time>2021-06-20T06:19:35.999Z</time>
      </trkpt>
      <trkpt lat="48.66624" lon="7.88366">
        <ele>131.340799</ele>
        <time>2021-06-20T06:19:37.999Z</time>
      </trkpt>
      <trkpt lat="48.66626" lon="7.88346">
        <ele>131.342045</ele>
        <time>2021-06-20T06:19:40.999Z</time>
      </trkpt>
      <trkpt lat="48.66623" lon="7.88331">
        <ele>131.348308</ele>
        <time>2021-06-20T06:19:42.999Z</time>
      </trkpt>
      <trkpt lat="48.66621" lon="7.88316">
        <ele>131.364688</ele>
        <time>2021-06-20T06:19:44.999Z</time>
      </trkpt>
      <trkpt lat="48.66624" lon="7.883">
        <ele>131.383773</ele>
        <time>2021-06-20T06:19:46.999Z</time>
      </trkpt>
      <trkpt lat="48.66619" lon="7.88281">
        <ele>131.406416</ele>
        <time>2021-06-20T06:19:48.999Z</time>
      </trkpt>
      <trkpt lat="48.6662" lon="7.88262">
        <ele>131.428245</ele>
        <time>2021-06-20T06:19:50.999Z</time>
      </trkpt>
      <trkpt lat="48.66619" lon="7.88238">
        <ele>131.454581</ele>
        <time>2021-06-20T06:19:52.999Z</time>
      </trkpt>
      <trkpt lat="48.6662" lon="7.88223">
        <ele>131.471281</ele>
        <time>2021-06-20T06:19:53.999Z</time>
      </trkpt>
      <trkpt lat="48.66618" lon="7.88204">
        <ele>131.493389</ele>
        <time>2021-06-20T06:19:55.999Z</time>
      </trkpt>
      <trkpt lat="48.66616" lon="7.88185">
        <ele>131.514625</ele>
        <time>2021-06-20T06:19:57.999Z</time>
      </trkpt>
      <trkpt lat="48.66617" lon="7.88163">
        <ele>131.538834</ele>
        <time>2021-06-20T06:19:59.999Z</time>
      </trkpt>
      <trkpt lat="48.66616" lon="7.88144">
        <ele>131.560857</ele>
        <time>2021-06-20T06:20:01.999Z</time>
      </trkpt>
      <trkpt lat="48.66614" lon="7.88124">
        <ele>131.583782</ele>
        <time>2021-06-20T06:20:03.999Z</time>
      </trkpt>
      <trkpt lat="48.66614" lon="7.88103">
        <ele>131.606525</ele>
        <time>2021-06-20T06:20:05.999Z</time>
      </trkpt>
      <trkpt lat="48.66613" lon="7.88086">
        <ele>131.625534</ele>
        <time>2021-06-20T06:20:07.999Z</time>
      </trkpt>
      <trkpt lat="48.66613" lon="7.88067">
        <ele>131.64705</ele>
        <time>2021-06-20T06:20:09.999Z</time>
      </trkpt>
      <trkpt lat="48.66613" lon="7.8805">
        <ele>131.655404</ele>
        <time>2021-06-20T06:20:11.999Z</time>
      </trkpt>
      <trkpt lat="48.66611" lon="7.88033">
        <ele>131.66386</ele>
        <time>2021-06-20T06:20:14.999Z</time>
      </trkpt>
      <trkpt lat="48.66616" lon="7.88019">
        <ele>131.670901</ele>
        <time>2021-06-20T06:20:16.999Z</time>
      </trkpt>
      <trkpt lat="48.66622" lon="7.88006">
        <ele>131.678947</ele>
        <time>2021-06-20T06:20:18.999Z</time>
      </trkpt>
      <trkpt lat="48.66631" lon="7.87999">
        <ele>131.685549</ele>
        <time>2021-06-20T06:20:20.999Z</time>
      </trkpt>
      <trkpt lat="48.66638" lon="7.87989">
        <ele>131.692339</ele>
        <time>2021-06-20T06:20:23.999Z</time>
      </trkpt>
      <trkpt lat="48.66649" lon="7.87982">
        <ele>131.700768</ele>
        <time>2021-06-20T06:20:28.999Z</time>
      </trkpt>
      <trkpt lat="48.66658" lon="7.87974">
        <ele>131.708746</ele>
        <time>2021-06-20T06:20:31.999Z</time>
      </trkpt>
      <trkpt lat="48.66667" lon="7.87966">
        <ele>131.716362</ele>
        <time>2021-06-20T06:20:34.999Z</time>
      </trkpt>
      <trkpt lat="48.66678" lon="7.87961">
        <ele>131.724119</ele>
        <time>2021-06-20T06:20:37.999Z</time>
      </trkpt>
      <trkpt lat="48.66687" lon="7.87957">
        <ele>131.731129</ele>
        <time>2021-06-20T06:20:40.999Z</time>
      </trkpt>
      <trkpt lat="48.66697" lon="7.87954">
        <ele>131.73807</ele>
        <time>2021-06-20T06:20:44.999Z</time>
      </trkpt>
      <trkpt lat="48.66706" lon="7.8795">
        <ele>131.744509</ele>
        <time>2021-06-20T06:20:48.999Z</time>
      </trkpt>
      <trkpt lat="48.66718" lon="7.87945">
        <ele>131.753297</ele>
        <time>2021-06-20T06:20:51.999Z</time>
      </trkpt>
      <trkpt lat="48.66727" lon="7.87942">
        <ele>131.760256</ele>
        <time>2021-06-20T06:20:53.999Z</time>
      </trkpt>
      <trkpt lat="48.66737" lon="7.87939">
        <ele>131.767146</ele>
        <time>2021-06-20T06:20:56.999Z</time>
      </trkpt>
      <trkpt lat="48.66745" lon="7.87932">
        <ele>131.774087</ele>
        <time>2021-06-20T06:20:59.999Z</time>
      </trkpt>
      <trkpt lat="48.66754" lon="7.87935">
        <ele>131.764998</ele>
        <time>2021-06-20T06:21:01.999Z</time>
      </trkpt>
      <trkpt lat="48.66764" lon="7.87932">
        <ele>131.748866</ele>
        <time>2021-06-20T06:21:03.999Z</time>
      </trkpt>
      <trkpt lat="48.66776" lon="7.87927">
        <ele>131.72931</ele>
        <time>2021-06-20T06:21:06.999Z</time>
      </trkpt>
      <trkpt lat="48.66786" lon="7.87925">
        <ele>131.714423</ele>
        <time>2021-06-20T06:21:08.999Z</time>
      </trkpt>
      <trkpt lat="48.66795" lon="7.87919">
        <ele>131.699762</ele>
        <time>2021-06-20T06:21:11.999Z</time>
      </trkpt>
      <trkpt lat="48.66807" lon="7.87907">
        <ele>131.67726</ele>
        <time>2021-06-20T06:21:14.999Z</time>
      </trkpt>
      <trkpt lat="48.66815" lon="7.87902">
        <ele>131.663111</ele>
        <time>2021-06-20T06:21:16.999Z</time>
      </trkpt>
      <trkpt lat="48.66825" lon="7.87897">
        <ele>131.64607</ele>
        <time>2021-06-20T06:21:19.999Z</time>
      </trkpt>
      <trkpt lat="48.66835" lon="7.87896">
        <ele>131.630739</ele>
        <time>2021-06-20T06:21:25.999Z</time>
      </trkpt>
      <trkpt lat="48.66844" lon="7.879">
        <ele>131.616462</ele>
        <time>2021-06-20T06:21:44.999Z</time>
      </trkpt>
      <trkpt lat="48.66853" lon="7.87895">
        <ele>131.601913</ele>
        <time>2021-06-20T06:22:07.999Z</time>
      </trkpt>
      <trkpt lat="48.66861" lon="7.87884">
        <ele>131.585079</ele>
        <time>2021-06-20T06:22:13.999Z</time>
      </trkpt>
      <trkpt lat="48.6687" lon="7.87877">
        <ele>131.568866</ele>
        <time>2021-06-20T06:22:21.999Z</time>
      </trkpt>
      <trkpt lat="48.66878" lon="7.8787">
        <ele>131.554959</ele>
        <time>2021-06-20T06:22:25.999Z</time>
      </trkpt>
      <trkpt lat="48.66886" lon="7.87862">
        <ele>131.540027</ele>
        <time>2021-06-20T06:22:28.999Z</time>
      </trkpt>
      <trkpt lat="48.66897" lon="7.87851">
        <ele>131.519377</ele>
        <time>2021-06-20T06:22:32.999Z</time>
      </trkpt>
      <trkpt lat="48.66904" lon="7.87841">
        <ele>131.504853</ele>
        <time>2021-06-20T06:22:34.999Z</time>
      </trkpt>
      <trkpt lat="48.66912" lon="7.87829">
        <ele>131.509402</ele>
        <time>2021-06-20T06:22:37.999Z</time>
      </trkpt>
      <trkpt lat="48.66922" lon="7.87824">
        <ele>131.53824</ele>
        <time>2021-06-20T06:22:40.999Z</time>
      </trkpt>
      <trkpt lat="48.66932" lon="7.87815">
        <ele>131.571108</ele>
        <time>2021-06-20T06:22:42.999Z</time>
      </trkpt>
      <trkpt lat="48.66942" lon="7.87801">
        <ele>131.608812</ele>
        <time>2021-06-20T06:22:44.999Z</time>
      </trkpt>
      <trkpt lat="48.66949" lon="7.87794">
        <ele>131.633876</ele>
        <time>2021-06-20T06:22:46.999Z</time>
      </trkpt>
      <trkpt lat="48.66959" lon="7.87783">
        <ele>131.66736</ele>
        <time>2021-06-20T06:22:49.999Z</time>
      </trkpt>
      <trkpt lat="48.66967" lon="7.87771">
        <ele>131.698373</ele>
        <time>2021-06-20T06:22:52.999Z</time>
      </trkpt>
      <trkpt lat="48.66976" lon="7.8776">
        <ele>131.731011</ele>
        <time>2021-06-20T06:22:54.999Z</time>
      </trkpt>
      <trkpt lat="48.66984" lon="7.87752">
        <ele>131.758503</ele>
        <time>2021-06-20T06:22:57.999Z</time>
      </trkpt>
      <trkpt lat="48.66993" lon="7.87741">
        <ele>131.791571</ele>
        <time>2021-06-20T06:23:00.999Z</time>
      </trkpt>
      <trkpt lat="48.67003" lon="7.87734">
        <ele>131.821988</ele>
        <time>2021-06-20T06:23:02.999Z</time>
      </trkpt>
      <trkpt lat="48.67011" lon="7.87724">
        <ele>131.84958</ele>
        <time>2021-06-20T06:23:04.999Z</time>
      </trkpt>
      <trkpt lat="48.67019" lon="7.87712">
        <ele>131.882041</ele>
        <time>2021-06-20T06:23:06.999Z</time>
      </trkpt>
      <trkpt lat="48.67029" lon="7.87705">
        <ele>131.913218</ele>
        <time>2021-06-20T06:23:09.999Z</time>
      </trkpt>
      <trkpt lat="48.67039" lon="7.87695">
        <ele>131.946033</ele>
        <time>2021-06-20T06:23:11.999Z</time>
      </trkpt>
      <trkpt lat="48.67046" lon="7.87683">
        <ele>131.975372</ele>
        <time>2021-06-20T06:23:13.999Z</time>
      </trkpt>
      <trkpt lat="48.67054" lon="7.87669">
        <ele>131.994458</ele>
        <time>2021-06-20T06:23:15.999Z</time>
      </trkpt>
      <trkpt lat="48.67061" lon="7.87657">
        <ele>131.985216</ele>
        <time>2021-06-20T06:23:17.999Z</time>
      </trkpt>
      <trkpt lat="48.67069" lon="7.87645">
        <ele>131.975758</ele>
        <time>2021-06-20T06:23:19.999Z</time>
      </trkpt>
      <trkpt lat="48.67078" lon="7.87629">
        <ele>131.963936</ele>
        <time>2021-06-20T06:23:21.999Z</time>
      </trkpt>
      <trkpt lat="48.67085" lon="7.87617">
        <ele>131.954278</ele>
        <time>2021-06-20T06:23:23.999Z</time>
      </trkpt>
      <trkpt lat="48.6709" lon="7.87601">
        <ele>131.944549</ele>
        <time>2021-06-20T06:23:25.999Z</time>
      </trkpt>
      <trkpt lat="48.67096" lon="7.87587">
        <ele>131.934512</ele>
        <time>2021-06-20T06:23:27.999Z</time>
      </trkpt>
      <trkpt lat="48.67108" lon="7.87573">
        <ele>131.921657</ele>
        <time>2021-06-20T06:23:30.999Z</time>
      </trkpt>
      <trkpt lat="48.67117" lon="7.87559">
        <ele>131.910594</ele>
        <time>2021-06-20T06:23:32.999Z</time>
      </trkpt>
      <trkpt lat="48.67128" lon="7.87548">
        <ele>131.899238</ele>
        <time>2021-06-20T06:23:34.999Z</time>
      </trkpt>
      <trkpt lat="48.67135" lon="7.87533">
        <ele>131.889162</ele>
        <time>2021-06-20T06:23:36.999Z</time>
      </trkpt>
      <trkpt lat="48.67133" lon="7.87516">
        <ele>131.879122</ele>
        <time>2021-06-20T06:23:38.999Z</time>
      </trkpt>
      <trkpt lat="48.6713" lon="7.87501">
        <ele>131.870357</ele>
        <time>2021-06-20T06:23:40.999Z</time>
      </trkpt>
      <trkpt lat="48.67127" lon="7.87486">
        <ele>131.861418</ele>
        <time>2021-06-20T06:23:42.999Z</time>
      </trkpt>
      <trkpt lat="48.67124" lon="7.8747">
        <ele>131.851874</ele>
        <time>2021-06-20T06:23:45.999Z</time>
      </trkpt>
      <trkpt lat="48.67123" lon="7.87456">
        <ele>131.843729</ele>
        <time>2021-06-20T06:23:47.999Z</time>
      </trkpt>
      <trkpt lat="48.67127" lon="7.87438">
        <ele>131.75087</ele>
        <time>2021-06-20T06:23:49.999Z</time>
      </trkpt>
      <trkpt lat="48.67128" lon="7.87424">
        <ele>131.676246</ele>
        <time>2021-06-20T06:23:51.999Z</time>
      </trkpt>
      <trkpt lat="48.67125" lon="7.87411">
        <ele>131.601181</ele>
        <time>2021-06-20T06:23:53.999Z</time>
      </trkpt>
      <trkpt lat="48.67123" lon="7.87394">
        <ele>131.509843</ele>
        <time>2021-06-20T06:23:56.999Z</time>
      </trkpt>
      <trkpt lat="48.67123" lon="7.87376">
        <ele>131.415616</ele>
        <time>2021-06-20T06:23:59.999Z</time>
      </trkpt>
      <trkpt lat="48.67124" lon="7.87357">
        <ele>131.313554</ele>
        <time>2021-06-20T06:24:02.999Z</time>
      </trkpt>
      <trkpt lat="48.67124" lon="7.87342">
        <ele>131.232071</ele>
        <time>2021-06-20T06:24:04.999Z</time>
      </trkpt>
      <trkpt lat="48.67123" lon="7.87326">
        <ele>131.146979</ele>
        <time>2021-06-20T06:24:06.999Z</time>
      </trkpt>
      <trkpt lat="48.6712" lon="7.87312">
        <ele>131.070636</ele>
        <time>2021-06-20T06:24:08.999Z</time>
      </trkpt>
      <trkpt lat="48.67117" lon="7.87298">
        <ele>130.990653</ele>
        <time>2021-06-20T06:24:10.999Z</time>
      </trkpt>
      <trkpt lat="48.67114" lon="7.87283">
        <ele>130.908506</ele>
        <time>2021-06-20T06:24:12.999Z</time>
      </trkpt>
      <trkpt lat="48.67106" lon="7.87269">
        <ele>130.808619</ele>
        <time>2021-06-20T06:24:15.999Z</time>
      </trkpt>
      <trkpt lat="48.67103" lon="7.87255">
        <ele>130.730511</ele>
        <time>2021-06-20T06:24:17.999Z</time>
      </trkpt>
      <trkpt lat="48.671" lon="7.87239">
        <ele>130.644751</ele>
        <time>2021-06-20T06:24:19.999Z</time>
      </trkpt>
      <trkpt lat="48.67095" lon="7.87227">
        <ele>130.568767</ele>
        <time>2021-06-20T06:24:21.999Z</time>
      </trkpt>
      <trkpt lat="48.67093" lon="7.87213">
        <ele>130.48764</ele>
        <time>2021-06-20T06:24:23.999Z</time>
      </trkpt>
      <trkpt lat="48.67094" lon="7.87192">
        <ele>130.393954</ele>
        <time>2021-06-20T06:24:26.999Z</time>
      </trkpt>
      <trkpt lat="48.67086" lon="7.87179">
        <ele>130.398812</ele>
        <time>2021-06-20T06:24:29.999Z</time>
      </trkpt>
      <trkpt lat="48.67079" lon="7.87162">
        <ele>130.404365</ele>
        <time>2021-06-20T06:24:32.999Z</time>
      </trkpt>
      <trkpt lat="48.67075" lon="7.87144">
        <ele>130.409588</ele>
        <time>2021-06-20T06:24:34.999Z</time>
      </trkpt>
      <trkpt lat="48.67071" lon="7.87126">
        <ele>130.414903</ele>
        <time>2021-06-20T06:24:36.999Z</time>
      </trkpt>
      <trkpt lat="48.67067" lon="7.8711">
        <ele>130.419573</ele>
        <time>2021-06-20T06:24:38.999Z</time>
      </trkpt>
      <trkpt lat="48.67061" lon="7.87096">
        <ele>130.424255</ele>
        <time>2021-06-20T06:24:40.999Z</time>
      </trkpt>
      <trkpt lat="48.67055" lon="7.87086">
        <ele>130.428148</ele>
        <time>2021-06-20T06:24:42.999Z</time>
      </trkpt>
      <trkpt lat="48.67052" lon="7.87072">
        <ele>130.43221</ele>
        <time>2021-06-20T06:24:44.999Z</time>
      </trkpt>
      <trkpt lat="48.67047" lon="7.87058">
        <ele>130.436482</ele>
        <time>2021-06-20T06:24:46.999Z</time>
      </trkpt>
      <trkpt lat="48.67044" lon="7.87042">
        <ele>130.441193</ele>
        <time>2021-06-20T06:24:48.999Z</time>
      </trkpt>
      <trkpt lat="48.67041" lon="7.87025">
        <ele>130.446081</ele>
        <time>2021-06-20T06:24:50.999Z</time>
      </trkpt>
      <trkpt lat="48.67038" lon="7.87009">
        <ele>130.450496</ele>
        <time>2021-06-20T06:24:52.999Z</time>
      </trkpt>
      <trkpt lat="48.67036" lon="7.86995">
        <ele>130.454538</ele>
        <time>2021-06-20T06:24:54.999Z</time>
      </trkpt>
      <trkpt lat="48.67038" lon="7.86981">
        <ele>130.458517</ele>
        <time>2021-06-20T06:24:56.999Z</time>
      </trkpt>
      <trkpt lat="48.67032" lon="7.86967">
        <ele>130.463089</ele>
        <time>2021-06-20T06:25:00.999Z</time>
      </trkpt>
      <trkpt lat="48.67027" lon="7.86955">
        <ele>130.466984</ele>
        <time>2021-06-20T06:25:03.999Z</time>
      </trkpt>
      <trkpt lat="48.67022" lon="7.86943">
        <ele>130.465766</ele>
        <time>2021-06-20T06:25:06.999Z</time>
      </trkpt>
      <trkpt lat="48.67019" lon="7.86924">
        <ele>130.458231</ele>
        <time>2021-06-20T06:25:09.999Z</time>
      </trkpt>
      <trkpt lat="48.67017" lon="7.86909">
        <ele>130.452715</ele>
        <time>2021-06-20T06:25:11.999Z</time>
      </trkpt>
      <trkpt lat="48.67013" lon="7.86894">
        <ele>130.446444</ele>
        <time>2021-06-20T06:25:13.999Z</time>
      </trkpt>
      <trkpt lat="48.6701" lon="7.86879">
        <ele>130.440565</ele>
        <time>2021-06-20T06:25:15.999Z</time>
      </trkpt>
      <trkpt lat="48.67007" lon="7.86863">
        <ele>130.43445</ele>
        <time>2021-06-20T06:25:17.999Z</time>
      </trkpt>
      <trkpt lat="48.67003" lon="7.86848">
        <ele>130.428445</ele>
        <time>2021-06-20T06:25:19.999Z</time>
      </trkpt>
      <trkpt lat="48.66999" lon="7.86834">
        <ele>130.422509</ele>
        <time>2021-06-20T06:25:21.999Z</time>
      </trkpt>
      <trkpt lat="48.66997" lon="7.86818">
        <ele>130.41628</ele>
        <time>2021-06-20T06:25:23.999Z</time>
      </trkpt>
      <trkpt lat="48.66994" lon="7.86802">
        <ele>130.409985</ele>
        <time>2021-06-20T06:25:25.999Z</time>
      </trkpt>
      <trkpt lat="48.66991" lon="7.86787">
        <ele>130.404283</ele>
        <time>2021-06-20T06:25:27.999Z</time>
      </trkpt>
      <trkpt lat="48.66988" lon="7.86772">
        <ele>130.398265</ele>
        <time>2021-06-20T06:25:29.999Z</time>
      </trkpt>
      <trkpt lat="48.66987" lon="7.86757">
        <ele>130.392571</ele>
        <time>2021-06-20T06:25:31.999Z</time>
      </trkpt>
      <trkpt lat="48.66982" lon="7.86739">
        <ele>130.385489</ele>
        <time>2021-06-20T06:25:34.999Z</time>
      </trkpt>
      <trkpt lat="48.6698" lon="7.86725">
        <ele>130.380169</ele>
        <time>2021-06-20T06:25:36.999Z</time>
      </trkpt>
      <trkpt lat="48.66978" lon="7.86707">
        <ele>130.373318</ele>
        <time>2021-06-20T06:25:39.999Z</time>
      </trkpt>
      <trkpt lat="48.6698" lon="7.86692">
        <ele>130.367451</ele>
        <time>2021-06-20T06:25:41.999Z</time>
      </trkpt>
      <trkpt lat="48.66979" lon="7.86678">
        <ele>130.360509</ele>
        <time>2021-06-20T06:25:43.999Z</time>
      </trkpt>
      <trkpt lat="48.6698" lon="7.86664">
        <ele>130.353313</ele>
        <time>2021-06-20T06:25:45.999Z</time>
      </trkpt>
      <trkpt lat="48.66978" lon="7.86649">
        <ele>130.345755</ele>
        <time>2021-06-20T06:25:47.999Z</time>
      </trkpt>
      <trkpt lat="48.66975" lon="7.86634">
        <ele>130.337533</ele>
        <time>2021-06-20T06:25:49.999Z</time>
      </trkpt>
      <trkpt lat="48.66971" lon="7.86615">
        <ele>130.327458</ele>
        <time>2021-06-20T06:25:51.999Z</time>
      </trkpt>
      <trkpt lat="48.66966" lon="7.86603">
        <ele>130.32039</ele>
        <time>2021-06-20T06:25:53.999Z</time>
      </trkpt>
      <trkpt lat="48.6696" lon="7.8659">
        <ele>130.31203</ele>
        <time>2021-06-20T06:25:55.999Z</time>
      </trkpt>
      <trkpt lat="48.66955" lon="7.86578">
        <ele>130.30444</ele>
        <time>2021-06-20T06:25:57.999Z</time>
      </trkpt>
      <trkpt lat="48.66948" lon="7.86568">
        <ele>130.297066</ele>
        <time>2021-06-20T06:25:59.999Z</time>
      </trkpt>
      <trkpt lat="48.66941" lon="7.86556">
        <ele>130.289053</ele>
        <time>2021-06-20T06:26:01.999Z</time>
      </trkpt>
      <trkpt lat="48.66933" lon="7.86544">
        <ele>130.2803</ele>
        <time>2021-06-20T06:26:04.999Z</time>
      </trkpt>
      <trkpt lat="48.66925" lon="7.8653">
        <ele>130.270846</ele>
        <time>2021-06-20T06:26:07.999Z</time>
      </trkpt>
      <trkpt lat="48.66917" lon="7.86515">
        <ele>130.260753</ele>
        <time>2021-06-20T06:26:10.999Z</time>
      </trkpt>
      <trkpt lat="48.6691" lon="7.86504">
        <ele>130.25308</ele>
        <time>2021-06-20T06:26:12.999Z</time>
      </trkpt>
      <trkpt lat="48.66904" lon="7.86493">
        <ele>130.245701</ele>
        <time>2021-06-20T06:26:14.999Z</time>
      </trkpt>
      <trkpt lat="48.66896" lon="7.86477">
        <ele>130.235413</ele>
        <time>2021-06-20T06:26:17.999Z</time>
      </trkpt>
      <trkpt lat="48.66889" lon="7.86466">
        <ele>130.227536</ele>
        <time>2021-06-20T06:26:19.999Z</time>
      </trkpt>
      <trkpt lat="48.66883" lon="7.86454">
        <ele>130.242928</ele>
        <time>2021-06-20T06:26:21.999Z</time>
      </trkpt>
      <trkpt lat="48.66875" lon="7.86439">
        <ele>130.268455</ele>
        <time>2021-06-20T06:26:24.999Z</time>
      </trkpt>
      <trkpt lat="48.66867" lon="7.86424">
        <ele>130.293191</ele>
        <time>2021-06-20T06:26:27.999Z</time>
      </trkpt>
      <trkpt lat="48.66861" lon="7.86414">
        <ele>130.310684</ele>
        <time>2021-06-20T06:26:29.999Z</time>
      </trkpt>
      <trkpt lat="48.66855" lon="7.86401">
        <ele>130.330323</ele>
        <time>2021-06-20T06:26:31.999Z</time>
      </trkpt>
      <trkpt lat="48.66849" lon="7.8639">
        <ele>130.348434</ele>
        <time>2021-06-20T06:26:33.999Z</time>
      </trkpt>
      <trkpt lat="48.66841" lon="7.86376">
        <ele>130.373063</ele>
        <time>2021-06-20T06:26:36.999Z</time>
      </trkpt>
      <trkpt lat="48.66834" lon="7.86364">
        <ele>130.393106</ele>
        <time>2021-06-20T06:26:38.999Z</time>
      </trkpt>
      <trkpt lat="48.66828" lon="7.8635">
        <ele>130.414233</ele>
        <time>2021-06-20T06:26:40.999Z</time>
      </trkpt>
      <trkpt lat="48.66822" lon="7.86338">
        <ele>130.434091</ele>
        <time>2021-06-20T06:26:42.999Z</time>
      </trkpt>
      <trkpt lat="48.66816" lon="7.86327">
        <ele>130.452041</ele>
        <time>2021-06-20T06:26:44.999Z</time>
      </trkpt>
      <trkpt lat="48.66807" lon="7.86312">
        <ele>130.477969</ele>
        <time>2021-06-20T06:26:47.999Z</time>
      </trkpt>
      <trkpt lat="48.66798" lon="7.86301">
        <ele>130.500475</ele>
        <time>2021-06-20T06:26:50.999Z</time>
      </trkpt>
      <trkpt lat="48.66787" lon="7.86288">
        <ele>130.527427</ele>
        <time>2021-06-20T06:26:53.999Z</time>
      </trkpt>
      <trkpt lat="48.66777" lon="7.86273">
        <ele>130.555553</ele>
        <time>2021-06-20T06:26:56.999Z</time>
      </trkpt>
      <trkpt lat="48.66769" lon="7.86266">
        <ele>130.573563</ele>
        <time>2021-06-20T06:26:58.999Z</time>
      </trkpt>
      <trkpt lat="48.6676" lon="7.86257">
        <ele>130.598381</ele>
        <time>2021-06-20T06:27:00.999Z</time>
      </trkpt>
      <trkpt lat="48.66754" lon="7.86242">
        <ele>130.626289</ele>
        <time>2021-06-20T06:27:02.999Z</time>
      </trkpt>
      <trkpt lat="48.6675" lon="7.86226">
        <ele>130.653893</ele>
        <time>2021-06-20T06:27:04.999Z</time>
      </trkpt>
      <trkpt lat="48.66742" lon="7.86216">
        <ele>130.679123</ele>
        <time>2021-06-20T06:27:06.999Z</time>
      </trkpt>
      <trkpt lat="48.66736" lon="7.86204">
        <ele>130.702368</ele>
        <time>2021-06-20T06:27:08.999Z</time>
      </trkpt>
      <trkpt lat="48.66728" lon="7.8619">
        <ele>130.73315</ele>
        <time>2021-06-20T06:27:10.999Z</time>
      </trkpt>
      <trkpt lat="48.66721" lon="7.8617">
        <ele>130.768823</ele>
        <time>2021-06-20T06:27:12.999Z</time>
      </trkpt>
      <trkpt lat="48.66716" lon="7.86151">
        <ele>130.801766</ele>
        <time>2021-06-20T06:27:14.999Z</time>
      </trkpt>
      <trkpt lat="48.6671" lon="7.86138">
        <ele>130.826746</ele>
        <time>2021-06-20T06:27:16.999Z</time>
      </trkpt>
      <trkpt lat="48.66704" lon="7.86121">
        <ele>130.858178</ele>
        <time>2021-06-20T06:27:18.999Z</time>
      </trkpt>
      <trkpt lat="48.66697" lon="7.86105">
        <ele>130.888349</ele>
        <time>2021-06-20T06:27:20.999Z</time>
      </trkpt>
      <trkpt lat="48.66692" lon="7.8609">
        <ele>130.915282</ele>
        <time>2021-06-20T06:27:22.999Z</time>
      </trkpt>
      <trkpt lat="48.66688" lon="7.86075">
        <ele>130.941219</ele>
        <time>2021-06-20T06:27:24.999Z</time>
      </trkpt>
      <trkpt lat="48.66683" lon="7.86062">
        <ele>130.965237</ele>
        <time>2021-06-20T06:27:26.999Z</time>
      </trkpt>
      <trkpt lat="48.66678" lon="7.86047">
        <ele>130.992823</ele>
        <time>2021-06-20T06:27:29.999Z</time>
      </trkpt>
      <trkpt lat="48.6667" lon="7.8603">
        <ele>131.057265</ele>
        <time>2021-06-20T06:27:32.999Z</time>
      </trkpt>
      <trkpt lat="48.66664" lon="7.86015">
        <ele>131.14782</ele>
        <time>2021-06-20T06:27:34.999Z</time>
      </trkpt>
      <trkpt lat="48.66661" lon="7.86002">
        <ele>131.222914</ele>
        <time>2021-06-20T06:27:36.999Z</time>
      </trkpt>
      <trkpt lat="48.66657" lon="7.85984">
        <ele>131.321156</ele>
        <time>2021-06-20T06:27:38.999Z</time>
      </trkpt>
      <trkpt lat="48.66654" lon="7.8597">
        <ele>131.399744</ele>
        <time>2021-06-20T06:27:40.999Z</time>
      </trkpt>
      <trkpt lat="48.66647" lon="7.85958">
        <ele>131.486171</ele>
        <time>2021-06-20T06:27:42.999Z</time>
      </trkpt>
      <trkpt lat="48.66642" lon="7.85943">
        <ele>131.575408</ele>
        <time>2021-06-20T06:27:44.999Z</time>
      </trkpt>
      <trkpt lat="48.66641" lon="7.85924">
        <ele>131.676786</ele>
        <time>2021-06-20T06:27:46.999Z</time>
      </trkpt>
      <trkpt lat="48.66645" lon="7.85905">
        <ele>131.781324</ele>
        <time>2021-06-20T06:27:48.999Z</time>
      </trkpt>
      <trkpt lat="48.66646" lon="7.85886">
        <ele>131.880414</ele>
        <time>2021-06-20T06:27:50.999Z</time>
      </trkpt>
      <trkpt lat="48.66647" lon="7.85868">
        <ele>131.979672</ele>
        <time>2021-06-20T06:27:52.999Z</time>
      </trkpt>
      <trkpt lat="48.66644" lon="7.85849">
        <ele>132.081395</ele>
        <time>2021-06-20T06:27:54.999Z</time>
      </trkpt>
      <trkpt lat="48.66638" lon="7.85833">
        <ele>132.177086</ele>
        <time>2021-06-20T06:27:56.999Z</time>
      </trkpt>
      <trkpt lat="48.66631" lon="7.85818">
        <ele>132.276963</ele>
        <time>2021-06-20T06:27:58.999Z</time>
      </trkpt>
      <trkpt lat="48.66622" lon="7.85805">
        <ele>132.373827</ele>
        <time>2021-06-20T06:28:00.999Z</time>
      </trkpt>
      <trkpt lat="48.66615" lon="7.85791">
        <ele>132.444127</ele>
        <time>2021-06-20T06:28:02.999Z</time>
      </trkpt>
      <trkpt lat="48.66608" lon="7.85777">
        <ele>132.327923</ele>
        <time>2021-06-20T06:28:04.999Z</time>
      </trkpt>
      <trkpt lat="48.666" lon="7.85764">
        <ele>132.21792</ele>
        <time>2021-06-20T06:28:06.999Z</time>
      </trkpt>
      <trkpt lat="48.66593" lon="7.85752">
        <ele>132.112736</ele>
        <time>2021-06-20T06:28:08.999Z</time>
      </trkpt>
      <trkpt lat="48.66586" lon="7.85741">
        <ele>132.013746</ele>
        <time>2021-06-20T06:28:10.999Z</time>
      </trkpt>
      <trkpt lat="48.66579" lon="7.85728">
        <ele>131.913594</ele>
        <time>2021-06-20T06:28:12.999Z</time>
      </trkpt>
      <trkpt lat="48.66569" lon="7.85729">
        <ele>131.814666</ele>
        <time>2021-06-20T06:28:32.999Z</time>
      </trkpt>
      <trkpt lat="48.66562" lon="7.85741">
        <ele>131.708437</ele>
        <time>2021-06-20T06:28:36.999Z</time>
      </trkpt>
      <trkpt lat="48.66552" lon="7.85744">
        <ele>131.614306</ele>
        <time>2021-06-20T06:28:41.999Z</time>
      </trkpt>
      <trkpt lat="48.66544" lon="7.85754">
        <ele>131.50938</ele>
        <time>2021-06-20T06:28:47.999Z</time>
      </trkpt>
      <trkpt lat="48.66532" lon="7.85762">
        <ele>131.389614</ele>
        <time>2021-06-20T06:28:50.999Z</time>
      </trkpt>
      <trkpt lat="48.66523" lon="7.85767">
        <ele>131.295475</ele>
        <time>2021-06-20T06:28:52.999Z</time>
      </trkpt>
      <trkpt lat="48.66513" lon="7.85776">
        <ele>131.186529</ele>
        <time>2021-06-20T06:28:54.999Z</time>
      </trkpt>
      <trkpt lat="48.66504" lon="7.85783">
        <ele>131.081149</ele>
        <time>2021-06-20T06:28:56.999Z</time>
      </trkpt>
      <trkpt lat="48.66494" lon="7.85793">
        <ele>130.968849</ele>
        <time>2021-06-20T06:28:58.999Z</time>
      </trkpt>
      <trkpt lat="48.66485" lon="7.85804">
        <ele>130.855798</ele>
        <time>2021-06-20T06:29:00.999Z</time>
      </trkpt>
      <trkpt lat="48.66476" lon="7.85815">
        <ele>130.741632</ele>
        <time>2021-06-20T06:29:02.999Z</time>
      </trkpt>
      <trkpt lat="48.66466" lon="7.85825">
        <ele>130.728714</ele>
        <time>2021-06-20T06:29:04.999Z</time>
      </trkpt>
      <trkpt lat="48.66458" lon="7.85836">
        <ele>130.743694</ele>
        <time>2021-06-20T06:29:06.999Z</time>
      </trkpt>
      <trkpt lat="48.6645" lon="7.85845">
        <ele>130.756499</ele>
        <time>2021-06-20T06:29:08.999Z</time>
      </trkpt>
      <trkpt lat="48.66439" lon="7.85855">
        <ele>130.773841</ele>
        <time>2021-06-20T06:29:11.999Z</time>
      </trkpt>
      <trkpt lat="48.66429" lon="7.8586">
        <ele>130.788036</ele>
        <time>2021-06-20T06:29:13.999Z</time>
      </trkpt>
      <trkpt lat="48.66419" lon="7.85862">
        <ele>130.801998</ele>
        <time>2021-06-20T06:29:15.999Z</time>
      </trkpt>
      <trkpt lat="48.66408" lon="7.85861">
        <ele>130.817009</ele>
        <time>2021-06-20T06:29:17.999Z</time>
      </trkpt>
      <trkpt lat="48.66397" lon="7.85863">
        <ele>130.831726</ele>
        <time>2021-06-20T06:29:19.999Z</time>
      </trkpt>
      <trkpt lat="48.66383" lon="7.85861">
        <ele>130.849807</ele>
        <time>2021-06-20T06:29:21.999Z</time>
      </trkpt>
      <trkpt lat="48.66368" lon="7.85857">
        <ele>130.870109</ele>
        <time>2021-06-20T06:29:23.999Z</time>
      </trkpt>
      <trkpt lat="48.66357" lon="7.85855">
        <ele>130.885725</ele>
        <time>2021-06-20T06:29:25.999Z</time>
      </trkpt>
      <trkpt lat="48.66349" lon="7.85866">
        <ele>130.900388</ele>
        <time>2021-06-20T06:29:29.999Z</time>
      </trkpt>
      <trkpt lat="48.66356" lon="7.85885">
        <ele>130.918997</ele>
        <time>2021-06-20T06:29:32.999Z</time>
      </trkpt>
      <trkpt lat="48.66363" lon="7.85898">
        <ele>130.933903</ele>
        <time>2021-06-20T06:29:34.999Z</time>
      </trkpt>
      <trkpt lat="48.66367" lon="7.85912">
        <ele>130.947628</ele>
        <time>2021-06-20T06:29:36.999Z</time>
      </trkpt>
      <trkpt lat="48.66372" lon="7.85932">
        <ele>130.95313</ele>
        <time>2021-06-20T06:29:39.999Z</time>
      </trkpt>
      <trkpt lat="48.66377" lon="7.85947">
        <ele>130.945847</ele>
        <time>2021-06-20T06:29:41.999Z</time>
      </trkpt>
      <trkpt lat="48.66382" lon="7.8596">
        <ele>130.939408</ele>
        <time>2021-06-20T06:29:43.999Z</time>
      </trkpt>
      <trkpt lat="48.66388" lon="7.85973">
        <ele>130.93248</ele>
        <time>2021-06-20T06:29:45.999Z</time>
      </trkpt>
      <trkpt lat="48.66391" lon="7.85988">
        <ele>130.92567</ele>
        <time>2021-06-20T06:29:47.999Z</time>
      </trkpt>
      <trkpt lat="48.66396" lon="7.86">
        <ele>130.919326</ele>
        <time>2021-06-20T06:29:49.999Z</time>
      </trkpt>
      <trkpt lat="48.66401" lon="7.86014">
        <ele>130.912493</ele>
        <time>2021-06-20T06:29:52.999Z</time>
      </trkpt>
      <trkpt lat="48.66405" lon="7.86033">
        <ele>130.903958</ele>
        <time>2021-06-20T06:29:54.999Z</time>
      </trkpt>
      <trkpt lat="48.66411" lon="7.86049">
        <ele>130.89561</ele>
        <time>2021-06-20T06:29:56.999Z</time>
      </trkpt>
      <trkpt lat="48.66417" lon="7.86065">
        <ele>130.888016</ele>
        <time>2021-06-20T06:29:58.999Z</time>
      </trkpt>
      <trkpt lat="48.66421" lon="7.86081">
        <ele>130.880402</ele>
        <time>2021-06-20T06:30:00.999Z</time>
      </trkpt>
      <trkpt lat="48.66426" lon="7.86098">
        <ele>130.87208</ele>
        <time>2021-06-20T06:30:02.999Z</time>
      </trkpt>
      <trkpt lat="48.66431" lon="7.86112">
        <ele>130.865464</ele>
        <time>2021-06-20T06:30:04.999Z</time>
      </trkpt>
      <trkpt lat="48.66437" lon="7.86129">
        <ele>130.85695</ele>
        <time>2021-06-20T06:30:06.999Z</time>
      </trkpt>
      <trkpt lat="48.66442" lon="7.86146">
        <ele>130.849009</ele>
        <time>2021-06-20T06:30:08.999Z</time>
      </trkpt>
      <trkpt lat="48.66447" lon="7.86162">
        <ele>130.841346</ele>
        <time>2021-06-20T06:30:10.999Z</time>
      </trkpt>
      <trkpt lat="48.66451" lon="7.8618">
        <ele>130.842131</ele>
        <time>2021-06-20T06:30:12.999Z</time>
      </trkpt>
      <trkpt lat="48.66458" lon="7.86197">
        <ele>130.846139</ele>
        <time>2021-06-20T06:30:14.999Z</time>
      </trkpt>
      <trkpt lat="48.66464" lon="7.86213">
        <ele>130.850007</ele>
        <time>2021-06-20T06:30:16.999Z</time>
      </trkpt>
      <trkpt lat="48.66468" lon="7.86229">
        <ele>130.853373</ele>
        <time>2021-06-20T06:30:18.999Z</time>
      </trkpt>
      <trkpt lat="48.66474" lon="7.86246">
        <ele>130.857453</ele>
        <time>2021-06-20T06:30:20.999Z</time>
      </trkpt>
      <trkpt lat="48.66481" lon="7.86264">
        <ele>130.861844</ele>
        <time>2021-06-20T06:30:22.999Z</time>
      </trkpt>
      <trkpt lat="48.66488" lon="7.86281">
        <ele>130.86593</ele>
        <time>2021-06-20T06:30:24.999Z</time>
      </trkpt>
      <trkpt lat="48.66493" lon="7.86296">
        <ele>130.869338</ele>
        <time>2021-06-20T06:30:26.999Z</time>
      </trkpt>
      <trkpt lat="48.66499" lon="7.86311">
        <ele>130.872761</ele>
        <time>2021-06-20T06:30:28.999Z</time>
      </trkpt>
      <trkpt lat="48.66504" lon="7.86329">
        <ele>130.876796</ele>
        <time>2021-06-20T06:30:30.999Z</time>
      </trkpt>
      <trkpt lat="48.66509" lon="7.86346">
        <ele>130.880538</ele>
        <time>2021-06-20T06:30:32.999Z</time>
      </trkpt>
      <trkpt lat="48.66515" lon="7.86363">
        <ele>130.884553</ele>
        <time>2021-06-20T06:30:34.999Z</time>
      </trkpt>
      <trkpt lat="48.66518" lon="7.8638">
        <ele>130.888239</ele>
        <time>2021-06-20T06:30:36.999Z</time>
      </trkpt>
      <trkpt lat="48.66524" lon="7.86398">
        <ele>130.892225</ele>
        <time>2021-06-20T06:30:38.999Z</time>
      </trkpt>
      <trkpt lat="48.66528" lon="7.86418">
        <ele>130.910514</ele>
        <time>2021-06-20T06:30:40.999Z</time>
      </trkpt>
      <trkpt lat="48.66533" lon="7.86434">
        <ele>130.948121</ele>
        <time>2021-06-20T06:30:42.999Z</time>
      </trkpt>
      <trkpt lat="48.66538" lon="7.86454">
        <ele>130.991762</ele>
        <time>2021-06-20T06:30:44.999Z</time>
      </trkpt>
      <trkpt lat="48.66544" lon="7.8647">
        <ele>131.027491</ele>
        <time>2021-06-20T06:30:46.999Z</time>
      </trkpt>
      <trkpt lat="48.66549" lon="7.86486">
        <ele>131.06432</ele>
        <time>2021-06-20T06:30:48.999Z</time>
      </trkpt>
      <trkpt lat="48.66554" lon="7.86502">
        <ele>131.101055</ele>
        <time>2021-06-20T06:30:50.999Z</time>
      </trkpt>
      <trkpt lat="48.6656" lon="7.8652">
        <ele>131.140515</ele>
        <time>2021-06-20T06:30:52.999Z</time>
      </trkpt>
      <trkpt lat="48.66566" lon="7.86533">
        <ele>131.173459</ele>
        <time>2021-06-20T06:30:54.999Z</time>
      </trkpt>
      <trkpt lat="48.66572" lon="7.86546">
        <ele>131.205548</ele>
        <time>2021-06-20T06:30:56.999Z</time>
      </trkpt>
      <trkpt lat="48.66577" lon="7.86563">
        <ele>131.244004</ele>
        <time>2021-06-20T06:30:58.999Z</time>
      </trkpt>
      <trkpt lat="48.66582" lon="7.86581">
        <ele>131.283127</ele>
        <time>2021-06-20T06:31:00.999Z</time>
      </trkpt>
      <trkpt lat="48.66586" lon="7.86601">
        <ele>131.325712</ele>
        <time>2021-06-20T06:31:02.999Z</time>
      </trkpt>
      <trkpt lat="48.66591" lon="7.8662">
        <ele>131.367474</ele>
        <time>2021-06-20T06:31:04.999Z</time>
      </trkpt>
      <trkpt lat="48.66598" lon="7.86636">
        <ele>131.407189</ele>
        <time>2021-06-20T06:31:06.999Z</time>
      </trkpt>
      <trkpt lat="48.66603" lon="7.86652">
        <ele>131.442681</ele>
        <time>2021-06-20T06:31:08.999Z</time>
      </trkpt>
      <trkpt lat="48.66607" lon="7.86672">
        <ele>131.382044</ele>
        <time>2021-06-20T06:31:10.999Z</time>
      </trkpt>
      <trkpt lat="48.66613" lon="7.86686">
        <ele>131.312289</ele>
        <time>2021-06-20T06:31:12.999Z</time>
      </trkpt>
      <trkpt lat="48.66618" lon="7.86701">
        <ele>131.249015</ele>
        <time>2021-06-20T06:31:14.999Z</time>
      </trkpt>
      <trkpt lat="48.66623" lon="7.86717">
        <ele>131.180479</ele>
        <time>2021-06-20T06:31:16.999Z</time>
      </trkpt>
      <trkpt lat="48.66628" lon="7.86732">
        <ele>131.111607</ele>
        <time>2021-06-20T06:31:18.999Z</time>
      </trkpt>
      <trkpt lat="48.66635" lon="7.86749">
        <ele>131.035949</ele>
        <time>2021-06-20T06:31:20.999Z</time>
      </trkpt>
      <trkpt lat="48.66641" lon="7.86766">
        <ele>130.959894</ele>
        <time>2021-06-20T06:31:22.999Z</time>
      </trkpt>
      <trkpt lat="48.66646" lon="7.86784">
        <ele>130.88649</ele>
        <time>2021-06-20T06:31:24.999Z</time>
      </trkpt>
      <trkpt lat="48.66652" lon="7.86798">
        <ele>130.816403</ele>
        <time>2021-06-20T06:31:26.999Z</time>
      </trkpt>
      <trkpt lat="48.66657" lon="7.86813">
        <ele>130.751803</ele>
        <time>2021-06-20T06:31:28.999Z</time>
      </trkpt>
      <trkpt lat="48.66661" lon="7.86827">
        <ele>130.695075</ele>
        <time>2021-06-20T06:31:30.999Z</time>
      </trkpt>
      <trkpt lat="48.66655" lon="7.86843">
        <ele>130.620189</ele>
        <time>2021-06-20T06:31:32.999Z</time>
      </trkpt>
      <trkpt lat="48.66645" lon="7.86853">
        <ele>130.554203</ele>
        <time>2021-06-20T06:31:34.999Z</time>
      </trkpt>
      <trkpt lat="48.66635" lon="7.86862">
        <ele>130.479534</ele>
        <time>2021-06-20T06:31:36.999Z</time>
      </trkpt>
      <trkpt lat="48.66622" lon="7.86871">
        <ele>130.39854</ele>
        <time>2021-06-20T06:31:38.999Z</time>
      </trkpt>
      <trkpt lat="48.66608" lon="7.8688">
        <ele>130.343664</ele>
        <time>2021-06-20T06:31:40.999Z</time>
      </trkpt>
      <trkpt lat="48.66595" lon="7.8689">
        <ele>130.295776</ele>
        <time>2021-06-20T06:31:42.999Z</time>
      </trkpt>
      <trkpt lat="48.66586" lon="7.86897">
        <ele>130.26234</ele>
        <time>2021-06-20T06:31:44.999Z</time>
      </trkpt>
      <trkpt lat="48.66576" lon="7.86906">
        <ele>130.225134</ele>
        <time>2021-06-20T06:31:46.999Z</time>
      </trkpt>
      <trkpt lat="48.66564" lon="7.86913">
        <ele>130.183659</ele>
        <time>2021-06-20T06:31:48.999Z</time>
      </trkpt>
      <trkpt lat="48.66553" lon="7.86923">
        <ele>130.1422</ele>
        <time>2021-06-20T06:31:50.999Z</time>
      </trkpt>
      <trkpt lat="48.66542" lon="7.86931">
        <ele>130.101832</ele>
        <time>2021-06-20T06:31:52.999Z</time>
      </trkpt>
      <trkpt lat="48.66531" lon="7.8694">
        <ele>130.063284</ele>
        <time>2021-06-20T06:31:54.999Z</time>
      </trkpt>
      <trkpt lat="48.6652" lon="7.8695">
        <ele>130.020768</ele>
        <time>2021-06-20T06:31:56.999Z</time>
      </trkpt>
      <trkpt lat="48.66508" lon="7.86961">
        <ele>129.975628</ele>
        <time>2021-06-20T06:31:58.999Z</time>
      </trkpt>
      <trkpt lat="48.66496" lon="7.86971">
        <ele>129.932412</ele>
        <time>2021-06-20T06:32:00.999Z</time>
      </trkpt>
      <trkpt lat="48.66486" lon="7.86978">
        <ele>129.895025</ele>
        <time>2021-06-20T06:32:02.999Z</time>
      </trkpt>
      <trkpt lat="48.66475" lon="7.86987">
        <ele>129.853499</ele>
        <time>2021-06-20T06:32:04.999Z</time>
      </trkpt>
      <trkpt lat="48.66465" lon="7.86994">
        <ele>129.817848</ele>
        <time>2021-06-20T06:32:06.999Z</time>
      </trkpt>
      <trkpt lat="48.66455" lon="7.87002">
        <ele>129.813048</ele>
        <time>2021-06-20T06:32:08.999Z</time>
      </trkpt>
      <trkpt lat="48.66445" lon="7.87006">
        <ele>129.830035</ele>
        <time>2021-06-20T06:32:12.999Z</time>
      </trkpt>
      <trkpt lat="48.66436" lon="7.86995">
        <ele>129.850157</ele>
        <time>2021-06-20T06:32:16.999Z</time>
      </trkpt>
      <trkpt lat="48.66425" lon="7.86983">
        <ele>129.87207</ele>
        <time>2021-06-20T06:32:19.999Z</time>
      </trkpt>
      <trkpt lat="48.66416" lon="7.86977">
        <ele>129.889576</ele>
        <time>2021-06-20T06:32:21.999Z</time>
      </trkpt>
      <trkpt lat="48.66406" lon="7.86972">
        <ele>129.906661</ele>
        <time>2021-06-20T06:32:23.999Z</time>
      </trkpt>
      <trkpt lat="48.66396" lon="7.86964">
        <ele>129.92551</ele>
        <time>2021-06-20T06:32:25.999Z</time>
      </trkpt>
      <trkpt lat="48.66387" lon="7.86958">
        <ele>129.942116</ele>
        <time>2021-06-20T06:32:27.999Z</time>
      </trkpt>
      <trkpt lat="48.66378" lon="7.86949">
        <ele>129.959215</ele>
        <time>2021-06-20T06:32:29.999Z</time>
      </trkpt>
      <trkpt lat="48.6637" lon="7.86942">
        <ele>129.974652</ele>
        <time>2021-06-20T06:32:31.999Z</time>
      </trkpt>
      <trkpt lat="48.66361" lon="7.86936">
        <ele>129.991708</ele>
        <time>2021-06-20T06:32:33.999Z</time>
      </trkpt>
      <trkpt lat="48.66352" lon="7.86927">
        <ele>130.010258</ele>
        <time>2021-06-20T06:32:35.999Z</time>
      </trkpt>
      <trkpt lat="48.66344" lon="7.86917">
        <ele>130.026558</ele>
        <time>2021-06-20T06:32:37.999Z</time>
      </trkpt>
      <trkpt lat="48.66337" lon="7.86907">
        <ele>130.043032</ele>
        <time>2021-06-20T06:32:39.999Z</time>
      </trkpt>
      <trkpt lat="48.66329" lon="7.86894">
        <ele>130.062551</ele>
        <time>2021-06-20T06:32:41.999Z</time>
      </trkpt>
      <trkpt lat="48.66321" lon="7.86885">
        <ele>130.079269</ele>
        <time>2021-06-20T06:32:43.999Z</time>
      </trkpt>
      <trkpt lat="48.66311" lon="7.86877">
        <ele>130.098815</ele>
        <time>2021-06-20T06:32:45.999Z</time>
      </trkpt>
      <trkpt lat="48.66298" lon="7.86869">
        <ele>130.156564</ele>
        <time>2021-06-20T06:32:47.999Z</time>
      </trkpt>
      <trkpt lat="48.66287" lon="7.86864">
        <ele>130.211419</ele>
        <time>2021-06-20T06:32:49.999Z</time>
      </trkpt>
      <trkpt lat="48.66275" lon="7.86861">
        <ele>130.269814</ele>
        <time>2021-06-20T06:32:51.999Z</time>
      </trkpt>
      <trkpt lat="48.66262" lon="7.86855">
        <ele>130.337649</ele>
        <time>2021-06-20T06:32:53.999Z</time>
      </trkpt>
      <trkpt lat="48.66251" lon="7.8685">
        <ele>130.392917</ele>
        <time>2021-06-20T06:32:55.999Z</time>
      </trkpt>
      <trkpt lat="48.66241" lon="7.86844">
        <ele>130.446072</ele>
        <time>2021-06-20T06:32:57.999Z</time>
      </trkpt>
      <trkpt lat="48.6623" lon="7.86838">
        <ele>130.50227</ele>
        <time>2021-06-20T06:32:59.999Z</time>
      </trkpt>
      <trkpt lat="48.66219" lon="7.86832">
        <ele>130.558707</ele>
        <time>2021-06-20T06:33:01.999Z</time>
      </trkpt>
      <trkpt lat="48.66208" lon="7.86828">
        <ele>130.611777</ele>
        <time>2021-06-20T06:33:03.999Z</time>
      </trkpt>
      <trkpt lat="48.66196" lon="7.86828">
        <ele>130.667883</ele>
        <time>2021-06-20T06:33:05.999Z</time>
      </trkpt>
      <trkpt lat="48.66187" lon="7.86825">
        <ele>130.716034</ele>
        <time>2021-06-20T06:33:07.999Z</time>
      </trkpt>
      <trkpt lat="48.66175" lon="7.8682">
        <ele>130.775509</ele>
        <time>2021-06-20T06:33:09.999Z</time>
      </trkpt>
      <trkpt lat="48.66163" lon="7.86812">
        <ele>130.837904</ele>
        <time>2021-06-20T06:33:11.999Z</time>
      </trkpt>
      <trkpt lat="48.66152" lon="7.86803">
        <ele>130.900835</ele>
        <time>2021-06-20T06:33:13.999Z</time>
      </trkpt>
      <trkpt lat="48.6614" lon="7.86793">
        <ele>130.963813</ele>
        <time>2021-06-20T06:33:15.999Z</time>
      </trkpt>
      <trkpt lat="48.66132" lon="7.8678">
        <ele>130.946509</ele>
        <time>2021-06-20T06:33:17.999Z</time>
      </trkpt>
      <trkpt lat="48.66122" lon="7.86769">
        <ele>130.914354</ele>
        <time>2021-06-20T06:33:19.999Z</time>
      </trkpt>
      <trkpt lat="48.66111" lon="7.86761">
        <ele>130.880897</ele>
        <time>2021-06-20T06:33:21.999Z</time>
      </trkpt>
      <trkpt lat="48.66099" lon="7.86752">
        <ele>130.846333</ele>
        <time>2021-06-20T06:33:23.999Z</time>
      </trkpt>
      <trkpt lat="48.66088" lon="7.86748">
        <ele>130.817033</ele>
        <time>2021-06-20T06:33:25.999Z</time>
      </trkpt>
      <trkpt lat="48.66077" lon="7.86738">
        <ele>130.782648</ele>
        <time>2021-06-20T06:33:27.999Z</time>
      </trkpt>
      <trkpt lat="48.66073" lon="7.86722">
        <ele>130.751934</ele>
        <time>2021-06-20T06:33:29.999Z</time>
      </trkpt>
      <trkpt lat="48.66071" lon="7.86703">
        <ele>130.718379</ele>
        <time>2021-06-20T06:33:31.999Z</time>
      </trkpt>
      <trkpt lat="48.66069" lon="7.86686">
        <ele>130.688316</ele>
        <time>2021-06-20T06:33:33.999Z</time>
      </trkpt>
      <trkpt lat="48.66069" lon="7.86668">
        <ele>130.657042</ele>
        <time>2021-06-20T06:33:35.999Z</time>
      </trkpt>
      <trkpt lat="48.6607" lon="7.86649">
        <ele>130.623839</ele>
        <time>2021-06-20T06:33:37.999Z</time>
      </trkpt>
      <trkpt lat="48.66073" lon="7.86632">
        <ele>130.592</ele>
        <time>2021-06-20T06:33:39.999Z</time>
      </trkpt>
      <trkpt lat="48.66077" lon="7.86616">
        <ele>130.562291</ele>
        <time>2021-06-20T06:33:41.999Z</time>
      </trkpt>
      <trkpt lat="48.66083" lon="7.86599">
        <ele>130.529467</ele>
        <time>2021-06-20T06:33:43.999Z</time>
      </trkpt>
      <trkpt lat="48.6609" lon="7.86581">
        <ele>130.493643</ele>
        <time>2021-06-20T06:33:45.999Z</time>
      </trkpt>
      <trkpt lat="48.66095" lon="7.86567">
        <ele>130.468766</ele>
        <time>2021-06-20T06:33:47.999Z</time>
      </trkpt>
      <trkpt lat="48.66103" lon="7.86551">
        <ele>130.435844</ele>
        <time>2021-06-20T06:33:49.999Z</time>
      </trkpt>
      <trkpt lat="48.6611" lon="7.86535">
        <ele>130.407458</ele>
        <time>2021-06-20T06:33:51.999Z</time>
      </trkpt>
      <trkpt lat="48.66114" lon="7.86518">
        <ele>130.378917</ele>
        <time>2021-06-20T06:33:53.999Z</time>
      </trkpt>
      <trkpt lat="48.66119" lon="7.86503">
        <ele>130.352356</ele>
        <time>2021-06-20T06:33:55.999Z</time>
      </trkpt>
      <trkpt lat="48.66125" lon="7.86486">
        <ele>130.321481</ele>
        <time>2021-06-20T06:33:57.999Z</time>
      </trkpt>
      <trkpt lat="48.66127" lon="7.8647">
        <ele>130.295906</ele>
        <time>2021-06-20T06:33:59.999Z</time>
      </trkpt>
      <trkpt lat="48.66129" lon="7.86453">
        <ele>130.268058</ele>
        <time>2021-06-20T06:34:01.999Z</time>
      </trkpt>
      <trkpt lat="48.66131" lon="7.86436">
        <ele>130.24052</ele>
        <time>2021-06-20T06:34:03.999Z</time>
      </trkpt>
      <trkpt lat="48.66134" lon="7.86418">
        <ele>130.211865</ele>
        <time>2021-06-20T06:34:05.999Z</time>
      </trkpt>
      <trkpt lat="48.66138" lon="7.864">
        <ele>130.181513</ele>
        <time>2021-06-20T06:34:07.999Z</time>
      </trkpt>
      <trkpt lat="48.6614" lon="7.8638">
        <ele>130.150368</ele>
        <time>2021-06-20T06:34:09.999Z</time>
      </trkpt>
      <trkpt lat="48.66142" lon="7.86363">
        <ele>130.122988</ele>
        <time>2021-06-20T06:34:11.999Z</time>
      </trkpt>
      <trkpt lat="48.66144" lon="7.86346">
        <ele>130.095377</ele>
        <time>2021-06-20T06:34:13.999Z</time>
      </trkpt>
      <trkpt lat="48.66145" lon="7.8633">
        <ele>130.070429</ele>
        <time>2021-06-20T06:34:15.999Z</time>
      </trkpt>
      <trkpt lat="48.66147" lon="7.86313">
        <ele>130.111888</ele>
        <time>2021-06-20T06:34:17.999Z</time>
      </trkpt>
      <trkpt lat="48.66148" lon="7.86297">
        <ele>130.155347</ele>
        <time>2021-06-20T06:34:19.999Z</time>
      </trkpt>
      <trkpt lat="48.6615" lon="7.86282">
        <ele>130.198606</ele>
        <time>2021-06-20T06:34:21.999Z</time>
      </trkpt>
      <trkpt lat="48.66153" lon="7.86268">
        <ele>130.237478</ele>
        <time>2021-06-20T06:34:23.999Z</time>
      </trkpt>
      <trkpt lat="48.66154" lon="7.8625">
        <ele>130.286061</ele>
        <time>2021-06-20T06:34:26.999Z</time>
      </trkpt>
      <trkpt lat="48.66156" lon="7.86234">
        <ele>130.331053</ele>
        <time>2021-06-20T06:34:28.999Z</time>
      </trkpt>
      <trkpt lat="48.66162" lon="7.8622">
        <ele>130.375901</ele>
        <time>2021-06-20T06:34:30.999Z</time>
      </trkpt>
      <trkpt lat="48.66164" lon="7.86201">
        <ele>130.427169</ele>
        <time>2021-06-20T06:34:33.999Z</time>
      </trkpt>
      <trkpt lat="48.66166" lon="7.86186">
        <ele>130.468908</ele>
        <time>2021-06-20T06:34:35.999Z</time>
      </trkpt>
      <trkpt lat="48.66167" lon="7.8617">
        <ele>130.513004</ele>
        <time>2021-06-20T06:34:37.999Z</time>
      </trkpt>
      <trkpt lat="48.66167" lon="7.86151">
        <ele>130.564771</ele>
        <time>2021-06-20T06:34:39.999Z</time>
      </trkpt>
      <trkpt lat="48.66166" lon="7.86129">
        <ele>130.622914</ele>
        <time>2021-06-20T06:34:42.999Z</time>
      </trkpt>
      <trkpt lat="48.66166" lon="7.86114">
        <ele>130.664142</ele>
        <time>2021-06-20T06:34:44.999Z</time>
      </trkpt>
      <trkpt lat="48.66166" lon="7.86095">
        <ele>130.715101</ele>
        <time>2021-06-20T06:34:46.999Z</time>
      </trkpt>
      <trkpt lat="48.66165" lon="7.86082">
        <ele>130.752882</ele>
        <time>2021-06-20T06:34:48.999Z</time>
      </trkpt>
      <trkpt lat="48.66165" lon="7.86066">
        <ele>130.794381</ele>
        <time>2021-06-20T06:34:50.999Z</time>
      </trkpt>
      <trkpt lat="48.66165" lon="7.86048">
        <ele>130.781988</ele>
        <time>2021-06-20T06:34:52.999Z</time>
      </trkpt>
      <trkpt lat="48.66165" lon="7.86033">
        <ele>130.753638</ele>
        <time>2021-06-20T06:34:54.999Z</time>
      </trkpt>
      <trkpt lat="48.66162" lon="7.86018">
        <ele>130.723638</ele>
        <time>2021-06-20T06:34:56.999Z</time>
      </trkpt>
      <trkpt lat="48.66159" lon="7.86005">
        <ele>130.697795</ele>
        <time>2021-06-20T06:34:58.999Z</time>
      </trkpt>
      <trkpt lat="48.66159" lon="7.85986">
        <ele>130.661127</ele>
        <time>2021-06-20T06:35:00.999Z</time>
      </trkpt>
      <trkpt lat="48.66158" lon="7.85965">
        <ele>130.62159</ele>
        <time>2021-06-20T06:35:02.999Z</time>
      </trkpt>
      <trkpt lat="48.66155" lon="7.85946">
        <ele>130.585542</ele>
        <time>2021-06-20T06:35:04.999Z</time>
      </trkpt>
      <trkpt lat="48.66152" lon="7.8593">
        <ele>130.553488</ele>
        <time>2021-06-20T06:35:06.999Z</time>
      </trkpt>
      <trkpt lat="48.66147" lon="7.85915">
        <ele>130.521564</ele>
        <time>2021-06-20T06:35:08.999Z</time>
      </trkpt>
      <trkpt lat="48.66144" lon="7.85902">
        <ele>130.495435</ele>
        <time>2021-06-20T06:35:10.999Z</time>
      </trkpt>
      <trkpt lat="48.66143" lon="7.85888">
        <ele>130.469094</ele>
        <time>2021-06-20T06:35:12.999Z</time>
      </trkpt>
      <trkpt lat="48.66146" lon="7.8587">
        <ele>130.434215</ele>
        <time>2021-06-20T06:35:14.999Z</time>
      </trkpt>
      <trkpt lat="48.66152" lon="7.85854">
        <ele>130.399353</ele>
        <time>2021-06-20T06:35:16.999Z</time>
      </trkpt>
      <trkpt lat="48.66161" lon="7.85841">
        <ele>130.363559</ele>
        <time>2021-06-20T06:35:18.999Z</time>
      </trkpt>
      <trkpt lat="48.66166" lon="7.85826">
        <ele>130.331186</ele>
        <time>2021-06-20T06:35:20.999Z</time>
      </trkpt>
      <trkpt lat="48.66167" lon="7.8581">
        <ele>130.300866</ele>
        <time>2021-06-20T06:35:22.999Z</time>
      </trkpt>
      <trkpt lat="48.66166" lon="7.85793">
        <ele>130.316572</ele>
        <time>2021-06-20T06:35:24.999Z</time>
      </trkpt>
      <trkpt lat="48.66163" lon="7.85775">
        <ele>130.351552</ele>
        <time>2021-06-20T06:35:26.998Z</time>
      </trkpt>
      <trkpt lat="48.66162" lon="7.85756">
        <ele>130.387923</ele>
        <time>2021-06-20T06:35:28.998Z</time>
      </trkpt>
      <trkpt lat="48.66163" lon="7.85737">
        <ele>130.423852</ele>
        <time>2021-06-20T06:35:30.998Z</time>
      </trkpt>
      <trkpt lat="48.66164" lon="7.85719">
        <ele>130.458479</ele>
        <time>2021-06-20T06:35:32.998Z</time>
      </trkpt>
      <trkpt lat="48.66165" lon="7.85701">
        <ele>130.493086</ele>
        <time>2021-06-20T06:35:34.998Z</time>
      </trkpt>
      <trkpt lat="48.66166" lon="7.85684">
        <ele>130.526937</ele>
        <time>2021-06-20T06:35:36.998Z</time>
      </trkpt>
      <trkpt lat="48.66167" lon="7.85666">
        <ele>130.560441</ele>
        <time>2021-06-20T06:35:38.998Z</time>
      </trkpt>
      <trkpt lat="48.66168" lon="7.85649">
        <ele>130.593753</ele>
        <time>2021-06-20T06:35:40.998Z</time>
      </trkpt>
      <trkpt lat="48.66168" lon="7.85632">
        <ele>130.626793</ele>
        <time>2021-06-20T06:35:42.998Z</time>
      </trkpt>
      <trkpt lat="48.66167" lon="7.85614">
        <ele>130.660586</ele>
        <time>2021-06-20T06:35:44.998Z</time>
      </trkpt>
      <trkpt lat="48.66166" lon="7.85597">
        <ele>130.692918</ele>
        <time>2021-06-20T06:35:46.998Z</time>
      </trkpt>
      <trkpt lat="48.66166" lon="7.85581">
        <ele>130.724006</ele>
        <time>2021-06-20T06:35:48.998Z</time>
      </trkpt>
      <trkpt lat="48.66165" lon="7.85563">
        <ele>130.758328</ele>
        <time>2021-06-20T06:35:51.998Z</time>
      </trkpt>
      <trkpt lat="48.66164" lon="7.85542">
        <ele>130.799526</ele>
        <time>2021-06-20T06:35:54.998Z</time>
      </trkpt>
      <trkpt lat="48.6616" lon="7.85522">
        <ele>130.832975</ele>
        <time>2021-06-20T06:35:57.998Z</time>
      </trkpt>
      <trkpt lat="48.66153" lon="7.85508">
        <ele>130.856871</ele>
        <time>2021-06-20T06:35:59.998Z</time>
      </trkpt>
      <trkpt lat="48.66146" lon="7.85495">
        <ele>130.880302</ele>
        <time>2021-06-20T06:36:01.998Z</time>
      </trkpt>
      <trkpt lat="48.66139" lon="7.85482">
        <ele>130.903439</ele>
        <time>2021-06-20T06:36:03.998Z</time>
      </trkpt>
      <trkpt lat="48.66133" lon="7.85469">
        <ele>130.926678</ele>
        <time>2021-06-20T06:36:05.998Z</time>
      </trkpt>
      <trkpt lat="48.66126" lon="7.85455">
        <ele>130.950341</ele>
        <time>2021-06-20T06:36:07.998Z</time>
      </trkpt>
      <trkpt lat="48.6612" lon="7.85442">
        <ele>130.972979</ele>
        <time>2021-06-20T06:36:09.998Z</time>
      </trkpt>
      <trkpt lat="48.66113" lon="7.85431">
        <ele>130.993677</ele>
        <time>2021-06-20T06:36:11.998Z</time>
      </trkpt>
      <trkpt lat="48.66107" lon="7.85419">
        <ele>131.015311</ele>
        <time>2021-06-20T06:36:13.998Z</time>
      </trkpt>
      <trkpt lat="48.66097" lon="7.85407">
        <ele>131.042292</ele>
        <time>2021-06-20T06:36:16.999Z</time>
      </trkpt>
      <trkpt lat="48.66088" lon="7.85395">
        <ele>131.067313</ele>
        <time>2021-06-20T06:36:19.999Z</time>
      </trkpt>
      <trkpt lat="48.6608" lon="7.85382">
        <ele>131.092832</ele>
        <time>2021-06-20T06:36:22.999Z</time>
      </trkpt>
      <trkpt lat="48.66074" lon="7.85367">
        <ele>131.11682</ele>
        <time>2021-06-20T06:36:26.999Z</time>
      </trkpt>
      <trkpt lat="48.66065" lon="7.85353">
        <ele>131.143571</ele>
        <time>2021-06-20T06:36:29.999Z</time>
      </trkpt>
      <trkpt lat="48.66059" lon="7.85342">
        <ele>131.163258</ele>
        <time>2021-06-20T06:36:31.999Z</time>
      </trkpt>
      <trkpt lat="48.66052" lon="7.8533">
        <ele>131.186078</ele>
        <time>2021-06-20T06:36:33.999Z</time>
      </trkpt>
      <trkpt lat="48.66045" lon="7.85319">
        <ele>131.24385</ele>
        <time>2021-06-20T06:36:35.999Z</time>
      </trkpt>
      <trkpt lat="48.66039" lon="7.85306">
        <ele>131.327694</ele>
        <time>2021-06-20T06:36:37.999Z</time>
      </trkpt>
      <trkpt lat="48.6603" lon="7.85291">
        <ele>131.437049</ele>
        <time>2021-06-20T06:36:39.999Z</time>
      </trkpt>
      <trkpt lat="48.66023" lon="7.85275">
        <ele>131.541587</ele>
        <time>2021-06-20T06:36:41.999Z</time>
      </trkpt>
      <trkpt lat="48.66016" lon="7.85256">
        <ele>131.662562</ele>
        <time>2021-06-20T06:36:43.999Z</time>
      </trkpt>
      <trkpt lat="48.66007" lon="7.85243">
        <ele>131.762878</ele>
        <time>2021-06-20T06:36:45.999Z</time>
      </trkpt>
      <trkpt lat="48.66" lon="7.8523">
        <ele>131.852615</ele>
        <time>2021-06-20T06:36:47.999Z</time>
      </trkpt>
      <trkpt lat="48.6599" lon="7.85221">
        <ele>131.952776</ele>
        <time>2021-06-20T06:36:49.999Z</time>
      </trkpt>
      <trkpt lat="48.6598" lon="7.85206">
        <ele>132.061918</ele>
        <time>2021-06-20T06:36:51.999Z</time>
      </trkpt>
      <trkpt lat="48.65972" lon="7.85187">
        <ele>132.184946</ele>
        <time>2021-06-20T06:36:53.999Z</time>
      </trkpt>
      <trkpt lat="48.65963" lon="7.85172">
        <ele>132.293829</ele>
        <time>2021-06-20T06:36:55.999Z</time>
      </trkpt>
      <trkpt lat="48.65954" lon="7.85159">
        <ele>132.393972</ele>
        <time>2021-06-20T06:36:57.999Z</time>
      </trkpt>
      <trkpt lat="48.65945" lon="7.85141">
        <ele>132.518001</ele>
        <time>2021-06-20T06:36:59.999Z</time>
      </trkpt>
      <trkpt lat="48.65936" lon="7.85125">
        <ele>132.631788</ele>
        <time>2021-06-20T06:37:01.999Z</time>
      </trkpt>
      <trkpt lat="48.65928" lon="7.85107">
        <ele>132.582018</ele>
        <time>2021-06-20T06:37:03.999Z</time>
      </trkpt>
      <trkpt lat="48.65919" lon="7.85088">
        <ele>132.45898</ele>
        <time>2021-06-20T06:37:05.999Z</time>
      </trkpt>
      <trkpt lat="48.65912" lon="7.85073">
        <ele>132.355966</ele>
        <time>2021-06-20T06:37:07.999Z</time>
      </trkpt>
      <trkpt lat="48.65904" lon="7.85056">
        <ele>132.244995</ele>
        <time>2021-06-20T06:37:09.999Z</time>
      </trkpt>
      <trkpt lat="48.65895" lon="7.85039">
        <ele>132.128391</ele>
        <time>2021-06-20T06:37:11.999Z</time>
      </trkpt>
      <trkpt lat="48.65886" lon="7.85024">
        <ele>132.017589</ele>
        <time>2021-06-20T06:37:13.999Z</time>
      </trkpt>
      <trkpt lat="48.65878" lon="7.85008">
        <ele>131.911357</ele>
        <time>2021-06-20T06:37:15.999Z</time>
      </trkpt>
      <trkpt lat="48.6587" lon="7.84993">
        <ele>131.811098</ele>
        <time>2021-06-20T06:37:17.999Z</time>
      </trkpt>
      <trkpt lat="48.65862" lon="7.84979">
        <ele>131.707177</ele>
        <time>2021-06-20T06:37:19.999Z</time>
      </trkpt>
      <trkpt lat="48.65856" lon="7.84957">
        <ele>131.577476</ele>
        <time>2021-06-20T06:37:21.999Z</time>
      </trkpt>
      <trkpt lat="48.65853" lon="7.84935">
        <ele>131.458701</ele>
        <time>2021-06-20T06:37:23.999Z</time>
      </trkpt>
      <trkpt lat="48.65848" lon="7.84914">
        <ele>131.33758</ele>
        <time>2021-06-20T06:37:25.999Z</time>
      </trkpt>
      <trkpt lat="48.65844" lon="7.84895">
        <ele>131.231712</ele>
        <time>2021-06-20T06:37:27.999Z</time>
      </trkpt>
      <trkpt lat="48.6584" lon="7.84877">
        <ele>131.232048</ele>
        <time>2021-06-20T06:37:29.999Z</time>
      </trkpt>
      <trkpt lat="48.65836" lon="7.8486">
        <ele>131.27538</ele>
        <time>2021-06-20T06:37:31.999Z</time>
      </trkpt>
      <trkpt lat="48.65835" lon="7.84843">
        <ele>131.317014</ele>
        <time>2021-06-20T06:37:33.999Z</time>
      </trkpt>
      <trkpt lat="48.65837" lon="7.84825">
        <ele>131.360159</ele>
        <time>2021-06-20T06:37:35.999Z</time>
      </trkpt>
      <trkpt lat="48.65844" lon="7.84808">
        <ele>131.408535</ele>
        <time>2021-06-20T06:37:37.999Z</time>
      </trkpt>
      <trkpt lat="48.6585" lon="7.84793">
        <ele>131.450922</ele>
        <time>2021-06-20T06:37:39.999Z</time>
      </trkpt>
      <trkpt lat="48.65857" lon="7.84779">
        <ele>131.493776</ele>
        <time>2021-06-20T06:37:41.999Z</time>
      </trkpt>
      <trkpt lat="48.65865" lon="7.84765">
        <ele>131.53645</ele>
        <time>2021-06-20T06:37:43.999Z</time>
      </trkpt>
      <trkpt lat="48.65873" lon="7.84752">
        <ele>131.579834</ele>
        <time>2021-06-20T06:37:45.999Z</time>
      </trkpt>
      <trkpt lat="48.65881" lon="7.84738">
        <ele>131.623067</ele>
        <time>2021-06-20T06:37:47.999Z</time>
      </trkpt>
      <trkpt lat="48.65889" lon="7.84726">
        <ele>131.663875</ele>
        <time>2021-06-20T06:37:49.999Z</time>
      </trkpt>
      <trkpt lat="48.65897" lon="7.84713">
        <ele>131.707359</ele>
        <time>2021-06-20T06:37:51.999Z</time>
      </trkpt>
      <trkpt lat="48.65905" lon="7.847">
        <ele>131.749221</ele>
        <time>2021-06-20T06:37:53.999Z</time>
      </trkpt>
      <trkpt lat="48.65913" lon="7.84689">
        <ele>131.789329</ele>
        <time>2021-06-20T06:37:55.999Z</time>
      </trkpt>
      <trkpt lat="48.6592" lon="7.84678">
        <ele>131.824805</ele>
        <time>2021-06-20T06:37:57.999Z</time>
      </trkpt>
      <trkpt lat="48.65924" lon="7.84662">
        <ele>131.856534</ele>
        <time>2021-06-20T06:37:59.999Z</time>
      </trkpt>
      <trkpt lat="48.65922" lon="7.84643">
        <ele>131.870929</ele>
        <time>2021-06-20T06:38:01.999Z</time>
      </trkpt>
      <trkpt lat="48.65915" lon="7.84627">
        <ele>131.885532</ele>
        <time>2021-06-20T06:38:03.999Z</time>
      </trkpt>
      <trkpt lat="48.65908" lon="7.8461">
        <ele>131.899409</ele>
        <time>2021-06-20T06:38:05.999Z</time>
      </trkpt>
      <trkpt lat="48.65903" lon="7.84595">
        <ele>131.912304</ele>
        <time>2021-06-20T06:38:07.999Z</time>
      </trkpt>
      <trkpt lat="48.65897" lon="7.84582">
        <ele>131.924012</ele>
        <time>2021-06-20T06:38:09.999Z</time>
      </trkpt>
      <trkpt lat="48.65891" lon="7.84568">
        <ele>131.936271</ele>
        <time>2021-06-20T06:38:11.999Z</time>
      </trkpt>
      <trkpt lat="48.65885" lon="7.84553">
        <ele>131.949391</ele>
        <time>2021-06-20T06:38:13.999Z</time>
      </trkpt>
      <trkpt lat="48.65878" lon="7.84539">
        <ele>131.961982</ele>
        <time>2021-06-20T06:38:15.999Z</time>
      </trkpt>
      <trkpt lat="48.65872" lon="7.84527">
        <ele>131.973254</ele>
        <time>2021-06-20T06:38:17.999Z</time>
      </trkpt>
      <trkpt lat="48.65869" lon="7.84514">
        <ele>131.98332</ele>
        <time>2021-06-20T06:38:19.999Z</time>
      </trkpt>
      <trkpt lat="48.65867" lon="7.84498">
        <ele>131.995072</ele>
        <time>2021-06-20T06:38:21.999Z</time>
      </trkpt>
      <trkpt lat="48.65866" lon="7.84481">
        <ele>132.007693</ele>
        <time>2021-06-20T06:38:23.999Z</time>
      </trkpt>
      <trkpt lat="48.65864" lon="7.84464">
        <ele>132.020661</ele>
        <time>2021-06-20T06:38:25.999Z</time>
      </trkpt>
      <trkpt lat="48.65862" lon="7.84446">
        <ele>132.034319</ele>
        <time>2021-06-20T06:38:27.999Z</time>
      </trkpt>
      <trkpt lat="48.65858" lon="7.84429">
        <ele>132.047501</ele>
        <time>2021-06-20T06:38:29.999Z</time>
      </trkpt>
      <trkpt lat="48.65854" lon="7.84412">
        <ele>132.066536</ele>
        <time>2021-06-20T06:38:31.999Z</time>
      </trkpt>
      <trkpt lat="48.65848" lon="7.84396">
        <ele>132.090451</ele>
        <time>2021-06-20T06:38:33.999Z</time>
      </trkpt>
      <trkpt lat="48.65842" lon="7.8438">
        <ele>132.114915</ele>
        <time>2021-06-20T06:38:35.999Z</time>
      </trkpt>
      <trkpt lat="48.65835" lon="7.84364">
        <ele>132.138829</ele>
        <time>2021-06-20T06:38:37.999Z</time>
      </trkpt>
      <trkpt lat="48.65829" lon="7.8435">
        <ele>132.161966</ele>
        <time>2021-06-20T06:38:39.999Z</time>
      </trkpt>
      <trkpt lat="48.65823" lon="7.84336">
        <ele>132.183906</ele>
        <time>2021-06-20T06:38:41.999Z</time>
      </trkpt>
      <trkpt lat="48.65817" lon="7.84323">
        <ele>132.204316</ele>
        <time>2021-06-20T06:38:43.999Z</time>
      </trkpt>
      <trkpt lat="48.65812" lon="7.84309">
        <ele>132.224445</ele>
        <time>2021-06-20T06:38:45.999Z</time>
      </trkpt>
      <trkpt lat="48.65806" lon="7.84298">
        <ele>132.243041</ele>
        <time>2021-06-20T06:38:47.999Z</time>
      </trkpt>
      <trkpt lat="48.65799" lon="7.84286">
        <ele>132.264603</ele>
        <time>2021-06-20T06:38:49.999Z</time>
      </trkpt>
      <trkpt lat="48.65792" lon="7.84273">
        <ele>132.286517</ele>
        <time>2021-06-20T06:38:51.999Z</time>
      </trkpt>
      <trkpt lat="48.65786" lon="7.84259">
        <ele>132.308243</ele>
        <time>2021-06-20T06:38:53.999Z</time>
      </trkpt>
      <trkpt lat="48.65779" lon="7.84248">
        <ele>132.327337</ele>
        <time>2021-06-20T06:38:55.999Z</time>
      </trkpt>
      <trkpt lat="48.65772" lon="7.84232">
        <ele>132.353638</ele>
        <time>2021-06-20T06:38:58.999Z</time>
      </trkpt>
      <trkpt lat="48.65773" lon="7.84215">
        <ele>132.37518</ele>
        <time>2021-06-20T06:39:00.999Z</time>
      </trkpt>
      <trkpt lat="48.65776" lon="7.84199">
        <ele>132.397721</ele>
        <time>2021-06-20T06:39:02.999Z</time>
      </trkpt>
      <trkpt lat="48.65779" lon="7.84182">
        <ele>132.430312</ele>
        <time>2021-06-20T06:39:04.999Z</time>
      </trkpt>
      <trkpt lat="48.65782" lon="7.84165">
        <ele>132.474558</ele>
        <time>2021-06-20T06:39:06.999Z</time>
      </trkpt>
      <trkpt lat="48.65786" lon="7.84149">
        <ele>132.518711</ele>
        <time>2021-06-20T06:39:08.999Z</time>
      </trkpt>
      <trkpt lat="48.65788" lon="7.84132">
        <ele>132.563108</ele>
        <time>2021-06-20T06:39:10.999Z</time>
      </trkpt>
      <trkpt lat="48.65788" lon="7.84114">
        <ele>132.607043</ele>
        <time>2021-06-20T06:39:12.999Z</time>
      </trkpt>
      <trkpt lat="48.65787" lon="7.84098">
        <ele>132.650203</ele>
        <time>2021-06-20T06:39:14.999Z</time>
      </trkpt>
      <trkpt lat="48.65786" lon="7.84082">
        <ele>132.689074</ele>
        <time>2021-06-20T06:39:16.999Z</time>
      </trkpt>
      <trkpt lat="48.6578" lon="7.84072">
        <ele>132.724085</ele>
        <time>2021-06-20T06:39:19.999Z</time>
      </trkpt>
      <trkpt lat="48.65769" lon="7.84081">
        <ele>132.768383</ele>
        <time>2021-06-20T06:39:22.999Z</time>
      </trkpt>
      <trkpt lat="48.6576" lon="7.84087">
        <ele>132.808084</ele>
        <time>2021-06-20T06:39:24.999Z</time>
      </trkpt>
      <trkpt lat="48.65751" lon="7.84093">
        <ele>132.847632</ele>
        <time>2021-06-20T06:39:26.999Z</time>
      </trkpt>
      <trkpt lat="48.65741" lon="7.84101">
        <ele>132.889635</ele>
        <time>2021-06-20T06:39:28.999Z</time>
      </trkpt>
      <trkpt lat="48.65731" lon="7.84105">
        <ele>132.929703</ele>
        <time>2021-06-20T06:39:30.999Z</time>
      </trkpt>
      <trkpt lat="48.65721" lon="7.8411">
        <ele>132.97084</ele>
        <time>2021-06-20T06:39:32.999Z</time>
      </trkpt>
      <trkpt lat="48.65711" lon="7.84116">
        <ele>133.012071</ele>
        <time>2021-06-20T06:39:34.999Z</time>
      </trkpt>
      <trkpt lat="48.657" lon="7.84122">
        <ele>133.055399</ele>
        <time>2021-06-20T06:39:36.999Z</time>
      </trkpt>
      <trkpt lat="48.65691" lon="7.84127">
        <ele>133.094262</ele>
        <time>2021-06-20T06:39:38.999Z</time>
      </trkpt>
      <trkpt lat="48.65682" lon="7.84131">
        <ele>133.115214</ele>
        <time>2021-06-20T06:39:40.999Z</time>
      </trkpt>
      <trkpt lat="48.65669" lon="7.84136">
        <ele>133.139084</ele>
        <time>2021-06-20T06:39:43.999Z</time>
      </trkpt>
      <trkpt lat="48.65661" lon="7.84151">
        <ele>133.163675</ele>
        <time>2021-06-20T06:39:46.999Z</time>
      </trkpt>
      <trkpt lat="48.65653" lon="7.84162">
        <ele>133.182946</ele>
        <time>2021-06-20T06:39:48.999Z</time>
      </trkpt>
      <trkpt lat="48.65645" lon="7.84171">
        <ele>133.200847</ele>
        <time>2021-06-20T06:39:50.999Z</time>
      </trkpt>
      <trkpt lat="48.65637" lon="7.84182">
        <ele>133.220894</ele>
        <time>2021-06-20T06:39:52.999Z</time>
      </trkpt>
      <trkpt lat="48.65629" lon="7.84192">
        <ele>133.240597</ele>
        <time>2021-06-20T06:39:54.999Z</time>
      </trkpt>
      <trkpt lat="48.65621" lon="7.84202">
        <ele>133.260572</ele>
        <time>2021-06-20T06:39:56.999Z</time>
      </trkpt>
      <trkpt lat="48.65611" lon="7.8421">
        <ele>133.281386</ele>
        <time>2021-06-20T06:39:58.999Z</time>
      </trkpt>
      <trkpt lat="48.65602" lon="7.84218">
        <ele>133.300698</ele>
        <time>2021-06-20T06:40:00.999Z</time>
      </trkpt>
      <trkpt lat="48.65593" lon="7.84225">
        <ele>133.320387</ele>
        <time>2021-06-20T06:40:02.999Z</time>
      </trkpt>
      <trkpt lat="48.65584" lon="7.84232">
        <ele>133.338329</ele>
        <time>2021-06-20T06:40:04.999Z</time>
      </trkpt>
      <trkpt lat="48.65576" lon="7.8424">
        <ele>133.356779</ele>
        <time>2021-06-20T06:40:06.999Z</time>
      </trkpt>
      <trkpt lat="48.65566" lon="7.84248">
        <ele>133.377845</ele>
        <time>2021-06-20T06:40:09.999Z</time>
      </trkpt>
      <trkpt lat="48.65552" lon="7.84243">
        <ele>133.403551</ele>
        <time>2021-06-20T06:40:12.999Z</time>
      </trkpt>
      <trkpt lat="48.65543" lon="7.84233">
        <ele>133.424345</ele>
        <time>2021-06-20T06:40:14.999Z</time>
      </trkpt>
      <trkpt lat="48.65534" lon="7.84223">
        <ele>133.437224</ele>
        <time>2021-06-20T06:40:16.999Z</time>
      </trkpt>
      <trkpt lat="48.65528" lon="7.84208">
        <ele>133.43956</ele>
        <time>2021-06-20T06:40:18.999Z</time>
      </trkpt>
      <trkpt lat="48.65525" lon="7.84192">
        <ele>133.441866</ele>
        <time>2021-06-20T06:40:20.999Z</time>
      </trkpt>
      <trkpt lat="48.65523" lon="7.84174">
        <ele>133.444264</ele>
        <time>2021-06-20T06:40:22.999Z</time>
      </trkpt>
      <trkpt lat="48.65525" lon="7.84155">
        <ele>133.446771</ele>
        <time>2021-06-20T06:40:24.999Z</time>
      </trkpt>
      <trkpt lat="48.65529" lon="7.84138">
        <ele>133.449217</ele>
        <time>2021-06-20T06:40:26.999Z</time>
      </trkpt>
      <trkpt lat="48.65533" lon="7.84123">
        <ele>133.451462</ele>
        <time>2021-06-20T06:40:28.999Z</time>
      </trkpt>
      <trkpt lat="48.65537" lon="7.84106">
        <ele>133.453903</ele>
        <time>2021-06-20T06:40:30.999Z</time>
      </trkpt>
      <trkpt lat="48.65539" lon="7.84087">
        <ele>133.456421</ele>
        <time>2021-06-20T06:40:32.999Z</time>
      </trkpt>
      <trkpt lat="48.65542" lon="7.8407">
        <ele>133.458891</ele>
        <time>2021-06-20T06:40:34.999Z</time>
      </trkpt>
      <trkpt lat="48.65543" lon="7.84051">
        <ele>133.461331</ele>
        <time>2021-06-20T06:40:36.999Z</time>
      </trkpt>
      <trkpt lat="48.65545" lon="7.84034">
        <ele>133.46366</ele>
        <time>2021-06-20T06:40:38.999Z</time>
      </trkpt>
      <trkpt lat="48.65549" lon="7.84017">
        <ele>133.466176</ele>
        <time>2021-06-20T06:40:40.999Z</time>
      </trkpt>
      <trkpt lat="48.65552" lon="7.84">
        <ele>133.468452</ele>
        <time>2021-06-20T06:40:42.999Z</time>
      </trkpt>
      <trkpt lat="48.65555" lon="7.83984">
        <ele>133.4707</ele>
        <time>2021-06-20T06:40:44.999Z</time>
      </trkpt>
      <trkpt lat="48.6556" lon="7.83968">
        <ele>133.467122</ele>
        <time>2021-06-20T06:40:46.999Z</time>
      </trkpt>
      <trkpt lat="48.65564" lon="7.83951">
        <ele>133.413898</ele>
        <time>2021-06-20T06:40:48.999Z</time>
      </trkpt>
      <trkpt lat="48.65567" lon="7.83933">
        <ele>133.358582</ele>
        <time>2021-06-20T06:40:50.999Z</time>
      </trkpt>
      <trkpt lat="48.65568" lon="7.83915">
        <ele>133.302725</ele>
        <time>2021-06-20T06:40:52.999Z</time>
      </trkpt>
      <trkpt lat="48.65569" lon="7.83896">
        <ele>133.249224</ele>
        <time>2021-06-20T06:40:54.999Z</time>
      </trkpt>
      <trkpt lat="48.65569" lon="7.83879">
        <ele>133.197299</ele>
        <time>2021-06-20T06:40:56.999Z</time>
      </trkpt>
      <trkpt lat="48.6557" lon="7.83862">
        <ele>133.146627</ele>
        <time>2021-06-20T06:40:58.999Z</time>
      </trkpt>
      <trkpt lat="48.65571" lon="7.83844">
        <ele>133.093805</ele>
        <time>2021-06-20T06:41:00.999Z</time>
      </trkpt>
      <trkpt lat="48.65572" lon="7.83827">
        <ele>133.04222</ele>
        <time>2021-06-20T06:41:02.999Z</time>
      </trkpt>
      <trkpt lat="48.65577" lon="7.83809">
        <ele>132.985716</ele>
        <time>2021-06-20T06:41:04.999Z</time>
      </trkpt>
      <trkpt lat="48.65582" lon="7.83791">
        <ele>132.930167</ele>
        <time>2021-06-20T06:41:06.999Z</time>
      </trkpt>
      <trkpt lat="48.65586" lon="7.83774">
        <ele>132.876792</ele>
        <time>2021-06-20T06:41:08.999Z</time>
      </trkpt>
      <trkpt lat="48.6559" lon="7.83758">
        <ele>132.825785</ele>
        <time>2021-06-20T06:41:10.999Z</time>
      </trkpt>
      <trkpt lat="48.65594" lon="7.83741">
        <ele>132.771728</ele>
        <time>2021-06-20T06:41:12.999Z</time>
      </trkpt>
      <trkpt lat="48.65595" lon="7.83722">
        <ele>132.714653</ele>
        <time>2021-06-20T06:41:14.999Z</time>
      </trkpt>
      <trkpt lat="48.65595" lon="7.83703">
        <ele>132.670434</ele>
        <time>2021-06-20T06:41:16.999Z</time>
      </trkpt>
      <trkpt lat="48.65595" lon="7.83685">
        <ele>132.674103</ele>
        <time>2021-06-20T06:41:18.999Z</time>
      </trkpt>
      <trkpt lat="48.65593" lon="7.83666">
        <ele>132.677921</ele>
        <time>2021-06-20T06:41:20.999Z</time>
      </trkpt>
      <trkpt lat="48.6559" lon="7.8365">
        <ele>132.68152</ele>
        <time>2021-06-20T06:41:22.999Z</time>
      </trkpt>
      <trkpt lat="48.65588" lon="7.83632">
        <ele>132.685111</ele>
        <time>2021-06-20T06:41:24.999Z</time>
      </trkpt>
      <trkpt lat="48.65583" lon="7.83615">
        <ele>132.688847</ele>
        <time>2021-06-20T06:41:26.999Z</time>
      </trkpt>
      <trkpt lat="48.6558" lon="7.83598">
        <ele>132.692438</ele>
        <time>2021-06-20T06:41:28.999Z</time>
      </trkpt>
      <trkpt lat="48.65576" lon="7.83582">
        <ele>132.695999</ele>
        <time>2021-06-20T06:41:30.999Z</time>
      </trkpt>
      <trkpt lat="48.65572" lon="7.83566">
        <ele>132.699455</ele>
        <time>2021-06-20T06:41:32.999Z</time>
      </trkpt>
      <trkpt lat="48.65568" lon="7.83549">
        <ele>132.703133</ele>
        <time>2021-06-20T06:41:34.999Z</time>
      </trkpt>
      <trkpt lat="48.65563" lon="7.83533">
        <ele>132.706723</ele>
        <time>2021-06-20T06:41:36.999Z</time>
      </trkpt>
      <trkpt lat="48.65557" lon="7.83518">
        <ele>132.710265</ele>
        <time>2021-06-20T06:41:38.999Z</time>
      </trkpt>
      <trkpt lat="48.65552" lon="7.83506">
        <ele>132.713225</ele>
        <time>2021-06-20T06:41:40.999Z</time>
      </trkpt>
      <trkpt lat="48.6554" lon="7.83512">
        <ele>132.717034</ele>
        <time>2021-06-20T06:41:44.999Z</time>
      </trkpt>
      <trkpt lat="48.65535" lon="7.83523">
        <ele>132.719892</ele>
        <time>2021-06-20T06:41:46.999Z</time>
      </trkpt>
      <trkpt lat="48.65526" lon="7.83533">
        <ele>132.723213</ele>
        <time>2021-06-20T06:41:49.999Z</time>
      </trkpt>
      <trkpt lat="48.65512" lon="7.8353">
        <ele>132.700843</ele>
        <time>2021-06-20T06:41:52.999Z</time>
      </trkpt>
      <trkpt lat="48.65501" lon="7.8353">
        <ele>132.665531</ele>
        <time>2021-06-20T06:41:54.999Z</time>
      </trkpt>
      <trkpt lat="48.65493" lon="7.83518">
        <ele>132.628261</ele>
        <time>2021-06-20T06:41:56.999Z</time>
      </trkpt>
      <trkpt lat="48.65485" lon="7.83502">
        <ele>132.586478</ele>
        <time>2021-06-20T06:41:58.999Z</time>
      </trkpt>
      <trkpt lat="48.65478" lon="7.83489">
        <ele>132.549519</ele>
        <time>2021-06-20T06:42:00.999Z</time>
      </trkpt>
      <trkpt lat="48.65471" lon="7.83474">
        <ele>132.511481</ele>
        <time>2021-06-20T06:42:02.999Z</time>
      </trkpt>
      <trkpt lat="48.65467" lon="7.83458">
        <ele>132.474536</ele>
        <time>2021-06-20T06:42:04.999Z</time>
      </trkpt>
      <trkpt lat="48.65462" lon="7.83443">
        <ele>132.439223</ele>
        <time>2021-06-20T06:42:06.999Z</time>
      </trkpt>
      <trkpt lat="48.65458" lon="7.83427">
        <ele>132.402659</ele>
        <time>2021-06-20T06:42:08.999Z</time>
      </trkpt>
      <trkpt lat="48.65456" lon="7.83409">
        <ele>132.362524</ele>
        <time>2021-06-20T06:42:10.999Z</time>
      </trkpt>
      <trkpt lat="48.65458" lon="7.83389">
        <ele>132.320435</ele>
        <time>2021-06-20T06:42:12.999Z</time>
      </trkpt>
      <trkpt lat="48.65459" lon="7.83371">
        <ele>132.281086</ele>
        <time>2021-06-20T06:42:14.999Z</time>
      </trkpt>
      <trkpt lat="48.6546" lon="7.83354">
        <ele>132.243617</ele>
        <time>2021-06-20T06:42:16.999Z</time>
      </trkpt>
      <trkpt lat="48.6546" lon="7.83334">
        <ele>132.202524</ele>
        <time>2021-06-20T06:42:18.999Z</time>
      </trkpt>
      <trkpt lat="48.65459" lon="7.83315">
        <ele>132.161207</ele>
        <time>2021-06-20T06:42:20.999Z</time>
      </trkpt>
      <trkpt lat="48.6546" lon="7.83297">
        <ele>132.123578</ele>
        <time>2021-06-20T06:42:22.999Z</time>
      </trkpt>
      <trkpt lat="48.65465" lon="7.83281">
        <ele>132.085933</ele>
        <time>2021-06-20T06:42:24.999Z</time>
      </trkpt>
      <trkpt lat="48.65472" lon="7.83269">
        <ele>132.05293</ele>
        <time>2021-06-20T06:42:27.999Z</time>
      </trkpt>
      <trkpt lat="48.65467" lon="7.83252">
        <ele>132.012791</ele>
        <time>2021-06-20T06:42:31.999Z</time>
      </trkpt>
      <trkpt lat="48.65468" lon="7.83234">
        <ele>131.975266</ele>
        <time>2021-06-20T06:42:33.999Z</time>
      </trkpt>
      <trkpt lat="48.65471" lon="7.83216">
        <ele>131.936432</ele>
        <time>2021-06-20T06:42:35.999Z</time>
      </trkpt>
      <trkpt lat="48.65474" lon="7.832">
        <ele>131.899926</ele>
        <time>2021-06-20T06:42:37.999Z</time>
      </trkpt>
      <trkpt lat="48.65477" lon="7.83184">
        <ele>131.865724</ele>
        <time>2021-06-20T06:42:39.999Z</time>
      </trkpt>
      <trkpt lat="48.6548" lon="7.83168">
        <ele>131.830093</ele>
        <time>2021-06-20T06:42:41.999Z</time>
      </trkpt>
      <trkpt lat="48.65488" lon="7.83157">
        <ele>131.795482</ele>
        <time>2021-06-20T06:42:43.999Z</time>
      </trkpt>
      <trkpt lat="48.65492" lon="7.83143">
        <ele>131.763252</ele>
        <time>2021-06-20T06:42:45.999Z</time>
      </trkpt>
      <trkpt lat="48.65495" lon="7.8313">
        <ele>131.7331</ele>
        <time>2021-06-20T06:42:47.999Z</time>
      </trkpt>
      <trkpt lat="48.65485" lon="7.83121">
        <ele>131.696653</ele>
        <time>2021-06-20T06:42:50.999Z</time>
      </trkpt>
      <trkpt lat="48.65474" lon="7.83121">
        <ele>131.661355</ele>
        <time>2021-06-20T06:42:52.999Z</time>
      </trkpt>
      <trkpt lat="48.65465" lon="7.83119">
        <ele>131.630827</ele>
        <time>2021-06-20T06:42:54.999Z</time>
      </trkpt>
      <trkpt lat="48.65456" lon="7.83114">
        <ele>131.601237</ele>
        <time>2021-06-20T06:42:56.999Z</time>
      </trkpt>
      <trkpt lat="48.65448" lon="7.83102">
        <ele>131.572965</ele>
        <time>2021-06-20T06:42:58.999Z</time>
      </trkpt>
      <trkpt lat="48.65441" lon="7.8309">
        <ele>131.590868</ele>
        <time>2021-06-20T06:43:00.999Z</time>
      </trkpt>
      <trkpt lat="48.65433" lon="7.83079">
        <ele>131.609249</ele>
        <time>2021-06-20T06:43:02.999Z</time>
      </trkpt>
      <trkpt lat="48.65424" lon="7.8307">
        <ele>131.625594</ele>
        <time>2021-06-20T06:43:04.999Z</time>
      </trkpt>
      <trkpt lat="48.65413" lon="7.83062">
        <ele>131.646674</ele>
        <time>2021-06-20T06:43:07.999Z</time>
      </trkpt>
      <trkpt lat="48.65404" lon="7.83051">
        <ele>131.665962</ele>
        <time>2021-06-20T06:43:09.999Z</time>
      </trkpt>
      <trkpt lat="48.65396" lon="7.83043">
        <ele>131.681455</ele>
        <time>2021-06-20T06:43:11.999Z</time>
      </trkpt>
      <trkpt lat="48.65388" lon="7.83034">
        <ele>131.697789</ele>
        <time>2021-06-20T06:43:13.999Z</time>
      </trkpt>
      <trkpt lat="48.65375" lon="7.83033">
        <ele>131.719443</ele>
        <time>2021-06-20T06:43:15.999Z</time>
      </trkpt>
      <trkpt lat="48.65363" lon="7.83039">
        <ele>131.740427</ele>
        <time>2021-06-20T06:43:17.999Z</time>
      </trkpt>
      <trkpt lat="48.6535" lon="7.83036">
        <ele>131.761436</ele>
        <time>2021-06-20T06:43:19.999Z</time>
      </trkpt>
      <trkpt lat="48.65339" lon="7.83032">
        <ele>131.780661</ele>
        <time>2021-06-20T06:43:21.999Z</time>
      </trkpt>
      <trkpt lat="48.65325" lon="7.8303">
        <ele>131.80261</ele>
        <time>2021-06-20T06:43:23.999Z</time>
      </trkpt>
      <trkpt lat="48.65312" lon="7.83026">
        <ele>131.824753</ele>
        <time>2021-06-20T06:43:25.999Z</time>
      </trkpt>
      <trkpt lat="48.65299" lon="7.83022">
        <ele>131.846607</ele>
        <time>2021-06-20T06:43:27.999Z</time>
      </trkpt>
      <trkpt lat="48.65286" lon="7.83018">
        <ele>131.867681</ele>
        <time>2021-06-20T06:43:29.999Z</time>
      </trkpt>
      <trkpt lat="48.65275" lon="7.83016">
        <ele>131.86864</ele>
        <time>2021-06-20T06:43:31.999Z</time>
      </trkpt>
      <trkpt lat="48.65259" lon="7.8301">
        <ele>131.869917</ele>
        <time>2021-06-20T06:43:33.999Z</time>
      </trkpt>
      <trkpt lat="48.65246" lon="7.83004">
        <ele>131.871026</ele>
        <time>2021-06-20T06:43:35.999Z</time>
      </trkpt>
      <trkpt lat="48.65232" lon="7.82999">
        <ele>131.872122</ele>
        <time>2021-06-20T06:43:37.999Z</time>
      </trkpt>
      <trkpt lat="48.65218" lon="7.82994">
        <ele>131.873309</ele>
        <time>2021-06-20T06:43:39.999Z</time>
      </trkpt>
      <trkpt lat="48.65202" lon="7.82989">
        <ele>131.874587</ele>
        <time>2021-06-20T06:43:41.999Z</time>
      </trkpt>
      <trkpt lat="48.65187" lon="7.82983">
        <ele>131.875804</ele>
        <time>2021-06-20T06:43:43.999Z</time>
      </trkpt>
      <trkpt lat="48.65174" lon="7.82979">
        <ele>131.876851</ele>
        <time>2021-06-20T06:43:45.999Z</time>
      </trkpt>
      <trkpt lat="48.65161" lon="7.82976">
        <ele>131.877901</ele>
        <time>2021-06-20T06:43:47.999Z</time>
      </trkpt>
      <trkpt lat="48.6515" lon="7.82976">
        <ele>131.878786</ele>
        <time>2021-06-20T06:43:49.999Z</time>
      </trkpt>
      <trkpt lat="48.65137" lon="7.82973">
        <ele>131.879864</ele>
        <time>2021-06-20T06:43:51.999Z</time>
      </trkpt>
      <trkpt lat="48.65124" lon="7.82969">
        <ele>131.880895</ele>
        <time>2021-06-20T06:43:53.999Z</time>
      </trkpt>
      <trkpt lat="48.65114" lon="7.82966">
        <ele>131.881765</ele>
        <time>2021-06-20T06:43:55.999Z</time>
      </trkpt>
      <trkpt lat="48.65104" lon="7.82973">
        <ele>131.892782</ele>
        <time>2021-06-20T06:43:57.999Z</time>
      </trkpt>
      <trkpt lat="48.65099" lon="7.82986">
        <ele>131.906447</ele>
        <time>2021-06-20T06:43:59.999Z</time>
      </trkpt>
      <trkpt lat="48.65096" lon="7.83003">
        <ele>131.923225</ele>
        <time>2021-06-20T06:44:01.999Z</time>
      </trkpt>
      <trkpt lat="48.65095" lon="7.83019">
        <ele>131.939148</ele>
        <time>2021-06-20T06:44:03.999Z</time>
      </trkpt>
      <trkpt lat="48.65093" lon="7.83035">
        <ele>131.954023</ele>
        <time>2021-06-20T06:44:05.999Z</time>
      </trkpt>
      <trkpt lat="48.6509" lon="7.83054">
        <ele>131.972855</ele>
        <time>2021-06-20T06:44:07.999Z</time>
      </trkpt>
      <trkpt lat="48.65086" lon="7.83072">
        <ele>131.990359</ele>
        <time>2021-06-20T06:44:09.999Z</time>
      </trkpt>
      <trkpt lat="48.65084" lon="7.83089">
        <ele>132.006512</ele>
        <time>2021-06-20T06:44:11.999Z</time>
      </trkpt>
      <trkpt lat="48.65083" lon="7.83107">
        <ele>132.023491</ele>
        <time>2021-06-20T06:44:13.999Z</time>
      </trkpt>
      <trkpt lat="48.65084" lon="7.83126">
        <ele>132.042051</ele>
        <time>2021-06-20T06:44:15.999Z</time>
      </trkpt>
      <trkpt lat="48.65088" lon="7.83144">
        <ele>132.059888</ele>
        <time>2021-06-20T06:44:17.999Z</time>
      </trkpt>
      <trkpt lat="48.65092" lon="7.8316">
        <ele>132.076197</ele>
        <time>2021-06-20T06:44:19.999Z</time>
      </trkpt>
      <trkpt lat="48.65093" lon="7.83178">
        <ele>132.092936</ele>
        <time>2021-06-20T06:44:21.999Z</time>
      </trkpt>
      <trkpt lat="48.65086" lon="7.83193">
        <ele>132.110528</ele>
        <time>2021-06-20T06:44:23.999Z</time>
      </trkpt>
      <trkpt lat="48.6508" lon="7.83206">
        <ele>132.12569</ele>
        <time>2021-06-20T06:44:25.999Z</time>
      </trkpt>
      <trkpt lat="48.65073" lon="7.83219">
        <ele>132.140692</ele>
        <time>2021-06-20T06:44:27.999Z</time>
      </trkpt>
      <trkpt lat="48.65067" lon="7.83233">
        <ele>132.160162</ele>
        <time>2021-06-20T06:44:29.999Z</time>
      </trkpt>
      <trkpt lat="48.65061" lon="7.83249">
        <ele>132.180588</ele>
        <time>2021-06-20T06:44:31.999Z</time>
      </trkpt>
      <trkpt lat="48.65057" lon="7.83273">
        <ele>132.20799</ele>
        <time>2021-06-20T06:44:33.999Z</time>
      </trkpt>
      <trkpt lat="48.65051" lon="7.83294">
        <ele>132.233285</ele>
        <time>2021-06-20T06:44:35.999Z</time>
      </trkpt>
      <trkpt lat="48.65048" lon="7.83317">
        <ele>132.25874</ele>
        <time>2021-06-20T06:44:37.999Z</time>
      </trkpt>
      <trkpt lat="48.65045" lon="7.83339">
        <ele>132.284277</ele>
        <time>2021-06-20T06:44:39.999Z</time>
      </trkpt>
      <trkpt lat="48.6504" lon="7.8336">
        <ele>132.309036</ele>
        <time>2021-06-20T06:44:41.999Z</time>
      </trkpt>
      <trkpt lat="48.65033" lon="7.83379">
        <ele>132.333763</ele>
        <time>2021-06-20T06:44:43.999Z</time>
      </trkpt>
      <trkpt lat="48.65024" lon="7.83398">
        <ele>132.358324</ele>
        <time>2021-06-20T06:44:45.999Z</time>
      </trkpt>
      <trkpt lat="48.65016" lon="7.83415">
        <ele>132.38247</ele>
        <time>2021-06-20T06:44:47.999Z</time>
      </trkpt>
      <trkpt lat="48.65008" lon="7.83433">
        <ele>132.406749</ele>
        <time>2021-06-20T06:44:49.999Z</time>
      </trkpt>
      <trkpt lat="48.65" lon="7.8345">
        <ele>132.428803</ele>
        <time>2021-06-20T06:44:51.999Z</time>
      </trkpt>
      <trkpt lat="48.64994" lon="7.83465">
        <ele>132.451958</ele>
        <time>2021-06-20T06:44:53.999Z</time>
      </trkpt>
      <trkpt lat="48.64987" lon="7.83483">
        <ele>132.482286</ele>
        <time>2021-06-20T06:44:55.999Z</time>
      </trkpt>
      <trkpt lat="48.64982" lon="7.83501">
        <ele>132.511863</ele>
        <time>2021-06-20T06:44:57.999Z</time>
      </trkpt>
      <trkpt lat="48.64981" lon="7.83522">
        <ele>132.541799</ele>
        <time>2021-06-20T06:44:59.999Z</time>
      </trkpt>
      <trkpt lat="48.64982" lon="7.8354">
        <ele>132.569699</ele>
        <time>2021-06-20T06:45:01.999Z</time>
      </trkpt>
      <trkpt lat="48.64985" lon="7.83559">
        <ele>132.59908</ele>
        <time>2021-06-20T06:45:03.999Z</time>
      </trkpt>
      <trkpt lat="48.64991" lon="7.83577">
        <ele>132.628062</ele>
        <time>2021-06-20T06:45:05.999Z</time>
      </trkpt>
      <trkpt lat="48.64996" lon="7.83594">
        <ele>132.655282</ele>
        <time>2021-06-20T06:45:07.999Z</time>
      </trkpt>
      <trkpt lat="48.64998" lon="7.83612">
        <ele>132.682756</ele>
        <time>2021-06-20T06:45:09.999Z</time>
      </trkpt>
      <trkpt lat="48.64998" lon="7.83627">
        <ele>132.705452</ele>
        <time>2021-06-20T06:45:11.999Z</time>
      </trkpt>
      <trkpt lat="48.64997" lon="7.83641">
        <ele>132.726392</ele>
        <time>2021-06-20T06:45:13.999Z</time>
      </trkpt>
      <trkpt lat="48.64993" lon="7.83658">
        <ele>132.753473</ele>
        <time>2021-06-20T06:45:15.999Z</time>
      </trkpt>
      <trkpt lat="48.64989" lon="7.83674">
        <ele>132.778909</ele>
        <time>2021-06-20T06:45:17.999Z</time>
      </trkpt>
      <trkpt lat="48.64983" lon="7.83691">
        <ele>132.807119</ele>
        <time>2021-06-20T06:45:19.999Z</time>
      </trkpt>
      <trkpt lat="48.64979" lon="7.83706">
        <ele>132.831327</ele>
        <time>2021-06-20T06:45:21.999Z</time>
      </trkpt>
      <trkpt lat="48.64977" lon="7.83721">
        <ele>132.850573</ele>
        <time>2021-06-20T06:45:23.999Z</time>
      </trkpt>
      <trkpt lat="48.64976" lon="7.83739">
        <ele>132.865547</ele>
        <time>2021-06-20T06:45:25.999Z</time>
      </trkpt>
      <trkpt lat="48.64972" lon="7.83754">
        <ele>132.880581</ele>
        <time>2021-06-20T06:45:27.999Z</time>
      </trkpt>
      <trkpt lat="48.6497" lon="7.8377">
        <ele>132.894888</ele>
        <time>2021-06-20T06:45:29.999Z</time>
      </trkpt>
      <trkpt lat="48.64965" lon="7.83785">
        <ele>132.909311</ele>
        <time>2021-06-20T06:45:31.999Z</time>
      </trkpt>
      <trkpt lat="48.64958" lon="7.83801">
        <ele>132.925981</ele>
        <time>2021-06-20T06:45:33.999Z</time>
      </trkpt>
      <trkpt lat="48.64949" lon="7.83819">
        <ele>132.945543</ele>
        <time>2021-06-20T06:45:35.999Z</time>
      </trkpt>
      <trkpt lat="48.64945" lon="7.83832">
        <ele>132.958291</ele>
        <time>2021-06-20T06:45:37.999Z</time>
      </trkpt>
      <trkpt lat="48.64944" lon="7.83846">
        <ele>132.970535</ele>
        <time>2021-06-20T06:45:39.999Z</time>
      </trkpt>
      <trkpt lat="48.64936" lon="7.83858">
        <ele>132.984943</ele>
        <time>2021-06-20T06:45:41.999Z</time>
      </trkpt>
      <trkpt lat="48.64926" lon="7.83869">
        <ele>133.000945</ele>
        <time>2021-06-20T06:45:43.999Z</time>
      </trkpt>
      <trkpt lat="48.64917" lon="7.83877">
        <ele>133.01533</ele>
        <time>2021-06-20T06:45:46.999Z</time>
      </trkpt>
      <trkpt lat="48.64916" lon="7.83895">
        <ele>133.031213</ele>
        <time>2021-06-20T06:45:49.999Z</time>
      </trkpt>
      <trkpt lat="48.64917" lon="7.83912">
        <ele>133.045925</ele>
        <time>2021-06-20T06:45:51.999Z</time>
      </trkpt>
      <trkpt lat="48.6492" lon="7.83929">
        <ele>133.061207</ele>
        <time>2021-06-20T06:45:53.999Z</time>
      </trkpt>
      <trkpt lat="48.64924" lon="7.83946">
        <ele>133.076529</ele>
        <time>2021-06-20T06:45:55.999Z</time>
      </trkpt>
      <trkpt lat="48.64927" lon="7.83963">
        <ele>133.109762</ele>
        <time>2021-06-20T06:45:57.999Z</time>
      </trkpt>
      <trkpt lat="48.6493" lon="7.8398">
        <ele>133.154994</ele>
        <time>2021-06-20T06:45:59.999Z</time>
      </trkpt>
      <trkpt lat="48.64933" lon="7.83996">
        <ele>133.197939</ele>
        <time>2021-06-20T06:46:01.999Z</time>
      </trkpt>
      <trkpt lat="48.64937" lon="7.84012">
        <ele>133.243413</ele>
        <time>2021-06-20T06:46:03.999Z</time>
      </trkpt>
      <trkpt lat="48.64941" lon="7.84028">
        <ele>133.287038</ele>
        <time>2021-06-20T06:46:05.999Z</time>
      </trkpt>
      <trkpt lat="48.64945" lon="7.84045">
        <ele>133.334017</ele>
        <time>2021-06-20T06:46:07.999Z</time>
      </trkpt>
      <trkpt lat="48.64948" lon="7.84062">
        <ele>133.379116</ele>
        <time>2021-06-20T06:46:09.999Z</time>
      </trkpt>
      <trkpt lat="48.64952" lon="7.84079">
        <ele>133.425893</ele>
        <time>2021-06-20T06:46:11.999Z</time>
      </trkpt>
      <trkpt lat="48.64957" lon="7.84097">
        <ele>133.475958</ele>
        <time>2021-06-20T06:46:13.999Z</time>
      </trkpt>
      <trkpt lat="48.64962" lon="7.84113">
        <ele>133.52342</ele>
        <time>2021-06-20T06:46:15.999Z</time>
      </trkpt>
      <trkpt lat="48.64967" lon="7.8413">
        <ele>133.571608</ele>
        <time>2021-06-20T06:46:17.999Z</time>
      </trkpt>
      <trkpt lat="48.64972" lon="7.84148">
        <ele>133.619974</ele>
        <time>2021-06-20T06:46:19.999Z</time>
      </trkpt>
      <trkpt lat="48.64976" lon="7.84166">
        <ele>133.669141</ele>
        <time>2021-06-20T06:46:21.999Z</time>
      </trkpt>
      <trkpt lat="48.64981" lon="7.84182">
        <ele>133.716293</ele>
        <time>2021-06-20T06:46:23.999Z</time>
      </trkpt>
      <trkpt lat="48.64985" lon="7.84198">
        <ele>133.7613</ele>
        <time>2021-06-20T06:46:25.999Z</time>
      </trkpt>
      <trkpt lat="48.64989" lon="7.84216">
        <ele>133.817417</ele>
        <time>2021-06-20T06:46:27.999Z</time>
      </trkpt>
      <trkpt lat="48.64993" lon="7.84232">
        <ele>133.881103</ele>
        <time>2021-06-20T06:46:29.999Z</time>
      </trkpt>
      <trkpt lat="48.64997" lon="7.84246">
        <ele>133.940349</ele>
        <time>2021-06-20T06:46:31.999Z</time>
      </trkpt>
      <trkpt lat="48.65001" lon="7.84259">
        <ele>133.992903</ele>
        <time>2021-06-20T06:46:33.999Z</time>
      </trkpt>
      <trkpt lat="48.65005" lon="7.84277">
        <ele>134.063935</ele>
        <time>2021-06-20T06:46:35.999Z</time>
      </trkpt>
      <trkpt lat="48.65011" lon="7.84295">
        <ele>134.136346</ele>
        <time>2021-06-20T06:46:37.999Z</time>
      </trkpt>
      <trkpt lat="48.65015" lon="7.84312">
        <ele>134.20592</ele>
        <time>2021-06-20T06:46:39.999Z</time>
      </trkpt>
      <trkpt lat="48.65019" lon="7.84331">
        <ele>134.279917</ele>
        <time>2021-06-20T06:46:41.999Z</time>
      </trkpt>
      <trkpt lat="48.65023" lon="7.8435">
        <ele>134.353085</ele>
        <time>2021-06-20T06:46:43.999Z</time>
      </trkpt>
      <trkpt lat="48.65029" lon="7.84367">
        <ele>134.425984</ele>
        <time>2021-06-20T06:46:45.999Z</time>
      </trkpt>
      <trkpt lat="48.65034" lon="7.84385">
        <ele>134.49811</ele>
        <time>2021-06-20T06:46:47.999Z</time>
      </trkpt>
      <trkpt lat="48.65037" lon="7.84404">
        <ele>134.56968</ele>
        <time>2021-06-20T06:46:49.999Z</time>
      </trkpt>
      <trkpt lat="48.65041" lon="7.84421">
        <ele>134.637664</ele>
        <time>2021-06-20T06:46:51.999Z</time>
      </trkpt>
      <trkpt lat="48.65046" lon="7.84439">
        <ele>134.709498</ele>
        <time>2021-06-20T06:46:53.999Z</time>
      </trkpt>
      <trkpt lat="48.65051" lon="7.84456">
        <ele>134.779727</ele>
        <time>2021-06-20T06:46:55.999Z</time>
      </trkpt>
      <trkpt lat="48.65057" lon="7.84473">
        <ele>134.795669</ele>
        <time>2021-06-20T06:46:57.999Z</time>
      </trkpt>
      <trkpt lat="48.65061" lon="7.84491">
        <ele>134.788843</ele>
        <time>2021-06-20T06:46:59.999Z</time>
      </trkpt>
      <trkpt lat="48.65066" lon="7.84508">
        <ele>134.782538</ele>
        <time>2021-06-20T06:47:01.999Z</time>
      </trkpt>
      <trkpt lat="48.6507" lon="7.84525">
        <ele>134.77651</ele>
        <time>2021-06-20T06:47:03.999Z</time>
      </trkpt>
      <trkpt lat="48.65075" lon="7.84543">
        <ele>134.769738</ele>
        <time>2021-06-20T06:47:05.999Z</time>
      </trkpt>
      <trkpt lat="48.65078" lon="7.84562">
        <ele>134.762778</ele>
        <time>2021-06-20T06:47:07.999Z</time>
      </trkpt>
      <trkpt lat="48.65083" lon="7.84581">
        <ele>134.755737</ele>
        <time>2021-06-20T06:47:09.999Z</time>
      </trkpt>
      <trkpt lat="48.65087" lon="7.84599">
        <ele>134.749035</ele>
        <time>2021-06-20T06:47:11.999Z</time>
      </trkpt>
      <trkpt lat="48.65092" lon="7.84617">
        <ele>134.742582</ele>
        <time>2021-06-20T06:47:13.999Z</time>
      </trkpt>
      <trkpt lat="48.65097" lon="7.84634">
        <ele>134.736108</ele>
        <time>2021-06-20T06:47:15.999Z</time>
      </trkpt>
      <trkpt lat="48.65101" lon="7.84651">
        <ele>134.729856</ele>
        <time>2021-06-20T06:47:17.999Z</time>
      </trkpt>
      <trkpt lat="48.65106" lon="7.84668">
        <ele>134.723454</ele>
        <time>2021-06-20T06:47:19.999Z</time>
      </trkpt>
      <trkpt lat="48.6511" lon="7.84685">
        <ele>134.71699</ele>
        <time>2021-06-20T06:47:21.999Z</time>
      </trkpt>
      <trkpt lat="48.65115" lon="7.84702">
        <ele>134.710685</ele>
        <time>2021-06-20T06:47:23.999Z</time>
      </trkpt>
      <trkpt lat="48.65119" lon="7.84719">
        <ele>134.683846</ele>
        <time>2021-06-20T06:47:25.999Z</time>
      </trkpt>
      <trkpt lat="48.65123" lon="7.84736">
        <ele>134.600222</ele>
        <time>2021-06-20T06:47:27.999Z</time>
      </trkpt>
      <trkpt lat="48.65129" lon="7.8475">
        <ele>134.523604</ele>
        <time>2021-06-20T06:47:29.999Z</time>
      </trkpt>
      <trkpt lat="48.65132" lon="7.84767">
        <ele>134.442502</ele>
        <time>2021-06-20T06:47:31.999Z</time>
      </trkpt>
      <trkpt lat="48.65136" lon="7.84783">
        <ele>134.364698</ele>
        <time>2021-06-20T06:47:33.999Z</time>
      </trkpt>
      <trkpt lat="48.65139" lon="7.84797">
        <ele>134.297459</ele>
        <time>2021-06-20T06:47:35.999Z</time>
      </trkpt>
      <trkpt lat="48.65142" lon="7.8481">
        <ele>134.231762</ele>
        <time>2021-06-20T06:47:37.999Z</time>
      </trkpt>
      <trkpt lat="48.65148" lon="7.84828">
        <ele>134.140851</ele>
        <time>2021-06-20T06:47:40.999Z</time>
      </trkpt>
      <trkpt lat="48.6515" lon="7.84848">
        <ele>134.044605</ele>
        <time>2021-06-20T06:47:43.999Z</time>
      </trkpt>
      <trkpt lat="48.65154" lon="7.84865">
        <ele>133.962662</ele>
        <time>2021-06-20T06:47:45.999Z</time>
      </trkpt>
      <trkpt lat="48.65158" lon="7.84882">
        <ele>133.879159</ele>
        <time>2021-06-20T06:47:47.999Z</time>
      </trkpt>
      <trkpt lat="48.65162" lon="7.84899">
        <ele>133.795863</ele>
        <time>2021-06-20T06:47:49.999Z</time>
      </trkpt>
      <trkpt lat="48.65167" lon="7.84913">
        <ele>133.721474</ele>
        <time>2021-06-20T06:47:51.999Z</time>
      </trkpt>
      <trkpt lat="48.6517" lon="7.84929">
        <ele>133.644583</ele>
        <time>2021-06-20T06:47:53.999Z</time>
      </trkpt>
      <trkpt lat="48.65174" lon="7.84944">
        <ele>133.569304</ele>
        <time>2021-06-20T06:47:55.999Z</time>
      </trkpt>
      <trkpt lat="48.6518" lon="7.8496">
        <ele>133.483424</ele>
        <time>2021-06-20T06:47:57.999Z</time>
      </trkpt>
      <trkpt lat="48.65185" lon="7.84975">
        <ele>133.420395</ele>
        <time>2021-06-20T06:47:59.999Z</time>
      </trkpt>
      <trkpt lat="48.65192" lon="7.84988">
        <ele>133.364263</ele>
        <time>2021-06-20T06:48:01.999Z</time>
      </trkpt>
      <trkpt lat="48.65201" lon="7.85001">
        <ele>133.304821</ele>
        <time>2021-06-20T06:48:03.999Z</time>
      </trkpt>
      <trkpt lat="48.65211" lon="7.85011">
        <ele>133.248802</ele>
        <time>2021-06-20T06:48:05.999Z</time>
      </trkpt>
      <trkpt lat="48.6522" lon="7.85022">
        <ele>133.190612</ele>
        <time>2021-06-20T06:48:07.999Z</time>
      </trkpt>
      <trkpt lat="48.65229" lon="7.85032">
        <ele>133.133584</ele>
        <time>2021-06-20T06:48:09.999Z</time>
      </trkpt>
      <trkpt lat="48.65239" lon="7.85043">
        <ele>133.076343</ele>
        <time>2021-06-20T06:48:11.999Z</time>
      </trkpt>
      <trkpt lat="48.65249" lon="7.85054">
        <ele>133.018155</ele>
        <time>2021-06-20T06:48:13.999Z</time>
      </trkpt>
      <trkpt lat="48.65258" lon="7.85063">
        <ele>132.961205</ele>
        <time>2021-06-20T06:48:15.999Z</time>
      </trkpt>
      <trkpt lat="48.65268" lon="7.85074">
        <ele>132.903017</ele>
        <time>2021-06-20T06:48:17.999Z</time>
      </trkpt>
      <trkpt lat="48.65278" lon="7.85085">
        <ele>132.844219</ele>
        <time>2021-06-20T06:48:19.999Z</time>
      </trkpt>
      <trkpt lat="48.65288" lon="7.85095">
        <ele>132.784714</ele>
        <time>2021-06-20T06:48:21.999Z</time>
      </trkpt>
      <trkpt lat="48.65298" lon="7.85106">
        <ele>132.72613</ele>
        <time>2021-06-20T06:48:23.999Z</time>
      </trkpt>
      <trkpt lat="48.65307" lon="7.85117">
        <ele>132.667554</ele>
        <time>2021-06-20T06:48:25.999Z</time>
      </trkpt>
      <trkpt lat="48.65318" lon="7.85128">
        <ele>132.607595</ele>
        <time>2021-06-20T06:48:27.999Z</time>
      </trkpt>
      <trkpt lat="48.65327" lon="7.85138">
        <ele>132.550156</ele>
        <time>2021-06-20T06:48:29.999Z</time>
      </trkpt>
      <trkpt lat="48.65337" lon="7.85148">
        <ele>132.490304</ele>
        <time>2021-06-20T06:48:31.999Z</time>
      </trkpt>
      <trkpt lat="48.65346" lon="7.85159">
        <ele>132.427557</ele>
        <time>2021-06-20T06:48:33.999Z</time>
      </trkpt>
      <trkpt lat="48.65356" lon="7.8517">
        <ele>132.364606</ele>
        <time>2021-06-20T06:48:35.999Z</time>
      </trkpt>
      <trkpt lat="48.65366" lon="7.85181">
        <ele>132.301623</ele>
        <time>2021-06-20T06:48:37.999Z</time>
      </trkpt>
      <trkpt lat="48.65376" lon="7.85192">
        <ele>132.239084</ele>
        <time>2021-06-20T06:48:39.999Z</time>
      </trkpt>
      <trkpt lat="48.65386" lon="7.85203">
        <ele>132.175091</ele>
        <time>2021-06-20T06:48:41.999Z</time>
      </trkpt>
      <trkpt lat="48.65396" lon="7.85214">
        <ele>132.111732</ele>
        <time>2021-06-20T06:48:43.999Z</time>
      </trkpt>
      <trkpt lat="48.65406" lon="7.85225">
        <ele>132.049388</ele>
        <time>2021-06-20T06:48:45.999Z</time>
      </trkpt>
      <trkpt lat="48.65415" lon="7.85236">
        <ele>131.987256</ele>
        <time>2021-06-20T06:48:47.999Z</time>
      </trkpt>
      <trkpt lat="48.65426" lon="7.85247">
        <ele>131.922534</ele>
        <time>2021-06-20T06:48:49.999Z</time>
      </trkpt>
      <trkpt lat="48.65435" lon="7.85258">
        <ele>131.859167</ele>
        <time>2021-06-20T06:48:51.999Z</time>
      </trkpt>
      <trkpt lat="48.65445" lon="7.85269">
        <ele>131.796406</ele>
        <time>2021-06-20T06:48:53.999Z</time>
      </trkpt>
      <trkpt lat="48.65455" lon="7.8528">
        <ele>131.734892</ele>
        <time>2021-06-20T06:48:55.999Z</time>
      </trkpt>
      <trkpt lat="48.65465" lon="7.8529">
        <ele>131.673109</ele>
        <time>2021-06-20T06:48:57.999Z</time>
      </trkpt>
      <trkpt lat="48.65474" lon="7.85301">
        <ele>131.627322</ele>
        <time>2021-06-20T06:48:59.999Z</time>
      </trkpt>
      <trkpt lat="48.65484" lon="7.85313">
        <ele>131.590717</ele>
        <time>2021-06-20T06:49:01.999Z</time>
      </trkpt>
      <trkpt lat="48.65492" lon="7.85327">
        <ele>131.554391</ele>
        <time>2021-06-20T06:49:03.999Z</time>
      </trkpt>
      <trkpt lat="48.65501" lon="7.85341">
        <ele>131.515762</ele>
        <time>2021-06-20T06:49:05.999Z</time>
      </trkpt>
      <trkpt lat="48.65511" lon="7.85354">
        <ele>131.476112</ele>
        <time>2021-06-20T06:49:07.999Z</time>
      </trkpt>
      <trkpt lat="48.65521" lon="7.85366">
        <ele>131.438887</ele>
        <time>2021-06-20T06:49:09.999Z</time>
      </trkpt>
      <trkpt lat="48.6553" lon="7.8538">
        <ele>131.400321</ele>
        <time>2021-06-20T06:49:11.999Z</time>
      </trkpt>
      <trkpt lat="48.65539" lon="7.85394">
        <ele>131.362168</ele>
        <time>2021-06-20T06:49:13.999Z</time>
      </trkpt>
      <trkpt lat="48.65549" lon="7.85407">
        <ele>131.323672</ele>
        <time>2021-06-20T06:49:15.999Z</time>
      </trkpt>
      <trkpt lat="48.65558" lon="7.85421">
        <ele>131.284908</ele>
        <time>2021-06-20T06:49:17.999Z</time>
      </trkpt>
      <trkpt lat="48.65567" lon="7.85435">
        <ele>131.247178</ele>
        <time>2021-06-20T06:49:19.999Z</time>
      </trkpt>
      <trkpt lat="48.65576" lon="7.85449">
        <ele>131.207506</ele>
        <time>2021-06-20T06:49:21.999Z</time>
      </trkpt>
      <trkpt lat="48.65585" lon="7.85462">
        <ele>131.169891</ele>
        <time>2021-06-20T06:49:23.999Z</time>
      </trkpt>
      <trkpt lat="48.65595" lon="7.85475">
        <ele>131.132761</ele>
        <time>2021-06-20T06:49:25.999Z</time>
      </trkpt>
      <trkpt lat="48.65604" lon="7.85488">
        <ele>131.144807</ele>
        <time>2021-06-20T06:49:27.999Z</time>
      </trkpt>
      <trkpt lat="48.65613" lon="7.85499">
        <ele>131.203512</ele>
        <time>2021-06-20T06:49:29.999Z</time>
      </trkpt>
      <trkpt lat="48.65623" lon="7.85512">
        <ele>131.262308</ele>
        <time>2021-06-20T06:49:31.999Z</time>
      </trkpt>
      <trkpt lat="48.65629" lon="7.85529">
        <ele>131.324266</ele>
        <time>2021-06-20T06:49:33.999Z</time>
      </trkpt>
      <trkpt lat="48.65634" lon="7.85547">
        <ele>131.384456</ele>
        <time>2021-06-20T06:49:35.999Z</time>
      </trkpt>
      <trkpt lat="48.6564" lon="7.85566">
        <ele>131.449794</ele>
        <time>2021-06-20T06:49:37.999Z</time>
      </trkpt>
      <trkpt lat="48.65645" lon="7.85583">
        <ele>131.507888</ele>
        <time>2021-06-20T06:49:39.999Z</time>
      </trkpt>
      <trkpt lat="48.65649" lon="7.85604">
        <ele>131.575879</ele>
        <time>2021-06-20T06:49:41.999Z</time>
      </trkpt>
      <trkpt lat="48.65655" lon="7.85625">
        <ele>131.64904</ele>
        <time>2021-06-20T06:49:43.999Z</time>
      </trkpt>
      <trkpt lat="48.65659" lon="7.85643">
        <ele>131.707232</ele>
        <time>2021-06-20T06:49:45.999Z</time>
      </trkpt>
      <trkpt lat="48.65664" lon="7.85661">
        <ele>131.769087</ele>
        <time>2021-06-20T06:49:47.999Z</time>
      </trkpt>
      <trkpt lat="48.6567" lon="7.85681">
        <ele>131.836761</ele>
        <time>2021-06-20T06:49:49.999Z</time>
      </trkpt>
      <trkpt lat="48.65675" lon="7.85699">
        <ele>131.897343</ele>
        <time>2021-06-20T06:49:51.999Z</time>
      </trkpt>
      <trkpt lat="48.65679" lon="7.85717">
        <ele>131.958657</ele>
        <time>2021-06-20T06:49:53.999Z</time>
      </trkpt>
      <trkpt lat="48.65684" lon="7.85735">
        <ele>131.972969</ele>
        <time>2021-06-20T06:49:55.999Z</time>
      </trkpt>
      <trkpt lat="48.65689" lon="7.85753">
        <ele>131.980874</ele>
        <time>2021-06-20T06:49:57.999Z</time>
      </trkpt>
      <trkpt lat="48.65694" lon="7.85771">
        <ele>131.988847</ele>
        <time>2021-06-20T06:49:59.999Z</time>
      </trkpt>
      <trkpt lat="48.65699" lon="7.85792">
        <ele>131.998096</ele>
        <time>2021-06-20T06:50:01.999Z</time>
      </trkpt>
      <trkpt lat="48.65704" lon="7.8581">
        <ele>132.00597</ele>
        <time>2021-06-20T06:50:03.999Z</time>
      </trkpt>
      <trkpt lat="48.65708" lon="7.85829">
        <ele>132.01428</ele>
        <time>2021-06-20T06:50:05.999Z</time>
      </trkpt>
      <trkpt lat="48.65712" lon="7.85848">
        <ele>132.022411</ele>
        <time>2021-06-20T06:50:07.999Z</time>
      </trkpt>
      <trkpt lat="48.65717" lon="7.85867">
        <ele>132.03031</ele>
        <time>2021-06-20T06:50:09.999Z</time>
      </trkpt>
      <trkpt lat="48.65722" lon="7.85883">
        <ele>132.037682</ele>
        <time>2021-06-20T06:50:11.999Z</time>
      </trkpt>
      <trkpt lat="48.65727" lon="7.85901">
        <ele>132.0456</ele>
        <time>2021-06-20T06:50:13.999Z</time>
      </trkpt>
      <trkpt lat="48.65732" lon="7.8592">
        <ele>132.054085</ele>
        <time>2021-06-20T06:50:15.999Z</time>
      </trkpt>
      <trkpt lat="48.65736" lon="7.85939">
        <ele>132.062353</ele>
        <time>2021-06-20T06:50:17.999Z</time>
      </trkpt>
      <trkpt lat="48.65738" lon="7.85958">
        <ele>132.070045</ele>
        <time>2021-06-20T06:50:19.999Z</time>
      </trkpt>
      <trkpt lat="48.65743" lon="7.85978">
        <ele>132.073028</ele>
        <time>2021-06-20T06:50:21.999Z</time>
      </trkpt>
      <trkpt lat="48.65747" lon="7.85995">
        <ele>132.047472</ele>
        <time>2021-06-20T06:50:23.999Z</time>
      </trkpt>
      <trkpt lat="48.65751" lon="7.86014">
        <ele>132.019584</ele>
        <time>2021-06-20T06:50:25.999Z</time>
      </trkpt>
      <trkpt lat="48.65756" lon="7.86032">
        <ele>131.992831</ele>
        <time>2021-06-20T06:50:27.999Z</time>
      </trkpt>
      <trkpt lat="48.65761" lon="7.86052">
        <ele>131.963649</ele>
        <time>2021-06-20T06:50:29.999Z</time>
      </trkpt>
      <trkpt lat="48.65765" lon="7.8607">
        <ele>131.937118</ele>
        <time>2021-06-20T06:50:31.999Z</time>
      </trkpt>
      <trkpt lat="48.6577" lon="7.86088">
        <ele>131.91136</ele>
        <time>2021-06-20T06:50:33.999Z</time>
      </trkpt>
      <trkpt lat="48.65773" lon="7.86106">
        <ele>131.885905</ele>
        <time>2021-06-20T06:50:35.999Z</time>
      </trkpt>
      <trkpt lat="48.65777" lon="7.86124">
        <ele>131.859192</ele>
        <time>2021-06-20T06:50:37.999Z</time>
      </trkpt>
      <trkpt lat="48.65782" lon="7.86142">
        <ele>131.832041</ele>
        <time>2021-06-20T06:50:39.999Z</time>
      </trkpt>
      <trkpt lat="48.65786" lon="7.8616">
        <ele>131.805181</ele>
        <time>2021-06-20T06:50:41.999Z</time>
      </trkpt>
      <trkpt lat="48.65792" lon="7.8618">
        <ele>131.776508</ele>
        <time>2021-06-20T06:50:43.999Z</time>
      </trkpt>
      <trkpt lat="48.65796" lon="7.86199">
        <ele>131.748229</ele>
        <time>2021-06-20T06:50:45.999Z</time>
      </trkpt>
      <trkpt lat="48.65798" lon="7.86219">
        <ele>131.721117</ele>
        <time>2021-06-20T06:50:47.999Z</time>
      </trkpt>
      <trkpt lat="48.65798" lon="7.86237">
        <ele>131.720167</ele>
        <time>2021-06-20T06:50:49.999Z</time>
      </trkpt>
      <trkpt lat="48.65797" lon="7.86257">
        <ele>131.7875</ele>
        <time>2021-06-20T06:50:51.999Z</time>
      </trkpt>
      <trkpt lat="48.65796" lon="7.86278">
        <ele>131.856194</ele>
        <time>2021-06-20T06:50:53.999Z</time>
      </trkpt>
      <trkpt lat="48.65796" lon="7.86297">
        <ele>131.919765</ele>
        <time>2021-06-20T06:50:55.999Z</time>
      </trkpt>
      <trkpt lat="48.65795" lon="7.86315">
        <ele>131.978812</ele>
        <time>2021-06-20T06:50:57.999Z</time>
      </trkpt>
      <trkpt lat="48.65793" lon="7.86332">
        <ele>132.037086</ele>
        <time>2021-06-20T06:50:59.999Z</time>
      </trkpt>
      <trkpt lat="48.65791" lon="7.86349">
        <ele>132.094483</ele>
        <time>2021-06-20T06:51:01.999Z</time>
      </trkpt>
      <trkpt lat="48.65788" lon="7.86367">
        <ele>132.155367</ele>
        <time>2021-06-20T06:51:03.999Z</time>
      </trkpt>
      <trkpt lat="48.65786" lon="7.86385">
        <ele>132.21549</ele>
        <time>2021-06-20T06:51:05.999Z</time>
      </trkpt>
      <trkpt lat="48.65783" lon="7.86402">
        <ele>132.27561</ele>
        <time>2021-06-20T06:51:07.999Z</time>
      </trkpt>
      <trkpt lat="48.65782" lon="7.86421">
        <ele>132.337132</ele>
        <time>2021-06-20T06:51:09.999Z</time>
      </trkpt>
      <trkpt lat="48.6578" lon="7.86439">
        <ele>132.398952</ele>
        <time>2021-06-20T06:51:11.999Z</time>
      </trkpt>
      <trkpt lat="48.65779" lon="7.86458">
        <ele>132.461831</ele>
        <time>2021-06-20T06:51:13.999Z</time>
      </trkpt>
      <trkpt lat="48.65776" lon="7.86477">
        <ele>132.526015</ele>
        <time>2021-06-20T06:51:15.999Z</time>
      </trkpt>
      <trkpt lat="48.65777" lon="7.86496">
        <ele>132.589244</ele>
        <time>2021-06-20T06:51:17.999Z</time>
      </trkpt>
      <trkpt lat="48.65777" lon="7.86516">
        <ele>132.617065</ele>
        <time>2021-06-20T06:51:19.999Z</time>
      </trkpt>
      <trkpt lat="48.65778" lon="7.86534">
        <ele>132.627336</ele>
        <time>2021-06-20T06:51:21.999Z</time>
      </trkpt>
      <trkpt lat="48.6578" lon="7.86553">
        <ele>132.638121</ele>
        <time>2021-06-20T06:51:23.999Z</time>
      </trkpt>
      <trkpt lat="48.65781" lon="7.86573">
        <ele>132.649048</ele>
        <time>2021-06-20T06:51:25.999Z</time>
      </trkpt>
      <trkpt lat="48.65782" lon="7.86592">
        <ele>132.659966</ele>
        <time>2021-06-20T06:51:27.999Z</time>
      </trkpt>
      <trkpt lat="48.65786" lon="7.86611">
        <ele>132.671084</ele>
        <time>2021-06-20T06:51:29.999Z</time>
      </trkpt>
      <trkpt lat="48.65788" lon="7.86632">
        <ele>132.683012</ele>
        <time>2021-06-20T06:51:31.999Z</time>
      </trkpt>
      <trkpt lat="48.65792" lon="7.8665">
        <ele>132.693828</ele>
        <time>2021-06-20T06:51:33.999Z</time>
      </trkpt>
      <trkpt lat="48.65796" lon="7.86669">
        <ele>132.704856</ele>
        <time>2021-06-20T06:51:35.999Z</time>
      </trkpt>
      <trkpt lat="48.65801" lon="7.86686">
        <ele>132.715602</ele>
        <time>2021-06-20T06:51:37.999Z</time>
      </trkpt>
      <trkpt lat="48.65806" lon="7.86702">
        <ele>132.725552</ele>
        <time>2021-06-20T06:51:39.999Z</time>
      </trkpt>
      <trkpt lat="48.65812" lon="7.86719">
        <ele>132.736293</ele>
        <time>2021-06-20T06:51:41.999Z</time>
      </trkpt>
      <trkpt lat="48.65818" lon="7.86736">
        <ele>132.747396</ele>
        <time>2021-06-20T06:51:43.999Z</time>
      </trkpt>
      <trkpt lat="48.65825" lon="7.86754">
        <ele>132.758971</ele>
        <time>2021-06-20T06:51:45.999Z</time>
      </trkpt>
      <trkpt lat="48.65831" lon="7.8677">
        <ele>132.738568</ele>
        <time>2021-06-20T06:51:47.999Z</time>
      </trkpt>
      <trkpt lat="48.65839" lon="7.86789">
        <ele>132.701075</ele>
        <time>2021-06-20T06:51:49.999Z</time>
      </trkpt>
      <trkpt lat="48.65845" lon="7.86806">
        <ele>132.666348</ele>
        <time>2021-06-20T06:51:51.999Z</time>
      </trkpt>
      <trkpt lat="48.65852" lon="7.86823">
        <ele>132.630178</ele>
        <time>2021-06-20T06:51:53.999Z</time>
      </trkpt>
      <trkpt lat="48.6586" lon="7.86842">
        <ele>132.591662</ele>
        <time>2021-06-20T06:51:55.999Z</time>
      </trkpt>
      <trkpt lat="48.65867" lon="7.86859">
        <ele>132.555174</ele>
        <time>2021-06-20T06:51:57.999Z</time>
      </trkpt>
      <trkpt lat="48.65873" lon="7.86878">
        <ele>132.518468</ele>
        <time>2021-06-20T06:51:59.999Z</time>
      </trkpt>
      <trkpt lat="48.65881" lon="7.86895">
        <ele>132.481145</ele>
        <time>2021-06-20T06:52:01.999Z</time>
      </trkpt>
      <trkpt lat="48.65888" lon="7.86913">
        <ele>132.444545</ele>
        <time>2021-06-20T06:52:03.999Z</time>
      </trkpt>
      <trkpt lat="48.65895" lon="7.86929">
        <ele>132.410321</ele>
        <time>2021-06-20T06:52:05.999Z</time>
      </trkpt>
      <trkpt lat="48.65902" lon="7.86946">
        <ele>132.37608</ele>
        <time>2021-06-20T06:52:07.999Z</time>
      </trkpt>
      <trkpt lat="48.65909" lon="7.86962">
        <ele>132.342003</ele>
        <time>2021-06-20T06:52:09.999Z</time>
      </trkpt>
      <trkpt lat="48.65915" lon="7.86979">
        <ele>132.306549</ele>
        <time>2021-06-20T06:52:11.999Z</time>
      </trkpt>
      <trkpt lat="48.65922" lon="7.86996">
        <ele>132.259469</ele>
        <time>2021-06-20T06:52:13.999Z</time>
      </trkpt>
      <trkpt lat="48.65929" lon="7.87012">
        <ele>132.184456</ele>
        <time>2021-06-20T06:52:15.999Z</time>
      </trkpt>
      <trkpt lat="48.65935" lon="7.87029">
        <ele>132.108023</ele>
        <time>2021-06-20T06:52:17.999Z</time>
      </trkpt>
      <trkpt lat="48.65942" lon="7.87046">
        <ele>132.030391</ele>
        <time>2021-06-20T06:52:19.999Z</time>
      </trkpt>
      <trkpt lat="48.65949" lon="7.87063">
        <ele>131.952636</ele>
        <time>2021-06-20T06:52:21.999Z</time>
      </trkpt>
      <trkpt lat="48.65955" lon="7.8708">
        <ele>131.875655</ele>
        <time>2021-06-20T06:52:23.999Z</time>
      </trkpt>
      <trkpt lat="48.65962" lon="7.87096">
        <ele>131.799861</ele>
        <time>2021-06-20T06:52:25.999Z</time>
      </trkpt>
      <trkpt lat="48.65968" lon="7.87114">
        <ele>131.720825</ele>
        <time>2021-06-20T06:52:27.999Z</time>
      </trkpt>
      <trkpt lat="48.65975" lon="7.8713">
        <ele>131.644128</ele>
        <time>2021-06-20T06:52:29.999Z</time>
      </trkpt>
      <trkpt lat="48.65982" lon="7.87147">
        <ele>131.56878</ele>
        <time>2021-06-20T06:52:31.999Z</time>
      </trkpt>
      <trkpt lat="48.65989" lon="7.87164">
        <ele>131.488824</ele>
        <time>2021-06-20T06:52:33.999Z</time>
      </trkpt>
      <trkpt lat="48.65996" lon="7.87181">
        <ele>131.410222</ele>
        <time>2021-06-20T06:52:35.999Z</time>
      </trkpt>
      <trkpt lat="48.66002" lon="7.87197">
        <ele>131.33257</ele>
        <time>2021-06-20T06:52:37.999Z</time>
      </trkpt>
      <trkpt lat="48.66009" lon="7.87214">
        <ele>131.256092</ele>
        <time>2021-06-20T06:52:39.999Z</time>
      </trkpt>
      <trkpt lat="48.66016" lon="7.87232">
        <ele>131.215073</ele>
        <time>2021-06-20T06:52:41.999Z</time>
      </trkpt>
      <trkpt lat="48.66023" lon="7.87248">
        <ele>131.233324</ele>
        <time>2021-06-20T06:52:43.999Z</time>
      </trkpt>
      <trkpt lat="48.6603" lon="7.87266">
        <ele>131.251252</ele>
        <time>2021-06-20T06:52:45.999Z</time>
      </trkpt>
      <trkpt lat="48.66036" lon="7.87283">
        <ele>131.269437</ele>
        <time>2021-06-20T06:52:47.999Z</time>
      </trkpt>
      <trkpt lat="48.66043" lon="7.87299">
        <ele>131.286854</ele>
        <time>2021-06-20T06:52:49.999Z</time>
      </trkpt>
      <trkpt lat="48.6605" lon="7.87316">
        <ele>131.304544</ele>
        <time>2021-06-20T06:52:51.999Z</time>
      </trkpt>
      <trkpt lat="48.66057" lon="7.87333">
        <ele>131.322736</ele>
        <time>2021-06-20T06:52:53.999Z</time>
      </trkpt>
      <trkpt lat="48.66063" lon="7.8735">
        <ele>131.340241</ele>
        <time>2021-06-20T06:52:55.999Z</time>
      </trkpt>
      <trkpt lat="48.6607" lon="7.87367">
        <ele>131.359112</ele>
        <time>2021-06-20T06:52:57.999Z</time>
      </trkpt>
      <trkpt lat="48.66077" lon="7.87385">
        <ele>131.37746</ele>
        <time>2021-06-20T06:52:59.999Z</time>
      </trkpt>
      <trkpt lat="48.66083" lon="7.87401">
        <ele>131.394373</ele>
        <time>2021-06-20T06:53:01.999Z</time>
      </trkpt>
      <trkpt lat="48.6609" lon="7.87416">
        <ele>131.410958</ele>
        <time>2021-06-20T06:53:03.999Z</time>
      </trkpt>
      <trkpt lat="48.66097" lon="7.87429">
        <ele>131.425952</ele>
        <time>2021-06-20T06:53:05.999Z</time>
      </trkpt>
      <trkpt lat="48.66106" lon="7.87441">
        <ele>131.442133</ele>
        <time>2021-06-20T06:53:07.999Z</time>
      </trkpt>
      <trkpt lat="48.66115" lon="7.87455">
        <ele>131.458577</ele>
        <time>2021-06-20T06:53:09.999Z</time>
      </trkpt>
      <trkpt lat="48.66122" lon="7.87471">
        <ele>131.472518</ele>
        <time>2021-06-20T06:53:11.999Z</time>
      </trkpt>
      <trkpt lat="48.66129" lon="7.87489">
        <ele>131.48602</ele>
        <time>2021-06-20T06:53:13.999Z</time>
      </trkpt>
      <trkpt lat="48.66135" lon="7.87509">
        <ele>131.501202</ele>
        <time>2021-06-20T06:53:15.999Z</time>
      </trkpt>
      <trkpt lat="48.66137" lon="7.87529">
        <ele>131.515299</ele>
        <time>2021-06-20T06:53:17.999Z</time>
      </trkpt>
      <trkpt lat="48.66147" lon="7.87547">
        <ele>131.530703</ele>
        <time>2021-06-20T06:53:19.999Z</time>
      </trkpt>
      <trkpt lat="48.66156" lon="7.87563">
        <ele>131.54503</ele>
        <time>2021-06-20T06:53:21.999Z</time>
      </trkpt>
      <trkpt lat="48.66167" lon="7.87576">
        <ele>131.559271</ele>
        <time>2021-06-20T06:53:23.999Z</time>
      </trkpt>
      <trkpt lat="48.66176" lon="7.87585">
        <ele>131.57106</ele>
        <time>2021-06-20T06:53:25.999Z</time>
      </trkpt>
      <trkpt lat="48.66185" lon="7.87596">
        <ele>131.582267</ele>
        <time>2021-06-20T06:53:27.999Z</time>
      </trkpt>
      <trkpt lat="48.66189" lon="7.87608">
        <ele>131.591675</ele>
        <time>2021-06-20T06:53:29.999Z</time>
      </trkpt>
      <trkpt lat="48.66189" lon="7.87627">
        <ele>131.604389</ele>
        <time>2021-06-20T06:53:31.999Z</time>
      </trkpt>
      <trkpt lat="48.66196" lon="7.87641">
        <ele>131.616282</ele>
        <time>2021-06-20T06:53:33.999Z</time>
      </trkpt>
      <trkpt lat="48.662" lon="7.87657">
        <ele>131.627582</ele>
        <time>2021-06-20T06:53:35.999Z</time>
      </trkpt>
      <trkpt lat="48.66202" lon="7.87677">
        <ele>131.632492</ele>
        <time>2021-06-20T06:53:37.999Z</time>
      </trkpt>
      <trkpt lat="48.66207" lon="7.87694">
        <ele>131.551559</ele>
        <time>2021-06-20T06:53:39.999Z</time>
      </trkpt>
      <trkpt lat="48.66208" lon="7.87711">
        <ele>131.475728</ele>
        <time>2021-06-20T06:53:41.999Z</time>
      </trkpt>
      <trkpt lat="48.6621" lon="7.87728">
        <ele>131.402904</ele>
        <time>2021-06-20T06:53:43.999Z</time>
      </trkpt>
      <trkpt lat="48.66211" lon="7.87748">
        <ele>131.317081</ele>
        <time>2021-06-20T06:53:45.999Z</time>
      </trkpt>
      <trkpt lat="48.66215" lon="7.87768">
        <ele>131.226784</ele>
        <time>2021-06-20T06:53:47.999Z</time>
      </trkpt>
      <trkpt lat="48.66221" lon="7.87785">
        <ele>131.140234</ele>
        <time>2021-06-20T06:53:49.999Z</time>
      </trkpt>
      <trkpt lat="48.66227" lon="7.878">
        <ele>131.062355</ele>
        <time>2021-06-20T06:53:51.999Z</time>
      </trkpt>
      <trkpt lat="48.66235" lon="7.87815">
        <ele>130.981823</ele>
        <time>2021-06-20T06:53:53.999Z</time>
      </trkpt>
      <trkpt lat="48.66238" lon="7.87831">
        <ele>130.911055</ele>
        <time>2021-06-20T06:53:55.999Z</time>
      </trkpt>
      <trkpt lat="48.66239" lon="7.87846">
        <ele>130.843814</ele>
        <time>2021-06-20T06:53:57.999Z</time>
      </trkpt>
      <trkpt lat="48.6624" lon="7.87871">
        <ele>130.736463</ele>
        <time>2021-06-20T06:53:59.999Z</time>
      </trkpt>
      <trkpt lat="48.66239" lon="7.87891">
        <ele>130.649443</ele>
        <time>2021-06-20T06:54:01.999Z</time>
      </trkpt>
      <trkpt lat="48.66241" lon="7.87907">
        <ele>130.577592</ele>
        <time>2021-06-20T06:54:03.999Z</time>
      </trkpt>
      <trkpt lat="48.66242" lon="7.87923">
        <ele>130.507826</ele>
        <time>2021-06-20T06:54:05.999Z</time>
      </trkpt>
      <trkpt lat="48.66245" lon="7.8794">
        <ele>130.451904</ele>
        <time>2021-06-20T06:54:07.999Z</time>
      </trkpt>
      <trkpt lat="48.66247" lon="7.87961">
        <ele>130.429176</ele>
        <time>2021-06-20T06:54:09.999Z</time>
      </trkpt>
      <trkpt lat="48.66248" lon="7.87979">
        <ele>130.409357</ele>
        <time>2021-06-20T06:54:11.999Z</time>
      </trkpt>
      <trkpt lat="48.66254" lon="7.87996">
        <ele>130.388677</ele>
        <time>2021-06-20T06:54:13.999Z</time>
      </trkpt>
      <trkpt lat="48.66261" lon="7.88011">
        <ele>130.368232</ele>
        <time>2021-06-20T06:54:15.999Z</time>
      </trkpt>
      <trkpt lat="48.66269" lon="7.88026">
        <ele>130.347308</ele>
        <time>2021-06-20T06:54:17.999Z</time>
      </trkpt>
      <trkpt lat="48.66274" lon="7.88043">
        <ele>130.327511</ele>
        <time>2021-06-20T06:54:19.999Z</time>
      </trkpt>
      <trkpt lat="48.66278" lon="7.88061">
        <ele>130.306208</ele>
        <time>2021-06-20T06:54:21.999Z</time>
      </trkpt>
      <trkpt lat="48.66282" lon="7.88079">
        <ele>130.285327</ele>
        <time>2021-06-20T06:54:23.999Z</time>
      </trkpt>
      <trkpt lat="48.66287" lon="7.88096">
        <ele>130.265966</ele>
        <time>2021-06-20T06:54:25.999Z</time>
      </trkpt>
      <trkpt lat="48.66289" lon="7.88113">
        <ele>130.246767</ele>
        <time>2021-06-20T06:54:27.999Z</time>
      </trkpt>
      <trkpt lat="48.66284" lon="7.8813">
        <ele>130.22641</ele>
        <time>2021-06-20T06:54:29.999Z</time>
      </trkpt>
      <trkpt lat="48.6628" lon="7.88147">
        <ele>130.206761</ele>
        <time>2021-06-20T06:54:31.999Z</time>
      </trkpt>
      <trkpt lat="48.66283" lon="7.88166">
        <ele>130.186191</ele>
        <time>2021-06-20T06:54:33.999Z</time>
      </trkpt>
      <trkpt lat="48.66282" lon="7.88187">
        <ele>130.163538</ele>
        <time>2021-06-20T06:54:35.999Z</time>
      </trkpt>
      <trkpt lat="48.66283" lon="7.88206">
        <ele>130.104559</ele>
        <time>2021-06-20T06:54:37.999Z</time>
      </trkpt>
      <trkpt lat="48.66283" lon="7.88225">
        <ele>130.044015</ele>
        <time>2021-06-20T06:54:39.999Z</time>
      </trkpt>
      <trkpt lat="48.66281" lon="7.88242">
        <ele>129.990673</ele>
        <time>2021-06-20T06:54:41.999Z</time>
      </trkpt>
      <trkpt lat="48.66279" lon="7.88257">
        <ele>129.943068</ele>
        <time>2021-06-20T06:54:43.999Z</time>
      </trkpt>
      <trkpt lat="48.6627" lon="7.88271">
        <ele>129.879336</ele>
        <time>2021-06-20T06:54:46.999Z</time>
      </trkpt>
      <trkpt lat="48.6626" lon="7.8828">
        <ele>129.824537</ele>
        <time>2021-06-20T06:54:49.999Z</time>
      </trkpt>
      <trkpt lat="48.66255" lon="7.88294">
        <ele>129.776041</ele>
        <time>2021-06-20T06:54:53.999Z</time>
      </trkpt>
      <trkpt lat="48.66247" lon="7.88302">
        <ele>129.72841</ele>
        <time>2021-06-20T06:54:56.999Z</time>
      </trkpt>
      <trkpt lat="48.66239" lon="7.88309">
        <ele>129.682406</ele>
        <time>2021-06-20T06:54:58.999Z</time>
      </trkpt>
      <trkpt lat="48.6623" lon="7.88322">
        <ele>129.624803</ele>
        <time>2021-06-20T06:55:01.999Z</time>
      </trkpt>
      <trkpt lat="48.66222" lon="7.88331">
        <ele>129.575646</ele>
        <time>2021-06-20T06:55:03.999Z</time>
      </trkpt>
      <trkpt lat="48.66213" lon="7.8834">
        <ele>129.525393</ele>
        <time>2021-06-20T06:55:05.999Z</time>
      </trkpt>
      <trkpt lat="48.66204" lon="7.88349">
        <ele>129.474687</ele>
        <time>2021-06-20T06:55:07.999Z</time>
      </trkpt>
      <trkpt lat="48.66194" lon="7.88358">
        <ele>129.416532</ele>
        <time>2021-06-20T06:55:10.999Z</time>
      </trkpt>
      <trkpt lat="48.66185" lon="7.88367">
        <ele>129.366767</ele>
        <time>2021-06-20T06:55:13.999Z</time>
      </trkpt>
      <trkpt lat="48.6618" lon="7.88382">
        <ele>129.313804</ele>
        <time>2021-06-20T06:55:16.999Z</time>
      </trkpt>
      <trkpt lat="48.66185" lon="7.88395">
        <ele>129.311579</ele>
        <time>2021-06-20T06:55:19.999Z</time>
      </trkpt>
      <trkpt lat="48.66192" lon="7.88409">
        <ele>129.333194</ele>
        <time>2021-06-20T06:55:22.999Z</time>
      </trkpt>
      <trkpt lat="48.66197" lon="7.88421">
        <ele>129.350437</ele>
        <time>2021-06-20T06:55:24.999Z</time>
      </trkpt>
      <trkpt lat="48.66203" lon="7.88435">
        <ele>129.371068</ele>
        <time>2021-06-20T06:55:26.999Z</time>
      </trkpt>
      <trkpt lat="48.66209" lon="7.88448">
        <ele>129.391101</ele>
        <time>2021-06-20T06:55:28.999Z</time>
      </trkpt>
      <trkpt lat="48.66215" lon="7.88462">
        <ele>129.411424</ele>
        <time>2021-06-20T06:55:30.999Z</time>
      </trkpt>
      <trkpt lat="48.66221" lon="7.88474">
        <ele>129.430555</ele>
        <time>2021-06-20T06:55:32.999Z</time>
      </trkpt>
      <trkpt lat="48.66228" lon="7.88488">
        <ele>129.452021</ele>
        <time>2021-06-20T06:55:34.999Z</time>
      </trkpt>
      <trkpt lat="48.66234" lon="7.88502">
        <ele>129.472857</ele>
        <time>2021-06-20T06:55:36.999Z</time>
      </trkpt>
      <trkpt lat="48.66242" lon="7.88517">
        <ele>129.495186</ele>
        <time>2021-06-20T06:55:38.999Z</time>
      </trkpt>
      <trkpt lat="48.66249" lon="7.88532">
        <ele>129.518637</ele>
        <time>2021-06-20T06:55:40.999Z</time>
      </trkpt>
      <trkpt lat="48.66256" lon="7.88547">
        <ele>129.541122</ele>
        <time>2021-06-20T06:55:42.999Z</time>
      </trkpt>
      <trkpt lat="48.66264" lon="7.88562">
        <ele>129.564914</ele>
        <time>2021-06-20T06:55:44.999Z</time>
      </trkpt>
      <trkpt lat="48.66272" lon="7.88576">
        <ele>129.587632</ele>
        <time>2021-06-20T06:55:46.999Z</time>
      </trkpt>
      <trkpt lat="48.66279" lon="7.88591">
        <ele>129.610662</ele>
        <time>2021-06-20T06:55:48.999Z</time>
      </trkpt>
      <trkpt lat="48.66288" lon="7.88606">
        <ele>129.632828</ele>
        <time>2021-06-20T06:55:50.999Z</time>
      </trkpt>
      <trkpt lat="48.66296" lon="7.8862">
        <ele>129.586539</ele>
        <time>2021-06-20T06:55:52.999Z</time>
      </trkpt>
      <trkpt lat="48.66304" lon="7.88636">
        <ele>129.541959</ele>
        <time>2021-06-20T06:55:54.999Z</time>
      </trkpt>
      <trkpt lat="48.66312" lon="7.8865">
        <ele>129.496367</ele>
        <time>2021-06-20T06:55:56.999Z</time>
      </trkpt>
      <trkpt lat="48.66321" lon="7.88665">
        <ele>129.449777</ele>
        <time>2021-06-20T06:55:58.999Z</time>
      </trkpt>
      <trkpt lat="48.66329" lon="7.8868">
        <ele>129.404415</ele>
        <time>2021-06-20T06:56:00.999Z</time>
      </trkpt>
      <trkpt lat="48.66338" lon="7.88693">
        <ele>129.360779</ele>
        <time>2021-06-20T06:56:02.999Z</time>
      </trkpt>
      <trkpt lat="48.66347" lon="7.88707">
        <ele>129.313604</ele>
        <time>2021-06-20T06:56:04.999Z</time>
      </trkpt>
      <trkpt lat="48.66355" lon="7.88722">
        <ele>129.269647</ele>
        <time>2021-06-20T06:56:06.999Z</time>
      </trkpt>
      <trkpt lat="48.66364" lon="7.88737">
        <ele>129.221595</ele>
        <time>2021-06-20T06:56:08.999Z</time>
      </trkpt>
      <trkpt lat="48.66373" lon="7.88751">
        <ele>129.175552</ele>
        <time>2021-06-20T06:56:10.999Z</time>
      </trkpt>
      <trkpt lat="48.66382" lon="7.88766">
        <ele>129.127582</ele>
        <time>2021-06-20T06:56:12.999Z</time>
      </trkpt>
      <trkpt lat="48.6639" lon="7.88779">
        <ele>129.086794</ele>
        <time>2021-06-20T06:56:14.999Z</time>
      </trkpt>
      <trkpt lat="48.664" lon="7.88794">
        <ele>129.036403</ele>
        <time>2021-06-20T06:56:16.999Z</time>
      </trkpt>
      <trkpt lat="48.6641" lon="7.88807">
        <ele>129.016447</ele>
        <time>2021-06-20T06:56:18.999Z</time>
      </trkpt>
      <trkpt lat="48.6642" lon="7.88819">
        <ele>129.186612</ele>
        <time>2021-06-20T06:56:20.999Z</time>
      </trkpt>
      <trkpt lat="48.6643" lon="7.88829">
        <ele>129.353879</ele>
        <time>2021-06-20T06:56:22.999Z</time>
      </trkpt>
      <trkpt lat="48.66442" lon="7.88838">
        <ele>129.537309</ele>
        <time>2021-06-20T06:56:24.999Z</time>
      </trkpt>
      <trkpt lat="48.66454" lon="7.88848">
        <ele>129.716383</ele>
        <time>2021-06-20T06:56:26.999Z</time>
      </trkpt>
      <trkpt lat="48.66464" lon="7.88861">
        <ele>129.898781</ele>
        <time>2021-06-20T06:56:28.999Z</time>
      </trkpt>
      <trkpt lat="48.66473" lon="7.88875">
        <ele>130.067988</ele>
        <time>2021-06-20T06:56:30.999Z</time>
      </trkpt>
      <trkpt lat="48.66481" lon="7.88887">
        <ele>130.227003</ele>
        <time>2021-06-20T06:56:32.999Z</time>
      </trkpt>
      <trkpt lat="48.6649" lon="7.88899">
        <ele>130.386909</ele>
        <time>2021-06-20T06:56:34.999Z</time>
      </trkpt>
      <trkpt lat="48.66497" lon="7.88909">
        <ele>130.519561</ele>
        <time>2021-06-20T06:56:36.999Z</time>
      </trkpt>
      <trkpt lat="48.66503" lon="7.88922">
        <ele>130.659486</ele>
        <time>2021-06-20T06:56:38.999Z</time>
      </trkpt>
      <trkpt lat="48.66504" lon="7.88938">
        <ele>130.803257</ele>
        <time>2021-06-20T06:56:41.999Z</time>
      </trkpt>
      <trkpt lat="48.66511" lon="7.88957">
        <ele>130.989473</ele>
        <time>2021-06-20T06:56:44.999Z</time>
      </trkpt>
      <trkpt lat="48.66515" lon="7.88972">
        <ele>131.133916</ele>
        <time>2021-06-20T06:56:46.999Z</time>
      </trkpt>
      <trkpt lat="48.66519" lon="7.88989">
        <ele>131.298729</ele>
        <time>2021-06-20T06:56:49.999Z</time>
      </trkpt>
      <trkpt lat="48.66521" lon="7.89006">
        <ele>131.464612</ele>
        <time>2021-06-20T06:56:52.999Z</time>
      </trkpt>
      <trkpt lat="48.66515" lon="7.89017">
        <ele>131.68833</ele>
        <time>2021-06-20T06:56:54.999Z</time>
      </trkpt>
      <trkpt lat="48.6651" lon="7.8903">
        <ele>131.917847</ele>
        <time>2021-06-20T06:56:56.999Z</time>
      </trkpt>
      <trkpt lat="48.6651" lon="7.89045">
        <ele>132.152378</ele>
        <time>2021-06-20T06:56:58.999Z</time>
      </trkpt>
      <trkpt lat="48.66516" lon="7.89058">
        <ele>132.402588</ele>
        <time>2021-06-20T06:57:00.999Z</time>
      </trkpt>
      <trkpt lat="48.66523" lon="7.89071">
        <ele>132.664039</ele>
        <time>2021-06-20T06:57:02.999Z</time>
      </trkpt>
      <trkpt lat="48.6653" lon="7.89083">
        <ele>132.921135</ele>
        <time>2021-06-20T06:57:04.999Z</time>
      </trkpt>
      <trkpt lat="48.66538" lon="7.89096">
        <ele>133.199378</ele>
        <time>2021-06-20T06:57:06.999Z</time>
      </trkpt>
      <trkpt lat="48.66546" lon="7.8911">
        <ele>133.475744</ele>
        <time>2021-06-20T06:57:08.999Z</time>
      </trkpt>
      <trkpt lat="48.66554" lon="7.89124">
        <ele>133.762914</ele>
        <time>2021-06-20T06:57:10.999Z</time>
      </trkpt>
      <trkpt lat="48.6656" lon="7.89134">
        <ele>133.975842</ele>
        <time>2021-06-20T06:57:12.999Z</time>
      </trkpt>
      <trkpt lat="48.6655" lon="7.89129">
        <ele>134.217818</ele>
        <time>2021-06-20T06:57:22.999Z</time>
      </trkpt>
      <trkpt lat="48.66544" lon="7.89119">
        <ele>134.435202</ele>
        <time>2021-06-20T06:57:53.999Z</time>
      </trkpt>
      <trkpt lat="48.66536" lon="7.89107">
        <ele>134.697837</ele>
        <time>2021-06-20T06:57:57.999Z</time>
      </trkpt>
      <trkpt lat="48.66527" lon="7.89096">
        <ele>134.966235</ele>
        <time>2021-06-20T06:58:00.999Z</time>
      </trkpt>
      <trkpt lat="48.66517" lon="7.89083">
        <ele>135.27696</ele>
        <time>2021-06-20T06:58:03.999Z</time>
      </trkpt>
      <trkpt lat="48.6651" lon="7.89073">
        <ele>135.498372</ele>
        <time>2021-06-20T06:58:05.999Z</time>
      </trkpt>
      <trkpt lat="48.66503" lon="7.89064">
        <ele>135.666328</ele>
        <time>2021-06-20T06:58:07.999Z</time>
      </trkpt>
      <trkpt lat="48.66496" lon="7.89053">
        <ele>135.667734</ele>
        <time>2021-06-20T06:58:09.999Z</time>
      </trkpt>
      <trkpt lat="48.66489" lon="7.89044">
        <ele>135.669185</ele>
        <time>2021-06-20T06:58:11.999Z</time>
      </trkpt>
      <trkpt lat="48.66481" lon="7.89033">
        <ele>135.67064</ele>
        <time>2021-06-20T06:58:13.999Z</time>
      </trkpt>
      <trkpt lat="48.66474" lon="7.89023">
        <ele>135.672122</ele>
        <time>2021-06-20T06:58:15.999Z</time>
      </trkpt>
      <trkpt lat="48.66466" lon="7.89013">
        <ele>135.673584</ele>
        <time>2021-06-20T06:58:17.999Z</time>
      </trkpt>
      <trkpt lat="48.66459" lon="7.89002">
        <ele>135.675125</ele>
        <time>2021-06-20T06:58:19.999Z</time>
      </trkpt>
      <trkpt lat="48.66451" lon="7.88991">
        <ele>135.676638</ele>
        <time>2021-06-20T06:58:21.999Z</time>
      </trkpt>
      <trkpt lat="48.66443" lon="7.8898">
        <ele>135.678169</ele>
        <time>2021-06-20T06:58:23.999Z</time>
      </trkpt>
      <trkpt lat="48.66436" lon="7.88968">
        <ele>135.679705</ele>
        <time>2021-06-20T06:58:25.999Z</time>
      </trkpt>
      <trkpt lat="48.66429" lon="7.88957">
        <ele>135.681205</ele>
        <time>2021-06-20T06:58:27.999Z</time>
      </trkpt>
      <trkpt lat="48.66421" lon="7.88946">
        <ele>135.682771</ele>
        <time>2021-06-20T06:58:29.999Z</time>
      </trkpt>
      <trkpt lat="48.66414" lon="7.88934">
        <ele>135.68432</ele>
        <time>2021-06-20T06:58:31.999Z</time>
      </trkpt>
      <trkpt lat="48.66406" lon="7.88922">
        <ele>135.685876</ele>
        <time>2021-06-20T06:58:33.999Z</time>
      </trkpt>
      <trkpt lat="48.66399" lon="7.88911">
        <ele>135.687441</ele>
        <time>2021-06-20T06:58:35.999Z</time>
      </trkpt>
      <trkpt lat="48.66392" lon="7.88899">
        <ele>135.688962</ele>
        <time>2021-06-20T06:58:37.999Z</time>
      </trkpt>
      <trkpt lat="48.66384" lon="7.88889">
        <ele>135.690405</ele>
        <time>2021-06-20T06:58:39.999Z</time>
      </trkpt>
      <trkpt lat="48.66377" lon="7.88878">
        <ele>135.691841</ele>
        <time>2021-06-20T06:58:41.999Z</time>
      </trkpt>
      <trkpt lat="48.66371" lon="7.88868">
        <ele>135.670234</ele>
        <time>2021-06-20T06:58:43.999Z</time>
      </trkpt>
      <trkpt lat="48.66364" lon="7.88857">
        <ele>135.642035</ele>
        <time>2021-06-20T06:58:45.999Z</time>
      </trkpt>
      <trkpt lat="48.66355" lon="7.88844">
        <ele>135.604687</ele>
        <time>2021-06-20T06:58:48.999Z</time>
      </trkpt>
      <trkpt lat="48.66349" lon="7.88833">
        <ele>135.576932</ele>
        <time>2021-06-20T06:58:58.999Z</time>
      </trkpt>
      <trkpt lat="48.66336" lon="7.88814">
        <ele>135.524152</ele>
        <time>2021-06-20T07:03:27.999Z</time>
      </trkpt>
      <trkpt lat="48.66328" lon="7.888">
        <ele>135.488536</ele>
        <time>2021-06-20T07:03:30.999Z</time>
      </trkpt>
      <trkpt lat="48.66322" lon="7.88789">
        <ele>135.460486</ele>
        <time>2021-06-20T07:03:32.999Z</time>
      </trkpt>
      <trkpt lat="48.66315" lon="7.88778">
        <ele>135.43134</ele>
        <time>2021-06-20T07:03:34.999Z</time>
      </trkpt>
      <trkpt lat="48.66308" lon="7.88766">
        <ele>135.40009</ele>
        <time>2021-06-20T07:03:36.999Z</time>
      </trkpt>
      <trkpt lat="48.66302" lon="7.88754">
        <ele>135.369869</ele>
        <time>2021-06-20T07:03:38.999Z</time>
      </trkpt>
      <trkpt lat="48.66295" lon="7.88742">
        <ele>135.338619</ele>
        <time>2021-06-20T07:03:40.999Z</time>
      </trkpt>
      <trkpt lat="48.66287" lon="7.88729">
        <ele>135.306203</ele>
        <time>2021-06-20T07:03:42.999Z</time>
      </trkpt>
      <trkpt lat="48.6628" lon="7.88717">
        <ele>135.272672</ele>
        <time>2021-06-20T07:03:44.999Z</time>
      </trkpt>
      <trkpt lat="48.66272" lon="7.88703">
        <ele>135.238851</ele>
        <time>2021-06-20T07:03:46.999Z</time>
      </trkpt>
      <trkpt lat="48.66264" lon="7.8869">
        <ele>135.204295</ele>
        <time>2021-06-20T07:03:48.999Z</time>
      </trkpt>
      <trkpt lat="48.66257" lon="7.88675">
        <ele>135.169262</ele>
        <time>2021-06-20T07:03:50.999Z</time>
      </trkpt>
      <trkpt lat="48.6625" lon="7.88662">
        <ele>135.149269</ele>
        <time>2021-06-20T07:03:52.999Z</time>
      </trkpt>
      <trkpt lat="48.66242" lon="7.88648">
        <ele>135.132327</ele>
        <time>2021-06-20T07:03:54.999Z</time>
      </trkpt>
      <trkpt lat="48.66235" lon="7.88633">
        <ele>135.115132</ele>
        <time>2021-06-20T07:03:56.999Z</time>
      </trkpt>
      <trkpt lat="48.66228" lon="7.8862">
        <ele>135.098776</ele>
        <time>2021-06-20T07:03:58.999Z</time>
      </trkpt>
      <trkpt lat="48.6622" lon="7.88606">
        <ele>135.081448</ele>
        <time>2021-06-20T07:04:00.999Z</time>
      </trkpt>
      <trkpt lat="48.66213" lon="7.88592">
        <ele>135.064578</ele>
        <time>2021-06-20T07:04:02.999Z</time>
      </trkpt>
      <trkpt lat="48.66206" lon="7.88578">
        <ele>135.047416</ele>
        <time>2021-06-20T07:04:04.999Z</time>
      </trkpt>
      <trkpt lat="48.66198" lon="7.88563">
        <ele>135.03012</ele>
        <time>2021-06-20T07:04:06.999Z</time>
      </trkpt>
      <trkpt lat="48.66191" lon="7.88548">
        <ele>135.012208</ele>
        <time>2021-06-20T07:04:08.999Z</time>
      </trkpt>
      <trkpt lat="48.66184" lon="7.88534">
        <ele>134.994792</ele>
        <time>2021-06-20T07:04:10.999Z</time>
      </trkpt>
      <trkpt lat="48.66177" lon="7.88519">
        <ele>134.977777</ele>
        <time>2021-06-20T07:04:12.999Z</time>
      </trkpt>
      <trkpt lat="48.6617" lon="7.88504">
        <ele>134.960276</ele>
        <time>2021-06-20T07:04:14.999Z</time>
      </trkpt>
      <trkpt lat="48.66163" lon="7.88489">
        <ele>134.942789</ele>
        <time>2021-06-20T07:04:16.999Z</time>
      </trkpt>
      <trkpt lat="48.66155" lon="7.88475">
        <ele>134.925582</ele>
        <time>2021-06-20T07:04:18.999Z</time>
      </trkpt>
      <trkpt lat="48.66148" lon="7.8846">
        <ele>134.908166</ele>
        <time>2021-06-20T07:04:20.999Z</time>
      </trkpt>
      <trkpt lat="48.66141" lon="7.88445">
        <ele>134.904927</ele>
        <time>2021-06-20T07:04:22.999Z</time>
      </trkpt>
      <trkpt lat="48.66134" lon="7.8843">
        <ele>134.905278</ele>
        <time>2021-06-20T07:04:24.999Z</time>
      </trkpt>
      <trkpt lat="48.66127" lon="7.88415">
        <ele>134.905634</ele>
        <time>2021-06-20T07:04:26.999Z</time>
      </trkpt>
      <trkpt lat="48.6612" lon="7.884">
        <ele>134.905976</ele>
        <time>2021-06-20T07:04:28.999Z</time>
      </trkpt>
      <trkpt lat="48.66114" lon="7.88385">
        <ele>134.906316</ele>
        <time>2021-06-20T07:04:30.999Z</time>
      </trkpt>
      <trkpt lat="48.66107" lon="7.88371">
        <ele>134.906663</ele>
        <time>2021-06-20T07:04:32.999Z</time>
      </trkpt>
      <trkpt lat="48.661" lon="7.88355">
        <ele>134.907009</ele>
        <time>2021-06-20T07:04:34.999Z</time>
      </trkpt>
      <trkpt lat="48.66094" lon="7.8834">
        <ele>134.907354</ele>
        <time>2021-06-20T07:04:36.999Z</time>
      </trkpt>
      <trkpt lat="48.66087" lon="7.88325">
        <ele>134.907702</ele>
        <time>2021-06-20T07:04:38.999Z</time>
      </trkpt>
      <trkpt lat="48.6608" lon="7.88309">
        <ele>134.908056</ele>
        <time>2021-06-20T07:04:40.999Z</time>
      </trkpt>
      <trkpt lat="48.66073" lon="7.88293">
        <ele>134.908428</ele>
        <time>2021-06-20T07:04:42.999Z</time>
      </trkpt>
      <trkpt lat="48.66066" lon="7.88277">
        <ele>134.908793</ele>
        <time>2021-06-20T07:04:44.999Z</time>
      </trkpt>
      <trkpt lat="48.6606" lon="7.88261">
        <ele>134.909156</ele>
        <time>2021-06-20T07:04:46.999Z</time>
      </trkpt>
      <trkpt lat="48.66053" lon="7.88244">
        <ele>134.909522</ele>
        <time>2021-06-20T07:04:48.999Z</time>
      </trkpt>
      <trkpt lat="48.66047" lon="7.88228">
        <ele>134.912651</ele>
        <time>2021-06-20T07:04:50.999Z</time>
      </trkpt>
      <trkpt lat="48.6604" lon="7.88211">
        <ele>134.932249</ele>
        <time>2021-06-20T07:04:52.999Z</time>
      </trkpt>
      <trkpt lat="48.66033" lon="7.88194">
        <ele>134.952003</ele>
        <time>2021-06-20T07:04:54.999Z</time>
      </trkpt>
      <trkpt lat="48.66027" lon="7.88178">
        <ele>134.971245</ele>
        <time>2021-06-20T07:04:56.999Z</time>
      </trkpt>
      <trkpt lat="48.6602" lon="7.88161">
        <ele>134.991092</ele>
        <time>2021-06-20T07:04:58.999Z</time>
      </trkpt>
      <trkpt lat="48.66013" lon="7.88144">
        <ele>135.011097</ele>
        <time>2021-06-20T07:05:00.999Z</time>
      </trkpt>
      <trkpt lat="48.66006" lon="7.88128">
        <ele>135.030101</ele>
        <time>2021-06-20T07:05:02.999Z</time>
      </trkpt>
      <trkpt lat="48.66" lon="7.88111">
        <ele>135.049026</ele>
        <time>2021-06-20T07:05:04.999Z</time>
      </trkpt>
      <trkpt lat="48.65993" lon="7.88094">
        <ele>135.069111</ele>
        <time>2021-06-20T07:05:06.999Z</time>
      </trkpt>
      <trkpt lat="48.65987" lon="7.88078">
        <ele>135.088115</ele>
        <time>2021-06-20T07:05:08.999Z</time>
      </trkpt>
      <trkpt lat="48.6598" lon="7.88061">
        <ele>135.107733</ele>
        <time>2021-06-20T07:05:10.999Z</time>
      </trkpt>
      <trkpt lat="48.65973" lon="7.88044">
        <ele>135.12784</ele>
        <time>2021-06-20T07:05:12.999Z</time>
      </trkpt>
      <trkpt lat="48.65966" lon="7.88027">
        <ele>135.147754</ele>
        <time>2021-06-20T07:05:14.999Z</time>
      </trkpt>
      <trkpt lat="48.65959" lon="7.8801">
        <ele>135.167835</ele>
        <time>2021-06-20T07:05:16.999Z</time>
      </trkpt>
      <trkpt lat="48.65953" lon="7.87993">
        <ele>135.187435</ele>
        <time>2021-06-20T07:05:18.999Z</time>
      </trkpt>
      <trkpt lat="48.65946" lon="7.87976">
        <ele>135.20757</ele>
        <time>2021-06-20T07:05:20.999Z</time>
      </trkpt>
      <trkpt lat="48.65939" lon="7.87958">
        <ele>135.227634</ele>
        <time>2021-06-20T07:05:22.999Z</time>
      </trkpt>
      <trkpt lat="48.65932" lon="7.87942">
        <ele>135.247032</ele>
        <time>2021-06-20T07:05:24.999Z</time>
      </trkpt>
      <trkpt lat="48.65925" lon="7.87925">
        <ele>135.266996</ele>
        <time>2021-06-20T07:05:26.999Z</time>
      </trkpt>
      <trkpt lat="48.65918" lon="7.87908">
        <ele>135.286187</ele>
        <time>2021-06-20T07:05:28.999Z</time>
      </trkpt>
      <trkpt lat="48.65911" lon="7.87891">
        <ele>135.305988</ele>
        <time>2021-06-20T07:05:30.999Z</time>
      </trkpt>
      <trkpt lat="48.65905" lon="7.87873">
        <ele>135.325639</ele>
        <time>2021-06-20T07:05:32.999Z</time>
      </trkpt>
      <trkpt lat="48.65897" lon="7.87856">
        <ele>135.345769</ele>
        <time>2021-06-20T07:05:34.999Z</time>
      </trkpt>
      <trkpt lat="48.65891" lon="7.87839">
        <ele>135.365504</ele>
        <time>2021-06-20T07:05:36.999Z</time>
      </trkpt>
      <trkpt lat="48.65883" lon="7.87821">
        <ele>135.386453</ele>
        <time>2021-06-20T07:05:38.999Z</time>
      </trkpt>
      <trkpt lat="48.65876" lon="7.87803">
        <ele>135.406602</ele>
        <time>2021-06-20T07:05:40.999Z</time>
      </trkpt>
      <trkpt lat="48.6587" lon="7.87785">
        <ele>135.426799</ele>
        <time>2021-06-20T07:05:42.999Z</time>
      </trkpt>
      <trkpt lat="48.65862" lon="7.87768">
        <ele>135.447175</ele>
        <time>2021-06-20T07:05:44.999Z</time>
      </trkpt>
      <trkpt lat="48.65855" lon="7.8775">
        <ele>135.444714</ele>
        <time>2021-06-20T07:05:46.999Z</time>
      </trkpt>
      <trkpt lat="48.65848" lon="7.87733">
        <ele>135.437028</ele>
        <time>2021-06-20T07:05:48.999Z</time>
      </trkpt>
      <trkpt lat="48.65841" lon="7.87716">
        <ele>135.429468</ele>
        <time>2021-06-20T07:05:50.999Z</time>
      </trkpt>
      <trkpt lat="48.65835" lon="7.87699">
        <ele>135.422273</ele>
        <time>2021-06-20T07:05:52.999Z</time>
      </trkpt>
      <trkpt lat="48.65828" lon="7.87682">
        <ele>135.414809</ele>
        <time>2021-06-20T07:05:54.999Z</time>
      </trkpt>
      <trkpt lat="48.65821" lon="7.87665">
        <ele>135.407391</ele>
        <time>2021-06-20T07:05:56.999Z</time>
      </trkpt>
      <trkpt lat="48.65814" lon="7.87648">
        <ele>135.400052</ele>
        <time>2021-06-20T07:05:58.999Z</time>
      </trkpt>
      <trkpt lat="48.65807" lon="7.87632">
        <ele>135.392899</ele>
        <time>2021-06-20T07:06:00.999Z</time>
      </trkpt>
      <trkpt lat="48.65801" lon="7.87614">
        <ele>135.385439</ele>
        <time>2021-06-20T07:06:02.999Z</time>
      </trkpt>
      <trkpt lat="48.65794" lon="7.87598">
        <ele>135.378318</ele>
        <time>2021-06-20T07:06:04.999Z</time>
      </trkpt>
      <trkpt lat="48.65788" lon="7.87581">
        <ele>135.371118</ele>
        <time>2021-06-20T07:06:06.999Z</time>
      </trkpt>
      <trkpt lat="48.65781" lon="7.87565">
        <ele>135.363964</ele>
        <time>2021-06-20T07:06:08.999Z</time>
      </trkpt>
      <trkpt lat="48.65775" lon="7.87549">
        <ele>135.3569</ele>
        <time>2021-06-20T07:06:10.999Z</time>
      </trkpt>
      <trkpt lat="48.65768" lon="7.87532">
        <ele>135.349589</ele>
        <time>2021-06-20T07:06:12.999Z</time>
      </trkpt>
      <trkpt lat="48.65761" lon="7.87516">
        <ele>135.337669</ele>
        <time>2021-06-20T07:06:14.999Z</time>
      </trkpt>
      <trkpt lat="48.65755" lon="7.87499">
        <ele>135.325785</ele>
        <time>2021-06-20T07:06:16.999Z</time>
      </trkpt>
      <trkpt lat="48.65748" lon="7.87482">
        <ele>135.313511</ele>
        <time>2021-06-20T07:06:18.999Z</time>
      </trkpt>
      <trkpt lat="48.65741" lon="7.87465">
        <ele>135.301326</ele>
        <time>2021-06-20T07:06:20.999Z</time>
      </trkpt>
      <trkpt lat="48.65734" lon="7.87449">
        <ele>135.289256</ele>
        <time>2021-06-20T07:06:22.999Z</time>
      </trkpt>
      <trkpt lat="48.65728" lon="7.87431">
        <ele>135.276857</ele>
        <time>2021-06-20T07:06:24.999Z</time>
      </trkpt>
      <trkpt lat="48.65721" lon="7.87415">
        <ele>135.264894</ele>
        <time>2021-06-20T07:06:26.999Z</time>
      </trkpt>
      <trkpt lat="48.65714" lon="7.87398">
        <ele>135.252816</ele>
        <time>2021-06-20T07:06:28.999Z</time>
      </trkpt>
      <trkpt lat="48.65707" lon="7.87381">
        <ele>135.240539</ele>
        <time>2021-06-20T07:06:30.999Z</time>
      </trkpt>
      <trkpt lat="48.65701" lon="7.87365">
        <ele>135.228826</ele>
        <time>2021-06-20T07:06:32.999Z</time>
      </trkpt>
      <trkpt lat="48.65694" lon="7.87348">
        <ele>135.216647</ele>
        <time>2021-06-20T07:06:34.999Z</time>
      </trkpt>
      <trkpt lat="48.65687" lon="7.87331">
        <ele>135.204461</ele>
        <time>2021-06-20T07:06:36.999Z</time>
      </trkpt>
      <trkpt lat="48.65681" lon="7.87315">
        <ele>135.192651</ele>
        <time>2021-06-20T07:06:38.999Z</time>
      </trkpt>
      <trkpt lat="48.65674" lon="7.873">
        <ele>135.181207</ele>
        <time>2021-06-20T07:06:40.999Z</time>
      </trkpt>
      <trkpt lat="48.65668" lon="7.87283">
        <ele>135.188076</ele>
        <time>2021-06-20T07:06:42.999Z</time>
      </trkpt>
      <trkpt lat="48.65661" lon="7.87267">
        <ele>135.194723</ele>
        <time>2021-06-20T07:06:44.999Z</time>
      </trkpt>
      <trkpt lat="48.65655" lon="7.8725">
        <ele>135.201805</ele>
        <time>2021-06-20T07:06:46.999Z</time>
      </trkpt>
      <trkpt lat="48.65648" lon="7.87234">
        <ele>135.20872</ele>
        <time>2021-06-20T07:06:48.999Z</time>
      </trkpt>
      <trkpt lat="48.65641" lon="7.87217">
        <ele>135.215531</ele>
        <time>2021-06-20T07:06:50.999Z</time>
      </trkpt>
      <trkpt lat="48.65635" lon="7.872">
        <ele>135.222728</ele>
        <time>2021-06-20T07:06:52.999Z</time>
      </trkpt>
      <trkpt lat="48.65628" lon="7.87183">
        <ele>135.229792</ele>
        <time>2021-06-20T07:06:54.999Z</time>
      </trkpt>
      <trkpt lat="48.65621" lon="7.87166">
        <ele>135.236826</ele>
        <time>2021-06-20T07:06:56.999Z</time>
      </trkpt>
      <trkpt lat="48.65614" lon="7.87149">
        <ele>135.244072</ele>
        <time>2021-06-20T07:06:58.999Z</time>
      </trkpt>
      <trkpt lat="48.65607" lon="7.87133">
        <ele>135.250756</ele>
        <time>2021-06-20T07:07:00.999Z</time>
      </trkpt>
      <trkpt lat="48.65601" lon="7.87116">
        <ele>135.257768</ele>
        <time>2021-06-20T07:07:02.999Z</time>
      </trkpt>
      <trkpt lat="48.65594" lon="7.871">
        <ele>135.264358</ele>
        <time>2021-06-20T07:07:04.999Z</time>
      </trkpt>
      <trkpt lat="48.65588" lon="7.87084">
        <ele>135.271131</ele>
        <time>2021-06-20T07:07:06.999Z</time>
      </trkpt>
      <trkpt lat="48.65582" lon="7.87068">
        <ele>135.277931</ele>
        <time>2021-06-20T07:07:08.999Z</time>
      </trkpt>
      <trkpt lat="48.65575" lon="7.87052">
        <ele>135.276142</ele>
        <time>2021-06-20T07:07:10.999Z</time>
      </trkpt>
      <trkpt lat="48.65569" lon="7.87035">
        <ele>135.273594</ele>
        <time>2021-06-20T07:07:12.999Z</time>
      </trkpt>
      <trkpt lat="48.65563" lon="7.8702">
        <ele>135.271218</ele>
        <time>2021-06-20T07:07:14.999Z</time>
      </trkpt>
      <trkpt lat="48.65556" lon="7.87004">
        <ele>135.26862</ele>
        <time>2021-06-20T07:07:16.999Z</time>
      </trkpt>
      <trkpt lat="48.65549" lon="7.86988">
        <ele>135.266087</ele>
        <time>2021-06-20T07:07:18.999Z</time>
      </trkpt>
      <trkpt lat="48.65542" lon="7.86972">
        <ele>135.263532</ele>
        <time>2021-06-20T07:07:20.999Z</time>
      </trkpt>
      <trkpt lat="48.65536" lon="7.86955">
        <ele>135.261009</ele>
        <time>2021-06-20T07:07:22.999Z</time>
      </trkpt>
      <trkpt lat="48.65529" lon="7.86939">
        <ele>135.258454</ele>
        <time>2021-06-20T07:07:24.999Z</time>
      </trkpt>
      <trkpt lat="48.65523" lon="7.86923">
        <ele>135.255942</ele>
        <time>2021-06-20T07:07:26.999Z</time>
      </trkpt>
      <trkpt lat="48.65517" lon="7.86907">
        <ele>135.25352</ele>
        <time>2021-06-20T07:07:28.999Z</time>
      </trkpt>
      <trkpt lat="48.6551" lon="7.86892">
        <ele>135.251032</ele>
        <time>2021-06-20T07:07:30.999Z</time>
      </trkpt>
      <trkpt lat="48.65504" lon="7.86876">
        <ele>135.248622</ele>
        <time>2021-06-20T07:07:32.999Z</time>
      </trkpt>
      <trkpt lat="48.65498" lon="7.86861">
        <ele>135.246211</ele>
        <time>2021-06-20T07:07:34.999Z</time>
      </trkpt>
      <trkpt lat="48.65492" lon="7.86846">
        <ele>135.243835</ele>
        <time>2021-06-20T07:07:36.999Z</time>
      </trkpt>
      <trkpt lat="48.65485" lon="7.8683">
        <ele>135.246401</ele>
        <time>2021-06-20T07:07:38.999Z</time>
      </trkpt>
      <trkpt lat="48.65479" lon="7.86814">
        <ele>135.262716</ele>
        <time>2021-06-20T07:07:40.999Z</time>
      </trkpt>
      <trkpt lat="48.65474" lon="7.86798">
        <ele>135.278683</ele>
        <time>2021-06-20T07:07:42.999Z</time>
      </trkpt>
      <trkpt lat="48.65467" lon="7.86783">
        <ele>135.294959</ele>
        <time>2021-06-20T07:07:44.999Z</time>
      </trkpt>
      <trkpt lat="48.65461" lon="7.86767">
        <ele>135.311613</ele>
        <time>2021-06-20T07:07:46.999Z</time>
      </trkpt>
      <trkpt lat="48.65454" lon="7.86751">
        <ele>135.328042</ele>
        <time>2021-06-20T07:07:48.999Z</time>
      </trkpt>
      <trkpt lat="48.65448" lon="7.86735">
        <ele>135.34427</ele>
        <time>2021-06-20T07:07:50.999Z</time>
      </trkpt>
      <trkpt lat="48.65442" lon="7.86719">
        <ele>135.36027</ele>
        <time>2021-06-20T07:07:52.999Z</time>
      </trkpt>
      <trkpt lat="48.65436" lon="7.86703">
        <ele>135.376704</ele>
        <time>2021-06-20T07:07:54.999Z</time>
      </trkpt>
      <trkpt lat="48.65429" lon="7.86687">
        <ele>135.393724</ele>
        <time>2021-06-20T07:07:56.999Z</time>
      </trkpt>
      <trkpt lat="48.65423" lon="7.86671">
        <ele>135.410316</ele>
        <time>2021-06-20T07:07:58.999Z</time>
      </trkpt>
      <trkpt lat="48.65416" lon="7.86655">
        <ele>135.426908</ele>
        <time>2021-06-20T07:08:00.999Z</time>
      </trkpt>
      <trkpt lat="48.65409" lon="7.86638">
        <ele>135.444437</ele>
        <time>2021-06-20T07:08:02.999Z</time>
      </trkpt>
      <trkpt lat="48.65402" lon="7.86621">
        <ele>135.462117</ele>
        <time>2021-06-20T07:08:04.999Z</time>
      </trkpt>
      <trkpt lat="48.65395" lon="7.86605">
        <ele>135.478838</ele>
        <time>2021-06-20T07:08:06.999Z</time>
      </trkpt>
      <trkpt lat="48.65388" lon="7.86589">
        <ele>135.456747</ele>
        <time>2021-06-20T07:08:08.999Z</time>
      </trkpt>
      <trkpt lat="48.65382" lon="7.86572">
        <ele>135.42448</ele>
        <time>2021-06-20T07:08:10.999Z</time>
      </trkpt>
      <trkpt lat="48.65375" lon="7.86556">
        <ele>135.392626</ele>
        <time>2021-06-20T07:08:12.999Z</time>
      </trkpt>
      <trkpt lat="48.65368" lon="7.86539">
        <ele>135.359404</ele>
        <time>2021-06-20T07:08:14.999Z</time>
      </trkpt>
      <trkpt lat="48.65362" lon="7.86522">
        <ele>135.327048</ele>
        <time>2021-06-20T07:08:16.999Z</time>
      </trkpt>
      <trkpt lat="48.65355" lon="7.86505">
        <ele>135.295052</ele>
        <time>2021-06-20T07:08:18.999Z</time>
      </trkpt>
      <trkpt lat="48.65349" lon="7.86488">
        <ele>135.263043</ele>
        <time>2021-06-20T07:08:20.999Z</time>
      </trkpt>
      <trkpt lat="48.65342" lon="7.86472">
        <ele>135.230917</ele>
        <time>2021-06-20T07:08:22.999Z</time>
      </trkpt>
      <trkpt lat="48.65336" lon="7.86456">
        <ele>135.199618</ele>
        <time>2021-06-20T07:08:24.999Z</time>
      </trkpt>
      <trkpt lat="48.65329" lon="7.8644">
        <ele>135.168478</ele>
        <time>2021-06-20T07:08:26.999Z</time>
      </trkpt>
      <trkpt lat="48.65322" lon="7.86423">
        <ele>135.136578</ele>
        <time>2021-06-20T07:08:28.999Z</time>
      </trkpt>
      <trkpt lat="48.65316" lon="7.86408">
        <ele>135.106124</ele>
        <time>2021-06-20T07:08:30.999Z</time>
      </trkpt>
      <trkpt lat="48.6531" lon="7.86392">
        <ele>135.075381</ele>
        <time>2021-06-20T07:08:32.999Z</time>
      </trkpt>
      <trkpt lat="48.65303" lon="7.86376">
        <ele>135.044468</ele>
        <time>2021-06-20T07:08:34.999Z</time>
      </trkpt>
      <trkpt lat="48.65297" lon="7.8636">
        <ele>135.030678</ele>
        <time>2021-06-20T07:08:36.999Z</time>
      </trkpt>
      <trkpt lat="48.65291" lon="7.86344">
        <ele>135.030574</ele>
        <time>2021-06-20T07:08:38.999Z</time>
      </trkpt>
      <trkpt lat="48.65284" lon="7.86327">
        <ele>135.030468</ele>
        <time>2021-06-20T07:08:40.999Z</time>
      </trkpt>
      <trkpt lat="48.65278" lon="7.86312">
        <ele>135.030367</ele>
        <time>2021-06-20T07:08:42.999Z</time>
      </trkpt>
      <trkpt lat="48.65271" lon="7.86296">
        <ele>135.030264</ele>
        <time>2021-06-20T07:08:44.999Z</time>
      </trkpt>
      <trkpt lat="48.65265" lon="7.8628">
        <ele>135.030162</ele>
        <time>2021-06-20T07:08:46.999Z</time>
      </trkpt>
      <trkpt lat="48.65258" lon="7.86265">
        <ele>135.030058</ele>
        <time>2021-06-20T07:08:48.999Z</time>
      </trkpt>
      <trkpt lat="48.65252" lon="7.86249">
        <ele>135.029955</ele>
        <time>2021-06-20T07:08:50.999Z</time>
      </trkpt>
      <trkpt lat="48.65246" lon="7.86232">
        <ele>135.029849</ele>
        <time>2021-06-20T07:08:52.999Z</time>
      </trkpt>
      <trkpt lat="48.65239" lon="7.86216">
        <ele>135.029745</ele>
        <time>2021-06-20T07:08:54.999Z</time>
      </trkpt>
      <trkpt lat="48.65232" lon="7.862">
        <ele>135.029639</ele>
        <time>2021-06-20T07:08:56.999Z</time>
      </trkpt>
      <trkpt lat="48.65226" lon="7.86184">
        <ele>135.029534</ele>
        <time>2021-06-20T07:08:58.999Z</time>
      </trkpt>
      <trkpt lat="48.65219" lon="7.86167">
        <ele>135.02943</ele>
        <time>2021-06-20T07:09:00.999Z</time>
      </trkpt>
      <trkpt lat="48.65213" lon="7.86151">
        <ele>135.029324</ele>
        <time>2021-06-20T07:09:02.999Z</time>
      </trkpt>
      <trkpt lat="48.65206" lon="7.86134">
        <ele>135.034359</ele>
        <time>2021-06-20T07:09:04.999Z</time>
      </trkpt>
      <trkpt lat="48.652" lon="7.86117">
        <ele>135.065976</ele>
        <time>2021-06-20T07:09:06.999Z</time>
      </trkpt>
      <trkpt lat="48.65193" lon="7.86101">
        <ele>135.098189</ele>
        <time>2021-06-20T07:09:08.999Z</time>
      </trkpt>
      <trkpt lat="48.65187" lon="7.86084">
        <ele>135.13034</ele>
        <time>2021-06-20T07:09:10.999Z</time>
      </trkpt>
      <trkpt lat="48.65181" lon="7.86067">
        <ele>135.162197</ele>
        <time>2021-06-20T07:09:12.999Z</time>
      </trkpt>
      <trkpt lat="48.65176" lon="7.8605">
        <ele>135.193791</ele>
        <time>2021-06-20T07:09:14.999Z</time>
      </trkpt>
      <trkpt lat="48.65169" lon="7.86033">
        <ele>135.22648</ele>
        <time>2021-06-20T07:09:16.999Z</time>
      </trkpt>
      <trkpt lat="48.65164" lon="7.86016">
        <ele>135.256672</ele>
        <time>2021-06-20T07:09:18.999Z</time>
      </trkpt>
      <trkpt lat="48.65159" lon="7.85999">
        <ele>135.28783</ele>
        <time>2021-06-20T07:09:20.999Z</time>
      </trkpt>
      <trkpt lat="48.65153" lon="7.85982">
        <ele>135.319506</ele>
        <time>2021-06-20T07:09:22.999Z</time>
      </trkpt>
      <trkpt lat="48.65147" lon="7.85965">
        <ele>135.351297</ele>
        <time>2021-06-20T07:09:24.999Z</time>
      </trkpt>
      <trkpt lat="48.65142" lon="7.85949">
        <ele>135.382262</ele>
        <time>2021-06-20T07:09:26.999Z</time>
      </trkpt>
      <trkpt lat="48.65136" lon="7.85931">
        <ele>135.414045</ele>
        <time>2021-06-20T07:09:28.999Z</time>
      </trkpt>
      <trkpt lat="48.65131" lon="7.85915">
        <ele>135.44572</ele>
        <time>2021-06-20T07:09:30.999Z</time>
      </trkpt>
      <trkpt lat="48.65125" lon="7.85897">
        <ele>135.47866</ele>
        <time>2021-06-20T07:09:32.999Z</time>
      </trkpt>
      <trkpt lat="48.65119" lon="7.8588">
        <ele>135.48709</ele>
        <time>2021-06-20T07:09:34.999Z</time>
      </trkpt>
      <trkpt lat="48.65113" lon="7.85862">
        <ele>135.492817</ele>
        <time>2021-06-20T07:09:36.999Z</time>
      </trkpt>
      <trkpt lat="48.65108" lon="7.85844">
        <ele>135.498415</ele>
        <time>2021-06-20T07:09:38.999Z</time>
      </trkpt>
      <trkpt lat="48.65102" lon="7.85827">
        <ele>135.50398</ele>
        <time>2021-06-20T07:09:40.999Z</time>
      </trkpt>
      <trkpt lat="48.65096" lon="7.8581">
        <ele>135.50972</ele>
        <time>2021-06-20T07:09:42.999Z</time>
      </trkpt>
      <trkpt lat="48.6509" lon="7.85792">
        <ele>135.515527</ele>
        <time>2021-06-20T07:09:44.999Z</time>
      </trkpt>
      <trkpt lat="48.65084" lon="7.85775">
        <ele>135.521105</ele>
        <time>2021-06-20T07:09:46.999Z</time>
      </trkpt>
      <trkpt lat="48.65078" lon="7.85757">
        <ele>135.526903</ele>
        <time>2021-06-20T07:09:48.999Z</time>
      </trkpt>
      <trkpt lat="48.65073" lon="7.8574">
        <ele>135.532481</ele>
        <time>2021-06-20T07:09:50.999Z</time>
      </trkpt>
      <trkpt lat="48.65067" lon="7.85722">
        <ele>135.538053</ele>
        <time>2021-06-20T07:09:52.999Z</time>
      </trkpt>
      <trkpt lat="48.65062" lon="7.85705">
        <ele>135.543592</ele>
        <time>2021-06-20T07:09:54.999Z</time>
      </trkpt>
      <trkpt lat="48.65055" lon="7.85687">
        <ele>135.549512</ele>
        <time>2021-06-20T07:09:56.999Z</time>
      </trkpt>
      <trkpt lat="48.6505" lon="7.85669">
        <ele>135.555163</ele>
        <time>2021-06-20T07:09:58.999Z</time>
      </trkpt>
      <trkpt lat="48.65044" lon="7.85653">
        <ele>135.560553</ele>
        <time>2021-06-20T07:10:00.999Z</time>
      </trkpt>
      <trkpt lat="48.65039" lon="7.85636">
        <ele>135.534521</ele>
        <time>2021-06-20T07:10:02.999Z</time>
      </trkpt>
      <trkpt lat="48.65034" lon="7.85619">
        <ele>135.506192</ele>
        <time>2021-06-20T07:10:04.999Z</time>
      </trkpt>
      <trkpt lat="48.65028" lon="7.85601">
        <ele>135.476381</ele>
        <time>2021-06-20T07:10:06.999Z</time>
      </trkpt>
      <trkpt lat="48.65023" lon="7.85583">
        <ele>135.446471</ele>
        <time>2021-06-20T07:10:08.999Z</time>
      </trkpt>
      <trkpt lat="48.65018" lon="7.85567">
        <ele>135.41834</ele>
        <time>2021-06-20T07:10:10.999Z</time>
      </trkpt>
      <trkpt lat="48.65014" lon="7.85549">
        <ele>135.389301</ele>
        <time>2021-06-20T07:10:12.999Z</time>
      </trkpt>
      <trkpt lat="48.65009" lon="7.85532">
        <ele>135.361861</ele>
        <time>2021-06-20T07:10:14.999Z</time>
      </trkpt>
      <trkpt lat="48.65004" lon="7.85516">
        <ele>135.333641</ele>
        <time>2021-06-20T07:10:16.999Z</time>
      </trkpt>
      <trkpt lat="48.64999" lon="7.85498">
        <ele>135.305047</ele>
        <time>2021-06-20T07:10:18.999Z</time>
      </trkpt>
      <trkpt lat="48.64995" lon="7.85482">
        <ele>135.27724</ele>
        <time>2021-06-20T07:10:20.999Z</time>
      </trkpt>
      <trkpt lat="48.64991" lon="7.85466">
        <ele>135.251902</ele>
        <time>2021-06-20T07:10:22.999Z</time>
      </trkpt>
      <trkpt lat="48.64987" lon="7.8545">
        <ele>135.226111</ele>
        <time>2021-06-20T07:10:24.999Z</time>
      </trkpt>
      <trkpt lat="48.64987" lon="7.85435">
        <ele>135.203629</ele>
        <time>2021-06-20T07:10:26.999Z</time>
      </trkpt>
      <trkpt lat="48.64987" lon="7.8542">
        <ele>135.180682</ele>
        <time>2021-06-20T07:10:28.999Z</time>
      </trkpt>
      <trkpt lat="48.64988" lon="7.85404">
        <ele>135.154889</ele>
        <time>2021-06-20T07:10:30.999Z</time>
      </trkpt>
      <trkpt lat="48.64989" lon="7.85387">
        <ele>135.125518</ele>
        <time>2021-06-20T07:10:32.999Z</time>
      </trkpt>
      <trkpt lat="48.64987" lon="7.8537">
        <ele>135.090896</ele>
        <time>2021-06-20T07:10:34.999Z</time>
      </trkpt>
      <trkpt lat="48.64982" lon="7.85353">
        <ele>135.055968</ele>
        <time>2021-06-20T07:10:36.999Z</time>
      </trkpt>
      <trkpt lat="48.64974" lon="7.8534">
        <ele>135.019698</ele>
        <time>2021-06-20T07:10:38.999Z</time>
      </trkpt>
      <trkpt lat="48.64964" lon="7.85332">
        <ele>134.985991</ele>
        <time>2021-06-20T07:10:40.999Z</time>
      </trkpt>
      <trkpt lat="48.64955" lon="7.85324">
        <ele>134.957353</ele>
        <time>2021-06-20T07:10:42.999Z</time>
      </trkpt>
      <trkpt lat="48.64948" lon="7.85306">
        <ele>134.917285</ele>
        <time>2021-06-20T07:10:45.999Z</time>
      </trkpt>
      <trkpt lat="48.64945" lon="7.8529">
        <ele>134.884434</ele>
        <time>2021-06-20T07:10:47.999Z</time>
      </trkpt>
      <trkpt lat="48.64941" lon="7.85273">
        <ele>134.849641</ele>
        <time>2021-06-20T07:10:49.999Z</time>
      </trkpt>
      <trkpt lat="48.64937" lon="7.85257">
        <ele>134.815349</ele>
        <time>2021-06-20T07:10:51.999Z</time>
      </trkpt>
      <trkpt lat="48.64932" lon="7.8524">
        <ele>134.780116</ele>
        <time>2021-06-20T07:10:53.999Z</time>
      </trkpt>
      <trkpt lat="48.64928" lon="7.85223">
        <ele>134.745603</ele>
        <time>2021-06-20T07:10:55.999Z</time>
      </trkpt>
      <trkpt lat="48.64925" lon="7.85206">
        <ele>134.710447</ele>
        <time>2021-06-20T07:10:57.999Z</time>
      </trkpt>
      <trkpt lat="48.6492" lon="7.85189">
        <ele>134.674886</ele>
        <time>2021-06-20T07:10:59.999Z</time>
      </trkpt>
      <trkpt lat="48.64917" lon="7.85171">
        <ele>134.638791</ele>
        <time>2021-06-20T07:11:01.999Z</time>
      </trkpt>
      <trkpt lat="48.64913" lon="7.85153">
        <ele>134.609626</ele>
        <time>2021-06-20T07:11:03.999Z</time>
      </trkpt>
      <trkpt lat="48.64909" lon="7.85136">
        <ele>134.594937</ele>
        <time>2021-06-20T07:11:05.999Z</time>
      </trkpt>
      <trkpt lat="48.64905" lon="7.8512">
        <ele>134.580051</ele>
        <time>2021-06-20T07:11:07.999Z</time>
      </trkpt>
      <trkpt lat="48.64902" lon="7.85103">
        <ele>134.565324</ele>
        <time>2021-06-20T07:11:09.999Z</time>
      </trkpt>
      <trkpt lat="48.64898" lon="7.85086">
        <ele>134.550979</ele>
        <time>2021-06-20T07:11:11.999Z</time>
      </trkpt>
      <trkpt lat="48.64896" lon="7.85069">
        <ele>134.536539</ele>
        <time>2021-06-20T07:11:13.999Z</time>
      </trkpt>
      <trkpt lat="48.64892" lon="7.85053">
        <ele>134.522364</ele>
        <time>2021-06-20T07:11:15.999Z</time>
      </trkpt>
      <trkpt lat="48.64889" lon="7.85036">
        <ele>134.507709</ele>
        <time>2021-06-20T07:11:17.999Z</time>
      </trkpt>
      <trkpt lat="48.64886" lon="7.8502">
        <ele>134.493874</ele>
        <time>2021-06-20T07:11:19.999Z</time>
      </trkpt>
      <trkpt lat="48.64882" lon="7.85004">
        <ele>134.480054</ele>
        <time>2021-06-20T07:11:21.999Z</time>
      </trkpt>
      <trkpt lat="48.64879" lon="7.84988">
        <ele>134.465167</ele>
        <time>2021-06-20T07:11:23.999Z</time>
      </trkpt>
      <trkpt lat="48.64875" lon="7.84971">
        <ele>134.451062</ele>
        <time>2021-06-20T07:11:25.999Z</time>
      </trkpt>
      <trkpt lat="48.64872" lon="7.84955">
        <ele>134.436805</ele>
        <time>2021-06-20T07:11:27.999Z</time>
      </trkpt>
      <trkpt lat="48.64868" lon="7.84938">
        <ele>134.422195</ele>
        <time>2021-06-20T07:11:29.999Z</time>
      </trkpt>
      <trkpt lat="48.64866" lon="7.84922">
        <ele>134.408413</ele>
        <time>2021-06-20T07:11:31.999Z</time>
      </trkpt>
      <trkpt lat="48.64862" lon="7.84907">
        <ele>134.394712</ele>
        <time>2021-06-20T07:11:33.999Z</time>
      </trkpt>
      <trkpt lat="48.64859" lon="7.8489">
        <ele>134.403559</ele>
        <time>2021-06-20T07:11:35.999Z</time>
      </trkpt>
      <trkpt lat="48.64855" lon="7.84874">
        <ele>134.426737</ele>
        <time>2021-06-20T07:11:37.999Z</time>
      </trkpt>
      <trkpt lat="48.64851" lon="7.84858">
        <ele>134.449273</ele>
        <time>2021-06-20T07:11:39.999Z</time>
      </trkpt>
      <trkpt lat="48.64846" lon="7.84841">
        <ele>134.473217</ele>
        <time>2021-06-20T07:11:41.999Z</time>
      </trkpt>
      <trkpt lat="48.64842" lon="7.84825">
        <ele>134.496372</ele>
        <time>2021-06-20T07:11:43.999Z</time>
      </trkpt>
      <trkpt lat="48.64838" lon="7.84808">
        <ele>134.519456</ele>
        <time>2021-06-20T07:11:45.999Z</time>
      </trkpt>
      <trkpt lat="48.64834" lon="7.84793">
        <ele>134.5416</ele>
        <time>2021-06-20T07:11:47.999Z</time>
      </trkpt>
      <trkpt lat="48.6483" lon="7.84778">
        <ele>134.56352</ele>
        <time>2021-06-20T07:11:49.999Z</time>
      </trkpt>
      <trkpt lat="48.64827" lon="7.84761">
        <ele>134.585899</ele>
        <time>2021-06-20T07:11:51.999Z</time>
      </trkpt>
      <trkpt lat="48.64822" lon="7.84745">
        <ele>134.609228</ele>
        <time>2021-06-20T07:11:53.999Z</time>
      </trkpt>
      <trkpt lat="48.64817" lon="7.8473">
        <ele>134.631545</ele>
        <time>2021-06-20T07:11:55.999Z</time>
      </trkpt>
      <trkpt lat="48.64812" lon="7.84714">
        <ele>134.654717</ele>
        <time>2021-06-20T07:11:57.999Z</time>
      </trkpt>
      <trkpt lat="48.64807" lon="7.84699">
        <ele>134.677617</ele>
        <time>2021-06-20T07:11:59.999Z</time>
      </trkpt>
      <trkpt lat="48.64803" lon="7.84684">
        <ele>134.699863</ele>
        <time>2021-06-20T07:12:01.999Z</time>
      </trkpt>
      <trkpt lat="48.64798" lon="7.84668">
        <ele>134.722505</ele>
        <time>2021-06-20T07:12:03.999Z</time>
      </trkpt>
      <trkpt lat="48.64793" lon="7.84653">
        <ele>134.745466</ele>
        <time>2021-06-20T07:12:05.999Z</time>
      </trkpt>
      <trkpt lat="48.64788" lon="7.84638">
        <ele>134.770076</ele>
        <time>2021-06-20T07:12:07.999Z</time>
      </trkpt>
      <trkpt lat="48.64782" lon="7.84623">
        <ele>134.796259</ele>
        <time>2021-06-20T07:12:09.999Z</time>
      </trkpt>
      <trkpt lat="48.64777" lon="7.84608">
        <ele>134.822331</ele>
        <time>2021-06-20T07:12:11.999Z</time>
      </trkpt>
      <trkpt lat="48.64771" lon="7.84593">
        <ele>134.847383</ele>
        <time>2021-06-20T07:12:13.999Z</time>
      </trkpt>
      <trkpt lat="48.64765" lon="7.84579">
        <ele>134.873614</ele>
        <time>2021-06-20T07:12:15.999Z</time>
      </trkpt>
      <trkpt lat="48.6476" lon="7.84564">
        <ele>134.899531</ele>
        <time>2021-06-20T07:12:17.999Z</time>
      </trkpt>
      <trkpt lat="48.64754" lon="7.84549">
        <ele>134.92607</ele>
        <time>2021-06-20T07:12:19.999Z</time>
      </trkpt>
      <trkpt lat="48.64748" lon="7.84534">
        <ele>134.951939</ele>
        <time>2021-06-20T07:12:21.999Z</time>
      </trkpt>
      <trkpt lat="48.64743" lon="7.8452">
        <ele>134.977181</ele>
        <time>2021-06-20T07:12:23.999Z</time>
      </trkpt>
      <trkpt lat="48.64737" lon="7.84505">
        <ele>135.003412</ele>
        <time>2021-06-20T07:12:25.999Z</time>
      </trkpt>
      <trkpt lat="48.6473" lon="7.84492">
        <ele>135.028502</ele>
        <time>2021-06-20T07:12:27.999Z</time>
      </trkpt>
      <trkpt lat="48.64725" lon="7.84478">
        <ele>135.053466</ele>
        <time>2021-06-20T07:12:29.999Z</time>
      </trkpt>
      <trkpt lat="48.64718" lon="7.84463">
        <ele>135.079311</ele>
        <time>2021-06-20T07:12:31.999Z</time>
      </trkpt>
      <trkpt lat="48.64713" lon="7.8445">
        <ele>135.10364</ele>
        <time>2021-06-20T07:12:33.999Z</time>
      </trkpt>
      <trkpt lat="48.64706" lon="7.84437">
        <ele>135.129056</ele>
        <time>2021-06-20T07:12:35.999Z</time>
      </trkpt>
      <trkpt lat="48.64699" lon="7.84423">
        <ele>135.154422</ele>
        <time>2021-06-20T07:12:37.999Z</time>
      </trkpt>
      <trkpt lat="48.64693" lon="7.84409">
        <ele>135.121629</ele>
        <time>2021-06-20T07:12:39.999Z</time>
      </trkpt>
      <trkpt lat="48.64686" lon="7.84396">
        <ele>135.060222</ele>
        <time>2021-06-20T07:12:41.999Z</time>
      </trkpt>
      <trkpt lat="48.6468" lon="7.84383">
        <ele>134.998106</ele>
        <time>2021-06-20T07:12:43.999Z</time>
      </trkpt>
      <trkpt lat="48.64673" lon="7.8437">
        <ele>134.933128</ele>
        <time>2021-06-20T07:12:45.999Z</time>
      </trkpt>
      <trkpt lat="48.64666" lon="7.84357">
        <ele>134.870558</ele>
        <time>2021-06-20T07:12:47.999Z</time>
      </trkpt>
      <trkpt lat="48.6466" lon="7.84344">
        <ele>134.810646</ele>
        <time>2021-06-20T07:12:49.999Z</time>
      </trkpt>
      <trkpt lat="48.64653" lon="7.84332">
        <ele>134.749321</ele>
        <time>2021-06-20T07:12:51.999Z</time>
      </trkpt>
      <trkpt lat="48.64646" lon="7.8432">
        <ele>134.689829</ele>
        <time>2021-06-20T07:12:53.999Z</time>
      </trkpt>
      <trkpt lat="48.64638" lon="7.84305">
        <ele>134.616224</ele>
        <time>2021-06-20T07:12:56.999Z</time>
      </trkpt>
      <trkpt lat="48.64631" lon="7.8429">
        <ele>134.549135</ele>
        <time>2021-06-20T07:12:59.999Z</time>
      </trkpt>
      <trkpt lat="48.64624" lon="7.8428">
        <ele>134.493477</ele>
        <time>2021-06-20T07:13:02.999Z</time>
      </trkpt>
      <trkpt lat="48.64627" lon="7.84266">
        <ele>134.438211</ele>
        <time>2021-06-20T07:13:22.999Z</time>
      </trkpt>
      <trkpt lat="48.64634" lon="7.84257">
        <ele>134.385681</ele>
        <time>2021-06-20T07:13:33.999Z</time>
      </trkpt>
      <trkpt lat="48.6464" lon="7.84246">
        <ele>134.330179</ele>
        <time>2021-06-20T07:13:46.999Z</time>
      </trkpt>
      <trkpt lat="48.64648" lon="7.84237">
        <ele>134.27707</ele>
        <time>2021-06-20T07:13:58.999Z</time>
      </trkpt>
      <trkpt lat="48.64641" lon="7.84211">
        <ele>134.168719</ele>
        <time>2021-06-20T07:14:39.999Z</time>
      </trkpt>
      <trkpt lat="48.64633" lon="7.84199">
        <ele>134.117651</ele>
        <time>2021-06-20T07:14:42.999Z</time>
      </trkpt>
      <trkpt lat="48.64626" lon="7.84188">
        <ele>134.091002</ele>
        <time>2021-06-20T07:14:44.999Z</time>
      </trkpt>
      <trkpt lat="48.6462" lon="7.84178">
        <ele>134.065059</ele>
        <time>2021-06-20T07:14:46.999Z</time>
      </trkpt>
      <trkpt lat="48.64613" lon="7.84168">
        <ele>134.039064</ele>
        <time>2021-06-20T07:14:48.999Z</time>
      </trkpt>
      <trkpt lat="48.64606" lon="7.84158">
        <ele>134.01099</ele>
        <time>2021-06-20T07:14:50.999Z</time>
      </trkpt>
      <trkpt lat="48.64599" lon="7.84146">
        <ele>133.981169</ele>
        <time>2021-06-20T07:14:52.999Z</time>
      </trkpt>
      <trkpt lat="48.64592" lon="7.84135">
        <ele>133.953068</ele>
        <time>2021-06-20T07:14:54.999Z</time>
      </trkpt>
      <trkpt lat="48.64584" lon="7.84124">
        <ele>133.921824</ele>
        <time>2021-06-20T07:14:56.999Z</time>
      </trkpt>
      <trkpt lat="48.64574" lon="7.84113">
        <ele>133.888002</ele>
        <time>2021-06-20T07:14:58.999Z</time>
      </trkpt>
      <trkpt lat="48.64567" lon="7.841">
        <ele>133.85564</ele>
        <time>2021-06-20T07:15:00.999Z</time>
      </trkpt>
      <trkpt lat="48.64558" lon="7.84089">
        <ele>133.824946</ele>
        <time>2021-06-20T07:15:02.999Z</time>
      </trkpt>
      <trkpt lat="48.6455" lon="7.84078">
        <ele>133.793655</ele>
        <time>2021-06-20T07:15:04.999Z</time>
      </trkpt>
      <trkpt lat="48.64545" lon="7.84061">
        <ele>133.75935</ele>
        <time>2021-06-20T07:15:06.999Z</time>
      </trkpt>
      <trkpt lat="48.64542" lon="7.84046">
        <ele>133.730532</ele>
        <time>2021-06-20T07:15:08.999Z</time>
      </trkpt>
      <trkpt lat="48.64534" lon="7.84035">
        <ele>133.699161</ele>
        <time>2021-06-20T07:15:10.999Z</time>
      </trkpt>
      <trkpt lat="48.64525" lon="7.84023">
        <ele>133.664872</ele>
        <time>2021-06-20T07:15:12.999Z</time>
      </trkpt>
      <trkpt lat="48.6452" lon="7.84006">
        <ele>133.630395</ele>
        <time>2021-06-20T07:15:14.999Z</time>
      </trkpt>
      <trkpt lat="48.64521" lon="7.83991">
        <ele>133.593118</ele>
        <time>2021-06-20T07:15:16.999Z</time>
      </trkpt>
      <trkpt lat="48.64519" lon="7.83973">
        <ele>133.543852</ele>
        <time>2021-06-20T07:15:18.999Z</time>
      </trkpt>
      <trkpt lat="48.64517" lon="7.83953">
        <ele>133.491001</ele>
        <time>2021-06-20T07:15:20.999Z</time>
      </trkpt>
      <trkpt lat="48.64516" lon="7.83932">
        <ele>133.433017</ele>
        <time>2021-06-20T07:15:22.999Z</time>
      </trkpt>
      <trkpt lat="48.64514" lon="7.83911">
        <ele>133.377919</ele>
        <time>2021-06-20T07:15:24.999Z</time>
      </trkpt>
      <trkpt lat="48.64512" lon="7.8389">
        <ele>133.319648</ele>
        <time>2021-06-20T07:15:26.999Z</time>
      </trkpt>
      <trkpt lat="48.6451" lon="7.83869">
        <ele>133.265137</ele>
        <time>2021-06-20T07:15:28.999Z</time>
      </trkpt>
      <trkpt lat="48.64508" lon="7.83849">
        <ele>133.211405</ele>
        <time>2021-06-20T07:15:30.999Z</time>
      </trkpt>
      <trkpt lat="48.64504" lon="7.83832">
        <ele>133.161427</ele>
        <time>2021-06-20T07:15:32.999Z</time>
      </trkpt>
      <trkpt lat="48.64503" lon="7.83814">
        <ele>133.114228</ele>
        <time>2021-06-20T07:15:34.999Z</time>
      </trkpt>
      <trkpt lat="48.64499" lon="7.83797">
        <ele>133.066025</ele>
        <time>2021-06-20T07:15:36.999Z</time>
      </trkpt>
      <trkpt lat="48.64496" lon="7.83778">
        <ele>133.014799</ele>
        <time>2021-06-20T07:15:38.999Z</time>
      </trkpt>
      <trkpt lat="48.64498" lon="7.83758">
        <ele>132.961333</ele>
        <time>2021-06-20T07:15:40.999Z</time>
      </trkpt>
      <trkpt lat="48.64494" lon="7.83738">
        <ele>132.904299</ele>
        <time>2021-06-20T07:15:42.999Z</time>
      </trkpt>
      <trkpt lat="48.64492" lon="7.83715">
        <ele>132.884706</ele>
        <time>2021-06-20T07:15:44.999Z</time>
      </trkpt>
      <trkpt lat="48.64494" lon="7.83694">
        <ele>132.8711</ele>
        <time>2021-06-20T07:15:46.999Z</time>
      </trkpt>
      <trkpt lat="48.64496" lon="7.83671">
        <ele>132.856026</ele>
        <time>2021-06-20T07:15:48.999Z</time>
      </trkpt>
      <trkpt lat="48.64499" lon="7.83649">
        <ele>132.841726</ele>
        <time>2021-06-20T07:15:50.999Z</time>
      </trkpt>
      <trkpt lat="48.64501" lon="7.83629">
        <ele>132.828958</ele>
        <time>2021-06-20T07:15:52.999Z</time>
      </trkpt>
      <trkpt lat="48.645" lon="7.83612">
        <ele>132.818033</ele>
        <time>2021-06-20T07:15:54.999Z</time>
      </trkpt>
      <trkpt lat="48.64502" lon="7.83595">
        <ele>132.806561</ele>
        <time>2021-06-20T07:15:56.999Z</time>
      </trkpt>
      <trkpt lat="48.645" lon="7.83581">
        <ele>132.797808</ele>
        <time>2021-06-20T07:15:58.999Z</time>
      </trkpt>
      <trkpt lat="48.64494" lon="7.83569">
        <ele>132.788218</ele>
        <time>2021-06-20T07:16:00.999Z</time>
      </trkpt>
      <trkpt lat="48.64486" lon="7.83555">
        <ele>132.776234</ele>
        <time>2021-06-20T07:16:03.999Z</time>
      </trkpt>
      <trkpt lat="48.64481" lon="7.83541">
        <ele>132.76626</ele>
        <time>2021-06-20T07:16:05.999Z</time>
      </trkpt>
      <trkpt lat="48.6448" lon="7.83523">
        <ele>132.754298</ele>
        <time>2021-06-20T07:16:08.999Z</time>
      </trkpt>
      <trkpt lat="48.6448" lon="7.83505">
        <ele>132.743213</ele>
        <time>2021-06-20T07:16:10.999Z</time>
      </trkpt>
      <trkpt lat="48.64477" lon="7.83487">
        <ele>132.731202</ele>
        <time>2021-06-20T07:16:12.999Z</time>
      </trkpt>
      <trkpt lat="48.6447" lon="7.83473">
        <ele>132.728627</ele>
        <time>2021-06-20T07:16:14.999Z</time>
      </trkpt>
      <trkpt lat="48.64463" lon="7.83459">
        <ele>132.745647</ele>
        <time>2021-06-20T07:16:16.999Z</time>
      </trkpt>
      <trkpt lat="48.64456" lon="7.83447">
        <ele>132.76117</ele>
        <time>2021-06-20T07:16:18.999Z</time>
      </trkpt>
      <trkpt lat="48.64449" lon="7.83432">
        <ele>132.777951</ele>
        <time>2021-06-20T07:16:20.999Z</time>
      </trkpt>
      <trkpt lat="48.64443" lon="7.83417">
        <ele>132.79553</ele>
        <time>2021-06-20T07:16:23.999Z</time>
      </trkpt>
      <trkpt lat="48.64436" lon="7.83402">
        <ele>132.812711</ele>
        <time>2021-06-20T07:16:25.999Z</time>
      </trkpt>
      <trkpt lat="48.64428" lon="7.83392">
        <ele>132.82842</ele>
        <time>2021-06-20T07:16:27.999Z</time>
      </trkpt>
      <trkpt lat="48.64418" lon="7.83382">
        <ele>132.845565</ele>
        <time>2021-06-20T07:16:29.999Z</time>
      </trkpt>
      <trkpt lat="48.64408" lon="7.83371">
        <ele>132.862442</ele>
        <time>2021-06-20T07:16:31.999Z</time>
      </trkpt>
      <trkpt lat="48.64399" lon="7.83357">
        <ele>132.88221</ele>
        <time>2021-06-20T07:16:33.999Z</time>
      </trkpt>
      <trkpt lat="48.64397" lon="7.8334">
        <ele>132.898841</ele>
        <time>2021-06-20T07:16:35.999Z</time>
      </trkpt>
      <trkpt lat="48.64405" lon="7.83327">
        <ele>132.916531</ele>
        <time>2021-06-20T07:16:37.999Z</time>
      </trkpt>
      <trkpt lat="48.64412" lon="7.83317">
        <ele>132.929663</ele>
        <time>2021-06-20T07:16:39.999Z</time>
      </trkpt>
      <trkpt lat="48.64419" lon="7.83304">
        <ele>132.946168</ele>
        <time>2021-06-20T07:16:41.999Z</time>
      </trkpt>
      <trkpt lat="48.64422" lon="7.83289">
        <ele>132.961018</ele>
        <time>2021-06-20T07:16:43.999Z</time>
      </trkpt>
      <trkpt lat="48.64424" lon="7.8327">
        <ele>132.979731</ele>
        <time>2021-06-20T07:16:46.999Z</time>
      </trkpt>
      <trkpt lat="48.64426" lon="7.83254">
        <ele>132.999919</ele>
        <time>2021-06-20T07:16:48.999Z</time>
      </trkpt>
      <trkpt lat="48.64429" lon="7.83236">
        <ele>133.025774</ele>
        <time>2021-06-20T07:16:50.999Z</time>
      </trkpt>
      <trkpt lat="48.64434" lon="7.83219">
        <ele>133.050671</ele>
        <time>2021-06-20T07:16:52.999Z</time>
      </trkpt>
      <trkpt lat="48.64442" lon="7.83204">
        <ele>133.077034</ele>
        <time>2021-06-20T07:16:54.999Z</time>
      </trkpt>
      <trkpt lat="48.64447" lon="7.83187">
        <ele>133.103041</ele>
        <time>2021-06-20T07:16:56.999Z</time>
      </trkpt>
      <trkpt lat="48.64454" lon="7.83169">
        <ele>133.131962</ele>
        <time>2021-06-20T07:16:58.999Z</time>
      </trkpt>
      <trkpt lat="48.6446" lon="7.83154">
        <ele>133.15524</ele>
        <time>2021-06-20T07:17:00.999Z</time>
      </trkpt>
      <trkpt lat="48.6447" lon="7.83134">
        <ele>133.188689</ele>
        <time>2021-06-20T07:17:02.999Z</time>
      </trkpt>
      <trkpt lat="48.64477" lon="7.83119">
        <ele>133.21345</ele>
        <time>2021-06-20T07:17:04.999Z</time>
      </trkpt>
      <trkpt lat="48.64483" lon="7.83101">
        <ele>133.241957</ele>
        <time>2021-06-20T07:17:06.999Z</time>
      </trkpt>
      <trkpt lat="48.64489" lon="7.83085">
        <ele>133.267741</ele>
        <time>2021-06-20T07:17:08.999Z</time>
      </trkpt>
      <trkpt lat="48.64496" lon="7.83069">
        <ele>133.292494</ele>
        <time>2021-06-20T07:17:10.999Z</time>
      </trkpt>
      <trkpt lat="48.64501" lon="7.83056">
        <ele>133.314536</ele>
        <time>2021-06-20T07:17:12.999Z</time>
      </trkpt>
      <trkpt lat="48.64512" lon="7.83049">
        <ele>133.337998</ele>
        <time>2021-06-20T07:17:14.999Z</time>
      </trkpt>
      <trkpt lat="48.64523" lon="7.83049">
        <ele>133.369786</ele>
        <time>2021-06-20T07:17:16.999Z</time>
      </trkpt>
      <trkpt lat="48.64533" lon="7.83047">
        <ele>133.425714</ele>
        <time>2021-06-20T07:17:18.999Z</time>
      </trkpt>
      <trkpt lat="48.64542" lon="7.8304">
        <ele>133.483873</ele>
        <time>2021-06-20T07:17:20.999Z</time>
      </trkpt>
      <trkpt lat="48.64551" lon="7.8303">
        <ele>133.548043</ele>
        <time>2021-06-20T07:17:22.999Z</time>
      </trkpt>
      <trkpt lat="48.64558" lon="7.83017">
        <ele>133.608414</ele>
        <time>2021-06-20T07:17:24.999Z</time>
      </trkpt>
      <trkpt lat="48.64566" lon="7.83008">
        <ele>133.665226</ele>
        <time>2021-06-20T07:17:26.999Z</time>
      </trkpt>
      <trkpt lat="48.64571" lon="7.82994">
        <ele>133.723694</ele>
        <time>2021-06-20T07:17:28.999Z</time>
      </trkpt>
      <trkpt lat="48.64576" lon="7.82979">
        <ele>133.784509</ele>
        <time>2021-06-20T07:17:30.999Z</time>
      </trkpt>
      <trkpt lat="48.6458" lon="7.82967">
        <ele>133.836378</ele>
        <time>2021-06-20T07:17:32.999Z</time>
      </trkpt>
      <trkpt lat="48.64586" lon="7.82951">
        <ele>133.906464</ele>
        <time>2021-06-20T07:17:34.999Z</time>
      </trkpt>
      <trkpt lat="48.64588" lon="7.82936">
        <ele>133.961491</ele>
        <time>2021-06-20T07:17:36.999Z</time>
      </trkpt>
      <trkpt lat="48.64592" lon="7.82921">
        <ele>134.021266</ele>
        <time>2021-06-20T07:17:38.999Z</time>
      </trkpt>
      <trkpt lat="48.64599" lon="7.82908">
        <ele>134.083651</ele>
        <time>2021-06-20T07:17:40.999Z</time>
      </trkpt>
      <trkpt lat="48.64604" lon="7.82894">
        <ele>134.141195</ele>
        <time>2021-06-20T07:17:42.999Z</time>
      </trkpt>
      <trkpt lat="48.64612" lon="7.82882">
        <ele>134.20669</ele>
        <time>2021-06-20T07:17:44.999Z</time>
      </trkpt>
      <trkpt lat="48.64619" lon="7.8287">
        <ele>134.266645</ele>
        <time>2021-06-20T07:17:46.999Z</time>
      </trkpt>
      <trkpt lat="48.64628" lon="7.82858">
        <ele>134.331239</ele>
        <time>2021-06-20T07:17:48.999Z</time>
      </trkpt>
      <trkpt lat="48.64637" lon="7.82847">
        <ele>134.3292</ele>
        <time>2021-06-20T07:17:51.999Z</time>
      </trkpt>
      <trkpt lat="48.64637" lon="7.82832">
        <ele>134.258372</ele>
        <time>2021-06-20T07:17:54.999Z</time>
      </trkpt>
      <trkpt lat="48.64631" lon="7.82815">
        <ele>134.166115</ele>
        <time>2021-06-20T07:17:57.999Z</time>
      </trkpt>
      <trkpt lat="48.64627" lon="7.82802">
        <ele>134.099999</ele>
        <time>2021-06-20T07:17:59.999Z</time>
      </trkpt>
      <trkpt lat="48.64623" lon="7.82788">
        <ele>134.028729</ele>
        <time>2021-06-20T07:18:01.999Z</time>
      </trkpt>
      <trkpt lat="48.64619" lon="7.82774">
        <ele>133.954302</ele>
        <time>2021-06-20T07:18:03.999Z</time>
      </trkpt>
      <trkpt lat="48.64615" lon="7.82759">
        <ele>133.879425</ele>
        <time>2021-06-20T07:18:05.999Z</time>
      </trkpt>
      <trkpt lat="48.64612" lon="7.82745">
        <ele>133.809993</ele>
        <time>2021-06-20T07:18:07.999Z</time>
      </trkpt>
      <trkpt lat="48.6461" lon="7.82732">
        <ele>133.742136</ele>
        <time>2021-06-20T07:18:09.999Z</time>
      </trkpt>
      <trkpt lat="48.64606" lon="7.82714">
        <ele>133.652643</ele>
        <time>2021-06-20T07:18:12.999Z</time>
      </trkpt>
      <trkpt lat="48.64603" lon="7.82695">
        <ele>133.562386</ele>
        <time>2021-06-20T07:18:16.999Z</time>
      </trkpt>
      <trkpt lat="48.64598" lon="7.82682">
        <ele>133.489485</ele>
        <time>2021-06-20T07:18:18.999Z</time>
      </trkpt>
      <trkpt lat="48.64592" lon="7.82669">
        <ele>133.415809</ele>
        <time>2021-06-20T07:18:20.999Z</time>
      </trkpt>
      <trkpt lat="48.64585" lon="7.82658">
        <ele>133.341778</ele>
        <time>2021-06-20T07:18:22.999Z</time>
      </trkpt>
      <trkpt lat="48.64575" lon="7.82651">
        <ele>133.260706</ele>
        <time>2021-06-20T07:18:24.999Z</time>
      </trkpt>
      <trkpt lat="48.64564" lon="7.82646">
        <ele>133.181035</ele>
        <time>2021-06-20T07:18:26.999Z</time>
      </trkpt>
      <trkpt lat="48.64553" lon="7.82643">
        <ele>133.099931</ele>
        <time>2021-06-20T07:18:28.999Z</time>
      </trkpt>
      <trkpt lat="48.64542" lon="7.82639">
        <ele>133.060615</ele>
        <time>2021-06-20T07:18:30.999Z</time>
      </trkpt>
      <trkpt lat="48.6453" lon="7.82635">
        <ele>133.038683</ele>
        <time>2021-06-20T07:18:32.999Z</time>
      </trkpt>
      <trkpt lat="48.64518" lon="7.82631">
        <ele>133.015915</ele>
        <time>2021-06-20T07:18:34.999Z</time>
      </trkpt>
      <trkpt lat="48.64505" lon="7.82627">
        <ele>132.993231</ele>
        <time>2021-06-20T07:18:36.999Z</time>
      </trkpt>
      <trkpt lat="48.64493" lon="7.82624">
        <ele>132.970773</ele>
        <time>2021-06-20T07:18:38.999Z</time>
      </trkpt>
      <trkpt lat="48.64481" lon="7.8262">
        <ele>132.948064</ele>
        <time>2021-06-20T07:18:40.999Z</time>
      </trkpt>
      <trkpt lat="48.64469" lon="7.82616">
        <ele>132.924846</ele>
        <time>2021-06-20T07:18:42.999Z</time>
      </trkpt>
      <trkpt lat="48.64456" lon="7.82613">
        <ele>132.901583</ele>
        <time>2021-06-20T07:18:44.999Z</time>
      </trkpt>
      <trkpt lat="48.64444" lon="7.82608">
        <ele>132.878671</ele>
        <time>2021-06-20T07:18:46.999Z</time>
      </trkpt>
      <trkpt lat="48.64431" lon="7.82604">
        <ele>132.855528</ele>
        <time>2021-06-20T07:18:48.999Z</time>
      </trkpt>
      <trkpt lat="48.64419" lon="7.826">
        <ele>132.832512</ele>
        <time>2021-06-20T07:18:50.999Z</time>
      </trkpt>
      <trkpt lat="48.64407" lon="7.82597">
        <ele>132.809765</ele>
        <time>2021-06-20T07:18:52.999Z</time>
      </trkpt>
      <trkpt lat="48.64394" lon="7.82593">
        <ele>132.786675</ele>
        <time>2021-06-20T07:18:54.999Z</time>
      </trkpt>
      <trkpt lat="48.64381" lon="7.82589">
        <ele>132.762833</ele>
        <time>2021-06-20T07:18:56.999Z</time>
      </trkpt>
      <trkpt lat="48.64369" lon="7.82586">
        <ele>132.753524</ele>
        <time>2021-06-20T07:18:58.999Z</time>
      </trkpt>
      <trkpt lat="48.64356" lon="7.82582">
        <ele>132.765364</ele>
        <time>2021-06-20T07:19:00.999Z</time>
      </trkpt>
      <trkpt lat="48.64344" lon="7.82579">
        <ele>132.777366</ele>
        <time>2021-06-20T07:19:02.999Z</time>
      </trkpt>
      <trkpt lat="48.64331" lon="7.82574">
        <ele>132.789401</ele>
        <time>2021-06-20T07:19:04.999Z</time>
      </trkpt>
      <trkpt lat="48.64319" lon="7.8257">
        <ele>132.801408</ele>
        <time>2021-06-20T07:19:06.999Z</time>
      </trkpt>
      <trkpt lat="48.64306" lon="7.82565">
        <ele>132.813639</ele>
        <time>2021-06-20T07:19:08.999Z</time>
      </trkpt>
      <trkpt lat="48.64294" lon="7.82557">
        <ele>132.826256</ele>
        <time>2021-06-20T07:19:10.999Z</time>
      </trkpt>
      <trkpt lat="48.64285" lon="7.82542">
        <ele>132.83898</ele>
        <time>2021-06-20T07:19:12.999Z</time>
      </trkpt>
      <trkpt lat="48.64277" lon="7.82526">
        <ele>132.851186</ele>
        <time>2021-06-20T07:19:14.999Z</time>
      </trkpt>
      <trkpt lat="48.64267" lon="7.82511">
        <ele>132.863931</ele>
        <time>2021-06-20T07:19:16.999Z</time>
      </trkpt>
      <trkpt lat="48.64258" lon="7.82496">
        <ele>132.876677</ele>
        <time>2021-06-20T07:19:18.999Z</time>
      </trkpt>
      <trkpt lat="48.64249" lon="7.82481">
        <ele>132.889152</ele>
        <time>2021-06-20T07:19:20.999Z</time>
      </trkpt>
      <trkpt lat="48.64241" lon="7.82465">
        <ele>132.901849</ele>
        <time>2021-06-20T07:19:22.999Z</time>
      </trkpt>
      <trkpt lat="48.64232" lon="7.82451">
        <ele>132.913906</ele>
        <time>2021-06-20T07:19:24.999Z</time>
      </trkpt>
      <trkpt lat="48.64223" lon="7.82436">
        <ele>132.956636</ele>
        <time>2021-06-20T07:19:26.999Z</time>
      </trkpt>
      <trkpt lat="48.64214" lon="7.82421">
        <ele>133.010031</ele>
        <time>2021-06-20T07:19:28.999Z</time>
      </trkpt>
      <trkpt lat="48.64204" lon="7.82406">
        <ele>133.064968</ele>
        <time>2021-06-20T07:19:30.999Z</time>
      </trkpt>
      <trkpt lat="48.64195" lon="7.8239">
        <ele>133.120291</ele>
        <time>2021-06-20T07:19:32.999Z</time>
      </trkpt>
      <trkpt lat="48.64186" lon="7.82375">
        <ele>133.174017</ele>
        <time>2021-06-20T07:19:34.999Z</time>
      </trkpt>
      <trkpt lat="48.64177" lon="7.8236">
        <ele>133.22695</ele>
        <time>2021-06-20T07:19:36.999Z</time>
      </trkpt>
      <trkpt lat="48.64168" lon="7.82345">
        <ele>133.280491</ele>
        <time>2021-06-20T07:19:38.999Z</time>
      </trkpt>
      <trkpt lat="48.64159" lon="7.8233">
        <ele>133.334421</ele>
        <time>2021-06-20T07:19:40.999Z</time>
      </trkpt>
      <trkpt lat="48.6415" lon="7.82315">
        <ele>133.388508</ele>
        <time>2021-06-20T07:19:42.999Z</time>
      </trkpt>
      <trkpt lat="48.64141" lon="7.823">
        <ele>133.443026</ele>
        <time>2021-06-20T07:19:44.999Z</time>
      </trkpt>
      <trkpt lat="48.64131" lon="7.82285">
        <ele>133.496536</ele>
        <time>2021-06-20T07:19:46.999Z</time>
      </trkpt>
      <trkpt lat="48.64121" lon="7.82273">
        <ele>133.550216</ele>
        <time>2021-06-20T07:19:48.999Z</time>
      </trkpt>
      <trkpt lat="48.64107" lon="7.82267">
        <ele>133.606188</ele>
        <time>2021-06-20T07:19:50.999Z</time>
      </trkpt>
      <trkpt lat="48.64093" lon="7.82268">
        <ele>133.634926</ele>
        <time>2021-06-20T07:19:52.999Z</time>
      </trkpt>
      <trkpt lat="48.6408" lon="7.8227">
        <ele>133.633242</ele>
        <time>2021-06-20T07:19:54.999Z</time>
      </trkpt>
      <trkpt lat="48.64067" lon="7.82272">
        <ele>133.631636</ele>
        <time>2021-06-20T07:19:56.999Z</time>
      </trkpt>
      <trkpt lat="48.64054" lon="7.82274">
        <ele>133.630019</ele>
        <time>2021-06-20T07:19:58.999Z</time>
      </trkpt>
      <trkpt lat="48.64041" lon="7.82276">
        <ele>133.628374</ele>
        <time>2021-06-20T07:20:00.999Z</time>
      </trkpt>
      <trkpt lat="48.64027" lon="7.82278">
        <ele>133.626696</ele>
        <time>2021-06-20T07:20:02.999Z</time>
      </trkpt>
      <trkpt lat="48.64014" lon="7.8228">
        <ele>133.625058</ele>
        <time>2021-06-20T07:20:04.999Z</time>
      </trkpt>
      <trkpt lat="48.64001" lon="7.82281">
        <ele>133.623433</ele>
        <time>2021-06-20T07:20:06.999Z</time>
      </trkpt>
      <trkpt lat="48.63988" lon="7.8228">
        <ele>133.621767</ele>
        <time>2021-06-20T07:20:08.999Z</time>
      </trkpt>
      <trkpt lat="48.63975" lon="7.82273">
        <ele>133.620078</ele>
        <time>2021-06-20T07:20:10.999Z</time>
      </trkpt>
      <trkpt lat="48.63963" lon="7.82264">
        <ele>133.618418</ele>
        <time>2021-06-20T07:20:12.999Z</time>
      </trkpt>
      <trkpt lat="48.63951" lon="7.82255">
        <ele>133.616821</ele>
        <time>2021-06-20T07:20:14.999Z</time>
      </trkpt>
      <trkpt lat="48.63939" lon="7.82246">
        <ele>133.615169</ele>
        <time>2021-06-20T07:20:16.999Z</time>
      </trkpt>
      <trkpt lat="48.63928" lon="7.82237">
        <ele>133.613564</ele>
        <time>2021-06-20T07:20:18.999Z</time>
      </trkpt>
      <trkpt lat="48.63916" lon="7.82228">
        <ele>133.633545</ele>
        <time>2021-06-20T07:20:20.999Z</time>
      </trkpt>
      <trkpt lat="48.63905" lon="7.82219">
        <ele>133.655931</ele>
        <time>2021-06-20T07:20:22.999Z</time>
      </trkpt>
      <trkpt lat="48.63893" lon="7.8221">
        <ele>133.678519</ele>
        <time>2021-06-20T07:20:24.999Z</time>
      </trkpt>
      <trkpt lat="48.63881" lon="7.822">
        <ele>133.700709</ele>
        <time>2021-06-20T07:20:26.999Z</time>
      </trkpt>
      <trkpt lat="48.6387" lon="7.82192">
        <ele>133.721834</ele>
        <time>2021-06-20T07:20:28.999Z</time>
      </trkpt>
      <trkpt lat="48.63859" lon="7.82182">
        <ele>133.74422</ele>
        <time>2021-06-20T07:20:30.999Z</time>
      </trkpt>
      <trkpt lat="48.63847" lon="7.82174">
        <ele>133.765896</ele>
        <time>2021-06-20T07:20:32.999Z</time>
      </trkpt>
      <trkpt lat="48.63836" lon="7.82164">
        <ele>133.788536</ele>
        <time>2021-06-20T07:20:34.999Z</time>
      </trkpt>
      <trkpt lat="48.63824" lon="7.82156">
        <ele>133.810264</ele>
        <time>2021-06-20T07:20:36.999Z</time>
      </trkpt>
      <trkpt lat="48.63813" lon="7.82146">
        <ele>133.831805</ele>
        <time>2021-06-20T07:20:38.999Z</time>
      </trkpt>
      <trkpt lat="48.63802" lon="7.82138">
        <ele>133.85318</ele>
        <time>2021-06-20T07:20:40.999Z</time>
      </trkpt>
      <trkpt lat="48.63791" lon="7.8213">
        <ele>133.873747</ele>
        <time>2021-06-20T07:20:42.999Z</time>
      </trkpt>
      <trkpt lat="48.63779" lon="7.82122">
        <ele>133.894964</ele>
        <time>2021-06-20T07:20:44.999Z</time>
      </trkpt>
      <trkpt lat="48.63767" lon="7.82116">
        <ele>133.917207</ele>
        <time>2021-06-20T07:20:46.999Z</time>
      </trkpt>
      <trkpt lat="48.63754" lon="7.82111">
        <ele>133.932729</ele>
        <time>2021-06-20T07:20:48.999Z</time>
      </trkpt>
      <trkpt lat="48.63741" lon="7.82106">
        <ele>133.947977</ele>
        <time>2021-06-20T07:20:50.999Z</time>
      </trkpt>
      <trkpt lat="48.63729" lon="7.82102">
        <ele>133.961499</ele>
        <time>2021-06-20T07:20:52.999Z</time>
      </trkpt>
      <trkpt lat="48.63719" lon="7.82097">
        <ele>133.974443</ele>
        <time>2021-06-20T07:20:54.999Z</time>
      </trkpt>
      <trkpt lat="48.63708" lon="7.82085">
        <ele>133.989254</ele>
        <time>2021-06-20T07:20:56.999Z</time>
      </trkpt>
      <trkpt lat="48.63699" lon="7.82072">
        <ele>134.003442</ele>
        <time>2021-06-20T07:20:58.999Z</time>
      </trkpt>
      <trkpt lat="48.63686" lon="7.8206">
        <ele>134.020207</ele>
        <time>2021-06-20T07:21:00.999Z</time>
      </trkpt>
      <trkpt lat="48.63674" lon="7.82049">
        <ele>134.036039</ele>
        <time>2021-06-20T07:21:02.999Z</time>
      </trkpt>
      <trkpt lat="48.63664" lon="7.82038">
        <ele>134.050675</ele>
        <time>2021-06-20T07:21:04.999Z</time>
      </trkpt>
      <trkpt lat="48.63654" lon="7.82029">
        <ele>134.063522</ele>
        <time>2021-06-20T07:21:06.999Z</time>
      </trkpt>
      <trkpt lat="48.63644" lon="7.82022">
        <ele>134.076724</ele>
        <time>2021-06-20T07:21:08.999Z</time>
      </trkpt>
      <trkpt lat="48.63633" lon="7.82012">
        <ele>134.090856</ele>
        <time>2021-06-20T07:21:10.999Z</time>
      </trkpt>
      <trkpt lat="48.63621" lon="7.82004">
        <ele>134.105581</ele>
        <time>2021-06-20T07:21:12.999Z</time>
      </trkpt>
      <trkpt lat="48.63608" lon="7.82001">
        <ele>134.119964</ele>
        <time>2021-06-20T07:21:14.999Z</time>
      </trkpt>
      <trkpt lat="48.63597" lon="7.82002">
        <ele>134.12049</ele>
        <time>2021-06-20T07:21:16.999Z</time>
      </trkpt>
      <trkpt lat="48.63585" lon="7.82005">
        <ele>134.117955</ele>
        <time>2021-06-20T07:21:19.999Z</time>
      </trkpt>
      <trkpt lat="48.63576" lon="7.82004">
        <ele>134.115897</ele>
        <time>2021-06-20T07:21:22.999Z</time>
      </trkpt>
      <trkpt lat="48.63561" lon="7.82007">
        <ele>134.112572</ele>
        <time>2021-06-20T07:21:25.999Z</time>
      </trkpt>
      <trkpt lat="48.63551" lon="7.8201">
        <ele>134.110387</ele>
        <time>2021-06-20T07:21:27.999Z</time>
      </trkpt>
      <trkpt lat="48.6354" lon="7.82013">
        <ele>134.108148</ele>
        <time>2021-06-20T07:21:29.999Z</time>
      </trkpt>
      <trkpt lat="48.63527" lon="7.82018">
        <ele>134.105078</ele>
        <time>2021-06-20T07:21:32.999Z</time>
      </trkpt>
      <trkpt lat="48.63516" lon="7.82021">
        <ele>134.102692</ele>
        <time>2021-06-20T07:21:34.999Z</time>
      </trkpt>
      <trkpt lat="48.63505" lon="7.82025">
        <ele>134.100351</ele>
        <time>2021-06-20T07:21:36.999Z</time>
      </trkpt>
      <trkpt lat="48.63492" lon="7.82026">
        <ele>134.097456</ele>
        <time>2021-06-20T07:21:38.999Z</time>
      </trkpt>
      <trkpt lat="48.63481" lon="7.8203">
        <ele>134.095083</ele>
        <time>2021-06-20T07:21:40.999Z</time>
      </trkpt>
      <trkpt lat="48.63467" lon="7.82031">
        <ele>134.092119</ele>
        <time>2021-06-20T07:21:42.999Z</time>
      </trkpt>
      <trkpt lat="48.63453" lon="7.82035">
        <ele>134.089072</ele>
        <time>2021-06-20T07:21:44.999Z</time>
      </trkpt>
      <trkpt lat="48.63441" lon="7.82038">
        <ele>134.086324</ele>
        <time>2021-06-20T07:21:46.999Z</time>
      </trkpt>
      <trkpt lat="48.63427" lon="7.82042">
        <ele>134.089578</ele>
        <time>2021-06-20T07:21:48.999Z</time>
      </trkpt>
      <trkpt lat="48.63415" lon="7.82044">
        <ele>134.13566</ele>
        <time>2021-06-20T07:21:50.999Z</time>
      </trkpt>
      <trkpt lat="48.63401" lon="7.82046">
        <ele>134.186491</ele>
        <time>2021-06-20T07:21:52.999Z</time>
      </trkpt>
      <trkpt lat="48.63388" lon="7.82049">
        <ele>134.23505</ele>
        <time>2021-06-20T07:21:54.999Z</time>
      </trkpt>
      <trkpt lat="48.63377" lon="7.82053">
        <ele>134.278624</ele>
        <time>2021-06-20T07:21:56.999Z</time>
      </trkpt>
      <trkpt lat="48.63366" lon="7.82056">
        <ele>134.320773</ele>
        <time>2021-06-20T07:21:58.999Z</time>
      </trkpt>
      <trkpt lat="48.63353" lon="7.82057">
        <ele>134.368179</ele>
        <time>2021-06-20T07:22:00.999Z</time>
      </trkpt>
      <trkpt lat="48.63341" lon="7.82051">
        <ele>134.415304</ele>
        <time>2021-06-20T07:22:02.999Z</time>
      </trkpt>
      <trkpt lat="48.63329" lon="7.82036">
        <ele>134.474189</ele>
        <time>2021-06-20T07:22:04.999Z</time>
      </trkpt>
      <trkpt lat="48.63317" lon="7.82025">
        <ele>134.525463</ele>
        <time>2021-06-20T07:22:06.999Z</time>
      </trkpt>
      <trkpt lat="48.63307" lon="7.82021">
        <ele>134.563375</ele>
        <time>2021-06-20T07:22:08.999Z</time>
      </trkpt>
      <trkpt lat="48.63296" lon="7.82014">
        <ele>134.608303</ele>
        <time>2021-06-20T07:22:10.999Z</time>
      </trkpt>
      <trkpt lat="48.63287" lon="7.82009">
        <ele>134.641748</ele>
        <time>2021-06-20T07:22:11.999Z</time>
      </trkpt>
      <trkpt lat="48.63276" lon="7.82">
        <ele>134.689235</ele>
        <time>2021-06-20T07:22:13.999Z</time>
      </trkpt>
      <trkpt lat="48.63264" lon="7.8199">
        <ele>134.738767</ele>
        <time>2021-06-20T07:22:15.999Z</time>
      </trkpt>
      <trkpt lat="48.63251" lon="7.81981">
        <ele>134.77382</ele>
        <time>2021-06-20T07:22:17.999Z</time>
      </trkpt>
      <trkpt lat="48.63238" lon="7.8197">
        <ele>134.804322</ele>
        <time>2021-06-20T07:22:19.999Z</time>
      </trkpt>
      <trkpt lat="48.63228" lon="7.81961">
        <ele>134.826114</ele>
        <time>2021-06-20T07:22:21.999Z</time>
      </trkpt>
      <trkpt lat="48.63218" lon="7.81951">
        <ele>134.850988</ele>
        <time>2021-06-20T07:22:23.999Z</time>
      </trkpt>
      <trkpt lat="48.63206" lon="7.81942">
        <ele>134.878362</ele>
        <time>2021-06-20T07:22:25.999Z</time>
      </trkpt>
      <trkpt lat="48.63194" lon="7.81936">
        <ele>134.904066</ele>
        <time>2021-06-20T07:22:27.999Z</time>
      </trkpt>
      <trkpt lat="48.63184" lon="7.81929">
        <ele>134.926612</ele>
        <time>2021-06-20T07:22:29.999Z</time>
      </trkpt>
      <trkpt lat="48.63174" lon="7.81921">
        <ele>134.950148</ele>
        <time>2021-06-20T07:22:31.999Z</time>
      </trkpt>
      <trkpt lat="48.63177" lon="7.81902">
        <ele>134.976016</ele>
        <time>2021-06-20T07:22:33.999Z</time>
      </trkpt>
      <trkpt lat="48.6318" lon="7.81883">
        <ele>135.00225</ele>
        <time>2021-06-20T07:22:36.999Z</time>
      </trkpt>
      <trkpt lat="48.63179" lon="7.81867">
        <ele>135.023818</ele>
        <time>2021-06-20T07:22:38.999Z</time>
      </trkpt>
      <trkpt lat="48.6318" lon="7.81852">
        <ele>135.044216</ele>
        <time>2021-06-20T07:22:40.999Z</time>
      </trkpt>
      <trkpt lat="48.63183" lon="7.81836">
        <ele>135.066408</ele>
        <time>2021-06-20T07:22:42.999Z</time>
      </trkpt>
      <trkpt lat="48.63177" lon="7.81822">
        <ele>135.088518</ele>
        <time>2021-06-20T07:22:44.999Z</time>
      </trkpt>
      <trkpt lat="48.63171" lon="7.81808">
        <ele>135.110168</ele>
        <time>2021-06-20T07:22:46.999Z</time>
      </trkpt>
      <trkpt lat="48.63163" lon="7.81795">
        <ele>135.152738</ele>
        <time>2021-06-20T07:22:49.999Z</time>
      </trkpt>
      <trkpt lat="48.63158" lon="7.81781">
        <ele>135.191002</ele>
        <time>2021-06-20T07:22:51.999Z</time>
      </trkpt>
      <trkpt lat="48.63156" lon="7.81765">
        <ele>135.230986</ele>
        <time>2021-06-20T07:22:53.999Z</time>
      </trkpt>
      <trkpt lat="48.63151" lon="7.81751">
        <ele>135.270533</ele>
        <time>2021-06-20T07:22:55.999Z</time>
      </trkpt>
      <trkpt lat="48.63147" lon="7.81738">
        <ele>135.307409</ele>
        <time>2021-06-20T07:22:57.999Z</time>
      </trkpt>
      <trkpt lat="48.63139" lon="7.8173">
        <ele>135.344204</ele>
        <time>2021-06-20T07:23:00.999Z</time>
      </trkpt>
      <trkpt lat="48.63125" lon="7.81715">
        <ele>135.409487</ele>
        <time>2021-06-20T07:23:02.999Z</time>
      </trkpt>
      <trkpt lat="48.63114" lon="7.81706">
        <ele>135.455683</ele>
        <time>2021-06-20T07:23:04.999Z</time>
      </trkpt>
      <trkpt lat="48.63107" lon="7.81689">
        <ele>135.507792</ele>
        <time>2021-06-20T07:23:06.999Z</time>
      </trkpt>
      <trkpt lat="48.63104" lon="7.81676">
        <ele>135.5431</ele>
        <time>2021-06-20T07:23:08.999Z</time>
      </trkpt>
      <trkpt lat="48.63098" lon="7.81659">
        <ele>135.591284</ele>
        <time>2021-06-20T07:23:11.999Z</time>
      </trkpt>
      <trkpt lat="48.63092" lon="7.81641">
        <ele>135.641553</ele>
        <time>2021-06-20T07:23:13.999Z</time>
      </trkpt>
      <trkpt lat="48.63085" lon="7.81626">
        <ele>135.686801</ele>
        <time>2021-06-20T07:23:16.999Z</time>
      </trkpt>
      <trkpt lat="48.6308" lon="7.8161">
        <ele>135.732666</ele>
        <time>2021-06-20T07:23:18.999Z</time>
      </trkpt>
      <trkpt lat="48.63072" lon="7.81598">
        <ele>135.77443</ele>
        <time>2021-06-20T07:23:20.999Z</time>
      </trkpt>
      <trkpt lat="48.63067" lon="7.81586">
        <ele>135.799162</ele>
        <time>2021-06-20T07:23:22.999Z</time>
      </trkpt>
      <trkpt lat="48.63064" lon="7.81568">
        <ele>135.79093</ele>
        <time>2021-06-20T07:23:24.999Z</time>
      </trkpt>
      <trkpt lat="48.63058" lon="7.81546">
        <ele>135.780294</ele>
        <time>2021-06-20T07:23:26.999Z</time>
      </trkpt>
      <trkpt lat="48.6305" lon="7.81534">
        <ele>135.772806</ele>
        <time>2021-06-20T07:23:28.999Z</time>
      </trkpt>
      <trkpt lat="48.63041" lon="7.81518">
        <ele>135.763526</ele>
        <time>2021-06-20T07:23:31.999Z</time>
      </trkpt>
      <trkpt lat="48.63033" lon="7.81505">
        <ele>135.755169</ele>
        <time>2021-06-20T07:23:34.999Z</time>
      </trkpt>
      <trkpt lat="48.63021" lon="7.81501">
        <ele>135.747158</ele>
        <time>2021-06-20T07:23:36.999Z</time>
      </trkpt>
      <trkpt lat="48.63011" lon="7.81494">
        <ele>135.739529</ele>
        <time>2021-06-20T07:23:38.999Z</time>
      </trkpt>
      <trkpt lat="48.63004" lon="7.8148">
        <ele>135.73204</ele>
        <time>2021-06-20T07:23:40.999Z</time>
      </trkpt>
      <trkpt lat="48.62994" lon="7.81466">
        <ele>135.722469</ele>
        <time>2021-06-20T07:23:42.999Z</time>
      </trkpt>
      <trkpt lat="48.62991" lon="7.81452">
        <ele>135.716233</ele>
        <time>2021-06-20T07:23:44.999Z</time>
      </trkpt>
      <trkpt lat="48.62986" lon="7.81441">
        <ele>135.709989</ele>
        <time>2021-06-20T07:23:48.999Z</time>
      </trkpt>
      <trkpt lat="48.62978" lon="7.81434">
        <ele>135.703891</ele>
        <time>2021-06-20T07:24:10.999Z</time>
      </trkpt>
      <trkpt lat="48.62978" lon="7.81419">
        <ele>135.697123</ele>
        <time>2021-06-20T07:24:37.999Z</time>
      </trkpt>
      <trkpt lat="48.6297" lon="7.81412">
        <ele>135.690602</ele>
        <time>2021-06-20T07:24:41.999Z</time>
      </trkpt>
      <trkpt lat="48.62962" lon="7.81397">
        <ele>135.682137</ele>
        <time>2021-06-20T07:24:44.999Z</time>
      </trkpt>
      <trkpt lat="48.62953" lon="7.81385">
        <ele>135.656379</ele>
        <time>2021-06-20T07:24:47.999Z</time>
      </trkpt>
      <trkpt lat="48.62945" lon="7.81376">
        <ele>135.62221</ele>
        <time>2021-06-20T07:24:50.999Z</time>
      </trkpt>
      <trkpt lat="48.62938" lon="7.81364">
        <ele>135.588708</ele>
        <time>2021-06-20T07:24:54.999Z</time>
      </trkpt>
      <trkpt lat="48.62929" lon="7.81352">
        <ele>135.547846</ele>
        <time>2021-06-20T07:24:57.999Z</time>
      </trkpt>
      <trkpt lat="48.62922" lon="7.81342">
        <ele>135.515718</ele>
        <time>2021-06-20T07:24:59.999Z</time>
      </trkpt>
      <trkpt lat="48.62911" lon="7.81327">
        <ele>135.467258</ele>
        <time>2021-06-20T07:25:02.999Z</time>
      </trkpt>
      <trkpt lat="48.62903" lon="7.81318">
        <ele>135.433892</ele>
        <time>2021-06-20T07:25:04.999Z</time>
      </trkpt>
      <trkpt lat="48.62894" lon="7.81307">
        <ele>135.396207</ele>
        <time>2021-06-20T07:25:06.999Z</time>
      </trkpt>
      <trkpt lat="48.62885" lon="7.81294">
        <ele>135.356281</ele>
        <time>2021-06-20T07:25:09.999Z</time>
      </trkpt>
      <trkpt lat="48.62877" lon="7.81284">
        <ele>135.323175</ele>
        <time>2021-06-20T07:25:11.999Z</time>
      </trkpt>
      <trkpt lat="48.6287" lon="7.81274">
        <ele>135.291344</ele>
        <time>2021-06-20T07:25:13.999Z</time>
      </trkpt>
      <trkpt lat="48.62863" lon="7.81264">
        <ele>135.260461</ele>
        <time>2021-06-20T07:25:15.999Z</time>
      </trkpt>
      <trkpt lat="48.62854" lon="7.81255">
        <ele>135.223911</ele>
        <time>2021-06-20T07:25:17.999Z</time>
      </trkpt>
      <trkpt lat="48.62846" lon="7.81246">
        <ele>135.189626</ele>
        <time>2021-06-20T07:25:19.999Z</time>
      </trkpt>
      <trkpt lat="48.6284" lon="7.81231">
        <ele>135.153065</ele>
        <time>2021-06-20T07:25:22.999Z</time>
      </trkpt>
      <trkpt lat="48.62831" lon="7.8122">
        <ele>135.114462</ele>
        <time>2021-06-20T07:25:24.999Z</time>
      </trkpt>
      <trkpt lat="48.62822" lon="7.81208">
        <ele>135.102611</ele>
        <time>2021-06-20T07:25:26.999Z</time>
      </trkpt>
      <trkpt lat="48.62811" lon="7.81194">
        <ele>135.145757</ele>
        <time>2021-06-20T07:25:29.999Z</time>
      </trkpt>
      <trkpt lat="48.62803" lon="7.81182">
        <ele>135.181702</ele>
        <time>2021-06-20T07:25:31.999Z</time>
      </trkpt>
      <trkpt lat="48.62794" lon="7.81174">
        <ele>135.212127</ele>
        <time>2021-06-20T07:25:33.999Z</time>
      </trkpt>
      <trkpt lat="48.62787" lon="7.81164">
        <ele>135.241838</ele>
        <time>2021-06-20T07:25:36.999Z</time>
      </trkpt>
      <trkpt lat="48.62781" lon="7.81179">
        <ele>135.278108</ele>
        <time>2021-06-20T07:25:41.999Z</time>
      </trkpt>
      <trkpt lat="48.62777" lon="7.81195">
        <ele>135.313273</ele>
        <time>2021-06-20T07:25:44.999Z</time>
      </trkpt>
      <trkpt lat="48.62775" lon="7.8121">
        <ele>135.343825</ele>
        <time>2021-06-20T07:25:46.999Z</time>
      </trkpt>
      <trkpt lat="48.62773" lon="7.81223">
        <ele>135.371868</ele>
        <time>2021-06-20T07:25:48.999Z</time>
      </trkpt>
      <trkpt lat="48.62773" lon="7.81237">
        <ele>135.399979</ele>
        <time>2021-06-20T07:25:50.999Z</time>
      </trkpt>
      <trkpt lat="48.62766" lon="7.81245">
        <ele>135.429054</ele>
        <time>2021-06-20T07:25:54.999Z</time>
      </trkpt>
      <trkpt lat="48.62759" lon="7.81232">
        <ele>135.463125</ele>
        <time>2021-06-20T07:25:57.999Z</time>
      </trkpt>
      <trkpt lat="48.62751" lon="7.81217">
        <ele>135.501346</ele>
        <time>2021-06-20T07:26:00.999Z</time>
      </trkpt>
      <trkpt lat="48.62741" lon="7.81202">
        <ele>135.54542</ele>
        <time>2021-06-20T07:26:03.999Z</time>
      </trkpt>
      <trkpt lat="48.62733" lon="7.81187">
        <ele>135.586617</ele>
        <time>2021-06-20T07:26:06.999Z</time>
      </trkpt>
      <trkpt lat="48.62726" lon="7.81177">
        <ele>135.615756</ele>
        <time>2021-06-20T07:26:08.999Z</time>
      </trkpt>
      <trkpt lat="48.62719" lon="7.81163">
        <ele>135.634801</ele>
        <time>2021-06-20T07:26:10.999Z</time>
      </trkpt>
      <trkpt lat="48.62713" lon="7.81152">
        <ele>135.574496</ele>
        <time>2021-06-20T07:26:12.999Z</time>
      </trkpt>
      <trkpt lat="48.62706" lon="7.81139">
        <ele>135.500919</ele>
        <time>2021-06-20T07:26:14.999Z</time>
      </trkpt>
      <trkpt lat="48.627" lon="7.81126">
        <ele>135.434481</ele>
        <time>2021-06-20T07:26:16.999Z</time>
      </trkpt>
      <trkpt lat="48.62694" lon="7.81114">
        <ele>135.365199</ele>
        <time>2021-06-20T07:26:18.999Z</time>
      </trkpt>
      <trkpt lat="48.62687" lon="7.811">
        <ele>135.290642</ele>
        <time>2021-06-20T07:26:20.999Z</time>
      </trkpt>
      <trkpt lat="48.6268" lon="7.81088">
        <ele>135.220861</ele>
        <time>2021-06-20T07:26:22.999Z</time>
      </trkpt>
      <trkpt lat="48.62674" lon="7.81072">
        <ele>135.142391</ele>
        <time>2021-06-20T07:26:25.999Z</time>
      </trkpt>
      <trkpt lat="48.62666" lon="7.81059">
        <ele>135.064899</ele>
        <time>2021-06-20T07:26:27.999Z</time>
      </trkpt>
      <trkpt lat="48.62656" lon="7.81046">
        <ele>134.977141</ele>
        <time>2021-06-20T07:26:29.999Z</time>
      </trkpt>
      <trkpt lat="48.62647" lon="7.81038">
        <ele>134.90848</ele>
        <time>2021-06-20T07:26:31.999Z</time>
      </trkpt>
      <trkpt lat="48.62633" lon="7.8103">
        <ele>134.811937</ele>
        <time>2021-06-20T07:26:34.999Z</time>
      </trkpt>
      <trkpt lat="48.62623" lon="7.81037">
        <ele>134.741133</ele>
        <time>2021-06-20T07:26:38.999Z</time>
      </trkpt>
      <trkpt lat="48.62618" lon="7.81053">
        <ele>134.663727</ele>
        <time>2021-06-20T07:26:41.999Z</time>
      </trkpt>
      <trkpt lat="48.6261" lon="7.81068">
        <ele>134.579352</ele>
        <time>2021-06-20T07:26:44.999Z</time>
      </trkpt>
      <trkpt lat="48.62601" lon="7.81079">
        <ele>134.499661</ele>
        <time>2021-06-20T07:26:47.999Z</time>
      </trkpt>
      <trkpt lat="48.62594" lon="7.81093">
        <ele>134.484377</ele>
        <time>2021-06-20T07:26:49.999Z</time>
      </trkpt>
      <trkpt lat="48.62586" lon="7.81104">
        <ele>134.523838</ele>
        <time>2021-06-20T07:26:51.999Z</time>
      </trkpt>
      <trkpt lat="48.62577" lon="7.81112">
        <ele>134.567349</ele>
        <time>2021-06-20T07:26:53.999Z</time>
      </trkpt>
      <trkpt lat="48.62568" lon="7.81119">
        <ele>134.60549</ele>
        <time>2021-06-20T07:26:55.999Z</time>
      </trkpt>
      <trkpt lat="48.62556" lon="7.81127">
        <ele>134.654636</ele>
        <time>2021-06-20T07:26:57.999Z</time>
      </trkpt>
      <trkpt lat="48.62545" lon="7.81132">
        <ele>134.700393</ele>
        <time>2021-06-20T07:26:59.999Z</time>
      </trkpt>
      <trkpt lat="48.62533" lon="7.81134">
        <ele>134.744837</ele>
        <time>2021-06-20T07:27:01.999Z</time>
      </trkpt>
      <trkpt lat="48.62523" lon="7.81135">
        <ele>134.783787</ele>
        <time>2021-06-20T07:27:03.999Z</time>
      </trkpt>
      <trkpt lat="48.62513" lon="7.81134">
        <ele>134.824702</ele>
        <time>2021-06-20T07:27:05.999Z</time>
      </trkpt>
      <trkpt lat="48.62499" lon="7.81133">
        <ele>134.879144</ele>
        <time>2021-06-20T07:27:07.999Z</time>
      </trkpt>
      <trkpt lat="48.62487" lon="7.8113">
        <ele>134.924048</ele>
        <time>2021-06-20T07:27:09.999Z</time>
      </trkpt>
      <trkpt lat="48.62474" lon="7.81128">
        <ele>134.974735</ele>
        <time>2021-06-20T07:27:12.999Z</time>
      </trkpt>
      <trkpt lat="48.62465" lon="7.81125">
        <ele>135.010694</ele>
        <time>2021-06-20T07:27:14.999Z</time>
      </trkpt>
      <trkpt lat="48.62453" lon="7.81122">
        <ele>135.058472</ele>
        <time>2021-06-20T07:27:17.999Z</time>
      </trkpt>
      <trkpt lat="48.62441" lon="7.81114">
        <ele>135.108722</ele>
        <time>2021-06-20T07:27:20.999Z</time>
      </trkpt>
      <trkpt lat="48.62429" lon="7.81107">
        <ele>135.156027</ele>
        <time>2021-06-20T07:27:22.999Z</time>
      </trkpt>
      <trkpt lat="48.62419" lon="7.81103">
        <ele>135.15613</ele>
        <time>2021-06-20T07:27:24.999Z</time>
      </trkpt>
      <trkpt lat="48.62407" lon="7.81096">
        <ele>135.156254</ele>
        <time>2021-06-20T07:27:26.999Z</time>
      </trkpt>
      <trkpt lat="48.62396" lon="7.81089">
        <ele>135.156374</ele>
        <time>2021-06-20T07:27:28.999Z</time>
      </trkpt>
      <trkpt lat="48.62384" lon="7.81084">
        <ele>135.156496</ele>
        <time>2021-06-20T07:27:31.999Z</time>
      </trkpt>
      <trkpt lat="48.62375" lon="7.81079">
        <ele>135.15659</ele>
        <time>2021-06-20T07:27:33.999Z</time>
      </trkpt>
      <trkpt lat="48.62365" lon="7.81066">
        <ele>135.156724</ele>
        <time>2021-06-20T07:27:35.999Z</time>
      </trkpt>
      <trkpt lat="48.62355" lon="7.81057">
        <ele>135.156838</ele>
        <time>2021-06-20T07:27:37.999Z</time>
      </trkpt>
      <trkpt lat="48.62346" lon="7.81048">
        <ele>135.156943</ele>
        <time>2021-06-20T07:27:39.999Z</time>
      </trkpt>
      <trkpt lat="48.62335" lon="7.81039">
        <ele>135.157071</ele>
        <time>2021-06-20T07:27:41.999Z</time>
      </trkpt>
      <trkpt lat="48.62324" lon="7.81032">
        <ele>135.157187</ele>
        <time>2021-06-20T07:27:43.999Z</time>
      </trkpt>
      <trkpt lat="48.62317" lon="7.81017">
        <ele>135.15731</ele>
        <time>2021-06-20T07:27:45.999Z</time>
      </trkpt>
      <trkpt lat="48.62311" lon="7.81">
        <ele>135.157433</ele>
        <time>2021-06-20T07:27:47.999Z</time>
      </trkpt>
      <trkpt lat="48.62301" lon="7.80988">
        <ele>135.157556</ele>
        <time>2021-06-20T07:27:49.999Z</time>
      </trkpt>
      <trkpt lat="48.62288" lon="7.80977">
        <ele>135.157706</ele>
        <time>2021-06-20T07:27:52.999Z</time>
      </trkpt>
      <trkpt lat="48.62273" lon="7.80972">
        <ele>135.142085</ele>
        <time>2021-06-20T07:27:54.999Z</time>
      </trkpt>
      <trkpt lat="48.6226" lon="7.80972">
        <ele>135.099706</ele>
        <time>2021-06-20T07:27:56.999Z</time>
      </trkpt>
      <trkpt lat="48.62248" lon="7.8097">
        <ele>135.060605</ele>
        <time>2021-06-20T07:27:58.999Z</time>
      </trkpt>
      <trkpt lat="48.62235" lon="7.80964">
        <ele>135.019183</ele>
        <time>2021-06-20T07:28:00.999Z</time>
      </trkpt>
      <trkpt lat="48.62226" lon="7.8096">
        <ele>134.990701</ele>
        <time>2021-06-20T07:28:02.999Z</time>
      </trkpt>
      <trkpt lat="48.62215" lon="7.80958">
        <ele>134.953742</ele>
        <time>2021-06-20T07:28:04.999Z</time>
      </trkpt>
      <trkpt lat="48.62203" lon="7.80962">
        <ele>134.914952</ele>
        <time>2021-06-20T07:28:06.999Z</time>
      </trkpt>
      <trkpt lat="48.62191" lon="7.80969">
        <ele>134.875168</ele>
        <time>2021-06-20T07:28:08.999Z</time>
      </trkpt>
      <trkpt lat="48.62179" lon="7.80969">
        <ele>134.838127</ele>
        <time>2021-06-20T07:28:10.999Z</time>
      </trkpt>
      <trkpt lat="48.62168" lon="7.80979">
        <ele>134.798327</ele>
        <time>2021-06-20T07:28:13.999Z</time>
      </trkpt>
      <trkpt lat="48.62162" lon="7.80994">
        <ele>134.762428</ele>
        <time>2021-06-20T07:28:16.999Z</time>
      </trkpt>
      <trkpt lat="48.62158" lon="7.81011">
        <ele>134.724996</ele>
        <time>2021-06-20T07:28:19.999Z</time>
      </trkpt>
      <trkpt lat="48.62157" lon="7.81026">
        <ele>134.691674</ele>
        <time>2021-06-20T07:28:22.999Z</time>
      </trkpt>
      <trkpt lat="48.62154" lon="7.8104">
        <ele>134.663295</ele>
        <time>2021-06-20T07:28:24.999Z</time>
      </trkpt>
      <trkpt lat="48.62153" lon="7.81054">
        <ele>134.633458</ele>
        <time>2021-06-20T07:28:27.999Z</time>
      </trkpt>
      <trkpt lat="48.6215" lon="7.81068">
        <ele>134.603969</ele>
        <time>2021-06-20T07:28:34.999Z</time>
      </trkpt>
      <trkpt lat="48.62146" lon="7.81081">
        <ele>134.575863</ele>
        <time>2021-06-20T07:28:48.999Z</time>
      </trkpt>
      <trkpt lat="48.62147" lon="7.81097">
        <ele>134.549651</ele>
        <time>2021-06-20T07:28:52.999Z</time>
      </trkpt>
      <trkpt lat="48.62146" lon="7.8111">
        <ele>134.526109</ele>
        <time>2021-06-20T07:28:55.999Z</time>
      </trkpt>
      <trkpt lat="48.62144" lon="7.81129">
        <ele>134.493713</ele>
        <time>2021-06-20T07:28:58.999Z</time>
      </trkpt>
      <trkpt lat="48.62141" lon="7.81148">
        <ele>134.459383</ele>
        <time>2021-06-20T07:29:01.999Z</time>
      </trkpt>
      <trkpt lat="48.62139" lon="7.81167">
        <ele>134.426589</ele>
        <time>2021-06-20T07:29:04.999Z</time>
      </trkpt>
      <trkpt lat="48.62137" lon="7.81184">
        <ele>134.396736</ele>
        <time>2021-06-20T07:29:06.999Z</time>
      </trkpt>
      <trkpt lat="48.62135" lon="7.81201">
        <ele>134.366004</ele>
        <time>2021-06-20T07:29:08.999Z</time>
      </trkpt>
      <trkpt lat="48.62132" lon="7.81216">
        <ele>134.338626</ele>
        <time>2021-06-20T07:29:10.999Z</time>
      </trkpt>
      <trkpt lat="48.62128" lon="7.81231">
        <ele>134.311414</ele>
        <time>2021-06-20T07:29:12.999Z</time>
      </trkpt>
      <trkpt lat="48.62124" lon="7.81245">
        <ele>134.285303</ele>
        <time>2021-06-20T07:29:14.999Z</time>
      </trkpt>
      <trkpt lat="48.62122" lon="7.81262">
        <ele>134.255418</ele>
        <time>2021-06-20T07:29:17.999Z</time>
      </trkpt>
      <trkpt lat="48.62118" lon="7.81282">
        <ele>134.22005</ele>
        <time>2021-06-20T07:29:20.999Z</time>
      </trkpt>
      <trkpt lat="48.62114" lon="7.81298">
        <ele>134.189988</ele>
        <time>2021-06-20T07:29:22.999Z</time>
      </trkpt>
      <trkpt lat="48.62108" lon="7.81315">
        <ele>134.157149</ele>
        <time>2021-06-20T07:29:24.999Z</time>
      </trkpt>
      <trkpt lat="48.62104" lon="7.81333">
        <ele>134.123087</ele>
        <time>2021-06-20T07:29:26.999Z</time>
      </trkpt>
      <trkpt lat="48.62097" lon="7.8135">
        <ele>134.174344</ele>
        <time>2021-06-20T07:29:28.999Z</time>
      </trkpt>
      <trkpt lat="48.62092" lon="7.81367">
        <ele>134.222685</ele>
        <time>2021-06-20T07:29:30.999Z</time>
      </trkpt>
      <trkpt lat="48.62088" lon="7.81385">
        <ele>134.273213</ele>
        <time>2021-06-20T07:29:32.999Z</time>
      </trkpt>
      <trkpt lat="48.62084" lon="7.81398">
        <ele>134.312732</ele>
        <time>2021-06-20T07:29:34.999Z</time>
      </trkpt>
      <trkpt lat="48.62079" lon="7.8141">
        <ele>134.349385</ele>
        <time>2021-06-20T07:29:36.999Z</time>
      </trkpt>
      <trkpt lat="48.62075" lon="7.81425">
        <ele>134.391717</ele>
        <time>2021-06-20T07:29:38.999Z</time>
      </trkpt>
      <trkpt lat="48.62067" lon="7.81441">
        <ele>134.442668</ele>
        <time>2021-06-20T07:29:40.999Z</time>
      </trkpt>
      <trkpt lat="48.62063" lon="7.81456">
        <ele>134.486115</ele>
        <time>2021-06-20T07:29:42.999Z</time>
      </trkpt>
      <trkpt lat="48.62058" lon="7.81468">
        <ele>134.523432</ele>
        <time>2021-06-20T07:29:44.999Z</time>
      </trkpt>
      <trkpt lat="48.62049" lon="7.81487">
        <ele>134.58631</ele>
        <time>2021-06-20T07:29:46.999Z</time>
      </trkpt>
      <trkpt lat="48.62047" lon="7.81505">
        <ele>134.632395</ele>
        <time>2021-06-20T07:29:48.999Z</time>
      </trkpt>
      <trkpt lat="48.62048" lon="7.81522">
        <ele>134.678149</ele>
        <time>2021-06-20T07:29:50.999Z</time>
      </trkpt>
      <trkpt lat="48.6205" lon="7.81539">
        <ele>134.722639</ele>
        <time>2021-06-20T07:29:52.999Z</time>
      </trkpt>
      <trkpt lat="48.62056" lon="7.81555">
        <ele>134.770965</ele>
        <time>2021-06-20T07:29:54.999Z</time>
      </trkpt>
      <trkpt lat="48.62061" lon="7.81569">
        <ele>134.813361</ele>
        <time>2021-06-20T07:29:56.999Z</time>
      </trkpt>
      <trkpt lat="48.62064" lon="7.81589">
        <ele>134.8766</ele>
        <time>2021-06-20T07:29:58.999Z</time>
      </trkpt>
      <trkpt lat="48.62062" lon="7.81605">
        <ele>134.932218</ele>
        <time>2021-06-20T07:30:00.999Z</time>
      </trkpt>
      <trkpt lat="48.62058" lon="7.81622">
        <ele>134.996308</ele>
        <time>2021-06-20T07:30:03.999Z</time>
      </trkpt>
      <trkpt lat="48.62054" lon="7.81639">
        <ele>135.056773</ele>
        <time>2021-06-20T07:30:06.999Z</time>
      </trkpt>
      <trkpt lat="48.62042" lon="7.81648">
        <ele>135.123341</ele>
        <time>2021-06-20T07:30:09.999Z</time>
      </trkpt>
      <trkpt lat="48.62032" lon="7.81652">
        <ele>135.177977</ele>
        <time>2021-06-20T07:30:11.999Z</time>
      </trkpt>
      <trkpt lat="48.6202" lon="7.81651">
        <ele>135.241913</ele>
        <time>2021-06-20T07:30:14.999Z</time>
      </trkpt>
      <trkpt lat="48.62008" lon="7.81644">
        <ele>135.306223</ele>
        <time>2021-06-20T07:30:17.999Z</time>
      </trkpt>
      <trkpt lat="48.61998" lon="7.81634">
        <ele>135.373403</ele>
        <time>2021-06-20T07:30:19.999Z</time>
      </trkpt>
      <trkpt lat="48.61988" lon="7.81624">
        <ele>135.431768</ele>
        <time>2021-06-20T07:30:21.999Z</time>
      </trkpt>
      <trkpt lat="48.61977" lon="7.81613">
        <ele>135.498717</ele>
        <time>2021-06-20T07:30:23.999Z</time>
      </trkpt>
      <trkpt lat="48.61969" lon="7.81605">
        <ele>135.552402</ele>
        <time>2021-06-20T07:30:25.999Z</time>
      </trkpt>
      <trkpt lat="48.61959" lon="7.816">
        <ele>135.604059</ele>
        <time>2021-06-20T07:30:27.999Z</time>
      </trkpt>
      <trkpt lat="48.61947" lon="7.81593">
        <ele>135.671159</ele>
        <time>2021-06-20T07:30:29.999Z</time>
      </trkpt>
      <trkpt lat="48.61934" lon="7.8159">
        <ele>135.743434</ele>
        <time>2021-06-20T07:30:32.999Z</time>
      </trkpt>
      <trkpt lat="48.61924" lon="7.81584">
        <ele>135.773788</ele>
        <time>2021-06-20T07:30:33.999Z</time>
      </trkpt>
      <trkpt lat="48.61908" lon="7.81581">
        <ele>135.78295</ele>
        <time>2021-06-20T07:30:35.999Z</time>
      </trkpt>
      <trkpt lat="48.61896" lon="7.81581">
        <ele>135.789888</ele>
        <time>2021-06-20T07:30:37.999Z</time>
      </trkpt>
      <trkpt lat="48.61882" lon="7.8158">
        <ele>135.79755</ele>
        <time>2021-06-20T07:30:39.999Z</time>
      </trkpt>
      <trkpt lat="48.6187" lon="7.81584">
        <ele>135.804432</ele>
        <time>2021-06-20T07:30:41.999Z</time>
      </trkpt>
      <trkpt lat="48.61857" lon="7.81584">
        <ele>135.811367</ele>
        <time>2021-06-20T07:30:43.999Z</time>
      </trkpt>
      <trkpt lat="48.61842" lon="7.81578">
        <ele>135.819943</ele>
        <time>2021-06-20T07:30:45.999Z</time>
      </trkpt>
      <trkpt lat="48.6183" lon="7.81572">
        <ele>135.827152</ele>
        <time>2021-06-20T07:30:47.999Z</time>
      </trkpt>
      <trkpt lat="48.61821" lon="7.81566">
        <ele>135.832632</ele>
        <time>2021-06-20T07:30:49.999Z</time>
      </trkpt>
      <trkpt lat="48.61809" lon="7.81562">
        <ele>135.839637</ele>
        <time>2021-06-20T07:30:51.999Z</time>
      </trkpt>
      <trkpt lat="48.61796" lon="7.81565">
        <ele>135.847026</ele>
        <time>2021-06-20T07:30:53.999Z</time>
      </trkpt>
      <trkpt lat="48.61785" lon="7.81578">
        <ele>135.854903</ele>
        <time>2021-06-20T07:30:55.999Z</time>
      </trkpt>
      <trkpt lat="48.61775" lon="7.81588">
        <ele>135.86151</ele>
        <time>2021-06-20T07:30:57.999Z</time>
      </trkpt>
      <trkpt lat="48.61762" lon="7.81593">
        <ele>135.86903</ele>
        <time>2021-06-20T07:30:59.999Z</time>
      </trkpt>
      <trkpt lat="48.6175" lon="7.81598">
        <ele>135.852908</ele>
        <time>2021-06-20T07:31:01.999Z</time>
      </trkpt>
      <trkpt lat="48.61736" lon="7.81601">
        <ele>135.822824</ele>
        <time>2021-06-20T07:31:03.999Z</time>
      </trkpt>
      <trkpt lat="48.61724" lon="7.81607">
        <ele>135.793617</ele>
        <time>2021-06-20T07:31:05.999Z</time>
      </trkpt>
      <trkpt lat="48.61712" lon="7.81613">
        <ele>135.76486</ele>
        <time>2021-06-20T07:31:07.999Z</time>
      </trkpt>
      <trkpt lat="48.61702" lon="7.81612">
        <ele>135.741552</ele>
        <time>2021-06-20T07:31:08.999Z</time>
      </trkpt>
      <trkpt lat="48.61686" lon="7.81612">
        <ele>135.706069</ele>
        <time>2021-06-20T07:31:10.999Z</time>
      </trkpt>
      <trkpt lat="48.61671" lon="7.81616">
        <ele>135.67201</ele>
        <time>2021-06-20T07:31:12.999Z</time>
      </trkpt>
      <trkpt lat="48.61658" lon="7.8162">
        <ele>135.641128</ele>
        <time>2021-06-20T07:31:14.999Z</time>
      </trkpt>
      <trkpt lat="48.61645" lon="7.81624">
        <ele>135.610643</ele>
        <time>2021-06-20T07:31:16.999Z</time>
      </trkpt>
      <trkpt lat="48.61632" lon="7.81627">
        <ele>135.58283</ele>
        <time>2021-06-20T07:31:18.999Z</time>
      </trkpt>
      <trkpt lat="48.61622" lon="7.81629">
        <ele>135.558499</ele>
        <time>2021-06-20T07:31:20.999Z</time>
      </trkpt>
      <trkpt lat="48.61612" lon="7.81635">
        <ele>135.53424</ele>
        <time>2021-06-20T07:31:22.999Z</time>
      </trkpt>
      <trkpt lat="48.616" lon="7.81642">
        <ele>135.505372</ele>
        <time>2021-06-20T07:31:24.999Z</time>
      </trkpt>
      <trkpt lat="48.61586" lon="7.81645">
        <ele>135.474087</ele>
        <time>2021-06-20T07:31:26.999Z</time>
      </trkpt>
      <trkpt lat="48.61572" lon="7.8165">
        <ele>135.480618</ele>
        <time>2021-06-20T07:31:28.999Z</time>
      </trkpt>
      <trkpt lat="48.61557" lon="7.81652">
        <ele>135.501057</ele>
        <time>2021-06-20T07:31:30.999Z</time>
      </trkpt>
      <trkpt lat="48.61544" lon="7.81653">
        <ele>135.519635</ele>
        <time>2021-06-20T07:31:32.999Z</time>
      </trkpt>
      <trkpt lat="48.61528" lon="7.81653">
        <ele>135.540978</ele>
        <time>2021-06-20T07:31:34.999Z</time>
      </trkpt>
      <trkpt lat="48.61514" lon="7.8165">
        <ele>135.561113</ele>
        <time>2021-06-20T07:31:36.999Z</time>
      </trkpt>
      <trkpt lat="48.61499" lon="7.8165">
        <ele>135.582458</ele>
        <time>2021-06-20T07:31:38.999Z</time>
      </trkpt>
      <trkpt lat="48.61483" lon="7.81651">
        <ele>135.6041</ele>
        <time>2021-06-20T07:31:40.999Z</time>
      </trkpt>
      <trkpt lat="48.61468" lon="7.81652">
        <ele>135.625163</ele>
        <time>2021-06-20T07:31:42.999Z</time>
      </trkpt>
      <trkpt lat="48.61455" lon="7.81658">
        <ele>135.645112</ele>
        <time>2021-06-20T07:31:44.999Z</time>
      </trkpt>
      <trkpt lat="48.6144" lon="7.81662">
        <ele>135.66573</ele>
        <time>2021-06-20T07:31:46.999Z</time>
      </trkpt>
      <trkpt lat="48.61424" lon="7.81666">
        <ele>135.688395</ele>
        <time>2021-06-20T07:31:48.999Z</time>
      </trkpt>
      <trkpt lat="48.61412" lon="7.81674">
        <ele>135.706723</ele>
        <time>2021-06-20T07:31:50.999Z</time>
      </trkpt>
      <trkpt lat="48.614" lon="7.8168">
        <ele>135.65721</ele>
        <time>2021-06-20T07:31:52.999Z</time>
      </trkpt>
      <trkpt lat="48.61388" lon="7.81686">
        <ele>135.536514</ele>
        <time>2021-06-20T07:31:54.999Z</time>
      </trkpt>
      <trkpt lat="48.61375" lon="7.81689">
        <ele>135.409483</ele>
        <time>2021-06-20T07:31:56.999Z</time>
      </trkpt>
      <trkpt lat="48.61365" lon="7.81694">
        <ele>135.308539</ele>
        <time>2021-06-20T07:31:58.999Z</time>
      </trkpt>
      <trkpt lat="48.61354" lon="7.81704">
        <ele>135.190684</ele>
        <time>2021-06-20T07:32:00.999Z</time>
      </trkpt>
      <trkpt lat="48.61342" lon="7.81711">
        <ele>135.065602</ele>
        <time>2021-06-20T07:32:02.999Z</time>
      </trkpt>
      <trkpt lat="48.61327" lon="7.81709">
        <ele>134.925193</ele>
        <time>2021-06-20T07:32:04.999Z</time>
      </trkpt>
      <trkpt lat="48.61314" lon="7.81702">
        <ele>134.790196</ele>
        <time>2021-06-20T07:32:06.999Z</time>
      </trkpt>
      <trkpt lat="48.61304" lon="7.81697">
        <ele>134.692658</ele>
        <time>2021-06-20T07:32:08.999Z</time>
      </trkpt>
      <trkpt lat="48.61294" lon="7.8169">
        <ele>134.584647</ele>
        <time>2021-06-20T07:32:11.999Z</time>
      </trkpt>
      <trkpt lat="48.61289" lon="7.81672">
        <ele>134.461942</ele>
        <time>2021-06-20T07:32:14.999Z</time>
      </trkpt>
      <trkpt lat="48.61281" lon="7.81654">
        <ele>134.327389</ele>
        <time>2021-06-20T07:32:17.999Z</time>
      </trkpt>
      <trkpt lat="48.61273" lon="7.81636">
        <ele>134.186522</ele>
        <time>2021-06-20T07:32:20.999Z</time>
      </trkpt>
      <trkpt lat="48.6127" lon="7.81623">
        <ele>134.100348</ele>
        <time>2021-06-20T07:32:22.999Z</time>
      </trkpt>
      <trkpt lat="48.61266" lon="7.81606">
        <ele>133.997225</ele>
        <time>2021-06-20T07:32:24.999Z</time>
      </trkpt>
      <trkpt lat="48.6126" lon="7.81587">
        <ele>134.01607</ele>
        <time>2021-06-20T07:32:27.999Z</time>
      </trkpt>
      <trkpt lat="48.61254" lon="7.81574">
        <ele>134.031025</ele>
        <time>2021-06-20T07:32:29.999Z</time>
      </trkpt>
      <trkpt lat="48.61247" lon="7.81565">
        <ele>134.044495</ele>
        <time>2021-06-20T07:32:31.999Z</time>
      </trkpt>
      <trkpt lat="48.61238" lon="7.81569">
        <ele>134.057481</ele>
        <time>2021-06-20T07:32:33.999Z</time>
      </trkpt>
      <trkpt lat="48.61227" lon="7.81578">
        <ele>134.073869</ele>
        <time>2021-06-20T07:32:35.999Z</time>
      </trkpt>
      <trkpt lat="48.61218" lon="7.81587">
        <ele>134.089519</ele>
        <time>2021-06-20T07:32:37.999Z</time>
      </trkpt>
      <trkpt lat="48.61208" lon="7.81596">
        <ele>134.105483</ele>
        <time>2021-06-20T07:32:39.999Z</time>
      </trkpt>
      <trkpt lat="48.61199" lon="7.81604">
        <ele>134.11966</ele>
        <time>2021-06-20T07:32:41.999Z</time>
      </trkpt>
      <trkpt lat="48.6119" lon="7.81611">
        <ele>134.133671</ele>
        <time>2021-06-20T07:32:43.999Z</time>
      </trkpt>
      <trkpt lat="48.61182" lon="7.81621">
        <ele>134.148312</ele>
        <time>2021-06-20T07:32:45.999Z</time>
      </trkpt>
      <trkpt lat="48.61171" lon="7.81632">
        <ele>134.16717</ele>
        <time>2021-06-20T07:32:47.999Z</time>
      </trkpt>
      <trkpt lat="48.61159" lon="7.81643">
        <ele>134.186413</ele>
        <time>2021-06-20T07:32:49.999Z</time>
      </trkpt>
      <trkpt lat="48.61145" lon="7.81654">
        <ele>134.207678</ele>
        <time>2021-06-20T07:32:51.999Z</time>
      </trkpt>
      <trkpt lat="48.61132" lon="7.81664">
        <ele>134.227785</ele>
        <time>2021-06-20T07:32:53.999Z</time>
      </trkpt>
      <trkpt lat="48.61121" lon="7.81675">
        <ele>134.242089</ele>
        <time>2021-06-20T07:32:55.999Z</time>
      </trkpt>
      <trkpt lat="48.61113" lon="7.81684">
        <ele>134.214188</ele>
        <time>2021-06-20T07:32:57.999Z</time>
      </trkpt>
      <trkpt lat="48.61103" lon="7.81699">
        <ele>134.170828</ele>
        <time>2021-06-20T07:33:00.999Z</time>
      </trkpt>
      <trkpt lat="48.61093" lon="7.81706">
        <ele>134.137765</ele>
        <time>2021-06-20T07:33:02.999Z</time>
      </trkpt>
      <trkpt lat="48.61084" lon="7.81709">
        <ele>134.110683</ele>
        <time>2021-06-20T07:33:05.999Z</time>
      </trkpt>
      <trkpt lat="48.61076" lon="7.81701">
        <ele>134.081588</ele>
        <time>2021-06-20T07:33:10.999Z</time>
      </trkpt>
      <trkpt lat="48.61068" lon="7.81695">
        <ele>134.053504</ele>
        <time>2021-06-20T07:33:16.999Z</time>
      </trkpt>
      <trkpt lat="48.6106" lon="7.81687">
        <ele>134.024399</ele>
        <time>2021-06-20T07:33:24.999Z</time>
      </trkpt>
      <trkpt lat="48.61049" lon="7.81678">
        <ele>133.987546</ele>
        <time>2021-06-20T07:33:35.999Z</time>
      </trkpt>
      <trkpt lat="48.61042" lon="7.81668">
        <ele>133.958148</ele>
        <time>2021-06-20T07:33:39.999Z</time>
      </trkpt>
      <trkpt lat="48.61032" lon="7.81663">
        <ele>133.928931</ele>
        <time>2021-06-20T07:33:44.999Z</time>
      </trkpt>
      <trkpt lat="48.61023" lon="7.8166">
        <ele>133.900838</ele>
        <time>2021-06-20T07:33:47.999Z</time>
      </trkpt>
      <trkpt lat="48.61014" lon="7.81655">
        <ele>133.871985</ele>
        <time>2021-06-20T07:33:49.999Z</time>
      </trkpt>
      <trkpt lat="48.61003" lon="7.81647">
        <ele>133.834528</ele>
        <time>2021-06-20T07:33:52.999Z</time>
      </trkpt>
      <trkpt lat="48.60992" lon="7.81642">
        <ele>133.799738</ele>
        <time>2021-06-20T07:33:55.999Z</time>
      </trkpt>
      <trkpt lat="48.60979" lon="7.81638">
        <ele>133.759537</ele>
        <time>2021-06-20T07:33:58.999Z</time>
      </trkpt>
      <trkpt lat="48.6097" lon="7.81628">
        <ele>133.724816</ele>
        <time>2021-06-20T07:34:02.999Z</time>
      </trkpt>
      <trkpt lat="48.60961" lon="7.81621">
        <ele>133.750297</ele>
        <time>2021-06-20T07:34:05.999Z</time>
      </trkpt>
      <trkpt lat="48.60956" lon="7.81606">
        <ele>133.905151</ele>
        <time>2021-06-20T07:34:08.999Z</time>
      </trkpt>
      <trkpt lat="48.60947" lon="7.81594">
        <ele>134.060569</ele>
        <time>2021-06-20T07:34:11.999Z</time>
      </trkpt>
      <trkpt lat="48.60937" lon="7.81586">
        <ele>134.222473</ele>
        <time>2021-06-20T07:34:14.999Z</time>
      </trkpt>
      <trkpt lat="48.60927" lon="7.81581">
        <ele>134.372592</ele>
        <time>2021-06-20T07:34:17.999Z</time>
      </trkpt>
      <trkpt lat="48.60917" lon="7.81583">
        <ele>134.503721</ele>
        <time>2021-06-20T07:34:21.999Z</time>
      </trkpt>
      <trkpt lat="48.60907" lon="7.81585">
        <ele>134.6501</ele>
        <time>2021-06-20T07:34:24.999Z</time>
      </trkpt>
      <trkpt lat="48.60897" lon="7.81583">
        <ele>134.780696</ele>
        <time>2021-06-20T07:34:27.999Z</time>
      </trkpt>
      <trkpt lat="48.60888" lon="7.81585">
        <ele>134.911974</ele>
        <time>2021-06-20T07:34:33.999Z</time>
      </trkpt>
      <trkpt lat="48.60878" lon="7.81582">
        <ele>135.04352</ele>
        <time>2021-06-20T07:34:37.999Z</time>
      </trkpt>
      <trkpt lat="48.60868" lon="7.81581">
        <ele>135.189629</ele>
        <time>2021-06-20T07:34:39.999Z</time>
      </trkpt>
      <trkpt lat="48.60854" lon="7.81581">
        <ele>135.379701</ele>
        <time>2021-06-20T07:34:42.999Z</time>
      </trkpt>
      <trkpt lat="48.60843" lon="7.81585">
        <ele>135.529929</ele>
        <time>2021-06-20T07:34:46.999Z</time>
      </trkpt>
      <trkpt lat="48.60834" lon="7.81584">
        <ele>135.660001</ele>
        <time>2021-06-20T07:34:52.999Z</time>
      </trkpt>
      <trkpt lat="48.60824" lon="7.81586">
        <ele>135.799577</ele>
        <time>2021-06-20T07:35:02.999Z</time>
      </trkpt>
      <trkpt lat="48.60812" lon="7.81592">
        <ele>135.968578</ele>
        <time>2021-06-20T07:35:06.999Z</time>
      </trkpt>
      <trkpt lat="48.60802" lon="7.81599">
        <ele>136.122722</ele>
        <time>2021-06-20T07:35:10.999Z</time>
      </trkpt>
      <trkpt lat="48.60794" lon="7.81593">
        <ele>136.189578</ele>
        <time>2021-06-20T07:35:15.999Z</time>
      </trkpt>
      <trkpt lat="48.6079" lon="7.81581">
        <ele>136.203317</ele>
        <time>2021-06-20T07:35:18.999Z</time>
      </trkpt>
      <trkpt lat="48.60784" lon="7.81568">
        <ele>136.219147</ele>
        <time>2021-06-20T07:35:21.999Z</time>
      </trkpt>
      <trkpt lat="48.60775" lon="7.81562">
        <ele>136.233935</ele>
        <time>2021-06-20T07:35:24.999Z</time>
      </trkpt>
      <trkpt lat="48.60765" lon="7.81556">
        <ele>136.249935</ele>
        <time>2021-06-20T07:35:28.999Z</time>
      </trkpt>
      <trkpt lat="48.60759" lon="7.81545">
        <ele>136.263952</ele>
        <time>2021-06-20T07:35:32.999Z</time>
      </trkpt>
      <trkpt lat="48.6075" lon="7.81533">
        <ele>136.282582</ele>
        <time>2021-06-20T07:35:35.999Z</time>
      </trkpt>
      <trkpt lat="48.60738" lon="7.81527">
        <ele>136.301513</ele>
        <time>2021-06-20T07:35:38.999Z</time>
      </trkpt>
      <trkpt lat="48.60729" lon="7.81521">
        <ele>136.315739</ele>
        <time>2021-06-20T07:35:42.999Z</time>
      </trkpt>
      <trkpt lat="48.60723" lon="7.81509">
        <ele>136.331136</ele>
        <time>2021-06-20T07:35:45.999Z</time>
      </trkpt>
      <trkpt lat="48.60718" lon="7.81496">
        <ele>136.346225</ele>
        <time>2021-06-20T07:35:47.999Z</time>
      </trkpt>
      <trkpt lat="48.60709" lon="7.81483">
        <ele>136.36362</ele>
        <time>2021-06-20T07:35:50.999Z</time>
      </trkpt>
      <trkpt lat="48.60702" lon="7.81473">
        <ele>136.378667</ele>
        <time>2021-06-20T07:35:53.999Z</time>
      </trkpt>
      <trkpt lat="48.60697" lon="7.8146">
        <ele>136.393341</ele>
        <time>2021-06-20T07:35:58.999Z</time>
      </trkpt>
      <trkpt lat="48.60692" lon="7.81447">
        <ele>136.407816</ele>
        <time>2021-06-20T07:36:03.999Z</time>
      </trkpt>
      <trkpt lat="48.60685" lon="7.81435">
        <ele>136.423965</ele>
        <time>2021-06-20T07:36:07.999Z</time>
      </trkpt>
      <trkpt lat="48.6068" lon="7.81424">
        <ele>136.437976</ele>
        <time>2021-06-20T07:36:16.999Z</time>
      </trkpt>
      <trkpt lat="48.60676" lon="7.81411">
        <ele>136.45141</ele>
        <time>2021-06-20T07:36:25.999Z</time>
      </trkpt>
      <trkpt lat="48.60667" lon="7.81405">
        <ele>136.464758</ele>
        <time>2021-06-20T07:36:53.999Z</time>
      </trkpt>
      <trkpt lat="48.60658" lon="7.81401">
        <ele>136.477118</ele>
        <time>2021-06-20T07:36:57.999Z</time>
      </trkpt>
      <trkpt lat="48.60647" lon="7.81397">
        <ele>136.490952</ele>
        <time>2021-06-20T07:37:01.999Z</time>
      </trkpt>
      <trkpt lat="48.60636" lon="7.81394">
        <ele>136.506115</ele>
        <time>2021-06-20T07:37:04.999Z</time>
      </trkpt>
      <trkpt lat="48.60625" lon="7.81401">
        <ele>136.520559</ele>
        <time>2021-06-20T07:37:07.999Z</time>
      </trkpt>
      <trkpt lat="48.60616" lon="7.81399">
        <ele>136.532387</ele>
        <time>2021-06-20T07:37:09.999Z</time>
      </trkpt>
      <trkpt lat="48.60609" lon="7.81386">
        <ele>136.546913</ele>
        <time>2021-06-20T07:37:12.999Z</time>
      </trkpt>
      <trkpt lat="48.60602" lon="7.81375">
        <ele>136.56037</ele>
        <time>2021-06-20T07:37:14.999Z</time>
      </trkpt>
      <trkpt lat="48.60596" lon="7.81361">
        <ele>136.574892</ele>
        <time>2021-06-20T07:37:17.999Z</time>
      </trkpt>
      <trkpt lat="48.60588" lon="7.81346">
        <ele>136.591184</ele>
        <time>2021-06-20T07:37:19.999Z</time>
      </trkpt>
      <trkpt lat="48.60581" lon="7.81335">
        <ele>136.604917</ele>
        <time>2021-06-20T07:37:21.999Z</time>
      </trkpt>
      <trkpt lat="48.60571" lon="7.81323">
        <ele>136.620514</ele>
        <time>2021-06-20T07:37:23.999Z</time>
      </trkpt>
      <trkpt lat="48.60564" lon="7.81313">
        <ele>136.633485</ele>
        <time>2021-06-20T07:37:25.999Z</time>
      </trkpt>
      <trkpt lat="48.60555" lon="7.81297">
        <ele>136.651666</ele>
        <time>2021-06-20T07:37:28.999Z</time>
      </trkpt>
      <trkpt lat="48.60547" lon="7.81284">
        <ele>136.666989</ele>
        <time>2021-06-20T07:37:30.999Z</time>
      </trkpt>
      <trkpt lat="48.60538" lon="7.81273">
        <ele>136.681764</ele>
        <time>2021-06-20T07:37:32.999Z</time>
      </trkpt>
      <trkpt lat="48.6053" lon="7.81264">
        <ele>136.660714</ele>
        <time>2021-06-20T07:37:34.999Z</time>
      </trkpt>
      <trkpt lat="48.60524" lon="7.81252">
        <ele>136.624108</ele>
        <time>2021-06-20T07:37:37.999Z</time>
      </trkpt>
      <trkpt lat="48.60519" lon="7.8124">
        <ele>136.589006</ele>
        <time>2021-06-20T07:37:42.999Z</time>
      </trkpt>
      <trkpt lat="48.60511" lon="7.81234">
        <ele>136.556001</ele>
        <time>2021-06-20T07:37:46.999Z</time>
      </trkpt>
      <trkpt lat="48.60507" lon="7.81221">
        <ele>136.522377</ele>
        <time>2021-06-20T07:37:48.999Z</time>
      </trkpt>
      <trkpt lat="48.60502" lon="7.8121">
        <ele>136.48849</ele>
        <time>2021-06-20T07:37:50.999Z</time>
      </trkpt>
      <trkpt lat="48.60496" lon="7.81193">
        <ele>136.443023</ele>
        <time>2021-06-20T07:37:53.999Z</time>
      </trkpt>
      <trkpt lat="48.60489" lon="7.81184">
        <ele>136.409888</ele>
        <time>2021-06-20T07:37:56.999Z</time>
      </trkpt>
      <trkpt lat="48.60483" lon="7.81173">
        <ele>136.374884</ele>
        <time>2021-06-20T07:38:03.999Z</time>
      </trkpt>
      <trkpt lat="48.60476" lon="7.8116">
        <ele>136.337142</ele>
        <time>2021-06-20T07:38:09.999Z</time>
      </trkpt>
      <trkpt lat="48.60469" lon="7.81146">
        <ele>136.293569</ele>
        <time>2021-06-20T07:38:12.999Z</time>
      </trkpt>
      <trkpt lat="48.60463" lon="7.81132">
        <ele>136.25308</ele>
        <time>2021-06-20T07:38:15.999Z</time>
      </trkpt>
      <trkpt lat="48.60459" lon="7.81115">
        <ele>136.209147</ele>
        <time>2021-06-20T07:38:18.999Z</time>
      </trkpt>
      <trkpt lat="48.6046" lon="7.81097">
        <ele>136.167684</ele>
        <time>2021-06-20T07:38:20.999Z</time>
      </trkpt>
      <trkpt lat="48.60463" lon="7.81083">
        <ele>136.131659</ele>
        <time>2021-06-20T07:38:22.999Z</time>
      </trkpt>
      <trkpt lat="48.60464" lon="7.81067">
        <ele>136.093674</ele>
        <time>2021-06-20T07:38:24.999Z</time>
      </trkpt>
      <trkpt lat="48.60467" lon="7.81049">
        <ele>136.047333</ele>
        <time>2021-06-20T07:38:27.999Z</time>
      </trkpt>
      <trkpt lat="48.60462" lon="7.81035">
        <ele>136.056671</ele>
        <time>2021-06-20T07:38:30.999Z</time>
      </trkpt>
      <trkpt lat="48.60454" lon="7.81025">
        <ele>136.095498</ele>
        <time>2021-06-20T07:38:34.999Z</time>
      </trkpt>
      <trkpt lat="48.60447" lon="7.81016">
        <ele>136.129538</ele>
        <time>2021-06-20T07:38:38.999Z</time>
      </trkpt>
      <trkpt lat="48.60445" lon="7.81002">
        <ele>136.164222</ele>
        <time>2021-06-20T07:38:45.999Z</time>
      </trkpt>
      <trkpt lat="48.60448" lon="7.80989">
        <ele>136.199287</ele>
        <time>2021-06-20T07:38:54.999Z</time>
      </trkpt>
      <trkpt lat="48.60451" lon="7.80974">
        <ele>136.23798</ele>
        <time>2021-06-20T07:39:05.999Z</time>
      </trkpt>
      <trkpt lat="48.60451" lon="7.80957">
        <ele>136.281403</ele>
        <time>2021-06-20T07:39:09.999Z</time>
      </trkpt>
      <trkpt lat="48.60455" lon="7.80944">
        <ele>136.316119</ele>
        <time>2021-06-20T07:39:12.999Z</time>
      </trkpt>
      <trkpt lat="48.60454" lon="7.80931">
        <ele>136.350462</ele>
        <time>2021-06-20T07:39:15.999Z</time>
      </trkpt>
      <trkpt lat="48.60449" lon="7.80914">
        <ele>136.396432</ele>
        <time>2021-06-20T07:39:21.999Z</time>
      </trkpt>
      <trkpt lat="48.60444" lon="7.809">
        <ele>136.434898</ele>
        <time>2021-06-20T07:39:25.999Z</time>
      </trkpt>
      <trkpt lat="48.60441" lon="7.80886">
        <ele>136.472384</ele>
        <time>2021-06-20T07:39:35.999Z</time>
      </trkpt>
      <trkpt lat="48.6044" lon="7.80872">
        <ele>136.50692</ele>
        <time>2021-06-20T07:39:40.999Z</time>
      </trkpt>
      <trkpt lat="48.60436" lon="7.8086">
        <ele>136.54186</ele>
        <time>2021-06-20T07:39:44.999Z</time>
      </trkpt>
      <trkpt lat="48.60437" lon="7.80844">
        <ele>136.581621</ele>
        <time>2021-06-20T07:39:50.999Z</time>
      </trkpt>
      <trkpt lat="48.60442" lon="7.80827">
        <ele>136.629527</ele>
        <time>2021-06-20T07:39:53.999Z</time>
      </trkpt>
      <trkpt lat="48.60452" lon="7.80827">
        <ele>136.665376</ele>
        <time>2021-06-20T07:39:58.999Z</time>
      </trkpt>
      <trkpt lat="48.60462" lon="7.80834">
        <ele>136.708299</ele>
        <time>2021-06-20T07:40:01.999Z</time>
      </trkpt>
      <trkpt lat="48.60472" lon="7.80846">
        <ele>136.664116</ele>
        <time>2021-06-20T07:40:04.999Z</time>
      </trkpt>
      <trkpt lat="48.60482" lon="7.80855">
        <ele>136.617148</ele>
        <time>2021-06-20T07:40:07.999Z</time>
      </trkpt>
      <trkpt lat="48.60492" lon="7.80867">
        <ele>136.567137</ele>
        <time>2021-06-20T07:40:11.999Z</time>
      </trkpt>
      <trkpt lat="48.60499" lon="7.80877">
        <ele>136.530351</ele>
        <time>2021-06-20T07:40:14.999Z</time>
      </trkpt>
      <trkpt lat="48.60507" lon="7.80891">
        <ele>136.479776</ele>
        <time>2021-06-20T07:40:18.999Z</time>
      </trkpt>
      <trkpt lat="48.60515" lon="7.809">
        <ele>136.443225</ele>
        <time>2021-06-20T07:40:22.999Z</time>
      </trkpt>
      <trkpt lat="48.60523" lon="7.80905">
        <ele>136.405927</ele>
        <time>2021-06-20T07:40:29.999Z</time>
      </trkpt>
      <trkpt lat="48.60533" lon="7.80905">
        <ele>136.369042</ele>
        <time>2021-06-20T07:40:45.999Z</time>
      </trkpt>
      <trkpt lat="48.60544" lon="7.80909">
        <ele>136.323662</ele>
        <time>2021-06-20T07:40:54.999Z</time>
      </trkpt>
      <trkpt lat="48.60551" lon="7.80922">
        <ele>136.279203</ele>
        <time>2021-06-20T07:40:57.999Z</time>
      </trkpt>
      <trkpt lat="48.60559" lon="7.80934">
        <ele>136.235246</ele>
        <time>2021-06-20T07:41:00.999Z</time>
      </trkpt>
      <trkpt lat="48.60567" lon="7.80943">
        <ele>136.194438</ele>
        <time>2021-06-20T07:41:05.999Z</time>
      </trkpt>
      <trkpt lat="48.60572" lon="7.80955">
        <ele>136.156588</ele>
        <time>2021-06-20T07:41:08.999Z</time>
      </trkpt>
      <trkpt lat="48.60579" lon="7.80965">
        <ele>136.119111</ele>
        <time>2021-06-20T07:41:16.999Z</time>
      </trkpt>
      <trkpt lat="48.60582" lon="7.80979">
        <ele>136.08042</ele>
        <time>2021-06-20T07:41:28.999Z</time>
      </trkpt>
      <trkpt lat="48.60592" lon="7.80988">
        <ele>136.035351</ele>
        <time>2021-06-20T07:41:39.999Z</time>
      </trkpt>
      <trkpt lat="48.60601" lon="7.80995">
        <ele>135.996435</ele>
        <time>2021-06-20T07:41:43.999Z</time>
      </trkpt>
      <trkpt lat="48.60609" lon="7.81001">
        <ele>135.978744</ele>
        <time>2021-06-20T07:41:47.999Z</time>
      </trkpt>
      <trkpt lat="48.60611" lon="7.80986">
        <ele>135.960117</ele>
        <time>2021-06-20T07:41:51.999Z</time>
      </trkpt>
      <trkpt lat="48.60607" lon="7.80972">
        <ele>135.942418</ele>
        <time>2021-06-20T07:41:54.999Z</time>
      </trkpt>
      <trkpt lat="48.60605" lon="7.80958">
        <ele>135.925556</ele>
        <time>2021-06-20T07:41:56.999Z</time>
      </trkpt>
      <trkpt lat="48.60606" lon="7.80943">
        <ele>135.906994</ele>
        <time>2021-06-20T07:41:59.999Z</time>
      </trkpt>
      <trkpt lat="48.6061" lon="7.8093">
        <ele>135.889642</ele>
        <time>2021-06-20T07:42:02.999Z</time>
      </trkpt>
      <trkpt lat="48.60611" lon="7.80915">
        <ele>135.870584</ele>
        <time>2021-06-20T07:42:06.999Z</time>
      </trkpt>
      <trkpt lat="48.60619" lon="7.80907">
        <ele>135.853688</ele>
        <time>2021-06-20T07:42:09.999Z</time>
      </trkpt>
      <trkpt lat="48.60624" lon="7.80894">
        <ele>135.835276</ele>
        <time>2021-06-20T07:42:12.999Z</time>
      </trkpt>
      <trkpt lat="48.60632" lon="7.8088">
        <ele>135.813458</ele>
        <time>2021-06-20T07:42:16.999Z</time>
      </trkpt>
      <trkpt lat="48.60642" lon="7.80878">
        <ele>135.795374</ele>
        <time>2021-06-20T07:42:24.999Z</time>
      </trkpt>
      <trkpt lat="48.6065" lon="7.80866">
        <ele>135.773276</ele>
        <time>2021-06-20T07:42:28.999Z</time>
      </trkpt>
      <trkpt lat="48.60655" lon="7.8085">
        <ele>135.752192</ele>
        <time>2021-06-20T07:42:33.999Z</time>
      </trkpt>
      <trkpt lat="48.60664" lon="7.8085">
        <ele>135.734979</ele>
        <time>2021-06-20T07:42:37.999Z</time>
      </trkpt>
      <trkpt lat="48.60671" lon="7.80861">
        <ele>135.717091</ele>
        <time>2021-06-20T07:42:40.999Z</time>
      </trkpt>
      <trkpt lat="48.60672" lon="7.80876">
        <ele>135.698781</ele>
        <time>2021-06-20T07:42:43.999Z</time>
      </trkpt>
      <trkpt lat="48.60675" lon="7.80891">
        <ele>135.679821</ele>
        <time>2021-06-20T07:42:46.999Z</time>
      </trkpt>
      <trkpt lat="48.60682" lon="7.80902">
        <ele>135.667071</ele>
        <time>2021-06-20T07:42:48.999Z</time>
      </trkpt>
      <trkpt lat="48.60683" lon="7.80921">
        <ele>135.662219</ele>
        <time>2021-06-20T07:42:51.999Z</time>
      </trkpt>
      <trkpt lat="48.6068" lon="7.80935">
        <ele>135.658552</ele>
        <time>2021-06-20T07:42:54.999Z</time>
      </trkpt>
      <trkpt lat="48.60683" lon="7.80948">
        <ele>135.654922</ele>
        <time>2021-06-20T07:42:57.999Z</time>
      </trkpt>
      <trkpt lat="48.60691" lon="7.80956">
        <ele>135.651129</ele>
        <time>2021-06-20T07:43:00.999Z</time>
      </trkpt>
      <trkpt lat="48.60694" lon="7.80969">
        <ele>135.647599</ele>
        <time>2021-06-20T07:43:08.999Z</time>
      </trkpt>
      <trkpt lat="48.60705" lon="7.80971">
        <ele>135.643496</ele>
        <time>2021-06-20T07:43:19.999Z</time>
      </trkpt>
      <trkpt lat="48.60714" lon="7.80971">
        <ele>135.639799</ele>
        <time>2021-06-20T07:43:33.999Z</time>
      </trkpt>
      <trkpt lat="48.60721" lon="7.8096">
        <ele>135.63583</ele>
        <time>2021-06-20T07:43:43.999Z</time>
      </trkpt>
      <trkpt lat="48.60715" lon="7.80947">
        <ele>135.631881</ele>
        <time>2021-06-20T07:43:47.999Z</time>
      </trkpt>
      <trkpt lat="48.60714" lon="7.80933">
        <ele>135.628258</ele>
        <time>2021-06-20T07:43:52.999Z</time>
      </trkpt>
      <trkpt lat="48.60712" lon="7.80919">
        <ele>135.624662</ele>
        <time>2021-06-20T07:43:57.999Z</time>
      </trkpt>
      <trkpt lat="48.6071" lon="7.80904">
        <ele>135.620734</ele>
        <time>2021-06-20T07:44:00.999Z</time>
      </trkpt>
      <trkpt lat="48.60714" lon="7.8089">
        <ele>135.616746</ele>
        <time>2021-06-20T07:44:04.999Z</time>
      </trkpt>
      <trkpt lat="48.60718" lon="7.80878">
        <ele>135.61322</ele>
        <time>2021-06-20T07:44:13.999Z</time>
      </trkpt>
      <trkpt lat="48.60722" lon="7.80865">
        <ele>135.60968</ele>
        <time>2021-06-20T07:44:21.140Z</time>
      </trkpt>
      <trkpt lat="48.60721" lon="7.80851">
        <ele>135.605949</ele>
        <time>2021-06-20T07:44:23.999Z</time>
      </trkpt>
      <trkpt lat="48.60719" lon="7.80836">
        <ele>135.601988</ele>
        <time>2021-06-20T07:44:26.999Z</time>
      </trkpt>
      <trkpt lat="48.60715" lon="7.80819">
        <ele>135.628995</ele>
        <time>2021-06-20T07:44:29.999Z</time>
      </trkpt>
      <trkpt lat="48.60709" lon="7.80801">
        <ele>135.769678</ele>
        <time>2021-06-20T07:44:32.999Z</time>
      </trkpt>
      <trkpt lat="48.60703" lon="7.80785">
        <ele>135.903209</ele>
        <time>2021-06-20T07:44:35.999Z</time>
      </trkpt>
      <trkpt lat="48.60698" lon="7.80767">
        <ele>136.040382</ele>
        <time>2021-06-20T07:44:38.999Z</time>
      </trkpt>
      <trkpt lat="48.60695" lon="7.80754">
        <ele>136.139444</ele>
        <time>2021-06-20T07:44:40.999Z</time>
      </trkpt>
      <trkpt lat="48.60692" lon="7.80741">
        <ele>136.235856</ele>
        <time>2021-06-20T07:44:42.999Z</time>
      </trkpt>
      <trkpt lat="48.60691" lon="7.80727">
        <ele>136.334538</ele>
        <time>2021-06-20T07:44:44.999Z</time>
      </trkpt>
      <trkpt lat="48.6069" lon="7.80706">
        <ele>136.480923</ele>
        <time>2021-06-20T07:44:47.999Z</time>
      </trkpt>
      <trkpt lat="48.60689" lon="7.80692">
        <ele>136.578411</ele>
        <time>2021-06-20T07:44:49.999Z</time>
      </trkpt>
      <trkpt lat="48.60692" lon="7.80678">
        <ele>136.683965</ele>
        <time>2021-06-20T07:44:51.999Z</time>
      </trkpt>
      <trkpt lat="48.60692" lon="7.80664">
        <ele>136.783563</ele>
        <time>2021-06-20T07:44:53.999Z</time>
      </trkpt>
      <trkpt lat="48.60694" lon="7.80648">
        <ele>136.891719</ele>
        <time>2021-06-20T07:44:55.999Z</time>
      </trkpt>
      <trkpt lat="48.60696" lon="7.80635">
        <ele>136.992987</ele>
        <time>2021-06-20T07:44:57.999Z</time>
      </trkpt>
      <trkpt lat="48.60693" lon="7.80619">
        <ele>137.110838</ele>
        <time>2021-06-20T07:44:59.999Z</time>
      </trkpt>
      <trkpt lat="48.60687" lon="7.80606">
        <ele>137.220207</ele>
        <time>2021-06-20T07:45:01.999Z</time>
      </trkpt>
      <trkpt lat="48.60682" lon="7.80592">
        <ele>137.335246</ele>
        <time>2021-06-20T07:45:03.999Z</time>
      </trkpt>
      <trkpt lat="48.60677" lon="7.80576">
        <ele>137.453285</ele>
        <time>2021-06-20T07:45:05.999Z</time>
      </trkpt>
      <trkpt lat="48.60675" lon="7.80561">
        <ele>137.50499</ele>
        <time>2021-06-20T07:45:07.999Z</time>
      </trkpt>
      <trkpt lat="48.60673" lon="7.80547">
        <ele>137.480465</ele>
        <time>2021-06-20T07:45:09.999Z</time>
      </trkpt>
      <trkpt lat="48.60671" lon="7.80534">
        <ele>137.457289</ele>
        <time>2021-06-20T07:45:11.999Z</time>
      </trkpt>
      <trkpt lat="48.60667" lon="7.80519">
        <ele>137.428554</ele>
        <time>2021-06-20T07:45:14.999Z</time>
      </trkpt>
      <trkpt lat="48.60665" lon="7.80505">
        <ele>137.40504</ele>
        <time>2021-06-20T07:45:19.999Z</time>
      </trkpt>
      <trkpt lat="48.60665" lon="7.80491">
        <ele>137.379922</ele>
        <time>2021-06-20T07:45:26.999Z</time>
      </trkpt>
      <trkpt lat="48.60663" lon="7.80476">
        <ele>137.354607</ele>
        <time>2021-06-20T07:45:33.999Z</time>
      </trkpt>
      <trkpt lat="48.60663" lon="7.8046">
        <ele>137.326927</ele>
        <time>2021-06-20T07:45:45.999Z</time>
      </trkpt>
      <trkpt lat="48.60657" lon="7.80447">
        <ele>137.300128</ele>
        <time>2021-06-20T07:45:48.999Z</time>
      </trkpt>
      <trkpt lat="48.60653" lon="7.80429">
        <ele>137.267066</ele>
        <time>2021-06-20T07:45:51.999Z</time>
      </trkpt>
      <trkpt lat="48.60648" lon="7.80415">
        <ele>137.241153</ele>
        <time>2021-06-20T07:45:53.999Z</time>
      </trkpt>
      <trkpt lat="48.60644" lon="7.80402">
        <ele>137.216127</ele>
        <time>2021-06-20T07:45:55.999Z</time>
      </trkpt>
      <trkpt lat="48.60639" lon="7.80388">
        <ele>137.189267</ele>
        <time>2021-06-20T07:45:57.999Z</time>
      </trkpt>
      <trkpt lat="48.60633" lon="7.80374">
        <ele>137.160595</ele>
        <time>2021-06-20T07:45:59.999Z</time>
      </trkpt>
      <trkpt lat="48.60628" lon="7.80359">
        <ele>137.131167</ele>
        <time>2021-06-20T07:46:01.999Z</time>
      </trkpt>
      <trkpt lat="48.60623" lon="7.80344">
        <ele>137.103348</ele>
        <time>2021-06-20T07:46:03.999Z</time>
      </trkpt>
      <trkpt lat="48.60618" lon="7.80331">
        <ele>137.077612</ele>
        <time>2021-06-20T07:46:05.999Z</time>
      </trkpt>
      <trkpt lat="48.60614" lon="7.80316">
        <ele>137.051941</ele>
        <time>2021-06-20T07:46:07.999Z</time>
      </trkpt>
      <trkpt lat="48.60609" lon="7.803">
        <ele>137.06128</ele>
        <time>2021-06-20T07:46:09.999Z</time>
      </trkpt>
      <trkpt lat="48.60605" lon="7.80288">
        <ele>137.069019</ele>
        <time>2021-06-20T07:46:11.999Z</time>
      </trkpt>
      <trkpt lat="48.60601" lon="7.80274">
        <ele>137.077745</ele>
        <time>2021-06-20T07:46:13.999Z</time>
      </trkpt>
      <trkpt lat="48.60596" lon="7.8026">
        <ele>137.086222</ele>
        <time>2021-06-20T07:46:15.999Z</time>
      </trkpt>
      <trkpt lat="48.60594" lon="7.80245">
        <ele>137.094933</ele>
        <time>2021-06-20T07:46:17.999Z</time>
      </trkpt>
      <trkpt lat="48.60593" lon="7.80227">
        <ele>137.105112</ele>
        <time>2021-06-20T07:46:19.999Z</time>
      </trkpt>
      <trkpt lat="48.60592" lon="7.80213">
        <ele>137.113082</ele>
        <time>2021-06-20T07:46:21.999Z</time>
      </trkpt>
      <trkpt lat="48.6059" lon="7.80193">
        <ele>137.124202</ele>
        <time>2021-06-20T07:46:23.999Z</time>
      </trkpt>
      <trkpt lat="48.60588" lon="7.80172">
        <ele>137.135822</ele>
        <time>2021-06-20T07:46:25.999Z</time>
      </trkpt>
      <trkpt lat="48.60587" lon="7.80153">
        <ele>137.146836</ele>
        <time>2021-06-20T07:46:27.999Z</time>
      </trkpt>
      <trkpt lat="48.6059" lon="7.80136">
        <ele>137.156601</ele>
        <time>2021-06-20T07:46:29.999Z</time>
      </trkpt>
      <trkpt lat="48.60595" lon="7.80118">
        <ele>137.167659</ele>
        <time>2021-06-20T07:46:31.999Z</time>
      </trkpt>
      <trkpt lat="48.60597" lon="7.80099">
        <ele>137.17804</ele>
        <time>2021-06-20T07:46:33.999Z</time>
      </trkpt>
      <trkpt lat="48.60602" lon="7.80079">
        <ele>137.190063</ele>
        <time>2021-06-20T07:46:35.999Z</time>
      </trkpt>
      <trkpt lat="48.6061" lon="7.80063">
        <ele>137.201216</ele>
        <time>2021-06-20T07:46:37.999Z</time>
      </trkpt>
      <trkpt lat="48.60617" lon="7.8005">
        <ele>137.177814</ele>
        <time>2021-06-20T07:46:39.999Z</time>
      </trkpt>
      <trkpt lat="48.6062" lon="7.80036">
        <ele>137.150266</ele>
        <time>2021-06-20T07:46:41.999Z</time>
      </trkpt>
      <trkpt lat="48.60619" lon="7.80022">
        <ele>137.125371</ele>
        <time>2021-06-20T07:46:43.999Z</time>
      </trkpt>
      <trkpt lat="48.60612" lon="7.80004">
        <ele>137.088109</ele>
        <time>2021-06-20T07:46:45.999Z</time>
      </trkpt>
      <trkpt lat="48.60608" lon="7.79989">
        <ele>137.057725</ele>
        <time>2021-06-20T07:46:47.999Z</time>
      </trkpt>
      <trkpt lat="48.60602" lon="7.79974">
        <ele>137.025893</ele>
        <time>2021-06-20T07:46:49.999Z</time>
      </trkpt>
      <trkpt lat="48.60595" lon="7.79959">
        <ele>136.992825</ele>
        <time>2021-06-20T07:46:51.999Z</time>
      </trkpt>
      <trkpt lat="48.6059" lon="7.79944">
        <ele>136.96359</ele>
        <time>2021-06-20T07:46:53.999Z</time>
      </trkpt>
      <trkpt lat="48.60584" lon="7.79929">
        <ele>136.93145</ele>
        <time>2021-06-20T07:46:55.999Z</time>
      </trkpt>
      <trkpt lat="48.60578" lon="7.79915">
        <ele>136.900828</ele>
        <time>2021-06-20T07:46:57.999Z</time>
      </trkpt>
      <trkpt lat="48.60572" lon="7.79898">
        <ele>136.866729</ele>
        <time>2021-06-20T07:46:59.999Z</time>
      </trkpt>
      <trkpt lat="48.60561" lon="7.79886">
        <ele>136.828655</ele>
        <time>2021-06-20T07:47:01.999Z</time>
      </trkpt>
      <trkpt lat="48.60551" lon="7.79875">
        <ele>136.793974</ele>
        <time>2021-06-20T07:47:03.999Z</time>
      </trkpt>
      <trkpt lat="48.60541" lon="7.79863">
        <ele>136.759849</ele>
        <time>2021-06-20T07:47:05.999Z</time>
      </trkpt>
      <trkpt lat="48.60529" lon="7.79854">
        <ele>136.724693</ele>
        <time>2021-06-20T07:47:07.999Z</time>
      </trkpt>
      <trkpt lat="48.60517" lon="7.79845">
        <ele>136.75943</ele>
        <time>2021-06-20T07:47:09.999Z</time>
      </trkpt>
      <trkpt lat="48.60504" lon="7.79839">
        <ele>136.831745</ele>
        <time>2021-06-20T07:47:11.999Z</time>
      </trkpt>
      <trkpt lat="48.6049" lon="7.79837">
        <ele>136.903492</ele>
        <time>2021-06-20T07:47:13.999Z</time>
      </trkpt>
      <trkpt lat="48.60477" lon="7.79835">
        <ele>136.977277</ele>
        <time>2021-06-20T07:47:15.999Z</time>
      </trkpt>
      <trkpt lat="48.60464" lon="7.79834">
        <ele>137.045266</ele>
        <time>2021-06-20T07:47:17.999Z</time>
      </trkpt>
      <trkpt lat="48.60451" lon="7.79831">
        <ele>137.112491</ele>
        <time>2021-06-20T07:47:19.999Z</time>
      </trkpt>
      <trkpt lat="48.6044" lon="7.79825">
        <ele>137.178342</ele>
        <time>2021-06-20T07:47:21.999Z</time>
      </trkpt>
      <trkpt lat="48.6043" lon="7.79813">
        <ele>137.24357</ele>
        <time>2021-06-20T07:47:23.999Z</time>
      </trkpt>
      <trkpt lat="48.60423" lon="7.79799">
        <ele>137.306518</ele>
        <time>2021-06-20T07:47:25.999Z</time>
      </trkpt>
      <trkpt lat="48.60416" lon="7.79783">
        <ele>137.374281</ele>
        <time>2021-06-20T07:47:27.999Z</time>
      </trkpt>
      <trkpt lat="48.6041" lon="7.79768">
        <ele>137.436592</ele>
        <time>2021-06-20T07:47:29.999Z</time>
      </trkpt>
      <trkpt lat="48.60406" lon="7.79752">
        <ele>137.496359</ele>
        <time>2021-06-20T07:47:31.999Z</time>
      </trkpt>
      <trkpt lat="48.60402" lon="7.79739">
        <ele>137.548325</ele>
        <time>2021-06-20T07:47:33.999Z</time>
      </trkpt>
      <trkpt lat="48.60396" lon="7.79727">
        <ele>137.599217</ele>
        <time>2021-06-20T07:47:35.999Z</time>
      </trkpt>
      <trkpt lat="48.60391" lon="7.79715">
        <ele>137.653111</ele>
        <time>2021-06-20T07:47:37.999Z</time>
      </trkpt>
      <trkpt lat="48.60379" lon="7.79708">
        <ele>137.656093</ele>
        <time>2021-06-20T07:47:40.999Z</time>
      </trkpt>
      <trkpt lat="48.60373" lon="7.79692">
        <ele>137.63552</ele>
        <time>2021-06-20T07:47:42.999Z</time>
      </trkpt>
      <trkpt lat="48.60366" lon="7.79673">
        <ele>137.612125</ele>
        <time>2021-06-20T07:47:44.999Z</time>
      </trkpt>
      <trkpt lat="48.6036" lon="7.79655">
        <ele>137.589851</ele>
        <time>2021-06-20T07:47:46.999Z</time>
      </trkpt>
      <trkpt lat="48.60357" lon="7.79635">
        <ele>137.566325</ele>
        <time>2021-06-20T07:47:48.999Z</time>
      </trkpt>
      <trkpt lat="48.60352" lon="7.79616">
        <ele>137.543879</ele>
        <time>2021-06-20T07:47:50.999Z</time>
      </trkpt>
      <trkpt lat="48.60349" lon="7.79596">
        <ele>137.521666</ele>
        <time>2021-06-20T07:47:52.999Z</time>
      </trkpt>
      <trkpt lat="48.60346" lon="7.79578">
        <ele>137.501217</ele>
        <time>2021-06-20T07:47:54.999Z</time>
      </trkpt>
      <trkpt lat="48.60346" lon="7.79559">
        <ele>137.480237</ele>
        <time>2021-06-20T07:47:56.999Z</time>
      </trkpt>
      <trkpt lat="48.60348" lon="7.79539">
        <ele>137.457519</ele>
        <time>2021-06-20T07:47:58.999Z</time>
      </trkpt>
      <trkpt lat="48.60349" lon="7.7952">
        <ele>137.436208</ele>
        <time>2021-06-20T07:48:00.999Z</time>
      </trkpt>
      <trkpt lat="48.60351" lon="7.795">
        <ele>137.414047</ele>
        <time>2021-06-20T07:48:02.999Z</time>
      </trkpt>
      <trkpt lat="48.60352" lon="7.79481">
        <ele>137.392326</ele>
        <time>2021-06-20T07:48:04.999Z</time>
      </trkpt>
      <trkpt lat="48.60352" lon="7.79462">
        <ele>137.371124</ele>
        <time>2021-06-20T07:48:06.999Z</time>
      </trkpt>
      <trkpt lat="48.60351" lon="7.79443">
        <ele>137.409845</ele>
        <time>2021-06-20T07:48:08.999Z</time>
      </trkpt>
      <trkpt lat="48.60345" lon="7.79426">
        <ele>137.455082</ele>
        <time>2021-06-20T07:48:10.999Z</time>
      </trkpt>
      <trkpt lat="48.60339" lon="7.79408">
        <ele>137.503363</ele>
        <time>2021-06-20T07:48:12.999Z</time>
      </trkpt>
      <trkpt lat="48.60334" lon="7.79392">
        <ele>137.54542</ele>
        <time>2021-06-20T07:48:14.999Z</time>
      </trkpt>
      <trkpt lat="48.60327" lon="7.79374">
        <ele>137.592215</ele>
        <time>2021-06-20T07:48:16.999Z</time>
      </trkpt>
      <trkpt lat="48.60321" lon="7.79358">
        <ele>137.636233</ele>
        <time>2021-06-20T07:48:18.999Z</time>
      </trkpt>
      <trkpt lat="48.60316" lon="7.79343">
        <ele>137.677681</ele>
        <time>2021-06-20T07:48:20.999Z</time>
      </trkpt>
      <trkpt lat="48.60311" lon="7.79326">
        <ele>137.719977</ele>
        <time>2021-06-20T07:48:22.999Z</time>
      </trkpt>
      <trkpt lat="48.60306" lon="7.79311">
        <ele>137.759563</ele>
        <time>2021-06-20T07:48:24.999Z</time>
      </trkpt>
      <trkpt lat="48.60302" lon="7.79295">
        <ele>137.800371</ele>
        <time>2021-06-20T07:48:26.999Z</time>
      </trkpt>
      <trkpt lat="48.60305" lon="7.79279">
        <ele>137.838498</ele>
        <time>2021-06-20T07:48:28.999Z</time>
      </trkpt>
      <trkpt lat="48.60306" lon="7.79264">
        <ele>137.874008</ele>
        <time>2021-06-20T07:48:30.999Z</time>
      </trkpt>
      <trkpt lat="48.60308" lon="7.79247">
        <ele>137.91502</ele>
        <time>2021-06-20T07:48:32.999Z</time>
      </trkpt>
      <trkpt lat="48.60313" lon="7.7923">
        <ele>137.958248</ele>
        <time>2021-06-20T07:48:34.999Z</time>
      </trkpt>
      <trkpt lat="48.60317" lon="7.79213">
        <ele>138.00112</ele>
        <time>2021-06-20T07:48:36.999Z</time>
      </trkpt>
      <trkpt lat="48.60322" lon="7.79195">
        <ele>138.029856</ele>
        <time>2021-06-20T07:48:38.999Z</time>
      </trkpt>
      <trkpt lat="48.60326" lon="7.79178">
        <ele>138.055246</ele>
        <time>2021-06-20T07:48:40.999Z</time>
      </trkpt>
      <trkpt lat="48.60329" lon="7.7916">
        <ele>138.081208</ele>
        <time>2021-06-20T07:48:42.999Z</time>
      </trkpt>
      <trkpt lat="48.60332" lon="7.79143">
        <ele>138.105498</ele>
        <time>2021-06-20T07:48:44.999Z</time>
      </trkpt>
      <trkpt lat="48.60334" lon="7.79126">
        <ele>138.129077</ele>
        <time>2021-06-20T07:48:46.999Z</time>
      </trkpt>
      <trkpt lat="48.60336" lon="7.79109">
        <ele>138.153492</ele>
        <time>2021-06-20T07:48:48.999Z</time>
      </trkpt>
      <trkpt lat="48.60338" lon="7.79089">
        <ele>138.18042</ele>
        <time>2021-06-20T07:48:50.999Z</time>
      </trkpt>
      <trkpt lat="48.60341" lon="7.79071">
        <ele>138.206011</ele>
        <time>2021-06-20T07:48:52.999Z</time>
      </trkpt>
      <trkpt lat="48.60344" lon="7.79052">
        <ele>138.233271</ele>
        <time>2021-06-20T07:48:54.999Z</time>
      </trkpt>
      <trkpt lat="48.60346" lon="7.79032">
        <ele>138.260752</ele>
        <time>2021-06-20T07:48:56.999Z</time>
      </trkpt>
      <trkpt lat="48.60349" lon="7.79012">
        <ele>138.288774</ele>
        <time>2021-06-20T07:48:58.999Z</time>
      </trkpt>
      <trkpt lat="48.6035" lon="7.78994">
        <ele>138.314571</ele>
        <time>2021-06-20T07:49:00.999Z</time>
      </trkpt>
      <trkpt lat="48.60353" lon="7.78973">
        <ele>138.343714</ele>
        <time>2021-06-20T07:49:02.999Z</time>
      </trkpt>
      <trkpt lat="48.60355" lon="7.78953">
        <ele>138.370812</ele>
        <time>2021-06-20T07:49:04.999Z</time>
      </trkpt>
      <trkpt lat="48.6036" lon="7.78935">
        <ele>138.371608</ele>
        <time>2021-06-20T07:49:06.999Z</time>
      </trkpt>
      <trkpt lat="48.60365" lon="7.78917">
        <ele>138.350007</ele>
        <time>2021-06-20T07:49:08.999Z</time>
      </trkpt>
      <trkpt lat="48.60368" lon="7.78896">
        <ele>138.326559</ele>
        <time>2021-06-20T07:49:10.999Z</time>
      </trkpt>
      <trkpt lat="48.60373" lon="7.78877">
        <ele>138.304414</ele>
        <time>2021-06-20T07:49:12.999Z</time>
      </trkpt>
      <trkpt lat="48.60376" lon="7.78859">
        <ele>138.283802</ele>
        <time>2021-06-20T07:49:14.999Z</time>
      </trkpt>
      <trkpt lat="48.60377" lon="7.78839">
        <ele>138.261209</ele>
        <time>2021-06-20T07:49:16.999Z</time>
      </trkpt>
      <trkpt lat="48.6038" lon="7.7882">
        <ele>138.23946</ele>
        <time>2021-06-20T07:49:18.999Z</time>
      </trkpt>
      <trkpt lat="48.60383" lon="7.78801">
        <ele>138.218178</ele>
        <time>2021-06-20T07:49:20.999Z</time>
      </trkpt>
      <trkpt lat="48.60383" lon="7.78781">
        <ele>138.196348</ele>
        <time>2021-06-20T07:49:22.999Z</time>
      </trkpt>
      <trkpt lat="48.60379" lon="7.78763">
        <ele>138.174938</ele>
        <time>2021-06-20T07:49:24.999Z</time>
      </trkpt>
      <trkpt lat="48.60373" lon="7.78745">
        <ele>138.153677</ele>
        <time>2021-06-20T07:49:26.999Z</time>
      </trkpt>
      <trkpt lat="48.60364" lon="7.7873">
        <ele>138.131156</ele>
        <time>2021-06-20T07:49:28.999Z</time>
      </trkpt>
      <trkpt lat="48.60356" lon="7.78712">
        <ele>138.106964</ele>
        <time>2021-06-20T07:49:30.999Z</time>
      </trkpt>
      <trkpt lat="48.60348" lon="7.78695">
        <ele>138.084596</ele>
        <time>2021-06-20T07:49:32.999Z</time>
      </trkpt>
      <trkpt lat="48.60341" lon="7.78678">
        <ele>138.120835</ele>
        <time>2021-06-20T07:49:34.999Z</time>
      </trkpt>
      <trkpt lat="48.60334" lon="7.7866">
        <ele>138.160302</ele>
        <time>2021-06-20T07:49:36.999Z</time>
      </trkpt>
      <trkpt lat="48.60329" lon="7.78639">
        <ele>138.201331</ele>
        <time>2021-06-20T07:49:38.999Z</time>
      </trkpt>
      <trkpt lat="48.60326" lon="7.78622">
        <ele>138.233227</ele>
        <time>2021-06-20T07:49:40.999Z</time>
      </trkpt>
      <trkpt lat="48.60329" lon="7.786">
        <ele>138.275304</ele>
        <time>2021-06-20T07:49:42.999Z</time>
      </trkpt>
      <trkpt lat="48.60338" lon="7.78583">
        <ele>138.316068</ele>
        <time>2021-06-20T07:49:44.999Z</time>
      </trkpt>
      <trkpt lat="48.60345" lon="7.78563">
        <ele>138.358429</ele>
        <time>2021-06-20T07:49:46.999Z</time>
      </trkpt>
      <trkpt lat="48.60348" lon="7.78543">
        <ele>138.396536</ele>
        <time>2021-06-20T07:49:48.999Z</time>
      </trkpt>
      <trkpt lat="48.60356" lon="7.78527">
        <ele>138.433748</ele>
        <time>2021-06-20T07:49:50.999Z</time>
      </trkpt>
      <trkpt lat="48.60362" lon="7.78511">
        <ele>138.469243</ele>
        <time>2021-06-20T07:49:52.999Z</time>
      </trkpt>
      <trkpt lat="48.60365" lon="7.78492">
        <ele>138.506037</ele>
        <time>2021-06-20T07:49:54.999Z</time>
      </trkpt>
      <trkpt lat="48.60367" lon="7.78474">
        <ele>138.53993</ele>
        <time>2021-06-20T07:49:56.999Z</time>
      </trkpt>
      <trkpt lat="48.60368" lon="7.78457">
        <ele>138.572191</ele>
        <time>2021-06-20T07:49:58.999Z</time>
      </trkpt>
      <trkpt lat="48.60368" lon="7.78439">
        <ele>138.568133</ele>
        <time>2021-06-20T07:50:00.999Z</time>
      </trkpt>
      <trkpt lat="48.60363" lon="7.78423">
        <ele>138.500452</ele>
        <time>2021-06-20T07:50:02.999Z</time>
      </trkpt>
      <trkpt lat="48.60356" lon="7.7841">
        <ele>138.440087</ele>
        <time>2021-06-20T07:50:04.999Z</time>
      </trkpt>
      <trkpt lat="48.6035" lon="7.784">
        <ele>138.388696</ele>
        <time>2021-06-20T07:50:06.999Z</time>
      </trkpt>
      <trkpt lat="48.60343" lon="7.7839">
        <ele>138.331969</ele>
        <time>2021-06-20T07:50:08.999Z</time>
      </trkpt>
      <trkpt lat="48.60335" lon="7.78381">
        <ele>138.274495</ele>
        <time>2021-06-20T07:50:10.999Z</time>
      </trkpt>
      <trkpt lat="48.60326" lon="7.78371">
        <ele>138.21411</ele>
        <time>2021-06-20T07:50:13.999Z</time>
      </trkpt>
      <trkpt lat="48.60331" lon="7.78383">
        <ele>138.160191</ele>
        <time>2021-06-20T07:50:19.999Z</time>
      </trkpt>
      <trkpt lat="48.60339" lon="7.7839">
        <ele>138.108817</ele>
        <time>2021-06-20T07:50:21.999Z</time>
      </trkpt>
      <trkpt lat="48.60348" lon="7.78401">
        <ele>138.043161</ele>
        <time>2021-06-20T07:50:23.999Z</time>
      </trkpt>
      <trkpt lat="48.60355" lon="7.78416">
        <ele>137.97247</ele>
        <time>2021-06-20T07:50:25.999Z</time>
      </trkpt>
      <trkpt lat="48.60361" lon="7.78431">
        <ele>137.906933</ele>
        <time>2021-06-20T07:50:27.999Z</time>
      </trkpt>
      <trkpt lat="48.60368" lon="7.78442">
        <ele>137.849787</ele>
        <time>2021-06-20T07:50:29.999Z</time>
      </trkpt>
      <trkpt lat="48.6038" lon="7.78447">
        <ele>137.775471</ele>
        <time>2021-06-20T07:50:31.999Z</time>
      </trkpt>
      <trkpt lat="48.60392" lon="7.78451">
        <ele>137.705303</ele>
        <time>2021-06-20T07:50:34.999Z</time>
      </trkpt>
      <trkpt lat="48.60402" lon="7.78447">
        <ele>137.649537</ele>
        <time>2021-06-20T07:50:36.999Z</time>
      </trkpt>
      <trkpt lat="48.60414" lon="7.78442">
        <ele>137.57791</ele>
        <time>2021-06-20T07:50:38.999Z</time>
      </trkpt>
      <trkpt lat="48.60426" lon="7.78434">
        <ele>137.53232</ele>
        <time>2021-06-20T07:50:40.999Z</time>
      </trkpt>
      <trkpt lat="48.60437" lon="7.78427">
        <ele>137.494867</ele>
        <time>2021-06-20T07:50:42.999Z</time>
      </trkpt>
      <trkpt lat="48.60447" lon="7.78419">
        <ele>137.45844</ele>
        <time>2021-06-20T07:50:44.999Z</time>
      </trkpt>
      <trkpt lat="48.60458" lon="7.78412">
        <ele>137.421506</ele>
        <time>2021-06-20T07:50:46.999Z</time>
      </trkpt>
      <trkpt lat="48.60469" lon="7.78405">
        <ele>137.38499</ele>
        <time>2021-06-20T07:50:48.999Z</time>
      </trkpt>
      <trkpt lat="48.60479" lon="7.78398">
        <ele>137.34885</ele>
        <time>2021-06-20T07:50:50.999Z</time>
      </trkpt>
      <trkpt lat="48.60489" lon="7.7839">
        <ele>137.314012</ele>
        <time>2021-06-20T07:50:52.999Z</time>
      </trkpt>
      <trkpt lat="48.605" lon="7.78385">
        <ele>137.277169</ele>
        <time>2021-06-20T07:50:54.999Z</time>
      </trkpt>
      <trkpt lat="48.60513" lon="7.7838">
        <ele>137.235283</ele>
        <time>2021-06-20T07:50:56.999Z</time>
      </trkpt>
      <trkpt lat="48.60524" lon="7.78374">
        <ele>137.199279</ele>
        <time>2021-06-20T07:50:58.999Z</time>
      </trkpt>
      <trkpt lat="48.60535" lon="7.78366">
        <ele>137.160579</ele>
        <time>2021-06-20T07:51:00.999Z</time>
      </trkpt>
      <trkpt lat="48.60546" lon="7.7836">
        <ele>137.12428</ele>
        <time>2021-06-20T07:51:02.999Z</time>
      </trkpt>
      <trkpt lat="48.60558" lon="7.78354">
        <ele>137.085389</ele>
        <time>2021-06-20T07:51:04.999Z</time>
      </trkpt>
      <trkpt lat="48.60569" lon="7.78348">
        <ele>137.048113</ele>
        <time>2021-06-20T07:51:06.999Z</time>
      </trkpt>
      <trkpt lat="48.60579" lon="7.7834">
        <ele>137.013572</ele>
        <time>2021-06-20T07:51:08.999Z</time>
      </trkpt>
      <trkpt lat="48.60586" lon="7.78329">
        <ele>136.992648</ele>
        <time>2021-06-20T07:51:10.999Z</time>
      </trkpt>
      <trkpt lat="48.60594" lon="7.78318">
        <ele>136.97557</ele>
        <time>2021-06-20T07:51:12.999Z</time>
      </trkpt>
      <trkpt lat="48.60598" lon="7.78303">
        <ele>136.959071</ele>
        <time>2021-06-20T07:51:14.999Z</time>
      </trkpt>
      <trkpt lat="48.60602" lon="7.78287">
        <ele>136.940722</ele>
        <time>2021-06-20T07:51:16.999Z</time>
      </trkpt>
      <trkpt lat="48.60605" lon="7.7827">
        <ele>136.922782</ele>
        <time>2021-06-20T07:51:18.999Z</time>
      </trkpt>
      <trkpt lat="48.60608" lon="7.78253">
        <ele>136.905222</ele>
        <time>2021-06-20T07:51:20.999Z</time>
      </trkpt>
      <trkpt lat="48.6061" lon="7.78235">
        <ele>136.886155</ele>
        <time>2021-06-20T07:51:22.999Z</time>
      </trkpt>
      <trkpt lat="48.60618" lon="7.78221">
        <ele>136.86558</ele>
        <time>2021-06-20T07:51:24.999Z</time>
      </trkpt>
      <trkpt lat="48.60631" lon="7.78214">
        <ele>136.844247</ele>
        <time>2021-06-20T07:51:26.999Z</time>
      </trkpt>
      <trkpt lat="48.60643" lon="7.78206">
        <ele>136.824114</ele>
        <time>2021-06-20T07:51:28.999Z</time>
      </trkpt>
      <trkpt lat="48.60655" lon="7.78198">
        <ele>136.802764</ele>
        <time>2021-06-20T07:51:30.999Z</time>
      </trkpt>
      <trkpt lat="48.60667" lon="7.7819">
        <ele>136.783432</ele>
        <time>2021-06-20T07:51:32.999Z</time>
      </trkpt>
      <trkpt lat="48.60677" lon="7.78184">
        <ele>136.765867</ele>
        <time>2021-06-20T07:51:34.999Z</time>
      </trkpt>
      <trkpt lat="48.60687" lon="7.78177">
        <ele>136.748232</ele>
        <time>2021-06-20T07:51:36.999Z</time>
      </trkpt>
      <trkpt lat="48.60697" lon="7.7817">
        <ele>136.73055</ele>
        <time>2021-06-20T07:51:38.999Z</time>
      </trkpt>
      <trkpt lat="48.60708" lon="7.78161">
        <ele>136.741278</ele>
        <time>2021-06-20T07:51:40.999Z</time>
      </trkpt>
      <trkpt lat="48.60718" lon="7.78149">
        <ele>136.787279</ele>
        <time>2021-06-20T07:51:42.999Z</time>
      </trkpt>
      <trkpt lat="48.60728" lon="7.78137">
        <ele>136.835049</ele>
        <time>2021-06-20T07:51:44.999Z</time>
      </trkpt>
      <trkpt lat="48.60735" lon="7.78121">
        <ele>136.880469</ele>
        <time>2021-06-20T07:51:46.999Z</time>
      </trkpt>
      <trkpt lat="48.60743" lon="7.78106">
        <ele>136.926774</ele>
        <time>2021-06-20T07:51:48.999Z</time>
      </trkpt>
      <trkpt lat="48.60752" lon="7.78091">
        <ele>136.975051</ele>
        <time>2021-06-20T07:51:50.999Z</time>
      </trkpt>
      <trkpt lat="48.60761" lon="7.78078">
        <ele>137.019016</ele>
        <time>2021-06-20T07:51:52.999Z</time>
      </trkpt>
      <trkpt lat="48.60768" lon="7.78063">
        <ele>137.06347</ele>
        <time>2021-06-20T07:51:54.999Z</time>
      </trkpt>
      <trkpt lat="48.60774" lon="7.78048">
        <ele>137.1055</ele>
        <time>2021-06-20T07:51:56.999Z</time>
      </trkpt>
      <trkpt lat="48.60779" lon="7.78032">
        <ele>137.148905</ele>
        <time>2021-06-20T07:51:58.999Z</time>
      </trkpt>
      <trkpt lat="48.60787" lon="7.78019">
        <ele>137.190627</ele>
        <time>2021-06-20T07:52:00.999Z</time>
      </trkpt>
      <trkpt lat="48.60798" lon="7.78009">
        <ele>137.238423</ele>
        <time>2021-06-20T07:52:02.999Z</time>
      </trkpt>
      <trkpt lat="48.60808" lon="7.77999">
        <ele>137.281738</ele>
        <time>2021-06-20T07:52:04.999Z</time>
      </trkpt>
      <trkpt lat="48.60819" lon="7.7799">
        <ele>137.326543</ele>
        <time>2021-06-20T07:52:06.999Z</time>
      </trkpt>
      <trkpt lat="48.60831" lon="7.77984">
        <ele>137.37151</ele>
        <time>2021-06-20T07:52:08.999Z</time>
      </trkpt>
      <trkpt lat="48.6084" lon="7.77978">
        <ele>137.329577</ele>
        <time>2021-06-20T07:52:10.999Z</time>
      </trkpt>
      <trkpt lat="48.60852" lon="7.77971">
        <ele>137.268051</ele>
        <time>2021-06-20T07:52:12.999Z</time>
      </trkpt>
      <trkpt lat="48.60862" lon="7.77967">
        <ele>137.216447</ele>
        <time>2021-06-20T07:52:14.999Z</time>
      </trkpt>
      <trkpt lat="48.60872" lon="7.77959">
        <ele>137.165805</ele>
        <time>2021-06-20T07:52:16.999Z</time>
      </trkpt>
      <trkpt lat="48.60883" lon="7.77959">
        <ele>137.113377</ele>
        <time>2021-06-20T07:52:18.999Z</time>
      </trkpt>
      <trkpt lat="48.60896" lon="7.77963">
        <ele>137.047934</ele>
        <time>2021-06-20T07:52:21.999Z</time>
      </trkpt>
      <trkpt lat="48.60904" lon="7.77968">
        <ele>137.004796</ele>
        <time>2021-06-20T07:52:23.999Z</time>
      </trkpt>
      <trkpt lat="48.60916" lon="7.77965">
        <ele>136.950642</ele>
        <time>2021-06-20T07:52:25.999Z</time>
      </trkpt>
      <trkpt lat="48.60923" lon="7.77951">
        <ele>136.894753</ele>
        <time>2021-06-20T07:52:27.999Z</time>
      </trkpt>
      <trkpt lat="48.60927" lon="7.77934">
        <ele>136.838105</ele>
        <time>2021-06-20T07:52:29.999Z</time>
      </trkpt>
      <trkpt lat="48.60931" lon="7.77919">
        <ele>136.786847</ele>
        <time>2021-06-20T07:52:31.999Z</time>
      </trkpt>
      <trkpt lat="48.60936" lon="7.77904">
        <ele>136.734052</ele>
        <time>2021-06-20T07:52:33.999Z</time>
      </trkpt>
      <trkpt lat="48.60942" lon="7.77889">
        <ele>136.680279</ele>
        <time>2021-06-20T07:52:35.999Z</time>
      </trkpt>
      <trkpt lat="48.60948" lon="7.77874">
        <ele>136.621641</ele>
        <time>2021-06-20T07:52:37.999Z</time>
      </trkpt>
      <trkpt lat="48.60955" lon="7.7786">
        <ele>136.567373</ele>
        <time>2021-06-20T07:52:39.999Z</time>
      </trkpt>
      <trkpt lat="48.60962" lon="7.77846">
        <ele>136.518384</ele>
        <time>2021-06-20T07:52:41.999Z</time>
      </trkpt>
      <trkpt lat="48.60968" lon="7.77831">
        <ele>136.58852</ele>
        <time>2021-06-20T07:52:43.999Z</time>
      </trkpt>
      <trkpt lat="48.60976" lon="7.77816">
        <ele>136.657242</ele>
        <time>2021-06-20T07:52:45.999Z</time>
      </trkpt>
      <trkpt lat="48.60984" lon="7.77803">
        <ele>136.725535</ele>
        <time>2021-06-20T07:52:47.999Z</time>
      </trkpt>
      <trkpt lat="48.60991" lon="7.77789">
        <ele>136.79503</ele>
        <time>2021-06-20T07:52:49.999Z</time>
      </trkpt>
      <trkpt lat="48.60998" lon="7.77775">
        <ele>136.861495</ele>
        <time>2021-06-20T07:52:51.999Z</time>
      </trkpt>
      <trkpt lat="48.61005" lon="7.77762">
        <ele>136.924682</ele>
        <time>2021-06-20T07:52:53.999Z</time>
      </trkpt>
      <trkpt lat="48.61013" lon="7.7775">
        <ele>136.989911</ele>
        <time>2021-06-20T07:52:55.999Z</time>
      </trkpt>
      <trkpt lat="48.61023" lon="7.77737">
        <ele>137.064045</ele>
        <time>2021-06-20T07:52:57.999Z</time>
      </trkpt>
      <trkpt lat="48.61033" lon="7.77731">
        <ele>137.125934</ele>
        <time>2021-06-20T07:52:59.999Z</time>
      </trkpt>
      <trkpt lat="48.61044" lon="7.77739">
        <ele>137.197715</ele>
        <time>2021-06-20T07:53:01.999Z</time>
      </trkpt>
      <trkpt lat="48.61054" lon="7.7775">
        <ele>137.26939</ele>
        <time>2021-06-20T07:53:03.999Z</time>
      </trkpt>
      <trkpt lat="48.61067" lon="7.77759">
        <ele>137.347135</ele>
        <time>2021-06-20T07:53:05.999Z</time>
      </trkpt>
      <trkpt lat="48.61078" lon="7.77767">
        <ele>137.419228</ele>
        <time>2021-06-20T07:53:07.999Z</time>
      </trkpt>
      <trkpt lat="48.61088" lon="7.77776">
        <ele>137.489119</ele>
        <time>2021-06-20T07:53:09.999Z</time>
      </trkpt>
      <trkpt lat="48.611" lon="7.77786">
        <ele>137.546259</ele>
        <time>2021-06-20T07:53:11.999Z</time>
      </trkpt>
      <trkpt lat="48.61109" lon="7.77793">
        <ele>137.527105</ele>
        <time>2021-06-20T07:53:13.999Z</time>
      </trkpt>
      <trkpt lat="48.6112" lon="7.778">
        <ele>137.505028</ele>
        <time>2021-06-20T07:53:15.999Z</time>
      </trkpt>
      <trkpt lat="48.6113" lon="7.77808">
        <ele>137.484424</ele>
        <time>2021-06-20T07:53:17.999Z</time>
      </trkpt>
      <trkpt lat="48.6114" lon="7.77816">
        <ele>137.464558</ele>
        <time>2021-06-20T07:53:19.999Z</time>
      </trkpt>
      <trkpt lat="48.61149" lon="7.77823">
        <ele>137.44661</ele>
        <time>2021-06-20T07:53:21.999Z</time>
      </trkpt>
      <trkpt lat="48.61159" lon="7.77832">
        <ele>137.425631</ele>
        <time>2021-06-20T07:53:23.999Z</time>
      </trkpt>
      <trkpt lat="48.61169" lon="7.77839">
        <ele>137.404972</ele>
        <time>2021-06-20T07:53:25.999Z</time>
      </trkpt>
      <trkpt lat="48.61178" lon="7.77845">
        <ele>137.387289</ele>
        <time>2021-06-20T07:53:27.999Z</time>
      </trkpt>
      <trkpt lat="48.61188" lon="7.77853">
        <ele>137.366727</ele>
        <time>2021-06-20T07:53:31.999Z</time>
      </trkpt>
      <trkpt lat="48.61195" lon="7.77841">
        <ele>137.346073</ele>
        <time>2021-06-20T07:53:34.999Z</time>
      </trkpt>
      <trkpt lat="48.61201" lon="7.77822">
        <ele>137.321305</ele>
        <time>2021-06-20T07:53:37.999Z</time>
      </trkpt>
      <trkpt lat="48.61204" lon="7.77807">
        <ele>137.301737</ele>
        <time>2021-06-20T07:53:39.999Z</time>
      </trkpt>
      <trkpt lat="48.61208" lon="7.77791">
        <ele>137.281826</ele>
        <time>2021-06-20T07:53:41.999Z</time>
      </trkpt>
      <trkpt lat="48.61211" lon="7.77774">
        <ele>137.260928</ele>
        <time>2021-06-20T07:53:43.999Z</time>
      </trkpt>
      <trkpt lat="48.61214" lon="7.77758">
        <ele>137.239656</ele>
        <time>2021-06-20T07:53:45.999Z</time>
      </trkpt>
      <trkpt lat="48.61218" lon="7.77741">
        <ele>137.230439</ele>
        <time>2021-06-20T07:53:47.999Z</time>
      </trkpt>
      <trkpt lat="48.61222" lon="7.77724">
        <ele>137.276112</ele>
        <time>2021-06-20T07:53:49.999Z</time>
      </trkpt>
      <trkpt lat="48.61226" lon="7.77706">
        <ele>137.3232</ele>
        <time>2021-06-20T07:53:51.999Z</time>
      </trkpt>
      <trkpt lat="48.61231" lon="7.77689">
        <ele>137.368729</ele>
        <time>2021-06-20T07:53:53.999Z</time>
      </trkpt>
      <trkpt lat="48.61236" lon="7.77671">
        <ele>137.416538</ele>
        <time>2021-06-20T07:53:55.999Z</time>
      </trkpt>
      <trkpt lat="48.61239" lon="7.77653">
        <ele>137.464488</ele>
        <time>2021-06-20T07:53:57.999Z</time>
      </trkpt>
      <trkpt lat="48.61241" lon="7.77635">
        <ele>137.509196</ele>
        <time>2021-06-20T07:53:59.999Z</time>
      </trkpt>
      <trkpt lat="48.61245" lon="7.77617">
        <ele>137.556448</ele>
        <time>2021-06-20T07:54:01.999Z</time>
      </trkpt>
      <trkpt lat="48.61249" lon="7.776">
        <ele>137.600945</ele>
        <time>2021-06-20T07:54:03.999Z</time>
      </trkpt>
      <trkpt lat="48.61254" lon="7.77585">
        <ele>137.642466</ele>
        <time>2021-06-20T07:54:05.999Z</time>
      </trkpt>
      <trkpt lat="48.6126" lon="7.77571">
        <ele>137.68406</ele>
        <time>2021-06-20T07:54:07.999Z</time>
      </trkpt>
      <trkpt lat="48.61265" lon="7.77555">
        <ele>137.72838</ele>
        <time>2021-06-20T07:54:09.999Z</time>
      </trkpt>
      <trkpt lat="48.61266" lon="7.77537">
        <ele>137.771314</ele>
        <time>2021-06-20T07:54:11.999Z</time>
      </trkpt>
      <trkpt lat="48.61268" lon="7.77521">
        <ele>137.813348</ele>
        <time>2021-06-20T07:54:13.999Z</time>
      </trkpt>
      <trkpt lat="48.61271" lon="7.77503">
        <ele>137.858174</ele>
        <time>2021-06-20T07:54:15.999Z</time>
      </trkpt>
      <trkpt lat="48.61276" lon="7.77487">
        <ele>137.902053</ele>
        <time>2021-06-20T07:54:17.999Z</time>
      </trkpt>
      <trkpt lat="48.61277" lon="7.77468">
        <ele>137.946608</ele>
        <time>2021-06-20T07:54:19.999Z</time>
      </trkpt>
      <trkpt lat="48.61281" lon="7.77451">
        <ele>137.989878</ele>
        <time>2021-06-20T07:54:21.999Z</time>
      </trkpt>
      <trkpt lat="48.61285" lon="7.77436">
        <ele>138.027035</ele>
        <time>2021-06-20T07:54:23.999Z</time>
      </trkpt>
      <trkpt lat="48.61287" lon="7.7742">
        <ele>138.067182</ele>
        <time>2021-06-20T07:54:25.999Z</time>
      </trkpt>
      <trkpt lat="48.61291" lon="7.77402">
        <ele>138.111542</ele>
        <time>2021-06-20T07:54:27.999Z</time>
      </trkpt>
      <trkpt lat="48.61294" lon="7.77382">
        <ele>138.161576</ele>
        <time>2021-06-20T07:54:29.999Z</time>
      </trkpt>
      <trkpt lat="48.61297" lon="7.77365">
        <ele>138.201692</ele>
        <time>2021-06-20T07:54:31.999Z</time>
      </trkpt>
      <trkpt lat="48.61299" lon="7.7735">
        <ele>138.238655</ele>
        <time>2021-06-20T07:54:33.999Z</time>
      </trkpt>
      <trkpt lat="48.61304" lon="7.77333">
        <ele>138.281615</ele>
        <time>2021-06-20T07:54:36.999Z</time>
      </trkpt>
      <trkpt lat="48.61308" lon="7.7732">
        <ele>138.316264</ele>
        <time>2021-06-20T07:54:39.999Z</time>
      </trkpt>
      <trkpt lat="48.61313" lon="7.77307">
        <ele>138.351006</ele>
        <time>2021-06-20T07:54:43.999Z</time>
      </trkpt>
      <trkpt lat="48.61313" lon="7.77293">
        <ele>138.384404</ele>
        <time>2021-06-20T07:55:12.999Z</time>
      </trkpt>
      <trkpt lat="48.61316" lon="7.77279">
        <ele>138.418897</ele>
        <time>2021-06-20T07:55:16.999Z</time>
      </trkpt>
      <trkpt lat="48.61317" lon="7.77263">
        <ele>138.456984</ele>
        <time>2021-06-20T07:55:20.999Z</time>
      </trkpt>
      <trkpt lat="48.6132" lon="7.77244">
        <ele>138.501877</ele>
        <time>2021-06-20T07:55:23.999Z</time>
      </trkpt>
      <trkpt lat="48.61321" lon="7.77228">
        <ele>138.540574</ele>
        <time>2021-06-20T07:55:25.999Z</time>
      </trkpt>
      <trkpt lat="48.61325" lon="7.77215">
        <ele>138.513847</ele>
        <time>2021-06-20T07:55:27.999Z</time>
      </trkpt>
      <trkpt lat="48.61328" lon="7.77201">
        <ele>138.484246</ele>
        <time>2021-06-20T07:55:29.999Z</time>
      </trkpt>
      <trkpt lat="48.61331" lon="7.77181">
        <ele>138.44609</ele>
        <time>2021-06-20T07:55:31.999Z</time>
      </trkpt>
      <trkpt lat="48.61332" lon="7.77162">
        <ele>138.409723</ele>
        <time>2021-06-20T07:55:33.999Z</time>
      </trkpt>
      <trkpt lat="48.61334" lon="7.77142">
        <ele>138.371276</ele>
        <time>2021-06-20T07:55:35.999Z</time>
      </trkpt>
      <trkpt lat="48.61335" lon="7.77123">
        <ele>138.333917</ele>
        <time>2021-06-20T07:55:37.999Z</time>
      </trkpt>
      <trkpt lat="48.61335" lon="7.77103">
        <ele>138.296803</ele>
        <time>2021-06-20T07:55:39.999Z</time>
      </trkpt>
      <trkpt lat="48.61334" lon="7.77086">
        <ele>138.26425</ele>
        <time>2021-06-20T07:55:41.999Z</time>
      </trkpt>
      <trkpt lat="48.61334" lon="7.77066">
        <ele>138.226197</ele>
        <time>2021-06-20T07:55:43.999Z</time>
      </trkpt>
      <trkpt lat="48.61334" lon="7.77047">
        <ele>138.189482</ele>
        <time>2021-06-20T07:55:45.999Z</time>
      </trkpt>
      <trkpt lat="48.61337" lon="7.7703">
        <ele>138.154811</ele>
        <time>2021-06-20T07:55:47.999Z</time>
      </trkpt>
      <trkpt lat="48.61335" lon="7.7701">
        <ele>138.116323</ele>
        <time>2021-06-20T07:55:49.999Z</time>
      </trkpt>
      <trkpt lat="48.61331" lon="7.76991">
        <ele>138.079193</ele>
        <time>2021-06-20T07:55:51.999Z</time>
      </trkpt>
      <trkpt lat="48.61327" lon="7.76972">
        <ele>138.040067</ele>
        <time>2021-06-20T07:55:53.999Z</time>
      </trkpt>
      <trkpt lat="48.61322" lon="7.76953">
        <ele>137.974302</ele>
        <time>2021-06-20T07:55:55.999Z</time>
      </trkpt>
      <trkpt lat="48.61317" lon="7.76934">
        <ele>137.876861</ele>
        <time>2021-06-20T07:55:57.999Z</time>
      </trkpt>
      <trkpt lat="48.61313" lon="7.76915">
        <ele>137.78349</ele>
        <time>2021-06-20T07:55:59.999Z</time>
      </trkpt>
      <trkpt lat="48.61309" lon="7.76897">
        <ele>137.692589</ele>
        <time>2021-06-20T07:56:01.999Z</time>
      </trkpt>
      <trkpt lat="48.61305" lon="7.7688">
        <ele>137.604196</ele>
        <time>2021-06-20T07:56:03.999Z</time>
      </trkpt>
      <trkpt lat="48.613" lon="7.76866">
        <ele>137.527623</ele>
        <time>2021-06-20T07:56:05.999Z</time>
      </trkpt>
      <trkpt lat="48.61294" lon="7.76852">
        <ele>137.450757</ele>
        <time>2021-06-20T07:56:07.999Z</time>
      </trkpt>
      <trkpt lat="48.61289" lon="7.76837">
        <ele>137.371067</ele>
        <time>2021-06-20T07:56:09.999Z</time>
      </trkpt>
      <trkpt lat="48.61285" lon="7.76821">
        <ele>137.290101</ele>
        <time>2021-06-20T07:56:11.999Z</time>
      </trkpt>
      <trkpt lat="48.61281" lon="7.76805">
        <ele>137.208906</ele>
        <time>2021-06-20T07:56:13.999Z</time>
      </trkpt>
      <trkpt lat="48.61277" lon="7.7679">
        <ele>137.130096</ele>
        <time>2021-06-20T07:56:15.999Z</time>
      </trkpt>
      <trkpt lat="48.61273" lon="7.76774">
        <ele>137.05151</ele>
        <time>2021-06-20T07:56:17.999Z</time>
      </trkpt>
      <trkpt lat="48.61269" lon="7.76761">
        <ele>136.979509</ele>
        <time>2021-06-20T07:56:19.999Z</time>
      </trkpt>
      <trkpt lat="48.61269" lon="7.76742">
        <ele>136.89112</ele>
        <time>2021-06-20T07:56:22.999Z</time>
      </trkpt>
      <trkpt lat="48.6128" lon="7.76736">
        <ele>136.810639</ele>
        <time>2021-06-20T07:56:24.999Z</time>
      </trkpt>
      <trkpt lat="48.61292" lon="7.76733">
        <ele>136.727447</ele>
        <time>2021-06-20T07:56:26.999Z</time>
      </trkpt>
      <trkpt lat="48.61303" lon="7.7673">
        <ele>136.715587</ele>
        <time>2021-06-20T07:56:28.999Z</time>
      </trkpt>
      <trkpt lat="48.61315" lon="7.76725">
        <ele>136.70268</ele>
        <time>2021-06-20T07:56:30.999Z</time>
      </trkpt>
      <trkpt lat="48.61327" lon="7.76724">
        <ele>136.689375</ele>
        <time>2021-06-20T07:56:32.999Z</time>
      </trkpt>
      <trkpt lat="48.61338" lon="7.76721">
        <ele>136.677407</ele>
        <time>2021-06-20T07:56:34.999Z</time>
      </trkpt>
      <trkpt lat="48.61349" lon="7.76719">
        <ele>136.665119</ele>
        <time>2021-06-20T07:56:36.999Z</time>
      </trkpt>
      <trkpt lat="48.6136" lon="7.76717">
        <ele>136.653374</ele>
        <time>2021-06-20T07:56:38.999Z</time>
      </trkpt>
      <trkpt lat="48.6137" lon="7.76715">
        <ele>136.641968</ele>
        <time>2021-06-20T07:56:40.999Z</time>
      </trkpt>
      <trkpt lat="48.61383" lon="7.76713">
        <ele>136.628611</ele>
        <time>2021-06-20T07:56:42.999Z</time>
      </trkpt>
      <trkpt lat="48.61395" lon="7.76711">
        <ele>136.615112</ele>
        <time>2021-06-20T07:56:44.999Z</time>
      </trkpt>
      <trkpt lat="48.61407" lon="7.76711">
        <ele>136.602486</ele>
        <time>2021-06-20T07:56:46.999Z</time>
      </trkpt>
      <trkpt lat="48.6142" lon="7.7671">
        <ele>136.588475</ele>
        <time>2021-06-20T07:56:48.999Z</time>
      </trkpt>
      <trkpt lat="48.61434" lon="7.76711">
        <ele>136.57371</ele>
        <time>2021-06-20T07:56:50.999Z</time>
      </trkpt>
      <trkpt lat="48.61449" lon="7.76715">
        <ele>136.556845</ele>
        <time>2021-06-20T07:56:52.999Z</time>
      </trkpt>
      <trkpt lat="48.61464" lon="7.76719">
        <ele>136.540561</ele>
        <time>2021-06-20T07:56:54.999Z</time>
      </trkpt>
      <trkpt lat="48.61478" lon="7.76724">
        <ele>136.55235</ele>
        <time>2021-06-20T07:56:56.999Z</time>
      </trkpt>
      <trkpt lat="48.61492" lon="7.76731">
        <ele>136.579966</ele>
        <time>2021-06-20T07:56:58.999Z</time>
      </trkpt>
      <trkpt lat="48.61507" lon="7.76736">
        <ele>136.609373</ele>
        <time>2021-06-20T07:57:00.999Z</time>
      </trkpt>
      <trkpt lat="48.61521" lon="7.76742">
        <ele>136.637693</ele>
        <time>2021-06-20T07:57:02.999Z</time>
      </trkpt>
      <trkpt lat="48.61534" lon="7.76749">
        <ele>136.666089</ele>
        <time>2021-06-20T07:57:04.999Z</time>
      </trkpt>
      <trkpt lat="48.61545" lon="7.76762">
        <ele>136.691932</ele>
        <time>2021-06-20T07:57:06.999Z</time>
      </trkpt>
      <trkpt lat="48.61553" lon="7.76778">
        <ele>136.717895</ele>
        <time>2021-06-20T07:57:08.999Z</time>
      </trkpt>
      <trkpt lat="48.61563" lon="7.76794">
        <ele>136.745176</ele>
        <time>2021-06-20T07:57:10.999Z</time>
      </trkpt>
      <trkpt lat="48.61574" lon="7.76804">
        <ele>136.769628</ele>
        <time>2021-06-20T07:57:12.999Z</time>
      </trkpt>
      <trkpt lat="48.61585" lon="7.7681">
        <ele>136.793275</ele>
        <time>2021-06-20T07:57:14.999Z</time>
      </trkpt>
      <trkpt lat="48.61591" lon="7.76821">
        <ele>136.81126</ele>
        <time>2021-06-20T07:57:16.999Z</time>
      </trkpt>
      <trkpt lat="48.61595" lon="7.76836">
        <ele>136.832017</ele>
        <time>2021-06-20T07:57:19.999Z</time>
      </trkpt>
      <trkpt lat="48.61603" lon="7.76843">
        <ele>136.849588</ele>
        <time>2021-06-20T07:57:21.999Z</time>
      </trkpt>
      <trkpt lat="48.61612" lon="7.76853">
        <ele>136.871101</ele>
        <time>2021-06-20T07:57:23.999Z</time>
      </trkpt>
      <trkpt lat="48.61623" lon="7.76864">
        <ele>136.879155</ele>
        <time>2021-06-20T07:57:25.999Z</time>
      </trkpt>
      <trkpt lat="48.61632" lon="7.76874">
        <ele>136.874125</ele>
        <time>2021-06-20T07:57:27.999Z</time>
      </trkpt>
      <trkpt lat="48.61642" lon="7.76884">
        <ele>136.868849</ele>
        <time>2021-06-20T07:57:29.999Z</time>
      </trkpt>
      <trkpt lat="48.61651" lon="7.76893">
        <ele>136.863689</ele>
        <time>2021-06-20T07:57:31.999Z</time>
      </trkpt>
      <trkpt lat="48.61661" lon="7.76901">
        <ele>136.858901</ele>
        <time>2021-06-20T07:57:34.999Z</time>
      </trkpt>
      <trkpt lat="48.61668" lon="7.76912">
        <ele>136.854291</ele>
        <time>2021-06-20T07:57:37.999Z</time>
      </trkpt>
      <trkpt lat="48.61676" lon="7.7692">
        <ele>136.850039</ele>
        <time>2021-06-20T07:57:39.999Z</time>
      </trkpt>
      <trkpt lat="48.61687" lon="7.76928">
        <ele>136.844614</ele>
        <time>2021-06-20T07:57:41.999Z</time>
      </trkpt>
      <trkpt lat="48.61696" lon="7.76938">
        <ele>136.839431</ele>
        <time>2021-06-20T07:57:43.999Z</time>
      </trkpt>
      <trkpt lat="48.61706" lon="7.76947">
        <ele>136.834049</ele>
        <time>2021-06-20T07:57:45.999Z</time>
      </trkpt>
      <trkpt lat="48.61716" lon="7.76956">
        <ele>136.829035</ele>
        <time>2021-06-20T07:57:47.999Z</time>
      </trkpt>
      <trkpt lat="48.61726" lon="7.76966">
        <ele>136.823639</ele>
        <time>2021-06-20T07:57:49.999Z</time>
      </trkpt>
      <trkpt lat="48.61735" lon="7.76974">
        <ele>136.818766</ele>
        <time>2021-06-20T07:57:51.999Z</time>
      </trkpt>
      <trkpt lat="48.61745" lon="7.76982">
        <ele>136.813663</ele>
        <time>2021-06-20T07:57:53.999Z</time>
      </trkpt>
      <trkpt lat="48.61754" lon="7.7699">
        <ele>136.808865</ele>
        <time>2021-06-20T07:57:55.999Z</time>
      </trkpt>
      <trkpt lat="48.61765" lon="7.76998">
        <ele>136.803654</ele>
        <time>2021-06-20T07:57:57.999Z</time>
      </trkpt>
      <trkpt lat="48.61777" lon="7.77009">
        <ele>136.797785</ele>
        <time>2021-06-20T07:58:00.999Z</time>
      </trkpt>
      <trkpt lat="48.61786" lon="7.77011">
        <ele>136.794323</ele>
        <time>2021-06-20T07:58:02.999Z</time>
      </trkpt>
      <trkpt lat="48.61796" lon="7.77021">
        <ele>136.789898</ele>
        <time>2021-06-20T07:58:04.999Z</time>
      </trkpt>
      <trkpt lat="48.61807" lon="7.77034">
        <ele>136.784868</ele>
        <time>2021-06-20T07:58:06.999Z</time>
      </trkpt>
      <trkpt lat="48.61817" lon="7.77046">
        <ele>136.779932</ele>
        <time>2021-06-20T07:58:08.999Z</time>
      </trkpt>
      <trkpt lat="48.61828" lon="7.77057">
        <ele>136.775033</ele>
        <time>2021-06-20T07:58:10.999Z</time>
      </trkpt>
      <trkpt lat="48.61837" lon="7.77071">
        <ele>136.770105</ele>
        <time>2021-06-20T07:58:12.999Z</time>
      </trkpt>
      <trkpt lat="48.61847" lon="7.77085">
        <ele>136.765231</ele>
        <time>2021-06-20T07:58:14.999Z</time>
      </trkpt>
      <trkpt lat="48.61857" lon="7.77099">
        <ele>136.760161</ele>
        <time>2021-06-20T07:58:16.999Z</time>
      </trkpt>
      <trkpt lat="48.61867" lon="7.77112">
        <ele>136.755374</ele>
        <time>2021-06-20T07:58:18.999Z</time>
      </trkpt>
      <trkpt lat="48.61877" lon="7.77127">
        <ele>136.749895</ele>
        <time>2021-06-20T07:58:20.999Z</time>
      </trkpt>
      <trkpt lat="48.61886" lon="7.77143">
        <ele>136.744681</ele>
        <time>2021-06-20T07:58:22.999Z</time>
      </trkpt>
      <trkpt lat="48.61896" lon="7.77158">
        <ele>136.739565</ele>
        <time>2021-06-20T07:58:24.999Z</time>
      </trkpt>
      <trkpt lat="48.61904" lon="7.77173">
        <ele>136.73472</ele>
        <time>2021-06-20T07:58:26.999Z</time>
      </trkpt>
      <trkpt lat="48.61913" lon="7.77188">
        <ele>136.721044</ele>
        <time>2021-06-20T07:58:28.999Z</time>
      </trkpt>
      <trkpt lat="48.61921" lon="7.77203">
        <ele>136.706569</ele>
        <time>2021-06-20T07:58:30.999Z</time>
      </trkpt>
      <trkpt lat="48.61927" lon="7.77218">
        <ele>136.693524</ele>
        <time>2021-06-20T07:58:32.999Z</time>
      </trkpt>
      <trkpt lat="48.61932" lon="7.77235">
        <ele>136.679754</ele>
        <time>2021-06-20T07:58:34.999Z</time>
      </trkpt>
      <trkpt lat="48.61937" lon="7.77253">
        <ele>136.665804</ele>
        <time>2021-06-20T07:58:36.999Z</time>
      </trkpt>
      <trkpt lat="48.61942" lon="7.7727">
        <ele>136.651661</ele>
        <time>2021-06-20T07:58:38.999Z</time>
      </trkpt>
      <trkpt lat="48.61946" lon="7.77289">
        <ele>136.637377</ele>
        <time>2021-06-20T07:58:40.999Z</time>
      </trkpt>
      <trkpt lat="48.61949" lon="7.77308">
        <ele>136.622668</ele>
        <time>2021-06-20T07:58:42.999Z</time>
      </trkpt>
      <trkpt lat="48.61951" lon="7.77328">
        <ele>136.608024</ele>
        <time>2021-06-20T07:58:44.999Z</time>
      </trkpt>
      <trkpt lat="48.61951" lon="7.77347">
        <ele>136.593787</ele>
        <time>2021-06-20T07:58:46.999Z</time>
      </trkpt>
      <trkpt lat="48.61954" lon="7.77366">
        <ele>136.579568</ele>
        <time>2021-06-20T07:58:48.999Z</time>
      </trkpt>
      <trkpt lat="48.61953" lon="7.77383">
        <ele>136.566866</ele>
        <time>2021-06-20T07:58:50.999Z</time>
      </trkpt>
      <trkpt lat="48.61949" lon="7.774">
        <ele>136.55405</ele>
        <time>2021-06-20T07:58:52.999Z</time>
      </trkpt>
      <trkpt lat="48.61944" lon="7.77421">
        <ele>136.537287</ele>
        <time>2021-06-20T07:58:54.999Z</time>
      </trkpt>
      <trkpt lat="48.6194" lon="7.77443">
        <ele>136.51737</ele>
        <time>2021-06-20T07:58:56.999Z</time>
      </trkpt>
      <trkpt lat="48.61936" lon="7.77464">
        <ele>136.496536</ele>
        <time>2021-06-20T07:58:58.999Z</time>
      </trkpt>
      <trkpt lat="48.6193" lon="7.77483">
        <ele>136.476854</ele>
        <time>2021-06-20T07:59:00.999Z</time>
      </trkpt>
      <trkpt lat="48.61927" lon="7.77501">
        <ele>136.458823</ele>
        <time>2021-06-20T07:59:02.999Z</time>
      </trkpt>
      <trkpt lat="48.61922" lon="7.77521">
        <ele>136.438968</ele>
        <time>2021-06-20T07:59:04.999Z</time>
      </trkpt>
      <trkpt lat="48.61918" lon="7.77539">
        <ele>136.420681</ele>
        <time>2021-06-20T07:59:06.999Z</time>
      </trkpt>
      <trkpt lat="48.61913" lon="7.77558">
        <ele>136.401789</ele>
        <time>2021-06-20T07:59:08.999Z</time>
      </trkpt>
      <trkpt lat="48.6191" lon="7.77578">
        <ele>136.382505</ele>
        <time>2021-06-20T07:59:10.999Z</time>
      </trkpt>
      <trkpt lat="48.61905" lon="7.77596">
        <ele>136.364558</ele>
        <time>2021-06-20T07:59:12.999Z</time>
      </trkpt>
      <trkpt lat="48.619" lon="7.77614">
        <ele>136.345798</ele>
        <time>2021-06-20T07:59:14.999Z</time>
      </trkpt>
      <trkpt lat="48.61896" lon="7.77631">
        <ele>136.328707</ele>
        <time>2021-06-20T07:59:16.999Z</time>
      </trkpt>
      <trkpt lat="48.61892" lon="7.77645">
        <ele>136.314682</ele>
        <time>2021-06-20T07:59:18.999Z</time>
      </trkpt>
      <trkpt lat="48.61893" lon="7.77663">
        <ele>136.297426</ele>
        <time>2021-06-20T07:59:21.999Z</time>
      </trkpt>
      <trkpt lat="48.61895" lon="7.77678">
        <ele>136.282772</ele>
        <time>2021-06-20T07:59:24.999Z</time>
      </trkpt>
      <trkpt lat="48.61894" lon="7.77693">
        <ele>136.267663</ele>
        <time>2021-06-20T07:59:27.999Z</time>
      </trkpt>
      <trkpt lat="48.6189" lon="7.77709">
        <ele>136.250898</ele>
        <time>2021-06-20T07:59:30.999Z</time>
      </trkpt>
      <trkpt lat="48.61891" lon="7.77728">
        <ele>136.232311</ele>
        <time>2021-06-20T07:59:33.999Z</time>
      </trkpt>
      <trkpt lat="48.61887" lon="7.77745">
        <ele>136.213985</ele>
        <time>2021-06-20T07:59:35.999Z</time>
      </trkpt>
      <trkpt lat="48.61879" lon="7.77757">
        <ele>136.198015</ele>
        <time>2021-06-20T07:59:37.999Z</time>
      </trkpt>
      <trkpt lat="48.61875" lon="7.77775">
        <ele>136.178586</ele>
        <time>2021-06-20T07:59:39.999Z</time>
      </trkpt>
      <trkpt lat="48.61869" lon="7.77794">
        <ele>136.158146</ele>
        <time>2021-06-20T07:59:41.999Z</time>
      </trkpt>
      <trkpt lat="48.61865" lon="7.77812">
        <ele>136.138635</ele>
        <time>2021-06-20T07:59:43.999Z</time>
      </trkpt>
      <trkpt lat="48.6186" lon="7.77829">
        <ele>136.120076</ele>
        <time>2021-06-20T07:59:45.999Z</time>
      </trkpt>
      <trkpt lat="48.61855" lon="7.77846">
        <ele>136.102343</ele>
        <time>2021-06-20T07:59:47.999Z</time>
      </trkpt>
      <trkpt lat="48.6185" lon="7.77861">
        <ele>136.085383</ele>
        <time>2021-06-20T07:59:49.999Z</time>
      </trkpt>
      <trkpt lat="48.61846" lon="7.77876">
        <ele>136.06835</ele>
        <time>2021-06-20T07:59:51.999Z</time>
      </trkpt>
      <trkpt lat="48.61841" lon="7.77891">
        <ele>136.051833</ele>
        <time>2021-06-20T07:59:53.999Z</time>
      </trkpt>
      <trkpt lat="48.61837" lon="7.77907">
        <ele>136.035241</ele>
        <time>2021-06-20T07:59:55.999Z</time>
      </trkpt>
      <trkpt lat="48.61834" lon="7.77923">
        <ele>136.018485</ele>
        <time>2021-06-20T07:59:57.999Z</time>
      </trkpt>
      <trkpt lat="48.61836" lon="7.77939">
        <ele>136.001825</ele>
        <time>2021-06-20T07:59:59.999Z</time>
      </trkpt>
      <trkpt lat="48.61837" lon="7.77956">
        <ele>135.983768</ele>
        <time>2021-06-20T08:00:01.999Z</time>
      </trkpt>
      <trkpt lat="48.61839" lon="7.77973">
        <ele>135.965665</ele>
        <time>2021-06-20T08:00:03.999Z</time>
      </trkpt>
      <trkpt lat="48.61842" lon="7.77989">
        <ele>135.948079</ele>
        <time>2021-06-20T08:00:05.999Z</time>
      </trkpt>
      <trkpt lat="48.61845" lon="7.78005">
        <ele>135.930583</ele>
        <time>2021-06-20T08:00:07.999Z</time>
      </trkpt>
      <trkpt lat="48.61848" lon="7.78018">
        <ele>135.915796</ele>
        <time>2021-06-20T08:00:09.999Z</time>
      </trkpt>
      <trkpt lat="48.61858" lon="7.78025">
        <ele>135.899036</ele>
        <time>2021-06-20T08:00:11.999Z</time>
      </trkpt>
      <trkpt lat="48.61869" lon="7.78019">
        <ele>135.880514</ele>
        <time>2021-06-20T08:00:13.999Z</time>
      </trkpt>
      <trkpt lat="48.61879" lon="7.78011">
        <ele>135.86111</ele>
        <time>2021-06-20T08:00:15.999Z</time>
      </trkpt>
      <trkpt lat="48.61891" lon="7.78004">
        <ele>135.841052</ele>
        <time>2021-06-20T08:00:17.999Z</time>
      </trkpt>
      <trkpt lat="48.61902" lon="7.77996">
        <ele>135.822173</ele>
        <time>2021-06-20T08:00:19.999Z</time>
      </trkpt>
      <trkpt lat="48.61912" lon="7.7799">
        <ele>135.804269</ele>
        <time>2021-06-20T08:00:21.999Z</time>
      </trkpt>
      <trkpt lat="48.61922" lon="7.77982">
        <ele>135.786155</ele>
        <time>2021-06-20T08:00:23.999Z</time>
      </trkpt>
      <trkpt lat="48.61932" lon="7.77975">
        <ele>135.768507</ele>
        <time>2021-06-20T08:00:25.999Z</time>
      </trkpt>
      <trkpt lat="48.61943" lon="7.77967">
        <ele>135.749529</ele>
        <time>2021-06-20T08:00:27.999Z</time>
      </trkpt>
      <trkpt lat="48.61953" lon="7.77961">
        <ele>135.732188</ele>
        <time>2021-06-20T08:00:29.999Z</time>
      </trkpt>
      <trkpt lat="48.61964" lon="7.77957">
        <ele>135.720189</ele>
        <time>2021-06-20T08:00:31.999Z</time>
      </trkpt>
      <trkpt lat="48.61975" lon="7.7795">
        <ele>135.729214</ele>
        <time>2021-06-20T08:00:33.999Z</time>
      </trkpt>
      <trkpt lat="48.61987" lon="7.77944">
        <ele>135.738485</ele>
        <time>2021-06-20T08:00:35.999Z</time>
      </trkpt>
      <trkpt lat="48.61999" lon="7.77938">
        <ele>135.747659</ele>
        <time>2021-06-20T08:00:37.999Z</time>
      </trkpt>
      <trkpt lat="48.62009" lon="7.7793">
        <ele>135.756378</ele>
        <time>2021-06-20T08:00:39.999Z</time>
      </trkpt>
      <trkpt lat="48.6202" lon="7.77922">
        <ele>135.765542</ele>
        <time>2021-06-20T08:00:41.999Z</time>
      </trkpt>
      <trkpt lat="48.62031" lon="7.77916">
        <ele>135.774027</ele>
        <time>2021-06-20T08:00:43.999Z</time>
      </trkpt>
      <trkpt lat="48.62042" lon="7.7791">
        <ele>135.783001</ele>
        <time>2021-06-20T08:00:45.999Z</time>
      </trkpt>
      <trkpt lat="48.62053" lon="7.77904">
        <ele>135.791929</ele>
        <time>2021-06-20T08:00:47.999Z</time>
      </trkpt>
      <trkpt lat="48.62061" lon="7.77895">
        <ele>135.799175</ele>
        <time>2021-06-20T08:00:49.999Z</time>
      </trkpt>
      <trkpt lat="48.62071" lon="7.77893">
        <ele>135.806675</ele>
        <time>2021-06-20T08:00:52.999Z</time>
      </trkpt>
      <trkpt lat="48.62077" lon="7.77908">
        <ele>135.815536</ele>
        <time>2021-06-20T08:00:55.999Z</time>
      </trkpt>
      <trkpt lat="48.62081" lon="7.77929">
        <ele>135.826323</ele>
        <time>2021-06-20T08:00:58.999Z</time>
      </trkpt>
      <trkpt lat="48.62084" lon="7.77944">
        <ele>135.834194</ele>
        <time>2021-06-20T08:01:00.999Z</time>
      </trkpt>
      <trkpt lat="48.62087" lon="7.77958">
        <ele>135.841452</ele>
        <time>2021-06-20T08:01:02.999Z</time>
      </trkpt>
      <trkpt lat="48.62089" lon="7.77971">
        <ele>135.848254</ele>
        <time>2021-06-20T08:01:04.999Z</time>
      </trkpt>
      <trkpt lat="48.62092" lon="7.77986">
        <ele>135.854357</ele>
        <time>2021-06-20T08:01:06.999Z</time>
      </trkpt>
      <trkpt lat="48.62092" lon="7.78002">
        <ele>135.858519</ele>
        <time>2021-06-20T08:01:09.999Z</time>
      </trkpt>
      <trkpt lat="48.62081" lon="7.78011">
        <ele>135.863247</ele>
        <time>2021-06-20T08:01:12.999Z</time>
      </trkpt>
      <trkpt lat="48.62071" lon="7.78018">
        <ele>135.867404</ele>
        <time>2021-06-20T08:01:14.999Z</time>
      </trkpt>
      <trkpt lat="48.62062" lon="7.78027">
        <ele>135.871246</ele>
        <time>2021-06-20T08:01:16.999Z</time>
      </trkpt>
      <trkpt lat="48.62052" lon="7.78033">
        <ele>135.875491</ele>
        <time>2021-06-20T08:01:18.999Z</time>
      </trkpt>
      <trkpt lat="48.62043" lon="7.78041">
        <ele>135.879312</ele>
        <time>2021-06-20T08:01:20.999Z</time>
      </trkpt>
      <trkpt lat="48.62031" lon="7.7805">
        <ele>135.884253</ele>
        <time>2021-06-20T08:01:22.999Z</time>
      </trkpt>
      <trkpt lat="48.6202" lon="7.78059">
        <ele>135.888828</ele>
        <time>2021-06-20T08:01:24.999Z</time>
      </trkpt>
      <trkpt lat="48.6201" lon="7.78069">
        <ele>135.893427</ele>
        <time>2021-06-20T08:01:26.999Z</time>
      </trkpt>
      <trkpt lat="48.61999" lon="7.78077">
        <ele>135.898022</ele>
        <time>2021-06-20T08:01:28.999Z</time>
      </trkpt>
      <trkpt lat="48.61989" lon="7.78088">
        <ele>135.902751</ele>
        <time>2021-06-20T08:01:30.999Z</time>
      </trkpt>
      <trkpt lat="48.61979" lon="7.78098">
        <ele>135.907025</ele>
        <time>2021-06-20T08:01:32.999Z</time>
      </trkpt>
      <trkpt lat="48.61968" lon="7.78107">
        <ele>135.911652</ele>
        <time>2021-06-20T08:01:34.999Z</time>
      </trkpt>
      <trkpt lat="48.61958" lon="7.78114">
        <ele>135.916159</ele>
        <time>2021-06-20T08:01:36.999Z</time>
      </trkpt>
      <trkpt lat="48.61947" lon="7.78124">
        <ele>135.917131</ele>
        <time>2021-06-20T08:01:38.999Z</time>
      </trkpt>
      <trkpt lat="48.61936" lon="7.78131">
        <ele>135.871453</ele>
        <time>2021-06-20T08:01:40.999Z</time>
      </trkpt>
      <trkpt lat="48.61925" lon="7.78139">
        <ele>135.827232</ele>
        <time>2021-06-20T08:01:42.999Z</time>
      </trkpt>
      <trkpt lat="48.61915" lon="7.78146">
        <ele>135.784573</ele>
        <time>2021-06-20T08:01:44.999Z</time>
      </trkpt>
      <trkpt lat="48.61905" lon="7.78154">
        <ele>135.743438</ele>
        <time>2021-06-20T08:01:46.999Z</time>
      </trkpt>
      <trkpt lat="48.61896" lon="7.78162">
        <ele>135.704328</ele>
        <time>2021-06-20T08:01:48.999Z</time>
      </trkpt>
      <trkpt lat="48.61889" lon="7.78176">
        <ele>135.662208</ele>
        <time>2021-06-20T08:01:50.999Z</time>
      </trkpt>
      <trkpt lat="48.61888" lon="7.78192">
        <ele>135.621006</ele>
        <time>2021-06-20T08:01:52.999Z</time>
      </trkpt>
      <trkpt lat="48.6189" lon="7.78209">
        <ele>135.577923</ele>
        <time>2021-06-20T08:01:54.999Z</time>
      </trkpt>
      <trkpt lat="48.61897" lon="7.78226">
        <ele>135.531802</ele>
        <time>2021-06-20T08:01:56.999Z</time>
      </trkpt>
      <trkpt lat="48.61902" lon="7.78239">
        <ele>135.493551</ele>
        <time>2021-06-20T08:01:58.999Z</time>
      </trkpt>
      <trkpt lat="48.61905" lon="7.78262">
        <ele>135.434357</ele>
        <time>2021-06-20T08:02:01.999Z</time>
      </trkpt>
      <trkpt lat="48.61909" lon="7.7828">
        <ele>135.388522</ele>
        <time>2021-06-20T08:02:03.999Z</time>
      </trkpt>
      <trkpt lat="48.61906" lon="7.78302">
        <ele>135.33414</ele>
        <time>2021-06-20T08:02:05.999Z</time>
      </trkpt>
      <trkpt lat="48.61899" lon="7.7832">
        <ele>135.282173</ele>
        <time>2021-06-20T08:02:07.999Z</time>
      </trkpt>
      <trkpt lat="48.61896" lon="7.78336">
        <ele>135.248217</ele>
        <time>2021-06-20T08:02:09.999Z</time>
      </trkpt>
      <trkpt lat="48.61889" lon="7.78348">
        <ele>135.252842</ele>
        <time>2021-06-20T08:02:11.999Z</time>
      </trkpt>
      <trkpt lat="48.6188" lon="7.7836">
        <ele>135.258463</ele>
        <time>2021-06-20T08:02:13.999Z</time>
      </trkpt>
      <trkpt lat="48.61873" lon="7.78371">
        <ele>135.26301</ele>
        <time>2021-06-20T08:02:15.999Z</time>
      </trkpt>
      <trkpt lat="48.61869" lon="7.78388">
        <ele>135.268295</ele>
        <time>2021-06-20T08:02:17.999Z</time>
      </trkpt>
      <trkpt lat="48.6187" lon="7.78403">
        <ele>135.272926</ele>
        <time>2021-06-20T08:02:19.999Z</time>
      </trkpt>
      <trkpt lat="48.61878" lon="7.78425">
        <ele>135.280366</ele>
        <time>2021-06-20T08:02:22.999Z</time>
      </trkpt>
      <trkpt lat="48.61889" lon="7.78439">
        <ele>135.286789</ele>
        <time>2021-06-20T08:02:24.999Z</time>
      </trkpt>
      <trkpt lat="48.61895" lon="7.78448">
        <ele>135.290863</ele>
        <time>2021-06-20T08:02:25.999Z</time>
      </trkpt>
      <trkpt lat="48.61903" lon="7.78461">
        <ele>135.296081</ele>
        <time>2021-06-20T08:02:27.999Z</time>
      </trkpt>
      <trkpt lat="48.61913" lon="7.78472">
        <ele>135.301656</ele>
        <time>2021-06-20T08:02:29.999Z</time>
      </trkpt>
      <trkpt lat="48.61923" lon="7.78479">
        <ele>135.306757</ele>
        <time>2021-06-20T08:02:31.999Z</time>
      </trkpt>
      <trkpt lat="48.61935" lon="7.7849">
        <ele>135.313272</ele>
        <time>2021-06-20T08:02:33.999Z</time>
      </trkpt>
      <trkpt lat="48.61945" lon="7.78498">
        <ele>135.318328</ele>
        <time>2021-06-20T08:02:35.999Z</time>
      </trkpt>
      <trkpt lat="48.61954" lon="7.78505">
        <ele>135.322891</ele>
        <time>2021-06-20T08:02:37.999Z</time>
      </trkpt>
      <trkpt lat="48.61963" lon="7.7851">
        <ele>135.327079</ele>
        <time>2021-06-20T08:02:39.999Z</time>
      </trkpt>
      <trkpt lat="48.61974" lon="7.78515">
        <ele>135.330047</ele>
        <time>2021-06-20T08:02:41.999Z</time>
      </trkpt>
      <trkpt lat="48.61985" lon="7.78523">
        <ele>135.331585</ele>
        <time>2021-06-20T08:02:43.999Z</time>
      </trkpt>
      <trkpt lat="48.61998" lon="7.78525">
        <ele>135.333156</ele>
        <time>2021-06-20T08:02:45.999Z</time>
      </trkpt>
      <trkpt lat="48.6201" lon="7.78528">
        <ele>135.334747</ele>
        <time>2021-06-20T08:02:47.999Z</time>
      </trkpt>
      <trkpt lat="48.62022" lon="7.78531">
        <ele>135.336223</ele>
        <time>2021-06-20T08:02:49.999Z</time>
      </trkpt>
      <trkpt lat="48.62036" lon="7.78532">
        <ele>135.337994</ele>
        <time>2021-06-20T08:02:51.999Z</time>
      </trkpt>
      <trkpt lat="48.6205" lon="7.78533">
        <ele>135.339681</ele>
        <time>2021-06-20T08:02:53.999Z</time>
      </trkpt>
      <trkpt lat="48.62061" lon="7.78534">
        <ele>135.341041</ele>
        <time>2021-06-20T08:02:55.999Z</time>
      </trkpt>
      <trkpt lat="48.6207" lon="7.78533">
        <ele>135.342278</ele>
        <time>2021-06-20T08:02:57.999Z</time>
      </trkpt>
      <trkpt lat="48.62083" lon="7.78531">
        <ele>135.343857</ele>
        <time>2021-06-20T08:02:59.999Z</time>
      </trkpt>
      <trkpt lat="48.62096" lon="7.7853">
        <ele>135.345428</ele>
        <time>2021-06-20T08:03:01.999Z</time>
      </trkpt>
      <trkpt lat="48.62106" lon="7.78525">
        <ele>135.346834</ele>
        <time>2021-06-20T08:03:03.999Z</time>
      </trkpt>
      <trkpt lat="48.62114" lon="7.78517">
        <ele>135.348035</ele>
        <time>2021-06-20T08:03:05.999Z</time>
      </trkpt>
      <trkpt lat="48.62125" lon="7.78512">
        <ele>135.349435</ele>
        <time>2021-06-20T08:03:07.999Z</time>
      </trkpt>
      <trkpt lat="48.62137" lon="7.78508">
        <ele>135.350967</ele>
        <time>2021-06-20T08:03:09.999Z</time>
      </trkpt>
      <trkpt lat="48.62149" lon="7.78501">
        <ele>135.321007</ele>
        <time>2021-06-20T08:03:11.999Z</time>
      </trkpt>
      <trkpt lat="48.62159" lon="7.78494">
        <ele>135.278002</ele>
        <time>2021-06-20T08:03:13.999Z</time>
      </trkpt>
      <trkpt lat="48.6217" lon="7.7849">
        <ele>135.238113</ele>
        <time>2021-06-20T08:03:15.999Z</time>
      </trkpt>
      <trkpt lat="48.6218" lon="7.78486">
        <ele>135.196985</ele>
        <time>2021-06-20T08:03:17.999Z</time>
      </trkpt>
      <trkpt lat="48.6219" lon="7.78482">
        <ele>135.15566</ele>
        <time>2021-06-20T08:03:19.999Z</time>
      </trkpt>
      <trkpt lat="48.62199" lon="7.78479">
        <ele>135.120162</ele>
        <time>2021-06-20T08:03:21.999Z</time>
      </trkpt>
      <trkpt lat="48.62212" lon="7.78474">
        <ele>135.070006</ele>
        <time>2021-06-20T08:03:23.999Z</time>
      </trkpt>
      <trkpt lat="48.62223" lon="7.78471">
        <ele>135.029067</ele>
        <time>2021-06-20T08:03:25.999Z</time>
      </trkpt>
      <trkpt lat="48.62233" lon="7.78466">
        <ele>134.987876</ele>
        <time>2021-06-20T08:03:27.999Z</time>
      </trkpt>
      <trkpt lat="48.62243" lon="7.78463">
        <ele>134.946984</ele>
        <time>2021-06-20T08:03:29.999Z</time>
      </trkpt>
      <trkpt lat="48.62256" lon="7.78455">
        <ele>134.89575</ele>
        <time>2021-06-20T08:03:31.999Z</time>
      </trkpt>
      <trkpt lat="48.62266" lon="7.78452">
        <ele>134.854859</ele>
        <time>2021-06-20T08:03:33.999Z</time>
      </trkpt>
      <trkpt lat="48.62277" lon="7.7845">
        <ele>134.814011</ele>
        <time>2021-06-20T08:03:35.999Z</time>
      </trkpt>
      <trkpt lat="48.62289" lon="7.78448">
        <ele>134.768379</ele>
        <time>2021-06-20T08:03:37.999Z</time>
      </trkpt>
      <trkpt lat="48.623" lon="7.78444">
        <ele>134.723419</ele>
        <time>2021-06-20T08:03:40.999Z</time>
      </trkpt>
      <trkpt lat="48.62309" lon="7.78442">
        <ele>134.687297</ele>
        <time>2021-06-20T08:03:42.999Z</time>
      </trkpt>
      <trkpt lat="48.62319" lon="7.78439">
        <ele>134.674658</ele>
        <time>2021-06-20T08:03:44.999Z</time>
      </trkpt>
      <trkpt lat="48.6233" lon="7.78438">
        <ele>134.715586</ele>
        <time>2021-06-20T08:03:46.999Z</time>
      </trkpt>
      <trkpt lat="48.62339" lon="7.78436">
        <ele>134.748931</ele>
        <time>2021-06-20T08:03:48.999Z</time>
      </trkpt>
      <trkpt lat="48.62349" lon="7.78436">
        <ele>134.786566</ele>
        <time>2021-06-20T08:03:51.999Z</time>
      </trkpt>
      <trkpt lat="48.62357" lon="7.78443">
        <ele>134.820382</ele>
        <time>2021-06-20T08:03:55.999Z</time>
      </trkpt>
      <trkpt lat="48.62368" lon="7.78439">
        <ele>134.859106</ele>
        <time>2021-06-20T08:04:01.999Z</time>
      </trkpt>
      <trkpt lat="48.62376" lon="7.78432">
        <ele>134.894496</ele>
        <time>2021-06-20T08:04:05.999Z</time>
      </trkpt>
      <trkpt lat="48.62387" lon="7.78435">
        <ele>134.933848</ele>
        <time>2021-06-20T08:04:08.999Z</time>
      </trkpt>
      <trkpt lat="48.62399" lon="7.7844">
        <ele>134.978681</ele>
        <time>2021-06-20T08:04:11.999Z</time>
      </trkpt>
      <trkpt lat="48.62412" lon="7.78439">
        <ele>135.026234</ele>
        <time>2021-06-20T08:04:14.999Z</time>
      </trkpt>
      <trkpt lat="48.62424" lon="7.78444">
        <ele>135.073531</ele>
        <time>2021-06-20T08:04:17.999Z</time>
      </trkpt>
      <trkpt lat="48.62435" lon="7.78447">
        <ele>135.1128</ele>
        <time>2021-06-20T08:04:19.999Z</time>
      </trkpt>
      <trkpt lat="48.62445" lon="7.78451">
        <ele>135.152477</ele>
        <time>2021-06-20T08:04:21.999Z</time>
      </trkpt>
      <trkpt lat="48.62454" lon="7.78456">
        <ele>135.186904</ele>
        <time>2021-06-20T08:04:23.999Z</time>
      </trkpt>
      <trkpt lat="48.62466" lon="7.78465">
        <ele>135.237358</ele>
        <time>2021-06-20T08:04:25.999Z</time>
      </trkpt>
      <trkpt lat="48.62477" lon="7.7847">
        <ele>135.278548</ele>
        <time>2021-06-20T08:04:27.999Z</time>
      </trkpt>
      <trkpt lat="48.62486" lon="7.78474">
        <ele>135.312496</ele>
        <time>2021-06-20T08:04:29.999Z</time>
      </trkpt>
      <trkpt lat="48.62495" lon="7.7848">
        <ele>135.354939</ele>
        <time>2021-06-20T08:04:31.999Z</time>
      </trkpt>
      <trkpt lat="48.62505" lon="7.78487">
        <ele>135.40161</ele>
        <time>2021-06-20T08:04:33.999Z</time>
      </trkpt>
      <trkpt lat="48.62517" lon="7.78494">
        <ele>135.457111</ele>
        <time>2021-06-20T08:04:36.999Z</time>
      </trkpt>
      <trkpt lat="48.62526" lon="7.785">
        <ele>135.498288</ele>
        <time>2021-06-20T08:04:39.999Z</time>
      </trkpt>
      <trkpt lat="48.62534" lon="7.78506">
        <ele>135.539307</ele>
        <time>2021-06-20T08:04:44.999Z</time>
      </trkpt>
      <trkpt lat="48.62544" lon="7.78514">
        <ele>135.587553</ele>
        <time>2021-06-20T08:04:47.999Z</time>
      </trkpt>
      <trkpt lat="48.62552" lon="7.78522">
        <ele>135.629204</ele>
        <time>2021-06-20T08:04:49.999Z</time>
      </trkpt>
      <trkpt lat="48.62565" lon="7.78527">
        <ele>135.685924</ele>
        <time>2021-06-20T08:04:52.999Z</time>
      </trkpt>
      <trkpt lat="48.62577" lon="7.7852">
        <ele>135.741249</ele>
        <time>2021-06-20T08:04:56.999Z</time>
      </trkpt>
      <trkpt lat="48.62581" lon="7.78506">
        <ele>135.785438</ele>
        <time>2021-06-20T08:05:00.999Z</time>
      </trkpt>
      <trkpt lat="48.62584" lon="7.78488">
        <ele>135.838094</ele>
        <time>2021-06-20T08:05:04.999Z</time>
      </trkpt>
      <trkpt lat="48.62593" lon="7.78483">
        <ele>135.880434</ele>
        <time>2021-06-20T08:05:07.999Z</time>
      </trkpt>
      <trkpt lat="48.62606" lon="7.78481">
        <ele>135.93623</ele>
        <time>2021-06-20T08:05:10.999Z</time>
      </trkpt>
      <trkpt lat="48.62616" lon="7.78472">
        <ele>135.98744</ele>
        <time>2021-06-20T08:05:13.999Z</time>
      </trkpt>
      <trkpt lat="48.62625" lon="7.78467">
        <ele>136.030078</ele>
        <time>2021-06-20T08:05:16.999Z</time>
      </trkpt>
      <trkpt lat="48.62637" lon="7.78477">
        <ele>136.087815</ele>
        <time>2021-06-20T08:05:19.999Z</time>
      </trkpt>
      <trkpt lat="48.62648" lon="7.78484">
        <ele>136.100379</ele>
        <time>2021-06-20T08:05:22.999Z</time>
      </trkpt>
      <trkpt lat="48.62657" lon="7.78475">
        <ele>136.101606</ele>
        <time>2021-06-20T08:05:25.999Z</time>
      </trkpt>
      <trkpt lat="48.62669" lon="7.78476">
        <ele>136.102789</ele>
        <time>2021-06-20T08:05:30.999Z</time>
      </trkpt>
      <trkpt lat="48.6268" lon="7.78488">
        <ele>136.104208</ele>
        <time>2021-06-20T08:05:33.999Z</time>
      </trkpt>
      <trkpt lat="48.62688" lon="7.78496">
        <ele>136.105247</ele>
        <time>2021-06-20T08:05:35.999Z</time>
      </trkpt>
      <trkpt lat="48.62695" lon="7.78506">
        <ele>136.10626</ele>
        <time>2021-06-20T08:05:37.999Z</time>
      </trkpt>
      <trkpt lat="48.62703" lon="7.78515">
        <ele>136.107306</ele>
        <time>2021-06-20T08:05:39.999Z</time>
      </trkpt>
      <trkpt lat="48.62705" lon="7.78536">
        <ele>136.108761</ele>
        <time>2021-06-20T08:05:42.999Z</time>
      </trkpt>
      <trkpt lat="48.62709" lon="7.7855">
        <ele>136.109836</ele>
        <time>2021-06-20T08:05:44.999Z</time>
      </trkpt>
      <trkpt lat="48.62718" lon="7.7856">
        <ele>136.111079</ele>
        <time>2021-06-20T08:05:46.999Z</time>
      </trkpt>
      <trkpt lat="48.6272" lon="7.78578">
        <ele>136.112303</ele>
        <time>2021-06-20T08:05:48.999Z</time>
      </trkpt>
      <trkpt lat="48.6273" lon="7.78581">
        <ele>136.113418</ele>
        <time>2021-06-20T08:05:52.999Z</time>
      </trkpt>
      <trkpt lat="48.62741" lon="7.78589">
        <ele>136.114628</ele>
        <time>2021-06-20T08:05:54.999Z</time>
      </trkpt>
      <trkpt lat="48.62753" lon="7.78592">
        <ele>136.115917</ele>
        <time>2021-06-20T08:05:57.999Z</time>
      </trkpt>
      <trkpt lat="48.62762" lon="7.78601">
        <ele>136.117032</ele>
        <time>2021-06-20T08:06:00.999Z</time>
      </trkpt>
      <trkpt lat="48.62767" lon="7.78621">
        <ele>136.113631</ele>
        <time>2021-06-20T08:06:03.999Z</time>
      </trkpt>
      <trkpt lat="48.62776" lon="7.78636">
        <ele>136.079292</ele>
        <time>2021-06-20T08:06:06.999Z</time>
      </trkpt>
      <trkpt lat="48.62786" lon="7.78644">
        <ele>136.048061</ele>
        <time>2021-06-20T08:06:08.999Z</time>
      </trkpt>
      <trkpt lat="48.62795" lon="7.78651">
        <ele>136.022188</ele>
        <time>2021-06-20T08:06:10.999Z</time>
      </trkpt>
      <trkpt lat="48.62804" lon="7.78658">
        <ele>135.996126</ele>
        <time>2021-06-20T08:06:12.999Z</time>
      </trkpt>
      <trkpt lat="48.6281" lon="7.78669">
        <ele>135.970997</ele>
        <time>2021-06-20T08:06:14.999Z</time>
      </trkpt>
      <trkpt lat="48.62816" lon="7.78681">
        <ele>135.944569</ele>
        <time>2021-06-20T08:06:16.999Z</time>
      </trkpt>
      <trkpt lat="48.62822" lon="7.78695">
        <ele>135.914991</ele>
        <time>2021-06-20T08:06:19.999Z</time>
      </trkpt>
      <trkpt lat="48.62831" lon="7.78702">
        <ele>135.890261</ele>
        <time>2021-06-20T08:06:23.999Z</time>
      </trkpt>
      <trkpt lat="48.62841" lon="7.78693">
        <ele>135.860584</ele>
        <time>2021-06-20T08:06:29.999Z</time>
      </trkpt>
      <trkpt lat="48.62849" lon="7.78698">
        <ele>135.836482</ele>
        <time>2021-06-20T08:06:32.999Z</time>
      </trkpt>
      <trkpt lat="48.62855" lon="7.78712">
        <ele>135.808644</ele>
        <time>2021-06-20T08:06:35.999Z</time>
      </trkpt>
      <trkpt lat="48.62864" lon="7.78727">
        <ele>135.773207</ele>
        <time>2021-06-20T08:06:38.999Z</time>
      </trkpt>
      <trkpt lat="48.6287" lon="7.78738">
        <ele>135.748512</ele>
        <time>2021-06-20T08:06:40.999Z</time>
      </trkpt>
      <trkpt lat="48.62877" lon="7.78749">
        <ele>135.722517</ele>
        <time>2021-06-20T08:06:42.999Z</time>
      </trkpt>
      <trkpt lat="48.62884" lon="7.7876">
        <ele>135.696036</ele>
        <time>2021-06-20T08:06:44.999Z</time>
      </trkpt>
      <trkpt lat="48.6289" lon="7.78773">
        <ele>135.667796</ele>
        <time>2021-06-20T08:06:46.999Z</time>
      </trkpt>
      <trkpt lat="48.62898" lon="7.78786">
        <ele>135.647422</ele>
        <time>2021-06-20T08:06:48.999Z</time>
      </trkpt>
      <trkpt lat="48.62904" lon="7.788">
        <ele>135.655293</ele>
        <time>2021-06-20T08:06:50.999Z</time>
      </trkpt>
      <trkpt lat="48.62911" lon="7.78814">
        <ele>135.663101</ele>
        <time>2021-06-20T08:06:52.999Z</time>
      </trkpt>
      <trkpt lat="48.62918" lon="7.78828">
        <ele>135.671028</ele>
        <time>2021-06-20T08:06:54.999Z</time>
      </trkpt>
      <trkpt lat="48.62925" lon="7.78843">
        <ele>135.679138</ele>
        <time>2021-06-20T08:06:56.999Z</time>
      </trkpt>
      <trkpt lat="48.62933" lon="7.78857">
        <ele>135.68757</ele>
        <time>2021-06-20T08:06:58.999Z</time>
      </trkpt>
      <trkpt lat="48.62942" lon="7.78873">
        <ele>135.696851</ele>
        <time>2021-06-20T08:07:00.999Z</time>
      </trkpt>
      <trkpt lat="48.62951" lon="7.7889">
        <ele>135.706319</ele>
        <time>2021-06-20T08:07:02.999Z</time>
      </trkpt>
      <trkpt lat="48.6296" lon="7.78906">
        <ele>135.715698</ele>
        <time>2021-06-20T08:07:04.999Z</time>
      </trkpt>
      <trkpt lat="48.62968" lon="7.78922">
        <ele>135.724869</ele>
        <time>2021-06-20T08:07:06.999Z</time>
      </trkpt>
      <trkpt lat="48.62976" lon="7.78939">
        <ele>135.734162</ele>
        <time>2021-06-20T08:07:08.999Z</time>
      </trkpt>
      <trkpt lat="48.62983" lon="7.78957">
        <ele>135.743646</ele>
        <time>2021-06-20T08:07:10.999Z</time>
      </trkpt>
      <trkpt lat="48.62989" lon="7.78974">
        <ele>135.752439</ele>
        <time>2021-06-20T08:07:12.999Z</time>
      </trkpt>
      <trkpt lat="48.62996" lon="7.78991">
        <ele>135.761553</ele>
        <time>2021-06-20T08:07:14.999Z</time>
      </trkpt>
      <trkpt lat="48.63004" lon="7.79007">
        <ele>135.769392</ele>
        <time>2021-06-20T08:07:16.999Z</time>
      </trkpt>
      <trkpt lat="48.63013" lon="7.79022">
        <ele>135.774949</ele>
        <time>2021-06-20T08:07:18.999Z</time>
      </trkpt>
      <trkpt lat="48.63022" lon="7.79036">
        <ele>135.780464</ele>
        <time>2021-06-20T08:07:20.999Z</time>
      </trkpt>
      <trkpt lat="48.63032" lon="7.7905">
        <ele>135.785971</ele>
        <time>2021-06-20T08:07:22.999Z</time>
      </trkpt>
      <trkpt lat="48.63043" lon="7.79064">
        <ele>135.791989</ele>
        <time>2021-06-20T08:07:24.999Z</time>
      </trkpt>
      <trkpt lat="48.63052" lon="7.7908">
        <ele>135.797615</ele>
        <time>2021-06-20T08:07:26.999Z</time>
      </trkpt>
      <trkpt lat="48.63061" lon="7.79096">
        <ele>135.80333</ele>
        <time>2021-06-20T08:07:28.999Z</time>
      </trkpt>
      <trkpt lat="48.63069" lon="7.79112">
        <ele>135.808848</ele>
        <time>2021-06-20T08:07:30.999Z</time>
      </trkpt>
      <trkpt lat="48.63077" lon="7.79127">
        <ele>135.814295</ele>
        <time>2021-06-20T08:07:32.999Z</time>
      </trkpt>
      <trkpt lat="48.63084" lon="7.79143">
        <ele>135.819375</ele>
        <time>2021-06-20T08:07:34.999Z</time>
      </trkpt>
      <trkpt lat="48.63091" lon="7.79157">
        <ele>135.824273</ele>
        <time>2021-06-20T08:07:36.999Z</time>
      </trkpt>
      <trkpt lat="48.63097" lon="7.79173">
        <ele>135.829354</ele>
        <time>2021-06-20T08:07:38.999Z</time>
      </trkpt>
      <trkpt lat="48.63101" lon="7.7919">
        <ele>135.834461</ele>
        <time>2021-06-20T08:07:40.999Z</time>
      </trkpt>
      <trkpt lat="48.63104" lon="7.79208">
        <ele>135.839256</ele>
        <time>2021-06-20T08:07:42.999Z</time>
      </trkpt>
      <trkpt lat="48.63105" lon="7.79222">
        <ele>135.836105</ele>
        <time>2021-06-20T08:07:44.999Z</time>
      </trkpt>
      <trkpt lat="48.63104" lon="7.79236">
        <ele>135.813566</ele>
        <time>2021-06-20T08:07:46.999Z</time>
      </trkpt>
      <trkpt lat="48.63102" lon="7.79254">
        <ele>135.784646</ele>
        <time>2021-06-20T08:07:49.999Z</time>
      </trkpt>
      <trkpt lat="48.63104" lon="7.79237">
        <ele>135.756494</ele>
        <time>2021-06-20T08:13:55.999Z</time>
      </trkpt>
      <trkpt lat="48.63111" lon="7.79227">
        <ele>135.732486</ele>
        <time>2021-06-20T08:13:58.999Z</time>
      </trkpt>
      <trkpt lat="48.63122" lon="7.79224">
        <ele>135.705294</ele>
        <time>2021-06-20T08:14:01.999Z</time>
      </trkpt>
      <trkpt lat="48.63131" lon="7.79223">
        <ele>135.683487</ele>
        <time>2021-06-20T08:14:03.999Z</time>
      </trkpt>
      <trkpt lat="48.6314" lon="7.79214">
        <ele>135.658326</ele>
        <time>2021-06-20T08:14:05.999Z</time>
      </trkpt>
      <trkpt lat="48.63149" lon="7.7921">
        <ele>135.635495</ele>
        <time>2021-06-20T08:14:07.999Z</time>
      </trkpt>
      <trkpt lat="48.6316" lon="7.79207">
        <ele>135.607534</ele>
        <time>2021-06-20T08:14:09.999Z</time>
      </trkpt>
      <trkpt lat="48.63172" lon="7.79204">
        <ele>135.579024</ele>
        <time>2021-06-20T08:14:11.999Z</time>
      </trkpt>
      <trkpt lat="48.63183" lon="7.79201">
        <ele>135.551356</ele>
        <time>2021-06-20T08:14:13.999Z</time>
      </trkpt>
      <trkpt lat="48.63195" lon="7.79196">
        <ele>135.520662</ele>
        <time>2021-06-20T08:14:15.999Z</time>
      </trkpt>
      <trkpt lat="48.63208" lon="7.79194">
        <ele>135.491213</ele>
        <time>2021-06-20T08:14:17.999Z</time>
      </trkpt>
      <trkpt lat="48.63219" lon="7.79191">
        <ele>135.462963</ele>
        <time>2021-06-20T08:14:19.999Z</time>
      </trkpt>
      <trkpt lat="48.6323" lon="7.79189">
        <ele>135.436171</ele>
        <time>2021-06-20T08:14:21.999Z</time>
      </trkpt>
      <trkpt lat="48.63242" lon="7.79188">
        <ele>135.407859</ele>
        <time>2021-06-20T08:14:23.999Z</time>
      </trkpt>
      <trkpt lat="48.63254" lon="7.79187">
        <ele>135.418276</ele>
        <time>2021-06-20T08:14:25.999Z</time>
      </trkpt>
      <trkpt lat="48.63267" lon="7.79184">
        <ele>135.428839</ele>
        <time>2021-06-20T08:14:27.999Z</time>
      </trkpt>
      <trkpt lat="48.6328" lon="7.79178">
        <ele>135.440849</ele>
        <time>2021-06-20T08:14:29.999Z</time>
      </trkpt>
      <trkpt lat="48.63291" lon="7.79164">
        <ele>135.452796</ele>
        <time>2021-06-20T08:14:31.999Z</time>
      </trkpt>
      <trkpt lat="48.63298" lon="7.79147">
        <ele>135.464121</ele>
        <time>2021-06-20T08:14:33.999Z</time>
      </trkpt>
      <trkpt lat="48.63304" lon="7.79131">
        <ele>135.474623</ele>
        <time>2021-06-20T08:14:35.999Z</time>
      </trkpt>
      <trkpt lat="48.63311" lon="7.79116">
        <ele>135.484679</ele>
        <time>2021-06-20T08:14:37.999Z</time>
      </trkpt>
      <trkpt lat="48.63317" lon="7.79101">
        <ele>135.494833</ele>
        <time>2021-06-20T08:14:39.999Z</time>
      </trkpt>
      <trkpt lat="48.63324" lon="7.79086">
        <ele>135.504984</ele>
        <time>2021-06-20T08:14:41.999Z</time>
      </trkpt>
      <trkpt lat="48.63332" lon="7.7907">
        <ele>135.516048</ele>
        <time>2021-06-20T08:14:43.999Z</time>
      </trkpt>
      <trkpt lat="48.63339" lon="7.79054">
        <ele>135.527469</ele>
        <time>2021-06-20T08:14:45.999Z</time>
      </trkpt>
      <trkpt lat="48.63346" lon="7.79036">
        <ele>135.538939</ele>
        <time>2021-06-20T08:14:47.999Z</time>
      </trkpt>
      <trkpt lat="48.63352" lon="7.7902">
        <ele>135.549399</ele>
        <time>2021-06-20T08:14:49.999Z</time>
      </trkpt>
      <trkpt lat="48.63359" lon="7.79004">
        <ele>135.559835</ele>
        <time>2021-06-20T08:14:51.999Z</time>
      </trkpt>
      <trkpt lat="48.63366" lon="7.7899">
        <ele>135.565403</ele>
        <time>2021-06-20T08:14:53.999Z</time>
      </trkpt>
      <trkpt lat="48.63379" lon="7.78984">
        <ele>135.570767</ele>
        <time>2021-06-20T08:14:55.999Z</time>
      </trkpt>
      <trkpt lat="48.63392" lon="7.7899">
        <ele>135.576348</ele>
        <time>2021-06-20T08:14:57.999Z</time>
      </trkpt>
      <trkpt lat="48.63405" lon="7.78995">
        <ele>135.581724</ele>
        <time>2021-06-20T08:14:59.999Z</time>
      </trkpt>
      <trkpt lat="48.63417" lon="7.79001">
        <ele>135.586765</ele>
        <time>2021-06-20T08:15:01.999Z</time>
      </trkpt>
      <trkpt lat="48.63428" lon="7.79008">
        <ele>135.591702</ele>
        <time>2021-06-20T08:15:03.999Z</time>
      </trkpt>
      <trkpt lat="48.63439" lon="7.79018">
        <ele>135.597127</ele>
        <time>2021-06-20T08:15:05.999Z</time>
      </trkpt>
      <trkpt lat="48.6345" lon="7.79032">
        <ele>135.602818</ele>
        <time>2021-06-20T08:15:07.999Z</time>
      </trkpt>
      <trkpt lat="48.63457" lon="7.79049">
        <ele>135.608132</ele>
        <time>2021-06-20T08:15:09.999Z</time>
      </trkpt>
      <trkpt lat="48.63464" lon="7.79067">
        <ele>135.613878</ele>
        <time>2021-06-20T08:15:11.999Z</time>
      </trkpt>
      <trkpt lat="48.63472" lon="7.79085">
        <ele>135.619507</ele>
        <time>2021-06-20T08:15:13.999Z</time>
      </trkpt>
      <trkpt lat="48.63479" lon="7.79102">
        <ele>135.625022</ele>
        <time>2021-06-20T08:15:15.999Z</time>
      </trkpt>
      <trkpt lat="48.63488" lon="7.79117">
        <ele>135.630385</ele>
        <time>2021-06-20T08:15:17.999Z</time>
      </trkpt>
      <trkpt lat="48.63497" lon="7.79131">
        <ele>135.632918</ele>
        <time>2021-06-20T08:15:19.999Z</time>
      </trkpt>
      <trkpt lat="48.63505" lon="7.79145">
        <ele>135.629026</ele>
        <time>2021-06-20T08:15:21.999Z</time>
      </trkpt>
      <trkpt lat="48.63512" lon="7.79159">
        <ele>135.625366</ele>
        <time>2021-06-20T08:15:23.999Z</time>
      </trkpt>
      <trkpt lat="48.63519" lon="7.79174">
        <ele>135.621469</ele>
        <time>2021-06-20T08:15:25.999Z</time>
      </trkpt>
      <trkpt lat="48.63528" lon="7.79184">
        <ele>135.617752</ele>
        <time>2021-06-20T08:15:27.999Z</time>
      </trkpt>
      <trkpt lat="48.63541" lon="7.79178">
        <ele>135.613542</ele>
        <time>2021-06-20T08:15:29.999Z</time>
      </trkpt>
      <trkpt lat="48.63552" lon="7.79168">
        <ele>135.609362</ele>
        <time>2021-06-20T08:15:31.999Z</time>
      </trkpt>
      <trkpt lat="48.63564" lon="7.7916">
        <ele>135.605106</ele>
        <time>2021-06-20T08:15:33.999Z</time>
      </trkpt>
      <trkpt lat="48.63577" lon="7.79151">
        <ele>135.600817</ele>
        <time>2021-06-20T08:15:35.999Z</time>
      </trkpt>
      <trkpt lat="48.63589" lon="7.79143">
        <ele>135.596572</ele>
        <time>2021-06-20T08:15:37.999Z</time>
      </trkpt>
      <trkpt lat="48.636" lon="7.79132">
        <ele>135.592303</ele>
        <time>2021-06-20T08:15:39.999Z</time>
      </trkpt>
      <trkpt lat="48.63611" lon="7.79119">
        <ele>135.58803</ele>
        <time>2021-06-20T08:15:41.999Z</time>
      </trkpt>
      <trkpt lat="48.6362" lon="7.79104">
        <ele>135.583834</ele>
        <time>2021-06-20T08:15:43.999Z</time>
      </trkpt>
      <trkpt lat="48.63628" lon="7.79089">
        <ele>135.579648</ele>
        <time>2021-06-20T08:15:45.999Z</time>
      </trkpt>
      <trkpt lat="48.63636" lon="7.79074">
        <ele>135.559442</ele>
        <time>2021-06-20T08:15:47.999Z</time>
      </trkpt>
      <trkpt lat="48.63643" lon="7.79059">
        <ele>135.508974</ele>
        <time>2021-06-20T08:15:49.999Z</time>
      </trkpt>
      <trkpt lat="48.63652" lon="7.79044">
        <ele>135.452365</ele>
        <time>2021-06-20T08:15:51.999Z</time>
      </trkpt>
      <trkpt lat="48.63663" lon="7.79031">
        <ele>135.396856</ele>
        <time>2021-06-20T08:15:53.999Z</time>
      </trkpt>
      <trkpt lat="48.63674" lon="7.7902">
        <ele>135.340971</ele>
        <time>2021-06-20T08:15:55.999Z</time>
      </trkpt>
      <trkpt lat="48.63686" lon="7.79011">
        <ele>135.285859</ele>
        <time>2021-06-20T08:15:57.999Z</time>
      </trkpt>
      <trkpt lat="48.63698" lon="7.79002">
        <ele>135.231414</ele>
        <time>2021-06-20T08:15:59.999Z</time>
      </trkpt>
      <trkpt lat="48.63711" lon="7.78997">
        <ele>135.177526</ele>
        <time>2021-06-20T08:16:01.999Z</time>
      </trkpt>
      <trkpt lat="48.63723" lon="7.78995">
        <ele>135.126649</ele>
        <time>2021-06-20T08:16:03.999Z</time>
      </trkpt>
      <trkpt lat="48.63736" lon="7.78998">
        <ele>135.072316</ele>
        <time>2021-06-20T08:16:05.999Z</time>
      </trkpt>
      <trkpt lat="48.63749" lon="7.79">
        <ele>135.019683</ele>
        <time>2021-06-20T08:16:07.999Z</time>
      </trkpt>
      <trkpt lat="48.63761" lon="7.79001">
        <ele>134.968553</ele>
        <time>2021-06-20T08:16:09.999Z</time>
      </trkpt>
      <trkpt lat="48.63775" lon="7.79003">
        <ele>134.913877</ele>
        <time>2021-06-20T08:16:11.999Z</time>
      </trkpt>
      <trkpt lat="48.63788" lon="7.79005">
        <ele>134.857833</ele>
        <time>2021-06-20T08:16:13.999Z</time>
      </trkpt>
      <trkpt lat="48.63801" lon="7.79004">
        <ele>134.8224</ele>
        <time>2021-06-20T08:16:15.999Z</time>
      </trkpt>
      <trkpt lat="48.63814" lon="7.79002">
        <ele>134.799023</ele>
        <time>2021-06-20T08:16:17.999Z</time>
      </trkpt>
      <trkpt lat="48.63826" lon="7.79001">
        <ele>134.776076</ele>
        <time>2021-06-20T08:16:19.999Z</time>
      </trkpt>
      <trkpt lat="48.63839" lon="7.79001">
        <ele>134.752984</ele>
        <time>2021-06-20T08:16:21.999Z</time>
      </trkpt>
      <trkpt lat="48.63851" lon="7.79001">
        <ele>134.730808</ele>
        <time>2021-06-20T08:16:23.999Z</time>
      </trkpt>
      <trkpt lat="48.63864" lon="7.79001">
        <ele>134.706785</ele>
        <time>2021-06-20T08:16:25.999Z</time>
      </trkpt>
      <trkpt lat="48.63877" lon="7.79002">
        <ele>134.683693</ele>
        <time>2021-06-20T08:16:27.999Z</time>
      </trkpt>
      <trkpt lat="48.63889" lon="7.79002">
        <ele>134.661881</ele>
        <time>2021-06-20T08:16:29.999Z</time>
      </trkpt>
      <trkpt lat="48.63901" lon="7.79002">
        <ele>134.640072</ele>
        <time>2021-06-20T08:16:31.999Z</time>
      </trkpt>
      <trkpt lat="48.63912" lon="7.79004">
        <ele>134.618661</ele>
        <time>2021-06-20T08:16:33.999Z</time>
      </trkpt>
      <trkpt lat="48.63925" lon="7.79007">
        <ele>134.594704</ele>
        <time>2021-06-20T08:16:35.999Z</time>
      </trkpt>
      <trkpt lat="48.63938" lon="7.79013">
        <ele>134.570006</ele>
        <time>2021-06-20T08:16:37.999Z</time>
      </trkpt>
      <trkpt lat="48.63951" lon="7.7902">
        <ele>134.545011</ele>
        <time>2021-06-20T08:16:39.999Z</time>
      </trkpt>
      <trkpt lat="48.63963" lon="7.79026">
        <ele>134.520614</ele>
        <time>2021-06-20T08:16:41.999Z</time>
      </trkpt>
      <trkpt lat="48.63976" lon="7.7903">
        <ele>134.501766</ele>
        <time>2021-06-20T08:16:43.999Z</time>
      </trkpt>
      <trkpt lat="48.6399" lon="7.79031">
        <ele>134.489321</ele>
        <time>2021-06-20T08:16:45.999Z</time>
      </trkpt>
      <trkpt lat="48.64002" lon="7.79038">
        <ele>134.477152</ele>
        <time>2021-06-20T08:16:47.999Z</time>
      </trkpt>
      <trkpt lat="48.64015" lon="7.79048">
        <ele>134.463913</ele>
        <time>2021-06-20T08:16:49.999Z</time>
      </trkpt>
      <trkpt lat="48.64027" lon="7.79055">
        <ele>134.451523</ele>
        <time>2021-06-20T08:16:51.999Z</time>
      </trkpt>
      <trkpt lat="48.64039" lon="7.79062">
        <ele>134.438982</ele>
        <time>2021-06-20T08:16:53.999Z</time>
      </trkpt>
      <trkpt lat="48.64052" lon="7.7907">
        <ele>134.426333</ele>
        <time>2021-06-20T08:16:55.999Z</time>
      </trkpt>
      <trkpt lat="48.64064" lon="7.79076">
        <ele>134.41475</ele>
        <time>2021-06-20T08:16:57.999Z</time>
      </trkpt>
      <trkpt lat="48.64076" lon="7.7908">
        <ele>134.403256</ele>
        <time>2021-06-20T08:16:59.999Z</time>
      </trkpt>
      <trkpt lat="48.64089" lon="7.79083">
        <ele>134.390725</ele>
        <time>2021-06-20T08:17:01.999Z</time>
      </trkpt>
      <trkpt lat="48.64102" lon="7.79088">
        <ele>134.378041</ele>
        <time>2021-06-20T08:17:03.999Z</time>
      </trkpt>
      <trkpt lat="48.64115" lon="7.79093">
        <ele>134.365493</ele>
        <time>2021-06-20T08:17:05.999Z</time>
      </trkpt>
      <trkpt lat="48.64128" lon="7.79097">
        <ele>134.35374</ele>
        <time>2021-06-20T08:17:07.999Z</time>
      </trkpt>
      <trkpt lat="48.64141" lon="7.791">
        <ele>134.340973</ele>
        <time>2021-06-20T08:17:09.999Z</time>
      </trkpt>
      <trkpt lat="48.64154" lon="7.79102">
        <ele>134.364261</ele>
        <time>2021-06-20T08:17:11.999Z</time>
      </trkpt>
      <trkpt lat="48.64167" lon="7.79106">
        <ele>134.392961</ele>
        <time>2021-06-20T08:17:13.999Z</time>
      </trkpt>
      <trkpt lat="48.6418" lon="7.79109">
        <ele>134.421876</ele>
        <time>2021-06-20T08:17:15.999Z</time>
      </trkpt>
      <trkpt lat="48.64193" lon="7.79112">
        <ele>134.450529</ele>
        <time>2021-06-20T08:17:17.999Z</time>
      </trkpt>
      <trkpt lat="48.64206" lon="7.79116">
        <ele>134.479306</ele>
        <time>2021-06-20T08:17:19.999Z</time>
      </trkpt>
      <trkpt lat="48.64219" lon="7.79119">
        <ele>134.50753</ele>
        <time>2021-06-20T08:17:21.999Z</time>
      </trkpt>
      <trkpt lat="48.64232" lon="7.79122">
        <ele>134.535493</ele>
        <time>2021-06-20T08:17:23.999Z</time>
      </trkpt>
      <trkpt lat="48.64245" lon="7.79123">
        <ele>134.562906</ele>
        <time>2021-06-20T08:17:25.999Z</time>
      </trkpt>
      <trkpt lat="48.64258" lon="7.79118">
        <ele>134.592086</ele>
        <time>2021-06-20T08:17:27.999Z</time>
      </trkpt>
      <trkpt lat="48.6427" lon="7.79109">
        <ele>134.621981</ele>
        <time>2021-06-20T08:17:29.999Z</time>
      </trkpt>
      <trkpt lat="48.64282" lon="7.79097">
        <ele>134.652794</ele>
        <time>2021-06-20T08:17:31.999Z</time>
      </trkpt>
      <trkpt lat="48.64289" lon="7.79079">
        <ele>134.683621</ele>
        <time>2021-06-20T08:17:33.999Z</time>
      </trkpt>
      <trkpt lat="48.64293" lon="7.7906">
        <ele>134.712019</ele>
        <time>2021-06-20T08:17:35.999Z</time>
      </trkpt>
      <trkpt lat="48.64301" lon="7.79046">
        <ele>134.727934</ele>
        <time>2021-06-20T08:17:37.999Z</time>
      </trkpt>
      <trkpt lat="48.64312" lon="7.79035">
        <ele>134.717749</ele>
        <time>2021-06-20T08:17:39.999Z</time>
      </trkpt>
      <trkpt lat="48.64322" lon="7.79027">
        <ele>134.708758</ele>
        <time>2021-06-20T08:17:41.999Z</time>
      </trkpt>
      <trkpt lat="48.6433" lon="7.79038">
        <ele>134.700353</ele>
        <time>2021-06-20T08:17:43.999Z</time>
      </trkpt>
      <trkpt lat="48.64338" lon="7.79054">
        <ele>134.690416</ele>
        <time>2021-06-20T08:17:45.999Z</time>
      </trkpt>
      <trkpt lat="48.64347" lon="7.7907">
        <ele>134.67952</ele>
        <time>2021-06-20T08:17:47.999Z</time>
      </trkpt>
      <trkpt lat="48.64356" lon="7.79086">
        <ele>134.66873</ele>
        <time>2021-06-20T08:17:49.999Z</time>
      </trkpt>
      <trkpt lat="48.64364" lon="7.79103">
        <ele>134.657773</ele>
        <time>2021-06-20T08:17:51.999Z</time>
      </trkpt>
      <trkpt lat="48.64372" lon="7.79122">
        <ele>134.646431</ele>
        <time>2021-06-20T08:17:53.999Z</time>
      </trkpt>
      <trkpt lat="48.64379" lon="7.79142">
        <ele>134.634622</ele>
        <time>2021-06-20T08:17:55.999Z</time>
      </trkpt>
      <trkpt lat="48.64385" lon="7.79163">
        <ele>134.623085</ele>
        <time>2021-06-20T08:17:57.999Z</time>
      </trkpt>
      <trkpt lat="48.64391" lon="7.79182">
        <ele>134.612351</ele>
        <time>2021-06-20T08:17:59.999Z</time>
      </trkpt>
      <trkpt lat="48.64396" lon="7.792">
        <ele>134.602322</ele>
        <time>2021-06-20T08:18:01.999Z</time>
      </trkpt>
      <trkpt lat="48.64402" lon="7.79217">
        <ele>134.592209</ele>
        <time>2021-06-20T08:18:03.999Z</time>
      </trkpt>
      <trkpt lat="48.64409" lon="7.79235">
        <ele>134.521304</ele>
        <time>2021-06-20T08:18:05.999Z</time>
      </trkpt>
      <trkpt lat="48.64416" lon="7.79253">
        <ele>134.441391</ele>
        <time>2021-06-20T08:18:07.999Z</time>
      </trkpt>
      <trkpt lat="48.64423" lon="7.79271">
        <ele>134.360291</ele>
        <time>2021-06-20T08:18:09.999Z</time>
      </trkpt>
      <trkpt lat="48.64429" lon="7.79289">
        <ele>134.281622</ele>
        <time>2021-06-20T08:18:11.999Z</time>
      </trkpt>
      <trkpt lat="48.64436" lon="7.79308">
        <ele>134.199279</ele>
        <time>2021-06-20T08:18:13.999Z</time>
      </trkpt>
      <trkpt lat="48.64443" lon="7.79327">
        <ele>134.115309</ele>
        <time>2021-06-20T08:18:15.999Z</time>
      </trkpt>
      <trkpt lat="48.6445" lon="7.79346">
        <ele>134.031825</ele>
        <time>2021-06-20T08:18:17.999Z</time>
      </trkpt>
      <trkpt lat="48.64457" lon="7.79364">
        <ele>133.950955</ele>
        <time>2021-06-20T08:18:19.999Z</time>
      </trkpt>
      <trkpt lat="48.64465" lon="7.79381">
        <ele>133.872092</ele>
        <time>2021-06-20T08:18:21.999Z</time>
      </trkpt>
      <trkpt lat="48.64471" lon="7.79398">
        <ele>133.800456</ele>
        <time>2021-06-20T08:18:23.999Z</time>
      </trkpt>
      <trkpt lat="48.64472" lon="7.79416">
        <ele>133.730951</ele>
        <time>2021-06-20T08:18:25.999Z</time>
      </trkpt>
      <trkpt lat="48.64478" lon="7.79433">
        <ele>133.657283</ele>
        <time>2021-06-20T08:18:27.999Z</time>
      </trkpt>
      <trkpt lat="48.64484" lon="7.79452">
        <ele>133.57466</ele>
        <time>2021-06-20T08:18:29.999Z</time>
      </trkpt>
      <trkpt lat="48.64492" lon="7.79473">
        <ele>133.579413</ele>
        <time>2021-06-20T08:18:31.999Z</time>
      </trkpt>
      <trkpt lat="48.645" lon="7.79494">
        <ele>133.630737</ele>
        <time>2021-06-20T08:18:33.999Z</time>
      </trkpt>
      <trkpt lat="48.64508" lon="7.79515">
        <ele>133.680558</ele>
        <time>2021-06-20T08:18:35.999Z</time>
      </trkpt>
      <trkpt lat="48.64517" lon="7.79534">
        <ele>133.729093</ele>
        <time>2021-06-20T08:18:37.999Z</time>
      </trkpt>
      <trkpt lat="48.64524" lon="7.79553">
        <ele>133.774337</ele>
        <time>2021-06-20T08:18:39.999Z</time>
      </trkpt>
      <trkpt lat="48.64532" lon="7.79571">
        <ele>133.819052</ele>
        <time>2021-06-20T08:18:41.999Z</time>
      </trkpt>
      <trkpt lat="48.64539" lon="7.79588">
        <ele>133.862062</ele>
        <time>2021-06-20T08:18:43.999Z</time>
      </trkpt>
      <trkpt lat="48.64546" lon="7.79605">
        <ele>133.904687</ele>
        <time>2021-06-20T08:18:45.999Z</time>
      </trkpt>
      <trkpt lat="48.64556" lon="7.79624">
        <ele>133.953154</ele>
        <time>2021-06-20T08:18:47.999Z</time>
      </trkpt>
      <trkpt lat="48.64565" lon="7.79643">
        <ele>134.002269</ele>
        <time>2021-06-20T08:18:49.999Z</time>
      </trkpt>
      <trkpt lat="48.64575" lon="7.7966">
        <ele>134.050195</ele>
        <time>2021-06-20T08:18:51.999Z</time>
      </trkpt>
      <trkpt lat="48.64584" lon="7.79678">
        <ele>134.097869</ele>
        <time>2021-06-20T08:18:53.999Z</time>
      </trkpt>
      <trkpt lat="48.64594" lon="7.79695">
        <ele>134.229976</ele>
        <time>2021-06-20T08:18:55.999Z</time>
      </trkpt>
      <trkpt lat="48.64603" lon="7.79713">
        <ele>134.410123</ele>
        <time>2021-06-20T08:18:57.999Z</time>
      </trkpt>
      <trkpt lat="48.64612" lon="7.79728">
        <ele>134.565874</ele>
        <time>2021-06-20T08:18:59.999Z</time>
      </trkpt>
      <trkpt lat="48.6462" lon="7.79744">
        <ele>134.721086</ele>
        <time>2021-06-20T08:19:01.999Z</time>
      </trkpt>
      <trkpt lat="48.64628" lon="7.79757">
        <ele>134.860438</ele>
        <time>2021-06-20T08:19:03.999Z</time>
      </trkpt>
      <trkpt lat="48.64635" lon="7.79769">
        <ele>134.979732</ele>
        <time>2021-06-20T08:19:05.999Z</time>
      </trkpt>
      <trkpt lat="48.64643" lon="7.79781">
        <ele>135.107218</ele>
        <time>2021-06-20T08:19:07.999Z</time>
      </trkpt>
      <trkpt lat="48.64652" lon="7.79795">
        <ele>135.264915</ele>
        <time>2021-06-20T08:19:09.999Z</time>
      </trkpt>
      <trkpt lat="48.64662" lon="7.7981">
        <ele>135.43196</ele>
        <time>2021-06-20T08:19:11.999Z</time>
      </trkpt>
      <trkpt lat="48.64673" lon="7.79824">
        <ele>135.591481</ele>
        <time>2021-06-20T08:19:13.999Z</time>
      </trkpt>
      <trkpt lat="48.64683" lon="7.79839">
        <ele>135.757227</ele>
        <time>2021-06-20T08:19:15.999Z</time>
      </trkpt>
      <trkpt lat="48.64693" lon="7.79852">
        <ele>135.910646</ele>
        <time>2021-06-20T08:19:17.999Z</time>
      </trkpt>
      <trkpt lat="48.64702" lon="7.79866">
        <ele>136.06545</ele>
        <time>2021-06-20T08:19:19.999Z</time>
      </trkpt>
      <trkpt lat="48.64712" lon="7.7988">
        <ele>136.216547</ele>
        <time>2021-06-20T08:19:21.999Z</time>
      </trkpt>
      <trkpt lat="48.64722" lon="7.79893">
        <ele>136.153167</ele>
        <time>2021-06-20T08:19:23.999Z</time>
      </trkpt>
      <trkpt lat="48.64732" lon="7.79907">
        <ele>136.089649</ele>
        <time>2021-06-20T08:19:25.999Z</time>
      </trkpt>
      <trkpt lat="48.64741" lon="7.79919">
        <ele>136.032168</ele>
        <time>2021-06-20T08:19:27.999Z</time>
      </trkpt>
      <trkpt lat="48.6475" lon="7.79933">
        <ele>135.967739</ele>
        <time>2021-06-20T08:19:29.999Z</time>
      </trkpt>
      <trkpt lat="48.64761" lon="7.79946">
        <ele>135.903496</ele>
        <time>2021-06-20T08:19:31.999Z</time>
      </trkpt>
      <trkpt lat="48.64769" lon="7.79958">
        <ele>135.84855</ele>
        <time>2021-06-20T08:19:33.999Z</time>
      </trkpt>
      <trkpt lat="48.64777" lon="7.79967">
        <ele>135.801784</ele>
        <time>2021-06-20T08:19:35.999Z</time>
      </trkpt>
      <trkpt lat="48.64777" lon="7.79983">
        <ele>135.750404</ele>
        <time>2021-06-20T08:19:38.999Z</time>
      </trkpt>
      <trkpt lat="48.64769" lon="7.79995">
        <ele>135.696022</ele>
        <time>2021-06-20T08:19:40.999Z</time>
      </trkpt>
      <trkpt lat="48.6476" lon="7.80009">
        <ele>135.633887</ele>
        <time>2021-06-20T08:19:42.999Z</time>
      </trkpt>
      <trkpt lat="48.64752" lon="7.80025">
        <ele>135.571822</ele>
        <time>2021-06-20T08:19:44.999Z</time>
      </trkpt>
      <trkpt lat="48.64743" lon="7.80038">
        <ele>135.510355</ele>
        <time>2021-06-20T08:19:46.999Z</time>
      </trkpt>
      <trkpt lat="48.64733" lon="7.80051">
        <ele>135.448191</ele>
        <time>2021-06-20T08:19:48.999Z</time>
      </trkpt>
      <trkpt lat="48.64723" lon="7.80062">
        <ele>135.388694</ele>
        <time>2021-06-20T08:19:50.999Z</time>
      </trkpt>
      <trkpt lat="48.6471" lon="7.80064">
        <ele>135.316367</ele>
        <time>2021-06-20T08:19:52.999Z</time>
      </trkpt>
      <trkpt lat="48.64697" lon="7.80063">
        <ele>135.230809</ele>
        <time>2021-06-20T08:19:54.999Z</time>
      </trkpt>
      <trkpt lat="48.64684" lon="7.80064">
        <ele>135.145994</ele>
        <time>2021-06-20T08:19:56.999Z</time>
      </trkpt>
      <trkpt lat="48.64671" lon="7.80064">
        <ele>135.057936</ele>
        <time>2021-06-20T08:19:58.999Z</time>
      </trkpt>
      <trkpt lat="48.64658" lon="7.80066">
        <ele>134.974341</ele>
        <time>2021-06-20T08:20:00.999Z</time>
      </trkpt>
      <trkpt lat="48.64645" lon="7.80072">
        <ele>134.887151</ele>
        <time>2021-06-20T08:20:02.999Z</time>
      </trkpt>
      <trkpt lat="48.64633" lon="7.80079">
        <ele>134.800362</ele>
        <time>2021-06-20T08:20:04.999Z</time>
      </trkpt>
      <trkpt lat="48.6462" lon="7.80086">
        <ele>134.712203</ele>
        <time>2021-06-20T08:20:06.999Z</time>
      </trkpt>
      <trkpt lat="48.64608" lon="7.80095">
        <ele>134.623052</ele>
        <time>2021-06-20T08:20:08.999Z</time>
      </trkpt>
      <trkpt lat="48.64595" lon="7.80103">
        <ele>134.533758</ele>
        <time>2021-06-20T08:20:10.999Z</time>
      </trkpt>
      <trkpt lat="48.64583" lon="7.80111">
        <ele>134.446432</ele>
        <time>2021-06-20T08:20:12.999Z</time>
      </trkpt>
      <trkpt lat="48.6457" lon="7.80119">
        <ele>134.358763</ele>
        <time>2021-06-20T08:20:14.999Z</time>
      </trkpt>
      <trkpt lat="48.64558" lon="7.80126">
        <ele>134.274077</ele>
        <time>2021-06-20T08:20:16.999Z</time>
      </trkpt>
      <trkpt lat="48.64546" lon="7.80135">
        <ele>134.187004</ele>
        <time>2021-06-20T08:20:18.999Z</time>
      </trkpt>
      <trkpt lat="48.64534" lon="7.80143">
        <ele>134.22561</ele>
        <time>2021-06-20T08:20:20.999Z</time>
      </trkpt>
      <trkpt lat="48.64522" lon="7.8015">
        <ele>134.268634</ele>
        <time>2021-06-20T08:20:22.999Z</time>
      </trkpt>
      <trkpt lat="48.6451" lon="7.80158">
        <ele>134.309827</ele>
        <time>2021-06-20T08:20:24.999Z</time>
      </trkpt>
      <trkpt lat="48.64499" lon="7.80166">
        <ele>134.349785</ele>
        <time>2021-06-20T08:20:26.999Z</time>
      </trkpt>
      <trkpt lat="48.64488" lon="7.80173">
        <ele>134.388446</ele>
        <time>2021-06-20T08:20:28.999Z</time>
      </trkpt>
      <trkpt lat="48.64478" lon="7.80181">
        <ele>134.424891</ele>
        <time>2021-06-20T08:20:30.999Z</time>
      </trkpt>
      <trkpt lat="48.64476" lon="7.80198">
        <ele>134.460728</ele>
        <time>2021-06-20T08:20:32.999Z</time>
      </trkpt>
      <trkpt lat="48.6448" lon="7.80214">
        <ele>134.497566</ele>
        <time>2021-06-20T08:20:34.999Z</time>
      </trkpt>
      <trkpt lat="48.64486" lon="7.8023">
        <ele>134.536991</ele>
        <time>2021-06-20T08:20:36.999Z</time>
      </trkpt>
      <trkpt lat="48.64492" lon="7.80247">
        <ele>134.578572</ele>
        <time>2021-06-20T08:20:38.999Z</time>
      </trkpt>
      <trkpt lat="48.64499" lon="7.80265">
        <ele>134.621182</ele>
        <time>2021-06-20T08:20:40.999Z</time>
      </trkpt>
      <trkpt lat="48.64505" lon="7.80282">
        <ele>134.664167</ele>
        <time>2021-06-20T08:20:42.999Z</time>
      </trkpt>
      <trkpt lat="48.64511" lon="7.803">
        <ele>134.707563</ele>
        <time>2021-06-20T08:20:44.999Z</time>
      </trkpt>
      <trkpt lat="48.64517" lon="7.80318">
        <ele>134.750605</ele>
        <time>2021-06-20T08:20:46.999Z</time>
      </trkpt>
      <trkpt lat="48.64523" lon="7.80335">
        <ele>134.730255</ele>
        <time>2021-06-20T08:20:48.999Z</time>
      </trkpt>
      <trkpt lat="48.64529" lon="7.80352">
        <ele>134.671829</ele>
        <time>2021-06-20T08:20:50.999Z</time>
      </trkpt>
      <trkpt lat="48.64534" lon="7.80368">
        <ele>134.618135</ele>
        <time>2021-06-20T08:20:52.999Z</time>
      </trkpt>
      <trkpt lat="48.64541" lon="7.80385">
        <ele>134.556614</ele>
        <time>2021-06-20T08:20:54.999Z</time>
      </trkpt>
      <trkpt lat="48.64547" lon="7.80401">
        <ele>134.497521</ele>
        <time>2021-06-20T08:20:56.999Z</time>
      </trkpt>
      <trkpt lat="48.64553" lon="7.8042">
        <ele>134.433906</ele>
        <time>2021-06-20T08:20:58.999Z</time>
      </trkpt>
      <trkpt lat="48.64559" lon="7.80437">
        <ele>134.372813</ele>
        <time>2021-06-20T08:21:00.999Z</time>
      </trkpt>
      <trkpt lat="48.64567" lon="7.80453">
        <ele>134.311453</ele>
        <time>2021-06-20T08:21:02.999Z</time>
      </trkpt>
      <trkpt lat="48.64577" lon="7.80467">
        <ele>134.246759</ele>
        <time>2021-06-20T08:21:04.999Z</time>
      </trkpt>
      <trkpt lat="48.64586" lon="7.8048">
        <ele>134.188875</ele>
        <time>2021-06-20T08:21:06.999Z</time>
      </trkpt>
      <trkpt lat="48.64595" lon="7.80492">
        <ele>134.130929</ele>
        <time>2021-06-20T08:21:08.999Z</time>
      </trkpt>
      <trkpt lat="48.64606" lon="7.80504">
        <ele>134.070377</ele>
        <time>2021-06-20T08:21:10.999Z</time>
      </trkpt>
      <trkpt lat="48.64615" lon="7.80517">
        <ele>134.009908</ele>
        <time>2021-06-20T08:21:12.999Z</time>
      </trkpt>
      <trkpt lat="48.64626" lon="7.80531">
        <ele>133.946341</ele>
        <time>2021-06-20T08:21:14.999Z</time>
      </trkpt>
      <trkpt lat="48.64634" lon="7.80545">
        <ele>133.847142</ele>
        <time>2021-06-20T08:21:16.999Z</time>
      </trkpt>
      <trkpt lat="48.64643" lon="7.80559">
        <ele>133.722444</ele>
        <time>2021-06-20T08:21:18.999Z</time>
      </trkpt>
      <trkpt lat="48.64652" lon="7.80571">
        <ele>133.60212</ele>
        <time>2021-06-20T08:21:20.999Z</time>
      </trkpt>
      <trkpt lat="48.64663" lon="7.80584">
        <ele>133.476045</ele>
        <time>2021-06-20T08:21:22.999Z</time>
      </trkpt>
      <trkpt lat="48.64672" lon="7.80595">
        <ele>133.35734</ele>
        <time>2021-06-20T08:21:24.999Z</time>
      </trkpt>
      <trkpt lat="48.64683" lon="7.80607">
        <ele>133.229734</ele>
        <time>2021-06-20T08:21:26.999Z</time>
      </trkpt>
      <trkpt lat="48.64693" lon="7.8062">
        <ele>133.098331</ele>
        <time>2021-06-20T08:21:28.999Z</time>
      </trkpt>
      <trkpt lat="48.64702" lon="7.80635">
        <ele>132.970392</ele>
        <time>2021-06-20T08:21:30.999Z</time>
      </trkpt>
      <trkpt lat="48.64711" lon="7.80651">
        <ele>132.837495</ele>
        <time>2021-06-20T08:21:32.999Z</time>
      </trkpt>
      <trkpt lat="48.6472" lon="7.80666">
        <ele>132.705284</ele>
        <time>2021-06-20T08:21:34.999Z</time>
      </trkpt>
      <trkpt lat="48.64733" lon="7.80675">
        <ele>132.569921</ele>
        <time>2021-06-20T08:21:36.999Z</time>
      </trkpt>
      <trkpt lat="48.64746" lon="7.80682">
        <ele>132.431418</ele>
        <time>2021-06-20T08:21:38.999Z</time>
      </trkpt>
      <trkpt lat="48.64759" lon="7.80686">
        <ele>132.303038</ele>
        <time>2021-06-20T08:21:40.999Z</time>
      </trkpt>
      <trkpt lat="48.64772" lon="7.80691">
        <ele>132.185225</ele>
        <time>2021-06-20T08:21:42.999Z</time>
      </trkpt>
      <trkpt lat="48.64786" lon="7.80696">
        <ele>132.327846</ele>
        <time>2021-06-20T08:21:44.999Z</time>
      </trkpt>
      <trkpt lat="48.64799" lon="7.80706">
        <ele>132.474724</ele>
        <time>2021-06-20T08:21:46.999Z</time>
      </trkpt>
      <trkpt lat="48.64811" lon="7.80717">
        <ele>132.616878</ele>
        <time>2021-06-20T08:21:48.999Z</time>
      </trkpt>
      <trkpt lat="48.64822" lon="7.80724">
        <ele>132.738025</ele>
        <time>2021-06-20T08:21:50.999Z</time>
      </trkpt>
      <trkpt lat="48.64834" lon="7.80729">
        <ele>132.868931</ele>
        <time>2021-06-20T08:21:52.999Z</time>
      </trkpt>
      <trkpt lat="48.64845" lon="7.80733">
        <ele>132.978339</ele>
        <time>2021-06-20T08:21:54.999Z</time>
      </trkpt>
      <trkpt lat="48.64856" lon="7.80737">
        <ele>133.09563</ele>
        <time>2021-06-20T08:21:56.999Z</time>
      </trkpt>
      <trkpt lat="48.64867" lon="7.8074">
        <ele>133.211614</ele>
        <time>2021-06-20T08:21:58.999Z</time>
      </trkpt>
      <trkpt lat="48.64879" lon="7.80746">
        <ele>133.335891</ele>
        <time>2021-06-20T08:22:00.999Z</time>
      </trkpt>
      <trkpt lat="48.64892" lon="7.8075">
        <ele>133.473881</ele>
        <time>2021-06-20T08:22:02.999Z</time>
      </trkpt>
      <trkpt lat="48.64904" lon="7.80754">
        <ele>133.603781</ele>
        <time>2021-06-20T08:22:04.999Z</time>
      </trkpt>
      <trkpt lat="48.64915" lon="7.80756">
        <ele>133.716604</ele>
        <time>2021-06-20T08:22:06.999Z</time>
      </trkpt>
      <trkpt lat="48.64929" lon="7.80757">
        <ele>133.857395</ele>
        <time>2021-06-20T08:22:08.999Z</time>
      </trkpt>
      <trkpt lat="48.64942" lon="7.80759">
        <ele>133.990236</ele>
        <time>2021-06-20T08:22:10.999Z</time>
      </trkpt>
      <trkpt lat="48.64953" lon="7.80761">
        <ele>134.02653</ele>
        <time>2021-06-20T08:22:12.999Z</time>
      </trkpt>
      <trkpt lat="48.64968" lon="7.80763">
        <ele>134.052207</ele>
        <time>2021-06-20T08:22:14.999Z</time>
      </trkpt>
      <trkpt lat="48.64982" lon="7.80768">
        <ele>134.077736</ele>
        <time>2021-06-20T08:22:16.999Z</time>
      </trkpt>
      <trkpt lat="48.64996" lon="7.8077">
        <ele>134.103236</ele>
        <time>2021-06-20T08:22:18.999Z</time>
      </trkpt>
      <trkpt lat="48.65011" lon="7.80773">
        <ele>134.129196</ele>
        <time>2021-06-20T08:22:20.999Z</time>
      </trkpt>
      <trkpt lat="48.65025" lon="7.80777">
        <ele>134.155119</ele>
        <time>2021-06-20T08:22:22.999Z</time>
      </trkpt>
      <trkpt lat="48.6504" lon="7.80782">
        <ele>134.181623</ele>
        <time>2021-06-20T08:22:24.999Z</time>
      </trkpt>
      <trkpt lat="48.65055" lon="7.80787">
        <ele>134.208938</ele>
        <time>2021-06-20T08:22:26.999Z</time>
      </trkpt>
      <trkpt lat="48.65067" lon="7.80791">
        <ele>134.232261</ele>
        <time>2021-06-20T08:22:28.999Z</time>
      </trkpt>
      <trkpt lat="48.6508" lon="7.80796">
        <ele>134.255896</ele>
        <time>2021-06-20T08:22:30.999Z</time>
      </trkpt>
      <trkpt lat="48.65092" lon="7.80799">
        <ele>134.276885</ele>
        <time>2021-06-20T08:22:32.999Z</time>
      </trkpt>
      <trkpt lat="48.65104" lon="7.80802">
        <ele>134.298532</ele>
        <time>2021-06-20T08:22:34.999Z</time>
      </trkpt>
      <trkpt lat="48.65114" lon="7.80803">
        <ele>134.316107</ele>
        <time>2021-06-20T08:22:36.999Z</time>
      </trkpt>
      <trkpt lat="48.65122" lon="7.80811">
        <ele>134.332726</ele>
        <time>2021-06-20T08:22:38.999Z</time>
      </trkpt>
      <trkpt lat="48.65128" lon="7.80829">
        <ele>134.351988</ele>
        <time>2021-06-20T08:22:40.999Z</time>
      </trkpt>
      <trkpt lat="48.65135" lon="7.80849">
        <ele>134.373395</ele>
        <time>2021-06-20T08:22:42.999Z</time>
      </trkpt>
      <trkpt lat="48.65141" lon="7.80866">
        <ele>134.392459</ele>
        <time>2021-06-20T08:22:44.999Z</time>
      </trkpt>
      <trkpt lat="48.65143" lon="7.80881">
        <ele>134.407604</ele>
        <time>2021-06-20T08:22:46.999Z</time>
      </trkpt>
      <trkpt lat="48.65132" lon="7.80894">
        <ele>134.427657</ele>
        <time>2021-06-20T08:22:48.999Z</time>
      </trkpt>
      <trkpt lat="48.65119" lon="7.80899">
        <ele>134.448207</ele>
        <time>2021-06-20T08:22:50.999Z</time>
      </trkpt>
      <trkpt lat="48.65105" lon="7.80903">
        <ele>134.468261</ele>
        <time>2021-06-20T08:22:52.999Z</time>
      </trkpt>
      <trkpt lat="48.65093" lon="7.80908">
        <ele>134.487195</ele>
        <time>2021-06-20T08:22:54.999Z</time>
      </trkpt>
      <trkpt lat="48.65081" lon="7.80913">
        <ele>134.505325</ele>
        <time>2021-06-20T08:22:56.999Z</time>
      </trkpt>
      <trkpt lat="48.65069" lon="7.80918">
        <ele>134.523883</ele>
        <time>2021-06-20T08:22:58.999Z</time>
      </trkpt>
      <trkpt lat="48.65057" lon="7.80922">
        <ele>134.541965</ele>
        <time>2021-06-20T08:23:00.999Z</time>
      </trkpt>
      <trkpt lat="48.65045" lon="7.80926">
        <ele>134.56</ele>
        <time>2021-06-20T08:23:02.999Z</time>
      </trkpt>
      <trkpt lat="48.65034" lon="7.8093">
        <ele>134.576183</ele>
        <time>2021-06-20T08:23:04.999Z</time>
      </trkpt>
      <trkpt lat="48.65027" lon="7.80944">
        <ele>134.594576</ele>
        <time>2021-06-20T08:23:06.999Z</time>
      </trkpt>
      <trkpt lat="48.65023" lon="7.80964">
        <ele>134.642962</ele>
        <time>2021-06-20T08:23:08.999Z</time>
      </trkpt>
      <trkpt lat="48.65017" lon="7.80984">
        <ele>134.693233</ele>
        <time>2021-06-20T08:23:10.999Z</time>
      </trkpt>
      <trkpt lat="48.65014" lon="7.81004">
        <ele>134.743224</ele>
        <time>2021-06-20T08:23:12.999Z</time>
      </trkpt>
      <trkpt lat="48.65015" lon="7.81027">
        <ele>134.795902</ele>
        <time>2021-06-20T08:23:14.999Z</time>
      </trkpt>
      <trkpt lat="48.65016" lon="7.81048">
        <ele>134.84436</ele>
        <time>2021-06-20T08:23:16.999Z</time>
      </trkpt>
      <trkpt lat="48.65016" lon="7.81067">
        <ele>134.88928</ele>
        <time>2021-06-20T08:23:18.999Z</time>
      </trkpt>
      <trkpt lat="48.65018" lon="7.81087">
        <ele>134.936262</ele>
        <time>2021-06-20T08:23:20.999Z</time>
      </trkpt>
      <trkpt lat="48.65021" lon="7.81107">
        <ele>134.984815</ele>
        <time>2021-06-20T08:23:22.999Z</time>
      </trkpt>
      <trkpt lat="48.65024" lon="7.81127">
        <ele>135.033587</ele>
        <time>2021-06-20T08:23:24.999Z</time>
      </trkpt>
      <trkpt lat="48.65026" lon="7.81148">
        <ele>135.081783</ele>
        <time>2021-06-20T08:23:26.999Z</time>
      </trkpt>
      <trkpt lat="48.65028" lon="7.81168">
        <ele>135.128648</ele>
        <time>2021-06-20T08:23:28.999Z</time>
      </trkpt>
      <trkpt lat="48.6503" lon="7.81188">
        <ele>135.175649</ele>
        <time>2021-06-20T08:23:30.999Z</time>
      </trkpt>
      <trkpt lat="48.65031" lon="7.81207">
        <ele>135.22224</ele>
        <time>2021-06-20T08:23:32.999Z</time>
      </trkpt>
      <trkpt lat="48.65031" lon="7.81227">
        <ele>135.090127</ele>
        <time>2021-06-20T08:23:34.999Z</time>
      </trkpt>
      <trkpt lat="48.65031" lon="7.81247">
        <ele>134.928512</ele>
        <time>2021-06-20T08:23:36.999Z</time>
      </trkpt>
      <trkpt lat="48.65029" lon="7.81265">
        <ele>134.769793</ele>
        <time>2021-06-20T08:23:38.999Z</time>
      </trkpt>
      <trkpt lat="48.65024" lon="7.81284">
        <ele>134.608028</ele>
        <time>2021-06-20T08:23:40.999Z</time>
      </trkpt>
      <trkpt lat="48.65018" lon="7.81302">
        <ele>134.437772</ele>
        <time>2021-06-20T08:23:42.999Z</time>
      </trkpt>
      <trkpt lat="48.65011" lon="7.81319">
        <ele>134.267593</ele>
        <time>2021-06-20T08:23:44.999Z</time>
      </trkpt>
      <trkpt lat="48.65003" lon="7.81336">
        <ele>134.095981</ele>
        <time>2021-06-20T08:23:46.999Z</time>
      </trkpt>
      <trkpt lat="48.64995" lon="7.81353">
        <ele>133.917082</ele>
        <time>2021-06-20T08:23:48.999Z</time>
      </trkpt>
      <trkpt lat="48.64987" lon="7.81371">
        <ele>133.741207</ele>
        <time>2021-06-20T08:23:50.999Z</time>
      </trkpt>
      <trkpt lat="48.64982" lon="7.81389">
        <ele>133.576873</ele>
        <time>2021-06-20T08:23:52.999Z</time>
      </trkpt>
      <trkpt lat="48.64975" lon="7.81406">
        <ele>133.414165</ele>
        <time>2021-06-20T08:23:54.999Z</time>
      </trkpt>
      <trkpt lat="48.64969" lon="7.81421">
        <ele>133.262055</ele>
        <time>2021-06-20T08:23:56.999Z</time>
      </trkpt>
      <trkpt lat="48.64961" lon="7.81436">
        <ele>133.105601</ele>
        <time>2021-06-20T08:23:58.999Z</time>
      </trkpt>
      <trkpt lat="48.64952" lon="7.8145">
        <ele>132.970343</ele>
        <time>2021-06-20T08:24:00.999Z</time>
      </trkpt>
      <trkpt lat="48.64944" lon="7.81466">
        <ele>133.039071</ele>
        <time>2021-06-20T08:24:02.999Z</time>
      </trkpt>
      <trkpt lat="48.64934" lon="7.81478">
        <ele>133.105853</ele>
        <time>2021-06-20T08:24:04.999Z</time>
      </trkpt>
      <trkpt lat="48.64924" lon="7.81492">
        <ele>133.175289</ele>
        <time>2021-06-20T08:24:06.999Z</time>
      </trkpt>
      <trkpt lat="48.64923" lon="7.81514">
        <ele>133.249291</ele>
        <time>2021-06-20T08:24:08.999Z</time>
      </trkpt>
      <trkpt lat="48.64929" lon="7.81534">
        <ele>133.323534</ele>
        <time>2021-06-20T08:24:10.999Z</time>
      </trkpt>
      <trkpt lat="48.64936" lon="7.81553">
        <ele>133.39863</ele>
        <time>2021-06-20T08:24:12.999Z</time>
      </trkpt>
      <trkpt lat="48.64943" lon="7.81572">
        <ele>133.47113</ele>
        <time>2021-06-20T08:24:14.999Z</time>
      </trkpt>
      <trkpt lat="48.6495" lon="7.8159">
        <ele>133.540705</ele>
        <time>2021-06-20T08:24:16.999Z</time>
      </trkpt>
      <trkpt lat="48.64956" lon="7.81607">
        <ele>133.60914</ele>
        <time>2021-06-20T08:24:18.999Z</time>
      </trkpt>
      <trkpt lat="48.64961" lon="7.81626">
        <ele>133.678555</ele>
        <time>2021-06-20T08:24:20.999Z</time>
      </trkpt>
      <trkpt lat="48.64965" lon="7.81646">
        <ele>133.748121</ele>
        <time>2021-06-20T08:24:22.999Z</time>
      </trkpt>
      <trkpt lat="48.64967" lon="7.81667">
        <ele>133.819699</ele>
        <time>2021-06-20T08:24:24.999Z</time>
      </trkpt>
      <trkpt lat="48.64969" lon="7.81687">
        <ele>133.885744</ele>
        <time>2021-06-20T08:24:26.999Z</time>
      </trkpt>
      <trkpt lat="48.64972" lon="7.81707">
        <ele>133.862501</ele>
        <time>2021-06-20T08:24:28.999Z</time>
      </trkpt>
      <trkpt lat="48.64975" lon="7.81726">
        <ele>133.840016</ele>
        <time>2021-06-20T08:24:30.999Z</time>
      </trkpt>
      <trkpt lat="48.64983" lon="7.81745">
        <ele>133.81431</ele>
        <time>2021-06-20T08:24:32.999Z</time>
      </trkpt>
      <trkpt lat="48.64996" lon="7.81754">
        <ele>133.787871</ele>
        <time>2021-06-20T08:24:34.999Z</time>
      </trkpt>
      <trkpt lat="48.65008" lon="7.81763">
        <ele>133.764666</ele>
        <time>2021-06-20T08:24:36.999Z</time>
      </trkpt>
      <trkpt lat="48.6502" lon="7.81772">
        <ele>133.740471</ele>
        <time>2021-06-20T08:24:38.999Z</time>
      </trkpt>
      <trkpt lat="48.65032" lon="7.81782">
        <ele>133.716425</ele>
        <time>2021-06-20T08:24:40.999Z</time>
      </trkpt>
      <trkpt lat="48.65044" lon="7.81792">
        <ele>133.693032</ele>
        <time>2021-06-20T08:24:42.999Z</time>
      </trkpt>
      <trkpt lat="48.65055" lon="7.81802">
        <ele>133.669462</ele>
        <time>2021-06-20T08:24:44.999Z</time>
      </trkpt>
      <trkpt lat="48.65066" lon="7.81814">
        <ele>133.645875</ele>
        <time>2021-06-20T08:24:46.999Z</time>
      </trkpt>
      <trkpt lat="48.65077" lon="7.81826">
        <ele>133.622305</ele>
        <time>2021-06-20T08:24:48.999Z</time>
      </trkpt>
      <trkpt lat="48.65088" lon="7.81838">
        <ele>133.598595</ele>
        <time>2021-06-20T08:24:50.999Z</time>
      </trkpt>
      <trkpt lat="48.65098" lon="7.81852">
        <ele>133.574394</ele>
        <time>2021-06-20T08:24:52.999Z</time>
      </trkpt>
      <trkpt lat="48.65109" lon="7.81865">
        <ele>133.51113</ele>
        <time>2021-06-20T08:24:54.999Z</time>
      </trkpt>
      <trkpt lat="48.65121" lon="7.81873">
        <ele>133.441572</ele>
        <time>2021-06-20T08:24:56.999Z</time>
      </trkpt>
      <trkpt lat="48.65134" lon="7.8188">
        <ele>133.371393</ele>
        <time>2021-06-20T08:24:58.999Z</time>
      </trkpt>
      <trkpt lat="48.65147" lon="7.81886">
        <ele>133.30127</ele>
        <time>2021-06-20T08:25:00.999Z</time>
      </trkpt>
      <trkpt lat="48.65159" lon="7.81894">
        <ele>133.230234</ele>
        <time>2021-06-20T08:25:02.999Z</time>
      </trkpt>
      <trkpt lat="48.65172" lon="7.819">
        <ele>133.16041</ele>
        <time>2021-06-20T08:25:04.999Z</time>
      </trkpt>
      <trkpt lat="48.65185" lon="7.81905">
        <ele>133.09048</ele>
        <time>2021-06-20T08:25:06.999Z</time>
      </trkpt>
      <trkpt lat="48.65198" lon="7.81911">
        <ele>133.018451</ele>
        <time>2021-06-20T08:25:08.999Z</time>
      </trkpt>
      <trkpt lat="48.65212" lon="7.81918">
        <ele>132.945022</ele>
        <time>2021-06-20T08:25:10.999Z</time>
      </trkpt>
      <trkpt lat="48.65225" lon="7.81925">
        <ele>132.871648</ele>
        <time>2021-06-20T08:25:12.999Z</time>
      </trkpt>
      <trkpt lat="48.65238" lon="7.81934">
        <ele>132.796575</ele>
        <time>2021-06-20T08:25:14.999Z</time>
      </trkpt>
      <trkpt lat="48.65251" lon="7.81945">
        <ele>132.719877</ele>
        <time>2021-06-20T08:25:16.999Z</time>
      </trkpt>
      <trkpt lat="48.65262" lon="7.81955">
        <ele>132.651767</ele>
        <time>2021-06-20T08:25:18.999Z</time>
      </trkpt>
      <trkpt lat="48.65272" lon="7.81967">
        <ele>132.653503</ele>
        <time>2021-06-20T08:25:20.999Z</time>
      </trkpt>
      <trkpt lat="48.65282" lon="7.8198">
        <ele>132.682985</ele>
        <time>2021-06-20T08:25:22.999Z</time>
      </trkpt>
      <trkpt lat="48.65293" lon="7.81991">
        <ele>132.713009</ele>
        <time>2021-06-20T08:25:24.999Z</time>
      </trkpt>
      <trkpt lat="48.65305" lon="7.82003">
        <ele>132.744382</ele>
        <time>2021-06-20T08:25:26.999Z</time>
      </trkpt>
      <trkpt lat="48.65317" lon="7.82014">
        <ele>132.776479</ele>
        <time>2021-06-20T08:25:28.999Z</time>
      </trkpt>
      <trkpt lat="48.65331" lon="7.82021">
        <ele>132.808855</ele>
        <time>2021-06-20T08:25:30.999Z</time>
      </trkpt>
      <trkpt lat="48.65344" lon="7.82026">
        <ele>132.839532</ele>
        <time>2021-06-20T08:25:32.999Z</time>
      </trkpt>
      <trkpt lat="48.65356" lon="7.82035">
        <ele>132.868732</ele>
        <time>2021-06-20T08:25:34.999Z</time>
      </trkpt>
      <trkpt lat="48.65368" lon="7.82044">
        <ele>132.89785</ele>
        <time>2021-06-20T08:25:36.999Z</time>
      </trkpt>
      <trkpt lat="48.65379" lon="7.82055">
        <ele>132.928531</ele>
        <time>2021-06-20T08:25:38.999Z</time>
      </trkpt>
      <trkpt lat="48.6539" lon="7.82067">
        <ele>132.958183</ele>
        <time>2021-06-20T08:25:40.999Z</time>
      </trkpt>
      <trkpt lat="48.65401" lon="7.82079">
        <ele>132.988841</ele>
        <time>2021-06-20T08:25:42.999Z</time>
      </trkpt>
      <trkpt lat="48.65412" lon="7.82092">
        <ele>133.019656</ele>
        <time>2021-06-20T08:25:44.999Z</time>
      </trkpt>
      <trkpt lat="48.65422" lon="7.82105">
        <ele>133.014584</ele>
        <time>2021-06-20T08:25:46.999Z</time>
      </trkpt>
      <trkpt lat="48.65431" lon="7.82121">
        <ele>132.973281</ele>
        <time>2021-06-20T08:25:48.999Z</time>
      </trkpt>
      <trkpt lat="48.65437" lon="7.82138">
        <ele>132.933008</ele>
        <time>2021-06-20T08:25:50.999Z</time>
      </trkpt>
      <trkpt lat="48.65444" lon="7.82153">
        <ele>132.895665</ele>
        <time>2021-06-20T08:25:52.999Z</time>
      </trkpt>
      <trkpt lat="48.65452" lon="7.82167">
        <ele>132.857839</ele>
        <time>2021-06-20T08:25:54.999Z</time>
      </trkpt>
      <trkpt lat="48.65462" lon="7.82177">
        <ele>132.819732</ele>
        <time>2021-06-20T08:25:56.999Z</time>
      </trkpt>
      <trkpt lat="48.65473" lon="7.82186">
        <ele>132.781567</ele>
        <time>2021-06-20T08:25:58.999Z</time>
      </trkpt>
      <trkpt lat="48.65483" lon="7.82198">
        <ele>132.743037</ele>
        <time>2021-06-20T08:26:00.999Z</time>
      </trkpt>
      <trkpt lat="48.65489" lon="7.82209">
        <ele>132.711516</ele>
        <time>2021-06-20T08:26:02.999Z</time>
      </trkpt>
      <trkpt lat="48.65499" lon="7.8222">
        <ele>132.675348</ele>
        <time>2021-06-20T08:26:04.999Z</time>
      </trkpt>
      <trkpt lat="48.65505" lon="7.82232">
        <ele>132.642854</ele>
        <time>2021-06-20T08:26:06.999Z</time>
      </trkpt>
      <trkpt lat="48.65507" lon="7.8225">
        <ele>132.605945</ele>
        <time>2021-06-20T08:26:08.999Z</time>
      </trkpt>
      <trkpt lat="48.65506" lon="7.82266">
        <ele>132.571992</ele>
        <time>2021-06-20T08:26:10.999Z</time>
      </trkpt>
      <trkpt lat="48.65509" lon="7.82283">
        <ele>132.537108</ele>
        <time>2021-06-20T08:26:12.999Z</time>
      </trkpt>
      <trkpt lat="48.65509" lon="7.823">
        <ele>132.500989</ele>
        <time>2021-06-20T08:26:14.999Z</time>
      </trkpt>
      <trkpt lat="48.65511" lon="7.82322">
        <ele>132.4622</ele>
        <time>2021-06-20T08:26:16.999Z</time>
      </trkpt>
      <trkpt lat="48.65519" lon="7.82344">
        <ele>132.424349</ele>
        <time>2021-06-20T08:26:18.999Z</time>
      </trkpt>
      <trkpt lat="48.65524" lon="7.82362">
        <ele>132.395648</ele>
        <time>2021-06-20T08:26:20.999Z</time>
      </trkpt>
      <trkpt lat="48.6553" lon="7.82384">
        <ele>132.360538</ele>
        <time>2021-06-20T08:26:22.999Z</time>
      </trkpt>
      <trkpt lat="48.65536" lon="7.82405">
        <ele>132.326547</ele>
        <time>2021-06-20T08:26:24.999Z</time>
      </trkpt>
      <trkpt lat="48.6554" lon="7.82426">
        <ele>132.295401</ele>
        <time>2021-06-20T08:26:26.999Z</time>
      </trkpt>
      <trkpt lat="48.65544" lon="7.82444">
        <ele>132.267461</ele>
        <time>2021-06-20T08:26:28.999Z</time>
      </trkpt>
      <trkpt lat="48.65548" lon="7.82459">
        <ele>132.242708</ele>
        <time>2021-06-20T08:26:30.999Z</time>
      </trkpt>
      <trkpt lat="48.65551" lon="7.82474">
        <ele>132.220684</ele>
        <time>2021-06-20T08:26:33.999Z</time>
      </trkpt>
      <trkpt lat="48.65555" lon="7.82487">
        <ele>132.200407</ele>
        <time>2021-06-20T08:26:36.999Z</time>
      </trkpt>
      <trkpt lat="48.65558" lon="7.825">
        <ele>132.179056</ele>
        <time>2021-06-20T08:26:39.999Z</time>
      </trkpt>
      <trkpt lat="48.65562" lon="7.82518">
        <ele>132.150983</ele>
        <time>2021-06-20T08:26:42.999Z</time>
      </trkpt>
      <trkpt lat="48.65567" lon="7.82532">
        <ele>132.127679</ele>
        <time>2021-06-20T08:26:44.999Z</time>
      </trkpt>
      <trkpt lat="48.65571" lon="7.82546">
        <ele>132.10637</ele>
        <time>2021-06-20T08:26:46.999Z</time>
      </trkpt>
      <trkpt lat="48.65577" lon="7.82557">
        <ele>132.084616</ele>
        <time>2021-06-20T08:26:48.999Z</time>
      </trkpt>
      <trkpt lat="48.65579" lon="7.82572">
        <ele>132.04715</ele>
        <time>2021-06-20T08:26:50.999Z</time>
      </trkpt>
      <trkpt lat="48.6558" lon="7.8259">
        <ele>131.995697</ele>
        <time>2021-06-20T08:26:52.999Z</time>
      </trkpt>
      <trkpt lat="48.65582" lon="7.82608">
        <ele>131.945008</ele>
        <time>2021-06-20T08:26:54.999Z</time>
      </trkpt>
      <trkpt lat="48.65584" lon="7.82624">
        <ele>131.896804</ele>
        <time>2021-06-20T08:26:56.999Z</time>
      </trkpt>
      <trkpt lat="48.65587" lon="7.82641">
        <ele>131.847042</ele>
        <time>2021-06-20T08:26:58.999Z</time>
      </trkpt>
      <trkpt lat="48.65586" lon="7.82657">
        <ele>131.800959</ele>
        <time>2021-06-20T08:27:00.999Z</time>
      </trkpt>
      <trkpt lat="48.65587" lon="7.82673">
        <ele>131.753727</ele>
        <time>2021-06-20T08:27:02.999Z</time>
      </trkpt>
      <trkpt lat="48.65587" lon="7.82691">
        <ele>131.703641</ele>
        <time>2021-06-20T08:27:04.999Z</time>
      </trkpt>
      <trkpt lat="48.65587" lon="7.82708">
        <ele>131.653267</ele>
        <time>2021-06-20T08:27:06.999Z</time>
      </trkpt>
      <trkpt lat="48.65586" lon="7.82728">
        <ele>131.596487</ele>
        <time>2021-06-20T08:27:08.999Z</time>
      </trkpt>
      <trkpt lat="48.65585" lon="7.82746">
        <ele>131.545646</ele>
        <time>2021-06-20T08:27:10.999Z</time>
      </trkpt>
      <trkpt lat="48.65585" lon="7.82763">
        <ele>131.494637</ele>
        <time>2021-06-20T08:27:12.999Z</time>
      </trkpt>
      <trkpt lat="48.65583" lon="7.82784">
        <ele>131.434031</ele>
        <time>2021-06-20T08:27:14.999Z</time>
      </trkpt>
      <trkpt lat="48.65581" lon="7.82804">
        <ele>131.3761</ele>
        <time>2021-06-20T08:27:16.999Z</time>
      </trkpt>
      <trkpt lat="48.65578" lon="7.82823">
        <ele>131.319975</ele>
        <time>2021-06-20T08:27:18.999Z</time>
      </trkpt>
      <trkpt lat="48.65575" lon="7.82842">
        <ele>131.295801</ele>
        <time>2021-06-20T08:27:20.999Z</time>
      </trkpt>
      <trkpt lat="48.65572" lon="7.8286">
        <ele>131.301352</ele>
        <time>2021-06-20T08:27:22.999Z</time>
      </trkpt>
      <trkpt lat="48.65567" lon="7.8288">
        <ele>131.307345</ele>
        <time>2021-06-20T08:27:24.999Z</time>
      </trkpt>
      <trkpt lat="48.65562" lon="7.82898">
        <ele>131.313024</ele>
        <time>2021-06-20T08:27:26.999Z</time>
      </trkpt>
      <trkpt lat="48.65557" lon="7.82914">
        <ele>131.318253</ele>
        <time>2021-06-20T08:27:28.999Z</time>
      </trkpt>
      <trkpt lat="48.6555" lon="7.82933">
        <ele>131.324294</ele>
        <time>2021-06-20T08:27:30.999Z</time>
      </trkpt>
      <trkpt lat="48.65544" lon="7.8295">
        <ele>131.329832</ele>
        <time>2021-06-20T08:27:32.999Z</time>
      </trkpt>
      <trkpt lat="48.65537" lon="7.82967">
        <ele>131.335567</ele>
        <time>2021-06-20T08:27:34.999Z</time>
      </trkpt>
      <trkpt lat="48.65532" lon="7.82984">
        <ele>131.340958</ele>
        <time>2021-06-20T08:27:36.999Z</time>
      </trkpt>
      <trkpt lat="48.65527" lon="7.82999">
        <ele>131.345724</ele>
        <time>2021-06-20T08:27:38.999Z</time>
      </trkpt>
      <trkpt lat="48.65522" lon="7.83014">
        <ele>131.350346</ele>
        <time>2021-06-20T08:27:40.999Z</time>
      </trkpt>
      <trkpt lat="48.65517" lon="7.83028">
        <ele>131.355003</ele>
        <time>2021-06-20T08:27:42.999Z</time>
      </trkpt>
      <trkpt lat="48.65511" lon="7.83043">
        <ele>131.35999</ele>
        <time>2021-06-20T08:27:44.999Z</time>
      </trkpt>
      <trkpt lat="48.65505" lon="7.83059">
        <ele>131.36518</ele>
        <time>2021-06-20T08:27:46.999Z</time>
      </trkpt>
      <trkpt lat="48.65499" lon="7.83075">
        <ele>131.370584</ele>
        <time>2021-06-20T08:27:48.999Z</time>
      </trkpt>
      <trkpt lat="48.65495" lon="7.83093">
        <ele>131.392708</ele>
        <time>2021-06-20T08:27:50.999Z</time>
      </trkpt>
      <trkpt lat="48.65489" lon="7.83111">
        <ele>131.41703</ele>
        <time>2021-06-20T08:27:52.999Z</time>
      </trkpt>
      <trkpt lat="48.65484" lon="7.83128">
        <ele>131.44041</ele>
        <time>2021-06-20T08:27:54.999Z</time>
      </trkpt>
      <trkpt lat="48.65481" lon="7.83143">
        <ele>131.458653</ele>
        <time>2021-06-20T08:27:56.999Z</time>
      </trkpt>
      <trkpt lat="48.65475" lon="7.83162">
        <ele>131.484706</ele>
        <time>2021-06-20T08:27:58.999Z</time>
      </trkpt>
      <trkpt lat="48.65471" lon="7.83182">
        <ele>131.510433</ele>
        <time>2021-06-20T08:28:00.999Z</time>
      </trkpt>
      <trkpt lat="48.65467" lon="7.83202">
        <ele>131.53573</ele>
        <time>2021-06-20T08:28:02.999Z</time>
      </trkpt>
      <trkpt lat="48.65463" lon="7.83221">
        <ele>131.560123</ele>
        <time>2021-06-20T08:28:04.999Z</time>
      </trkpt>
      <trkpt lat="48.65462" lon="7.83242">
        <ele>131.585377</ele>
        <time>2021-06-20T08:28:06.999Z</time>
      </trkpt>
      <trkpt lat="48.6546" lon="7.83259">
        <ele>131.606333</ele>
        <time>2021-06-20T08:28:08.999Z</time>
      </trkpt>
      <trkpt lat="48.65459" lon="7.83274">
        <ele>131.625565</ele>
        <time>2021-06-20T08:28:11.999Z</time>
      </trkpt>
      <trkpt lat="48.65457" lon="7.83289">
        <ele>131.64447</ele>
        <time>2021-06-20T08:28:14.999Z</time>
      </trkpt>
      <trkpt lat="48.65457" lon="7.83309">
        <ele>131.669124</ele>
        <time>2021-06-20T08:28:17.999Z</time>
      </trkpt>
      <trkpt lat="48.65457" lon="7.83326">
        <ele>131.689884</ele>
        <time>2021-06-20T08:28:19.999Z</time>
      </trkpt>
      <trkpt lat="48.65458" lon="7.83342">
        <ele>131.723343</ele>
        <time>2021-06-20T08:28:21.999Z</time>
      </trkpt>
      <trkpt lat="48.65459" lon="7.83357">
        <ele>131.780642</ele>
        <time>2021-06-20T08:28:23.999Z</time>
      </trkpt>
      <trkpt lat="48.65459" lon="7.83376">
        <ele>131.850824</ele>
        <time>2021-06-20T08:28:25.999Z</time>
      </trkpt>
      <trkpt lat="48.65457" lon="7.83393">
        <ele>131.919331</ele>
        <time>2021-06-20T08:28:27.999Z</time>
      </trkpt>
      <trkpt lat="48.65455" lon="7.83412">
        <ele>131.991385</ele>
        <time>2021-06-20T08:28:29.999Z</time>
      </trkpt>
      <trkpt lat="48.65457" lon="7.83429">
        <ele>132.059784</ele>
        <time>2021-06-20T08:28:31.999Z</time>
      </trkpt>
      <trkpt lat="48.65461" lon="7.83448">
        <ele>132.136115</ele>
        <time>2021-06-20T08:28:33.999Z</time>
      </trkpt>
      <trkpt lat="48.65467" lon="7.83465">
        <ele>132.209359</ele>
        <time>2021-06-20T08:28:35.999Z</time>
      </trkpt>
      <trkpt lat="48.65473" lon="7.83482">
        <ele>132.282739</ele>
        <time>2021-06-20T08:28:37.999Z</time>
      </trkpt>
      <trkpt lat="48.65481" lon="7.83496">
        <ele>132.353452</ele>
        <time>2021-06-20T08:28:39.999Z</time>
      </trkpt>
      <trkpt lat="48.65489" lon="7.83509">
        <ele>132.422904</ele>
        <time>2021-06-20T08:28:41.999Z</time>
      </trkpt>
      <trkpt lat="48.65497" lon="7.83522">
        <ele>132.490892</ele>
        <time>2021-06-20T08:28:43.999Z</time>
      </trkpt>
      <trkpt lat="48.65504" lon="7.83535">
        <ele>132.552075</ele>
        <time>2021-06-20T08:28:45.999Z</time>
      </trkpt>
      <trkpt lat="48.65512" lon="7.83529">
        <ele>132.605088</ele>
        <time>2021-06-20T08:28:47.999Z</time>
      </trkpt>
      <trkpt lat="48.65521" lon="7.83531">
        <ele>132.659893</ele>
        <time>2021-06-20T08:28:50.999Z</time>
      </trkpt>
      <trkpt lat="48.65529" lon="7.83521">
        <ele>132.719891</ele>
        <time>2021-06-20T08:28:53.999Z</time>
      </trkpt>
      <trkpt lat="48.65536" lon="7.83505">
        <ele>132.739005</ele>
        <time>2021-06-20T08:28:56.999Z</time>
      </trkpt>
      <trkpt lat="48.65546" lon="7.83512">
        <ele>132.729038</ele>
        <time>2021-06-20T08:29:00.999Z</time>
      </trkpt>
      <trkpt lat="48.65552" lon="7.83522">
        <ele>132.72052</ele>
        <time>2021-06-20T08:29:02.999Z</time>
      </trkpt>
      <trkpt lat="48.65559" lon="7.83537">
        <ele>132.70919</ele>
        <time>2021-06-20T08:29:04.999Z</time>
      </trkpt>
      <trkpt lat="48.65565" lon="7.83553">
        <ele>132.698234</ele>
        <time>2021-06-20T08:29:06.999Z</time>
      </trkpt>
      <trkpt lat="48.65568" lon="7.83569">
        <ele>132.687701</ele>
        <time>2021-06-20T08:29:08.999Z</time>
      </trkpt>
      <trkpt lat="48.65571" lon="7.83585">
        <ele>132.677022</ele>
        <time>2021-06-20T08:29:10.999Z</time>
      </trkpt>
      <trkpt lat="48.65576" lon="7.83601">
        <ele>132.66651</ele>
        <time>2021-06-20T08:29:12.999Z</time>
      </trkpt>
      <trkpt lat="48.65581" lon="7.83617">
        <ele>132.655357</ele>
        <time>2021-06-20T08:29:14.999Z</time>
      </trkpt>
      <trkpt lat="48.65583" lon="7.83634">
        <ele>132.644765</ele>
        <time>2021-06-20T08:29:16.999Z</time>
      </trkpt>
      <trkpt lat="48.65586" lon="7.83651">
        <ele>132.633613</ele>
        <time>2021-06-20T08:29:18.999Z</time>
      </trkpt>
      <trkpt lat="48.65591" lon="7.8367">
        <ele>132.621285</ele>
        <time>2021-06-20T08:29:20.999Z</time>
      </trkpt>
      <trkpt lat="48.65593" lon="7.83688">
        <ele>132.609914</ele>
        <time>2021-06-20T08:29:22.999Z</time>
      </trkpt>
      <trkpt lat="48.65592" lon="7.83707">
        <ele>132.598386</ele>
        <time>2021-06-20T08:29:24.999Z</time>
      </trkpt>
      <trkpt lat="48.65592" lon="7.83725">
        <ele>132.586785</ele>
        <time>2021-06-20T08:29:26.999Z</time>
      </trkpt>
      <trkpt lat="48.65591" lon="7.83744">
        <ele>132.590216</ele>
        <time>2021-06-20T08:29:28.999Z</time>
      </trkpt>
      <trkpt lat="48.65586" lon="7.83761">
        <ele>132.639301</ele>
        <time>2021-06-20T08:29:30.999Z</time>
      </trkpt>
      <trkpt lat="48.65581" lon="7.83778">
        <ele>132.688236</ele>
        <time>2021-06-20T08:29:32.999Z</time>
      </trkpt>
      <trkpt lat="48.65576" lon="7.83795">
        <ele>132.739114</ele>
        <time>2021-06-20T08:29:34.999Z</time>
      </trkpt>
      <trkpt lat="48.65571" lon="7.83813">
        <ele>132.790478</ele>
        <time>2021-06-20T08:29:36.999Z</time>
      </trkpt>
      <trkpt lat="48.65567" lon="7.8383">
        <ele>132.840299</ele>
        <time>2021-06-20T08:29:38.999Z</time>
      </trkpt>
      <trkpt lat="48.65566" lon="7.83847">
        <ele>132.886821</ele>
        <time>2021-06-20T08:29:40.999Z</time>
      </trkpt>
      <trkpt lat="48.65567" lon="7.83867">
        <ele>132.937988</ele>
        <time>2021-06-20T08:29:42.999Z</time>
      </trkpt>
      <trkpt lat="48.65565" lon="7.83884">
        <ele>132.98486</ele>
        <time>2021-06-20T08:29:44.999Z</time>
      </trkpt>
      <trkpt lat="48.65564" lon="7.83903">
        <ele>133.036981</ele>
        <time>2021-06-20T08:29:46.999Z</time>
      </trkpt>
      <trkpt lat="48.65563" lon="7.83923">
        <ele>133.089443</ele>
        <time>2021-06-20T08:29:48.999Z</time>
      </trkpt>
      <trkpt lat="48.65561" lon="7.83941">
        <ele>133.139822</ele>
        <time>2021-06-20T08:29:50.999Z</time>
      </trkpt>
      <trkpt lat="48.65556" lon="7.8396">
        <ele>133.192735</ele>
        <time>2021-06-20T08:29:52.999Z</time>
      </trkpt>
      <trkpt lat="48.65551" lon="7.83977">
        <ele>133.243526</ele>
        <time>2021-06-20T08:29:54.999Z</time>
      </trkpt>
      <trkpt lat="48.65549" lon="7.83994">
        <ele>133.290588</ele>
        <time>2021-06-20T08:29:56.999Z</time>
      </trkpt>
      <trkpt lat="48.65545" lon="7.84011">
        <ele>133.313729</ele>
        <time>2021-06-20T08:29:58.999Z</time>
      </trkpt>
      <trkpt lat="48.65541" lon="7.84027">
        <ele>133.324319</ele>
        <time>2021-06-20T08:30:00.999Z</time>
      </trkpt>
      <trkpt lat="48.65537" lon="7.84046">
        <ele>133.335634</ele>
        <time>2021-06-20T08:30:02.999Z</time>
      </trkpt>
      <trkpt lat="48.65538" lon="7.84065">
        <ele>133.347112</ele>
        <time>2021-06-20T08:30:04.999Z</time>
      </trkpt>
      <trkpt lat="48.65536" lon="7.84084">
        <ele>133.358857</ele>
        <time>2021-06-20T08:30:06.999Z</time>
      </trkpt>
      <trkpt lat="48.65533" lon="7.84103">
        <ele>133.370419</ele>
        <time>2021-06-20T08:30:08.999Z</time>
      </trkpt>
      <trkpt lat="48.65529" lon="7.84122">
        <ele>133.382467</ele>
        <time>2021-06-20T08:30:10.999Z</time>
      </trkpt>
      <trkpt lat="48.65524" lon="7.8414">
        <ele>133.394545</ele>
        <time>2021-06-20T08:30:12.999Z</time>
      </trkpt>
      <trkpt lat="48.6552" lon="7.84158">
        <ele>133.405875</ele>
        <time>2021-06-20T08:30:14.999Z</time>
      </trkpt>
      <trkpt lat="48.65519" lon="7.84178">
        <ele>133.417491</ele>
        <time>2021-06-20T08:30:16.999Z</time>
      </trkpt>
      <trkpt lat="48.65521" lon="7.84196">
        <ele>133.428902</ele>
        <time>2021-06-20T08:30:18.999Z</time>
      </trkpt>
      <trkpt lat="48.65526" lon="7.84214">
        <ele>133.440195</ele>
        <time>2021-06-20T08:30:20.999Z</time>
      </trkpt>
      <trkpt lat="48.65534" lon="7.8423">
        <ele>133.452615</ele>
        <time>2021-06-20T08:30:22.999Z</time>
      </trkpt>
      <trkpt lat="48.65545" lon="7.84241">
        <ele>133.464412</ele>
        <time>2021-06-20T08:30:24.999Z</time>
      </trkpt>
      <trkpt lat="48.65555" lon="7.84251">
        <ele>133.46319</ele>
        <time>2021-06-20T08:30:26.999Z</time>
      </trkpt>
      <trkpt lat="48.65562" lon="7.84265">
        <ele>133.44801</ele>
        <time>2021-06-20T08:30:28.999Z</time>
      </trkpt>
      <trkpt lat="48.65568" lon="7.8428">
        <ele>133.431683</ele>
        <time>2021-06-20T08:30:30.999Z</time>
      </trkpt>
      <trkpt lat="48.65574" lon="7.84295">
        <ele>133.416391</ele>
        <time>2021-06-20T08:30:32.999Z</time>
      </trkpt>
      <trkpt lat="48.65578" lon="7.8431">
        <ele>133.401703</ele>
        <time>2021-06-20T08:30:34.999Z</time>
      </trkpt>
      <trkpt lat="48.65582" lon="7.84323">
        <ele>133.389121</ele>
        <time>2021-06-20T08:30:36.999Z</time>
      </trkpt>
      <trkpt lat="48.65586" lon="7.84337">
        <ele>133.374864</ele>
        <time>2021-06-20T08:30:38.999Z</time>
      </trkpt>
      <trkpt lat="48.65592" lon="7.84351">
        <ele>133.360713</ele>
        <time>2021-06-20T08:30:40.999Z</time>
      </trkpt>
      <trkpt lat="48.65598" lon="7.84365">
        <ele>133.345511</ele>
        <time>2021-06-20T08:30:42.999Z</time>
      </trkpt>
      <trkpt lat="48.65604" lon="7.84377">
        <ele>133.332175</ele>
        <time>2021-06-20T08:30:44.999Z</time>
      </trkpt>
      <trkpt lat="48.65614" lon="7.84389">
        <ele>133.315123</ele>
        <time>2021-06-20T08:30:46.999Z</time>
      </trkpt>
      <trkpt lat="48.65624" lon="7.84401">
        <ele>133.298154</ele>
        <time>2021-06-20T08:30:48.999Z</time>
      </trkpt>
      <trkpt lat="48.65635" lon="7.84409">
        <ele>133.281936</ele>
        <time>2021-06-20T08:30:50.999Z</time>
      </trkpt>
      <trkpt lat="48.65645" lon="7.84419">
        <ele>133.265868</ele>
        <time>2021-06-20T08:30:52.999Z</time>
      </trkpt>
      <trkpt lat="48.65654" lon="7.84427">
        <ele>133.250957</ele>
        <time>2021-06-20T08:30:54.999Z</time>
      </trkpt>
      <trkpt lat="48.65664" lon="7.84438">
        <ele>133.234239</ele>
        <time>2021-06-20T08:30:56.999Z</time>
      </trkpt>
      <trkpt lat="48.65675" lon="7.84448">
        <ele>133.223447</ele>
        <time>2021-06-20T08:30:58.999Z</time>
      </trkpt>
      <trkpt lat="48.65685" lon="7.84461">
        <ele>133.216384</ele>
        <time>2021-06-20T08:31:00.999Z</time>
      </trkpt>
      <trkpt lat="48.65693" lon="7.84473">
        <ele>133.210002</ele>
        <time>2021-06-20T08:31:02.999Z</time>
      </trkpt>
      <trkpt lat="48.65703" lon="7.84482">
        <ele>133.203858</ele>
        <time>2021-06-20T08:31:04.999Z</time>
      </trkpt>
      <trkpt lat="48.65712" lon="7.84493">
        <ele>133.197534</ele>
        <time>2021-06-20T08:31:06.999Z</time>
      </trkpt>
      <trkpt lat="48.6572" lon="7.84503">
        <ele>133.191775</ele>
        <time>2021-06-20T08:31:08.999Z</time>
      </trkpt>
      <trkpt lat="48.65728" lon="7.84513">
        <ele>133.186074</ele>
        <time>2021-06-20T08:31:10.999Z</time>
      </trkpt>
      <trkpt lat="48.65736" lon="7.84524">
        <ele>133.180079</ele>
        <time>2021-06-20T08:31:12.999Z</time>
      </trkpt>
      <trkpt lat="48.65745" lon="7.84538">
        <ele>133.173418</ele>
        <time>2021-06-20T08:31:14.999Z</time>
      </trkpt>
      <trkpt lat="48.65753" lon="7.84551">
        <ele>133.167013</ele>
        <time>2021-06-20T08:31:16.999Z</time>
      </trkpt>
      <trkpt lat="48.65763" lon="7.84561">
        <ele>133.160451</ele>
        <time>2021-06-20T08:31:18.999Z</time>
      </trkpt>
      <trkpt lat="48.65775" lon="7.84564">
        <ele>133.153548</ele>
        <time>2021-06-20T08:31:20.999Z</time>
      </trkpt>
      <trkpt lat="48.65787" lon="7.84555">
        <ele>133.146648</ele>
        <time>2021-06-20T08:31:22.999Z</time>
      </trkpt>
      <trkpt lat="48.65796" lon="7.84549">
        <ele>133.141012</ele>
        <time>2021-06-20T08:31:24.999Z</time>
      </trkpt>
      <trkpt lat="48.65806" lon="7.84547">
        <ele>133.135551</ele>
        <time>2021-06-20T08:31:26.999Z</time>
      </trkpt>
      <trkpt lat="48.65816" lon="7.84547">
        <ele>133.130231</ele>
        <time>2021-06-20T08:31:28.999Z</time>
      </trkpt>
      <trkpt lat="48.65825" lon="7.84549">
        <ele>133.111685</ele>
        <time>2021-06-20T08:31:30.999Z</time>
      </trkpt>
      <trkpt lat="48.65837" lon="7.84549">
        <ele>133.084847</ele>
        <time>2021-06-20T08:31:33.999Z</time>
      </trkpt>
      <trkpt lat="48.65848" lon="7.8454">
        <ele>133.056828</ele>
        <time>2021-06-20T08:31:36.999Z</time>
      </trkpt>
      <trkpt lat="48.65858" lon="7.84529">
        <ele>133.030949</ele>
        <time>2021-06-20T08:31:39.999Z</time>
      </trkpt>
      <trkpt lat="48.65867" lon="7.84525">
        <ele>133.010527</ele>
        <time>2021-06-20T08:31:45.999Z</time>
      </trkpt>
      <trkpt lat="48.65879" lon="7.84521">
        <ele>132.983433</ele>
        <time>2021-06-20T08:31:50.999Z</time>
      </trkpt>
      <trkpt lat="48.6589" lon="7.84512">
        <ele>132.955284</ele>
        <time>2021-06-20T08:31:54.999Z</time>
      </trkpt>
      <trkpt lat="48.65899" lon="7.84509">
        <ele>132.935129</ele>
        <time>2021-06-20T08:31:56.999Z</time>
      </trkpt>
      <trkpt lat="48.65909" lon="7.84507">
        <ele>132.91232</ele>
        <time>2021-06-20T08:31:58.999Z</time>
      </trkpt>
      <trkpt lat="48.65921" lon="7.84508">
        <ele>132.887463</ele>
        <time>2021-06-20T08:32:00.999Z</time>
      </trkpt>
      <trkpt lat="48.65932" lon="7.84508">
        <ele>132.862825</ele>
        <time>2021-06-20T08:32:02.999Z</time>
      </trkpt>
      <trkpt lat="48.65942" lon="7.84509">
        <ele>132.839892</ele>
        <time>2021-06-20T08:32:04.999Z</time>
      </trkpt>
      <trkpt lat="48.65953" lon="7.84508">
        <ele>132.815651</ele>
        <time>2021-06-20T08:32:06.999Z</time>
      </trkpt>
      <trkpt lat="48.65963" lon="7.84506">
        <ele>132.793145</ele>
        <time>2021-06-20T08:32:08.999Z</time>
      </trkpt>
      <trkpt lat="48.65974" lon="7.84505">
        <ele>132.769081</ele>
        <time>2021-06-20T08:32:10.999Z</time>
      </trkpt>
      <trkpt lat="48.65986" lon="7.84506">
        <ele>132.743514</ele>
        <time>2021-06-20T08:32:12.999Z</time>
      </trkpt>
      <trkpt lat="48.65996" lon="7.84507">
        <ele>132.69828</ele>
        <time>2021-06-20T08:32:14.999Z</time>
      </trkpt>
      <trkpt lat="48.66007" lon="7.84503">
        <ele>132.638136</ele>
        <time>2021-06-20T08:32:16.999Z</time>
      </trkpt>
      <trkpt lat="48.66017" lon="7.845">
        <ele>132.577146</ele>
        <time>2021-06-20T08:32:18.999Z</time>
      </trkpt>
      <trkpt lat="48.66027" lon="7.84501">
        <ele>132.516974</ele>
        <time>2021-06-20T08:32:20.999Z</time>
      </trkpt>
      <trkpt lat="48.66037" lon="7.84507">
        <ele>132.455887</ele>
        <time>2021-06-20T08:32:22.999Z</time>
      </trkpt>
      <trkpt lat="48.66048" lon="7.84513">
        <ele>132.390785</ele>
        <time>2021-06-20T08:32:24.999Z</time>
      </trkpt>
      <trkpt lat="48.66058" lon="7.8452">
        <ele>132.328158</ele>
        <time>2021-06-20T08:32:26.999Z</time>
      </trkpt>
      <trkpt lat="48.66068" lon="7.84527">
        <ele>132.2647</ele>
        <time>2021-06-20T08:32:28.999Z</time>
      </trkpt>
      <trkpt lat="48.66078" lon="7.84535">
        <ele>132.19868</ele>
        <time>2021-06-20T08:32:30.999Z</time>
      </trkpt>
      <trkpt lat="48.66088" lon="7.84542">
        <ele>132.138112</ele>
        <time>2021-06-20T08:32:32.999Z</time>
      </trkpt>
      <trkpt lat="48.66098" lon="7.84551">
        <ele>132.068756</ele>
        <time>2021-06-20T08:32:34.999Z</time>
      </trkpt>
      <trkpt lat="48.66108" lon="7.8456">
        <ele>132.005038</ele>
        <time>2021-06-20T08:32:36.999Z</time>
      </trkpt>
      <trkpt lat="48.66116" lon="7.84569">
        <ele>131.948041</ele>
        <time>2021-06-20T08:32:38.999Z</time>
      </trkpt>
      <trkpt lat="48.66126" lon="7.84578">
        <ele>131.882105</ele>
        <time>2021-06-20T08:32:40.999Z</time>
      </trkpt>
      <trkpt lat="48.66133" lon="7.84591">
        <ele>131.818595</ele>
        <time>2021-06-20T08:32:42.999Z</time>
      </trkpt>
      <trkpt lat="48.6614" lon="7.84607">
        <ele>131.745809</ele>
        <time>2021-06-20T08:32:44.999Z</time>
      </trkpt>
      <trkpt lat="48.66148" lon="7.84622">
        <ele>131.733561</ele>
        <time>2021-06-20T08:32:46.999Z</time>
      </trkpt>
      <trkpt lat="48.66155" lon="7.84637">
        <ele>131.791564</ele>
        <time>2021-06-20T08:32:48.999Z</time>
      </trkpt>
      <trkpt lat="48.66163" lon="7.84652">
        <ele>131.85204</ele>
        <time>2021-06-20T08:32:50.999Z</time>
      </trkpt>
      <trkpt lat="48.66171" lon="7.84667">
        <ele>131.912016</ele>
        <time>2021-06-20T08:32:52.999Z</time>
      </trkpt>
      <trkpt lat="48.66178" lon="7.84682">
        <ele>131.971631</ele>
        <time>2021-06-20T08:32:54.999Z</time>
      </trkpt>
      <trkpt lat="48.66185" lon="7.84696">
        <ele>132.028191</ele>
        <time>2021-06-20T08:32:56.999Z</time>
      </trkpt>
      <trkpt lat="48.66192" lon="7.8471">
        <ele>132.080376</ele>
        <time>2021-06-20T08:32:58.999Z</time>
      </trkpt>
      <trkpt lat="48.66199" lon="7.84722">
        <ele>132.134395</ele>
        <time>2021-06-20T08:33:00.999Z</time>
      </trkpt>
      <trkpt lat="48.66205" lon="7.84735">
        <ele>132.183661</ele>
        <time>2021-06-20T08:33:02.999Z</time>
      </trkpt>
      <trkpt lat="48.66207" lon="7.84755">
        <ele>132.245102</ele>
        <time>2021-06-20T08:33:05.999Z</time>
      </trkpt>
      <trkpt lat="48.66202" lon="7.84767">
        <ele>132.291297</ele>
        <time>2021-06-20T08:33:07.999Z</time>
      </trkpt>
      <trkpt lat="48.66195" lon="7.84778">
        <ele>132.338993</ele>
        <time>2021-06-20T08:33:09.999Z</time>
      </trkpt>
      <trkpt lat="48.66189" lon="7.84792">
        <ele>132.392759</ele>
        <time>2021-06-20T08:33:11.999Z</time>
      </trkpt>
      <trkpt lat="48.66187" lon="7.84808">
        <ele>132.443688</ele>
        <time>2021-06-20T08:33:13.999Z</time>
      </trkpt>
      <trkpt lat="48.66186" lon="7.84826">
        <ele>132.499862</ele>
        <time>2021-06-20T08:33:15.999Z</time>
      </trkpt>
      <trkpt lat="48.66185" lon="7.84844">
        <ele>132.556472</ele>
        <time>2021-06-20T08:33:17.999Z</time>
      </trkpt>
      <trkpt lat="48.66185" lon="7.84862">
        <ele>132.559107</ele>
        <time>2021-06-20T08:33:19.999Z</time>
      </trkpt>
      <trkpt lat="48.66185" lon="7.84881">
        <ele>132.550992</ele>
        <time>2021-06-20T08:33:21.999Z</time>
      </trkpt>
      <trkpt lat="48.66185" lon="7.849">
        <ele>132.543198</ele>
        <time>2021-06-20T08:33:23.999Z</time>
      </trkpt>
      <trkpt lat="48.66185" lon="7.84918">
        <ele>132.535836</ele>
        <time>2021-06-20T08:33:25.999Z</time>
      </trkpt>
      <trkpt lat="48.66183" lon="7.84936">
        <ele>132.527997</ele>
        <time>2021-06-20T08:33:27.999Z</time>
      </trkpt>
      <trkpt lat="48.66184" lon="7.84955">
        <ele>132.520291</ele>
        <time>2021-06-20T08:33:29.999Z</time>
      </trkpt>
      <trkpt lat="48.66188" lon="7.84973">
        <ele>132.512167</ele>
        <time>2021-06-20T08:33:31.999Z</time>
      </trkpt>
      <trkpt lat="48.66192" lon="7.8499">
        <ele>132.504496</ele>
        <time>2021-06-20T08:33:33.999Z</time>
      </trkpt>
      <trkpt lat="48.66196" lon="7.85008">
        <ele>132.496571</ele>
        <time>2021-06-20T08:33:35.999Z</time>
      </trkpt>
      <trkpt lat="48.66201" lon="7.85026">
        <ele>132.488552</ele>
        <time>2021-06-20T08:33:37.999Z</time>
      </trkpt>
      <trkpt lat="48.66203" lon="7.85042">
        <ele>132.48188</ele>
        <time>2021-06-20T08:33:39.999Z</time>
      </trkpt>
      <trkpt lat="48.66207" lon="7.85059">
        <ele>132.474312</ele>
        <time>2021-06-20T08:33:41.999Z</time>
      </trkpt>
      <trkpt lat="48.66212" lon="7.85074">
        <ele>132.467025</ele>
        <time>2021-06-20T08:33:43.999Z</time>
      </trkpt>
      <trkpt lat="48.66221" lon="7.85087">
        <ele>132.459002</ele>
        <time>2021-06-20T08:33:45.999Z</time>
      </trkpt>
      <trkpt lat="48.6623" lon="7.85101">
        <ele>132.451052</ele>
        <time>2021-06-20T08:33:47.999Z</time>
      </trkpt>
      <trkpt lat="48.66239" lon="7.85115">
        <ele>132.443293</ele>
        <time>2021-06-20T08:33:49.999Z</time>
      </trkpt>
      <trkpt lat="48.66247" lon="7.8513">
        <ele>132.435755</ele>
        <time>2021-06-20T08:33:51.999Z</time>
      </trkpt>
      <trkpt lat="48.66255" lon="7.85144">
        <ele>132.428286</ele>
        <time>2021-06-20T08:33:53.999Z</time>
      </trkpt>
      <trkpt lat="48.66263" lon="7.85156">
        <ele>132.421217</ele>
        <time>2021-06-20T08:33:55.999Z</time>
      </trkpt>
      <trkpt lat="48.6627" lon="7.85173">
        <ele>132.413213</ele>
        <time>2021-06-20T08:33:57.999Z</time>
      </trkpt>
      <trkpt lat="48.66279" lon="7.85189">
        <ele>132.4052</ele>
        <time>2021-06-20T08:33:59.999Z</time>
      </trkpt>
      <trkpt lat="48.66287" lon="7.85203">
        <ele>132.397521</ele>
        <time>2021-06-20T08:34:01.999Z</time>
      </trkpt>
      <trkpt lat="48.66294" lon="7.85216">
        <ele>132.390671</ele>
        <time>2021-06-20T08:34:03.999Z</time>
      </trkpt>
      <trkpt lat="48.66302" lon="7.85231">
        <ele>132.383236</ele>
        <time>2021-06-20T08:34:05.999Z</time>
      </trkpt>
      <trkpt lat="48.6631" lon="7.85245">
        <ele>132.375785</ele>
        <time>2021-06-20T08:34:07.999Z</time>
      </trkpt>
      <trkpt lat="48.66318" lon="7.8526">
        <ele>132.368218</ele>
        <time>2021-06-20T08:34:09.999Z</time>
      </trkpt>
      <trkpt lat="48.66327" lon="7.85274">
        <ele>132.360377</ele>
        <time>2021-06-20T08:34:11.999Z</time>
      </trkpt>
      <trkpt lat="48.66335" lon="7.85288">
        <ele>132.352988</ele>
        <time>2021-06-20T08:34:13.999Z</time>
      </trkpt>
      <trkpt lat="48.66343" lon="7.85301">
        <ele>132.34568</ele>
        <time>2021-06-20T08:34:15.999Z</time>
      </trkpt>
      <trkpt lat="48.66351" lon="7.85315">
        <ele>132.365027</ele>
        <time>2021-06-20T08:34:17.999Z</time>
      </trkpt>
      <trkpt lat="48.66359" lon="7.85329">
        <ele>132.402193</ele>
        <time>2021-06-20T08:34:19.999Z</time>
      </trkpt>
      <trkpt lat="48.66367" lon="7.85344">
        <ele>132.439066</ele>
        <time>2021-06-20T08:34:21.999Z</time>
      </trkpt>
      <trkpt lat="48.66375" lon="7.85358">
        <ele>132.476392</ele>
        <time>2021-06-20T08:34:23.999Z</time>
      </trkpt>
      <trkpt lat="48.66383" lon="7.85373">
        <ele>132.514299</ele>
        <time>2021-06-20T08:34:25.999Z</time>
      </trkpt>
      <trkpt lat="48.66391" lon="7.85386">
        <ele>132.55008</ele>
        <time>2021-06-20T08:34:27.999Z</time>
      </trkpt>
      <trkpt lat="48.66398" lon="7.85401">
        <ele>132.585067</ele>
        <time>2021-06-20T08:34:29.999Z</time>
      </trkpt>
      <trkpt lat="48.66405" lon="7.85414">
        <ele>132.618203</ele>
        <time>2021-06-20T08:34:31.999Z</time>
      </trkpt>
      <trkpt lat="48.66413" lon="7.85427">
        <ele>132.654701</ele>
        <time>2021-06-20T08:34:33.999Z</time>
      </trkpt>
      <trkpt lat="48.66422" lon="7.85441">
        <ele>132.691867</ele>
        <time>2021-06-20T08:34:35.999Z</time>
      </trkpt>
      <trkpt lat="48.6643" lon="7.85455">
        <ele>132.729774</ele>
        <time>2021-06-20T08:34:37.999Z</time>
      </trkpt>
      <trkpt lat="48.66438" lon="7.85469">
        <ele>132.76512</ele>
        <time>2021-06-20T08:34:39.999Z</time>
      </trkpt>
      <trkpt lat="48.66445" lon="7.85482">
        <ele>132.800111</ele>
        <time>2021-06-20T08:34:41.999Z</time>
      </trkpt>
      <trkpt lat="48.66453" lon="7.85497">
        <ele>132.837303</ele>
        <time>2021-06-20T08:34:43.999Z</time>
      </trkpt>
      <trkpt lat="48.66461" lon="7.85512">
        <ele>132.873718</ele>
        <time>2021-06-20T08:34:45.999Z</time>
      </trkpt>
      <trkpt lat="48.66469" lon="7.85527">
        <ele>132.896691</ele>
        <time>2021-06-20T08:34:47.999Z</time>
      </trkpt>
      <trkpt lat="48.66478" lon="7.85541">
        <ele>132.915768</ele>
        <time>2021-06-20T08:34:49.999Z</time>
      </trkpt>
      <trkpt lat="48.66485" lon="7.85555">
        <ele>132.933106</ele>
        <time>2021-06-20T08:34:51.999Z</time>
      </trkpt>
      <trkpt lat="48.66494" lon="7.8557">
        <ele>132.952157</ele>
        <time>2021-06-20T08:34:53.999Z</time>
      </trkpt>
      <trkpt lat="48.66502" lon="7.85584">
        <ele>132.970024</ele>
        <time>2021-06-20T08:34:55.999Z</time>
      </trkpt>
      <trkpt lat="48.6651" lon="7.856">
        <ele>132.989047</ele>
        <time>2021-06-20T08:34:57.999Z</time>
      </trkpt>
      <trkpt lat="48.66517" lon="7.85614">
        <ele>133.006504</ele>
        <time>2021-06-20T08:34:59.999Z</time>
      </trkpt>
      <trkpt lat="48.66524" lon="7.85627">
        <ele>133.023413</ele>
        <time>2021-06-20T08:35:01.999Z</time>
      </trkpt>
      <trkpt lat="48.66532" lon="7.85641">
        <ele>133.040733</ele>
        <time>2021-06-20T08:35:03.999Z</time>
      </trkpt>
      <trkpt lat="48.66539" lon="7.85655">
        <ele>133.058303</ele>
        <time>2021-06-20T08:35:05.999Z</time>
      </trkpt>
      <trkpt lat="48.66547" lon="7.85668">
        <ele>133.074467</ele>
        <time>2021-06-20T08:35:07.999Z</time>
      </trkpt>
      <trkpt lat="48.66555" lon="7.8568">
        <ele>133.091594</ele>
        <time>2021-06-20T08:35:09.999Z</time>
      </trkpt>
      <trkpt lat="48.66562" lon="7.85693">
        <ele>133.108364</ele>
        <time>2021-06-20T08:35:11.999Z</time>
      </trkpt>
      <trkpt lat="48.6657" lon="7.85707">
        <ele>133.126302</ele>
        <time>2021-06-20T08:35:13.999Z</time>
      </trkpt>
      <trkpt lat="48.66578" lon="7.85721">
        <ele>133.143379</ele>
        <time>2021-06-20T08:35:15.999Z</time>
      </trkpt>
      <trkpt lat="48.66585" lon="7.85734">
        <ele>133.030852</ele>
        <time>2021-06-20T08:35:17.999Z</time>
      </trkpt>
      <trkpt lat="48.66594" lon="7.85749">
        <ele>132.895822</ele>
        <time>2021-06-20T08:35:19.999Z</time>
      </trkpt>
      <trkpt lat="48.66602" lon="7.85763">
        <ele>132.762717</ele>
        <time>2021-06-20T08:35:21.999Z</time>
      </trkpt>
      <trkpt lat="48.6661" lon="7.85776">
        <ele>132.639084</ele>
        <time>2021-06-20T08:35:23.999Z</time>
      </trkpt>
      <trkpt lat="48.66617" lon="7.85788">
        <ele>132.522462</ele>
        <time>2021-06-20T08:35:25.999Z</time>
      </trkpt>
      <trkpt lat="48.66623" lon="7.858">
        <ele>132.411851</ele>
        <time>2021-06-20T08:35:27.999Z</time>
      </trkpt>
      <trkpt lat="48.66629" lon="7.85812">
        <ele>132.30595</ele>
        <time>2021-06-20T08:35:29.999Z</time>
      </trkpt>
      <trkpt lat="48.66635" lon="7.85823">
        <ele>132.208529</ele>
        <time>2021-06-20T08:35:31.999Z</time>
      </trkpt>
      <trkpt lat="48.66643" lon="7.85831">
        <ele>132.103903</ele>
        <time>2021-06-20T08:35:36.999Z</time>
      </trkpt>
      <trkpt lat="48.66654" lon="7.85827">
        <ele>131.986029</ele>
        <time>2021-06-20T08:35:38.999Z</time>
      </trkpt>
      <trkpt lat="48.66665" lon="7.85827">
        <ele>131.858559</ele>
        <time>2021-06-20T08:35:40.999Z</time>
      </trkpt>
      <trkpt lat="48.66677" lon="7.85827">
        <ele>131.730028</ele>
        <time>2021-06-20T08:35:42.999Z</time>
      </trkpt>
      <trkpt lat="48.66691" lon="7.8583">
        <ele>131.578488</ele>
        <time>2021-06-20T08:35:44.999Z</time>
      </trkpt>
      <trkpt lat="48.66704" lon="7.85837">
        <ele>131.43049</ele>
        <time>2021-06-20T08:35:46.999Z</time>
      </trkpt>
      <trkpt lat="48.66716" lon="7.85846">
        <ele>131.294689</ele>
        <time>2021-06-20T08:35:48.999Z</time>
      </trkpt>
      <trkpt lat="48.66727" lon="7.85852">
        <ele>131.218496</ele>
        <time>2021-06-20T08:35:50.999Z</time>
      </trkpt>
      <trkpt lat="48.6674" lon="7.85858">
        <ele>131.218115</ele>
        <time>2021-06-20T08:35:52.999Z</time>
      </trkpt>
      <trkpt lat="48.66753" lon="7.85861">
        <ele>131.217715</ele>
        <time>2021-06-20T08:35:54.999Z</time>
      </trkpt>
      <trkpt lat="48.66767" lon="7.85861">
        <ele>131.217307</ele>
        <time>2021-06-20T08:35:56.999Z</time>
      </trkpt>
      <trkpt lat="48.6678" lon="7.8586">
        <ele>131.216923</ele>
        <time>2021-06-20T08:35:58.999Z</time>
      </trkpt>
      <trkpt lat="48.66794" lon="7.85859">
        <ele>131.216512</ele>
        <time>2021-06-20T08:36:00.999Z</time>
      </trkpt>
      <trkpt lat="48.66808" lon="7.85859">
        <ele>131.216131</ele>
        <time>2021-06-20T08:36:02.999Z</time>
      </trkpt>
      <trkpt lat="48.66821" lon="7.8586">
        <ele>131.215752</ele>
        <time>2021-06-20T08:36:04.999Z</time>
      </trkpt>
      <trkpt lat="48.66833" lon="7.85863">
        <ele>131.215399</ele>
        <time>2021-06-20T08:36:06.999Z</time>
      </trkpt>
      <trkpt lat="48.66845" lon="7.85867">
        <ele>131.21503</ele>
        <time>2021-06-20T08:36:08.999Z</time>
      </trkpt>
      <trkpt lat="48.66856" lon="7.85871">
        <ele>131.214688</ele>
        <time>2021-06-20T08:36:10.999Z</time>
      </trkpt>
      <trkpt lat="48.66868" lon="7.85874">
        <ele>131.214337</ele>
        <time>2021-06-20T08:36:12.999Z</time>
      </trkpt>
      <trkpt lat="48.6688" lon="7.85873">
        <ele>131.213988</ele>
        <time>2021-06-20T08:36:14.999Z</time>
      </trkpt>
      <trkpt lat="48.66893" lon="7.85865">
        <ele>131.213598</ele>
        <time>2021-06-20T08:36:16.999Z</time>
      </trkpt>
      <trkpt lat="48.66904" lon="7.85856">
        <ele>131.210754</ele>
        <time>2021-06-20T08:36:18.999Z</time>
      </trkpt>
      <trkpt lat="48.66915" lon="7.85847">
        <ele>131.205719</ele>
        <time>2021-06-20T08:36:20.999Z</time>
      </trkpt>
      <trkpt lat="48.66926" lon="7.85838">
        <ele>131.200577</ele>
        <time>2021-06-20T08:36:22.999Z</time>
      </trkpt>
      <trkpt lat="48.66938" lon="7.85831">
        <ele>131.195265</ele>
        <time>2021-06-20T08:36:24.999Z</time>
      </trkpt>
      <trkpt lat="48.6695" lon="7.85825">
        <ele>131.190156</ele>
        <time>2021-06-20T08:36:26.999Z</time>
      </trkpt>
      <trkpt lat="48.66963" lon="7.8582">
        <ele>131.184978</ele>
        <time>2021-06-20T08:36:28.999Z</time>
      </trkpt>
      <trkpt lat="48.66975" lon="7.85819">
        <ele>131.179985</ele>
        <time>2021-06-20T08:36:30.999Z</time>
      </trkpt>
      <trkpt lat="48.66987" lon="7.85825">
        <ele>131.174822</ele>
        <time>2021-06-20T08:36:32.999Z</time>
      </trkpt>
      <trkpt lat="48.66998" lon="7.85833">
        <ele>131.170006</ele>
        <time>2021-06-20T08:36:34.999Z</time>
      </trkpt>
      <trkpt lat="48.67009" lon="7.85841">
        <ele>131.164973</ele>
        <time>2021-06-20T08:36:36.999Z</time>
      </trkpt>
      <trkpt lat="48.67021" lon="7.85849">
        <ele>131.159826</ele>
        <time>2021-06-20T08:36:38.999Z</time>
      </trkpt>
      <trkpt lat="48.67032" lon="7.85853">
        <ele>131.155133</ele>
        <time>2021-06-20T08:36:40.999Z</time>
      </trkpt>
      <trkpt lat="48.67044" lon="7.85853">
        <ele>131.15006</ele>
        <time>2021-06-20T08:36:42.999Z</time>
      </trkpt>
      <trkpt lat="48.67057" lon="7.8585">
        <ele>131.144767</ele>
        <time>2021-06-20T08:36:44.999Z</time>
      </trkpt>
      <trkpt lat="48.6707" lon="7.85846">
        <ele>131.136873</ele>
        <time>2021-06-20T08:36:46.999Z</time>
      </trkpt>
      <trkpt lat="48.67082" lon="7.85839">
        <ele>131.113031</ele>
        <time>2021-06-20T08:36:48.999Z</time>
      </trkpt>
      <trkpt lat="48.67094" lon="7.85831">
        <ele>131.089088</ele>
        <time>2021-06-20T08:36:50.999Z</time>
      </trkpt>
      <trkpt lat="48.67105" lon="7.85822">
        <ele>131.065855</ele>
        <time>2021-06-20T08:36:52.999Z</time>
      </trkpt>
      <trkpt lat="48.67117" lon="7.85815">
        <ele>131.042725</ele>
        <time>2021-06-20T08:36:54.999Z</time>
      </trkpt>
      <trkpt lat="48.6713" lon="7.85813">
        <ele>131.019305</ele>
        <time>2021-06-20T08:36:56.999Z</time>
      </trkpt>
      <trkpt lat="48.67143" lon="7.85813">
        <ele>130.995953</ele>
        <time>2021-06-20T08:36:58.999Z</time>
      </trkpt>
      <trkpt lat="48.67155" lon="7.85812">
        <ele>130.973321</ele>
        <time>2021-06-20T08:37:00.999Z</time>
      </trkpt>
      <trkpt lat="48.67167" lon="7.85812">
        <ele>130.950879</ele>
        <time>2021-06-20T08:37:02.999Z</time>
      </trkpt>
      <trkpt lat="48.6718" lon="7.85811">
        <ele>130.9277</ele>
        <time>2021-06-20T08:37:04.999Z</time>
      </trkpt>
      <trkpt lat="48.67192" lon="7.8581">
        <ele>130.90523</ele>
        <time>2021-06-20T08:37:06.999Z</time>
      </trkpt>
      <trkpt lat="48.67206" lon="7.85809">
        <ele>130.880392</ele>
        <time>2021-06-20T08:37:08.999Z</time>
      </trkpt>
      <trkpt lat="48.67219" lon="7.85809">
        <ele>130.85613</ele>
        <time>2021-06-20T08:37:10.999Z</time>
      </trkpt>
      <trkpt lat="48.67232" lon="7.8581">
        <ele>130.832755</ele>
        <time>2021-06-20T08:37:12.999Z</time>
      </trkpt>
      <trkpt lat="48.67244" lon="7.8581">
        <ele>130.814334</ele>
        <time>2021-06-20T08:37:14.999Z</time>
      </trkpt>
      <trkpt lat="48.67257" lon="7.85811">
        <ele>130.842297</ele>
        <time>2021-06-20T08:37:16.999Z</time>
      </trkpt>
      <trkpt lat="48.6727" lon="7.85812">
        <ele>130.870736</ele>
        <time>2021-06-20T08:37:18.999Z</time>
      </trkpt>
      <trkpt lat="48.67284" lon="7.85814">
        <ele>130.900758</ele>
        <time>2021-06-20T08:37:20.999Z</time>
      </trkpt>
      <trkpt lat="48.67298" lon="7.85816">
        <ele>130.929956</ele>
        <time>2021-06-20T08:37:22.999Z</time>
      </trkpt>
      <trkpt lat="48.67311" lon="7.8582">
        <ele>130.958027</ele>
        <time>2021-06-20T08:37:24.999Z</time>
      </trkpt>
      <trkpt lat="48.67323" lon="7.85822">
        <ele>130.984739</ele>
        <time>2021-06-20T08:37:26.999Z</time>
      </trkpt>
      <trkpt lat="48.67335" lon="7.85824">
        <ele>131.010931</ele>
        <time>2021-06-20T08:37:28.999Z</time>
      </trkpt>
      <trkpt lat="48.67348" lon="7.85823">
        <ele>131.038963</ele>
        <time>2021-06-20T08:37:30.999Z</time>
      </trkpt>
      <trkpt lat="48.6736" lon="7.85818">
        <ele>131.065505</ele>
        <time>2021-06-20T08:37:32.999Z</time>
      </trkpt>
      <trkpt lat="48.6737" lon="7.8581">
        <ele>131.090772</ele>
        <time>2021-06-20T08:37:34.999Z</time>
      </trkpt>
      <trkpt lat="48.67382" lon="7.85802">
        <ele>131.117403</ele>
        <time>2021-06-20T08:37:36.999Z</time>
      </trkpt>
      <trkpt lat="48.67393" lon="7.85792">
        <ele>131.145091</ele>
        <time>2021-06-20T08:37:38.999Z</time>
      </trkpt>
      <trkpt lat="48.67403" lon="7.8578">
        <ele>131.171994</ele>
        <time>2021-06-20T08:37:40.999Z</time>
      </trkpt>
      <trkpt lat="48.67413" lon="7.85769">
        <ele>131.198097</ele>
        <time>2021-06-20T08:37:42.999Z</time>
      </trkpt>
      <trkpt lat="48.67423" lon="7.85758">
        <ele>131.152008</ele>
        <time>2021-06-20T08:37:44.999Z</time>
      </trkpt>
      <trkpt lat="48.67434" lon="7.85748">
        <ele>131.106314</ele>
        <time>2021-06-20T08:37:46.999Z</time>
      </trkpt>
      <trkpt lat="48.67444" lon="7.85739">
        <ele>131.063172</ele>
        <time>2021-06-20T08:37:48.999Z</time>
      </trkpt>
      <trkpt lat="48.67455" lon="7.8573">
        <ele>131.018458</ele>
        <time>2021-06-20T08:37:50.999Z</time>
      </trkpt>
      <trkpt lat="48.67465" lon="7.85719">
        <ele>130.974971</ele>
        <time>2021-06-20T08:37:52.999Z</time>
      </trkpt>
      <trkpt lat="48.67475" lon="7.85722">
        <ele>130.93755</ele>
        <time>2021-06-20T08:37:54.999Z</time>
      </trkpt>
      <trkpt lat="48.6748" lon="7.85743">
        <ele>130.885016</ele>
        <time>2021-06-20T08:37:56.999Z</time>
      </trkpt>
      <trkpt lat="48.67478" lon="7.8576">
        <ele>130.842154</ele>
        <time>2021-06-20T08:37:58.999Z</time>
      </trkpt>
      <trkpt lat="48.67474" lon="7.85777">
        <ele>130.800751</ele>
        <time>2021-06-20T08:38:00.999Z</time>
      </trkpt>
      <trkpt lat="48.67473" lon="7.85795">
        <ele>130.756696</ele>
        <time>2021-06-20T08:38:02.999Z</time>
      </trkpt>
      <trkpt lat="48.67472" lon="7.85814">
        <ele>130.711508</ele>
        <time>2021-06-20T08:38:04.999Z</time>
      </trkpt>
      <trkpt lat="48.6747" lon="7.85834">
        <ele>130.663286</ele>
        <time>2021-06-20T08:38:06.999Z</time>
      </trkpt>
      <trkpt lat="48.67468" lon="7.85853">
        <ele>130.616967</ele>
        <time>2021-06-20T08:38:08.999Z</time>
      </trkpt>
      <trkpt lat="48.67467" lon="7.85871">
        <ele>130.573387</ele>
        <time>2021-06-20T08:38:10.999Z</time>
      </trkpt>
      <trkpt lat="48.67462" lon="7.85891">
        <ele>130.558288</ele>
        <time>2021-06-20T08:38:12.999Z</time>
      </trkpt>
      <trkpt lat="48.67459" lon="7.8591">
        <ele>130.578031</ele>
        <time>2021-06-20T08:38:14.999Z</time>
      </trkpt>
      <trkpt lat="48.67454" lon="7.85929">
        <ele>130.597974</ele>
        <time>2021-06-20T08:38:16.999Z</time>
      </trkpt>
      <trkpt lat="48.67449" lon="7.85947">
        <ele>130.617437</ele>
        <time>2021-06-20T08:38:18.999Z</time>
      </trkpt>
      <trkpt lat="48.67445" lon="7.85966">
        <ele>130.637117</ele>
        <time>2021-06-20T08:38:20.999Z</time>
      </trkpt>
      <trkpt lat="48.67441" lon="7.85983">
        <ele>130.655414</ele>
        <time>2021-06-20T08:38:22.999Z</time>
      </trkpt>
      <trkpt lat="48.6744" lon="7.86003">
        <ele>130.675303</ele>
        <time>2021-06-20T08:38:24.999Z</time>
      </trkpt>
      <trkpt lat="48.67447" lon="7.86019">
        <ele>130.694303</ele>
        <time>2021-06-20T08:38:26.999Z</time>
      </trkpt>
      <trkpt lat="48.67456" lon="7.86036">
        <ele>130.71551</ele>
        <time>2021-06-20T08:38:28.999Z</time>
      </trkpt>
      <trkpt lat="48.67463" lon="7.86052">
        <ele>130.735087</ele>
        <time>2021-06-20T08:38:30.999Z</time>
      </trkpt>
      <trkpt lat="48.6747" lon="7.86068">
        <ele>130.753917</ele>
        <time>2021-06-20T08:38:32.999Z</time>
      </trkpt>
      <trkpt lat="48.67477" lon="7.86084">
        <ele>130.773162</ele>
        <time>2021-06-20T08:38:34.999Z</time>
      </trkpt>
      <trkpt lat="48.67484" lon="7.861">
        <ele>130.791991</ele>
        <time>2021-06-20T08:38:36.999Z</time>
      </trkpt>
      <trkpt lat="48.67491" lon="7.86114">
        <ele>130.809866</ele>
        <time>2021-06-20T08:38:38.999Z</time>
      </trkpt>
      <trkpt lat="48.67494" lon="7.86129">
        <ele>130.818938</ele>
        <time>2021-06-20T08:38:40.999Z</time>
      </trkpt>
      <trkpt lat="48.67488" lon="7.8614">
        <ele>130.818938</ele>
        <time>2021-06-20T08:38:42.999Z</time>
      </trkpt>
      <trkpt lat="48.67479" lon="7.86146">
        <ele>130.818938</ele>
        <time>2021-06-20T08:38:44.999Z</time>
      </trkpt>
      <trkpt lat="48.6747" lon="7.86151">
        <ele>130.818938</ele>
        <time>2021-06-20T08:38:46.999Z</time>
      </trkpt>
      <trkpt lat="48.67463" lon="7.8616">
        <ele>130.818938</ele>
        <time>2021-06-20T08:38:48.999Z</time>
      </trkpt>
      <trkpt lat="48.67456" lon="7.8617">
        <ele>130.818938</ele>
        <time>2021-06-20T08:38:50.999Z</time>
      </trkpt>
      <trkpt lat="48.67445" lon="7.86178">
        <ele>130.818938</ele>
        <time>2021-06-20T08:38:53.999Z</time>
      </trkpt>
      <trkpt lat="48.67434" lon="7.86184">
        <ele>130.818938</ele>
        <time>2021-06-20T08:38:56.999Z</time>
      </trkpt>
      <trkpt lat="48.67441" lon="7.86195">
        <ele>130.818938</ele>
        <time>2021-06-20T08:38:58.999Z</time>
      </trkpt>
      <trkpt lat="48.67449" lon="7.86182">
        <ele>130.818938</ele>
        <time>2021-06-20T08:39:01.999Z</time>
      </trkpt>
      <trkpt lat="48.67455" lon="7.86171">
        <ele>130.818938</ele>
        <time>2021-06-20T08:39:04.999Z</time>
      </trkpt>
      <trkpt lat="48.67462" lon="7.86164">
        <ele>130.818938</ele>
        <time>2021-06-20T08:39:07.999Z</time>
      </trkpt>
      <trkpt lat="48.6747" lon="7.86152">
        <ele>130.818938</ele>
        <time>2021-06-20T08:39:11.999Z</time>
      </trkpt>
      <trkpt lat="48.67475" lon="7.8614">
        <ele>130.818938</ele>
        <time>2021-06-20T08:39:17.999Z</time>
      </trkpt>
    </trkseg>
  </trk>
</gpx>